<?xml version="1.0" encoding="UTF-8" standalone="no" ?>
<gpx xmlns="http://www.topografix.com/GPX/1/1" xmlns:xsi="http://www.w3.org/2001/XMLSchema-instance" xsi:schemaLocation="http://www.topografix.com/GPX/1/1 http://www.topografix.com/GPX/1/1/gpx.xsd" version="1.1" creator="VisuGPX - https://www.visugpx.com">
  <metadata>
    <name>Pornichet 03/04/2022</name>
    <desc><![CDATA[Sortie dimanche 03 avril 2022]]></desc>
  </metadata>
  <trk>
    <name><![CDATA[Pornichet Cyclisme]]></name>
    <trkseg>
      <trkpt lat="47.26406" lon="-2.31563">
        <ele>29.60000038147</ele>
        <time>2022-04-03T06:59:38.000Z</time>
      </trkpt>
      <trkpt lat="47.26407" lon="-2.31575">
        <ele>29.60000038147</ele>
        <time>2022-04-03T06:59:41.000Z</time>
      </trkpt>
      <trkpt lat="47.26407" lon="-2.31578">
        <ele>29.200000762939</ele>
        <time>2022-04-03T06:59:42.000Z</time>
      </trkpt>
      <trkpt lat="47.26408" lon="-2.31583">
        <ele>29.200000762939</ele>
        <time>2022-04-03T06:59:44.000Z</time>
      </trkpt>
      <trkpt lat="47.26409" lon="-2.3159">
        <ele>29.200000762939</ele>
        <time>2022-04-03T06:59:46.000Z</time>
      </trkpt>
      <trkpt lat="47.26404" lon="-2.31598">
        <ele>29.200000762939</ele>
        <time>2022-04-03T06:59:49.000Z</time>
      </trkpt>
      <trkpt lat="47.2639" lon="-2.31598">
        <ele>29.200000762939</ele>
        <time>2022-04-03T06:59:53.000Z</time>
      </trkpt>
      <trkpt lat="47.26378" lon="-2.31598">
        <ele>29.200000762939</ele>
        <time>2022-04-03T06:59:56.000Z</time>
      </trkpt>
      <trkpt lat="47.26369" lon="-2.31599">
        <ele>29.200000762939</ele>
        <time>2022-04-03T06:59:58.000Z</time>
      </trkpt>
      <trkpt lat="47.26364" lon="-2.316">
        <ele>29.200000762939</ele>
        <time>2022-04-03T06:59:59.000Z</time>
      </trkpt>
      <trkpt lat="47.26332" lon="-2.3161">
        <ele>28.799999237061</ele>
        <time>2022-04-03T07:00:06.000Z</time>
      </trkpt>
      <trkpt lat="47.26329" lon="-2.31611">
        <ele>28.39999961853</ele>
        <time>2022-04-03T07:00:07.000Z</time>
      </trkpt>
      <trkpt lat="47.26327" lon="-2.31612">
        <ele>28</ele>
        <time>2022-04-03T07:00:08.000Z</time>
      </trkpt>
      <trkpt lat="47.26326" lon="-2.31613">
        <ele>27.39999961853</ele>
        <time>2022-04-03T07:00:09.000Z</time>
      </trkpt>
      <trkpt lat="47.26325" lon="-2.31613">
        <ele>27</ele>
        <time>2022-04-03T07:00:10.000Z</time>
      </trkpt>
      <trkpt lat="47.26324" lon="-2.31612">
        <ele>27</ele>
        <time>2022-04-03T07:00:11.000Z</time>
      </trkpt>
      <trkpt lat="47.26324" lon="-2.31608">
        <ele>27</ele>
        <time>2022-04-03T07:00:13.000Z</time>
      </trkpt>
      <trkpt lat="47.26323" lon="-2.31595">
        <ele>27</ele>
        <time>2022-04-03T07:00:18.000Z</time>
      </trkpt>
      <trkpt lat="47.2632" lon="-2.31593">
        <ele>27</ele>
        <time>2022-04-03T07:00:21.000Z</time>
      </trkpt>
      <trkpt lat="47.26319" lon="-2.31593">
        <ele>27</ele>
        <time>2022-04-03T07:00:22.000Z</time>
      </trkpt>
      <trkpt lat="47.26318" lon="-2.31594">
        <ele>27</ele>
        <time>2022-04-03T07:00:23.000Z</time>
      </trkpt>
      <trkpt lat="47.26318" lon="-2.31596">
        <ele>27</ele>
        <time>2022-04-03T07:00:26.000Z</time>
      </trkpt>
      <trkpt lat="47.2632" lon="-2.31594">
        <ele>27</ele>
        <time>2022-04-03T07:00:36.000Z</time>
      </trkpt>
      <trkpt lat="47.26322" lon="-2.31594">
        <ele>27</ele>
        <time>2022-04-03T07:00:38.000Z</time>
      </trkpt>
      <trkpt lat="47.26324" lon="-2.31597">
        <ele>27</ele>
        <time>2022-04-03T07:00:40.000Z</time>
      </trkpt>
      <trkpt lat="47.26325" lon="-2.31598">
        <ele>27</ele>
        <time>2022-04-03T07:00:41.000Z</time>
      </trkpt>
      <trkpt lat="47.26325" lon="-2.31613">
        <ele>27</ele>
        <time>2022-04-03T07:00:46.000Z</time>
      </trkpt>
      <trkpt lat="47.26324" lon="-2.31617">
        <ele>27</ele>
        <time>2022-04-03T07:00:47.000Z</time>
      </trkpt>
      <trkpt lat="47.26322" lon="-2.31636">
        <ele>27</ele>
        <time>2022-04-03T07:00:51.000Z</time>
      </trkpt>
      <trkpt lat="47.26329" lon="-2.31677">
        <ele>27</ele>
        <time>2022-04-03T07:00:59.000Z</time>
      </trkpt>
      <trkpt lat="47.26332" lon="-2.31701">
        <ele>27</ele>
        <time>2022-04-03T07:01:04.000Z</time>
      </trkpt>
      <trkpt lat="47.26329" lon="-2.31704">
        <ele>27</ele>
        <time>2022-04-03T07:01:05.000Z</time>
      </trkpt>
      <trkpt lat="47.26317" lon="-2.31709">
        <ele>27</ele>
        <time>2022-04-03T07:01:08.000Z</time>
      </trkpt>
      <trkpt lat="47.26305" lon="-2.31717">
        <ele>26.60000038147</ele>
        <time>2022-04-03T07:01:11.000Z</time>
      </trkpt>
      <trkpt lat="47.26301" lon="-2.31722">
        <ele>26.200000762939</ele>
        <time>2022-04-03T07:01:12.000Z</time>
      </trkpt>
      <trkpt lat="47.263" lon="-2.31728">
        <ele>25.799999237061</ele>
        <time>2022-04-03T07:01:13.000Z</time>
      </trkpt>
      <trkpt lat="47.263" lon="-2.31734">
        <ele>25</ele>
        <time>2022-04-03T07:01:14.000Z</time>
      </trkpt>
      <trkpt lat="47.26301" lon="-2.31746">
        <ele>25</ele>
        <time>2022-04-03T07:01:16.000Z</time>
      </trkpt>
      <trkpt lat="47.26303" lon="-2.31757">
        <ele>25</ele>
        <time>2022-04-03T07:01:18.000Z</time>
      </trkpt>
      <trkpt lat="47.26306" lon="-2.31781">
        <ele>25</ele>
        <time>2022-04-03T07:01:22.000Z</time>
      </trkpt>
      <trkpt lat="47.26305" lon="-2.31812">
        <ele>25</ele>
        <time>2022-04-03T07:01:27.000Z</time>
      </trkpt>
      <trkpt lat="47.26305" lon="-2.31818">
        <ele>25</ele>
        <time>2022-04-03T07:01:28.000Z</time>
      </trkpt>
      <trkpt lat="47.263" lon="-2.31858">
        <ele>25</ele>
        <time>2022-04-03T07:01:34.000Z</time>
      </trkpt>
      <trkpt lat="47.26294" lon="-2.31893">
        <ele>25</ele>
        <time>2022-04-03T07:01:40.000Z</time>
      </trkpt>
      <trkpt lat="47.26277" lon="-2.31911">
        <ele>25</ele>
        <time>2022-04-03T07:01:46.000Z</time>
      </trkpt>
      <trkpt lat="47.26274" lon="-2.31914">
        <ele>25</ele>
        <time>2022-04-03T07:01:47.000Z</time>
      </trkpt>
      <trkpt lat="47.26262" lon="-2.31934">
        <ele>25</ele>
        <time>2022-04-03T07:01:52.000Z</time>
      </trkpt>
      <trkpt lat="47.26245" lon="-2.31966">
        <ele>25</ele>
        <time>2022-04-03T07:01:59.000Z</time>
      </trkpt>
      <trkpt lat="47.26239" lon="-2.31974">
        <ele>25</ele>
        <time>2022-04-03T07:02:02.000Z</time>
      </trkpt>
      <trkpt lat="47.26236" lon="-2.31975">
        <ele>25</ele>
        <time>2022-04-03T07:02:03.000Z</time>
      </trkpt>
      <trkpt lat="47.26225" lon="-2.3198">
        <ele>25</ele>
        <time>2022-04-03T07:02:07.000Z</time>
      </trkpt>
      <trkpt lat="47.26208" lon="-2.31996">
        <ele>25</ele>
        <time>2022-04-03T07:02:13.000Z</time>
      </trkpt>
      <trkpt lat="47.26202" lon="-2.32002">
        <ele>25</ele>
        <time>2022-04-03T07:02:16.000Z</time>
      </trkpt>
      <trkpt lat="47.26201" lon="-2.32005">
        <ele>25</ele>
        <time>2022-04-03T07:02:17.000Z</time>
      </trkpt>
      <trkpt lat="47.26196" lon="-2.32018">
        <ele>25</ele>
        <time>2022-04-03T07:02:21.000Z</time>
      </trkpt>
      <trkpt lat="47.26193" lon="-2.3202">
        <ele>25</ele>
        <time>2022-04-03T07:02:23.000Z</time>
      </trkpt>
      <trkpt lat="47.2618" lon="-2.32021">
        <ele>25</ele>
        <time>2022-04-03T07:02:28.000Z</time>
      </trkpt>
      <trkpt lat="47.26176" lon="-2.32023">
        <ele>25</ele>
        <time>2022-04-03T07:02:29.000Z</time>
      </trkpt>
      <trkpt lat="47.26159" lon="-2.32034">
        <ele>25</ele>
        <time>2022-04-03T07:02:34.000Z</time>
      </trkpt>
      <trkpt lat="47.26152" lon="-2.32055">
        <ele>25</ele>
        <time>2022-04-03T07:02:38.000Z</time>
      </trkpt>
      <trkpt lat="47.26146" lon="-2.32073">
        <ele>25</ele>
        <time>2022-04-03T07:02:41.000Z</time>
      </trkpt>
      <trkpt lat="47.2614" lon="-2.32091">
        <ele>25</ele>
        <time>2022-04-03T07:02:44.000Z</time>
      </trkpt>
      <trkpt lat="47.26135" lon="-2.32109">
        <ele>25</ele>
        <time>2022-04-03T07:02:47.000Z</time>
      </trkpt>
      <trkpt lat="47.26126" lon="-2.32139">
        <ele>25</ele>
        <time>2022-04-03T07:02:52.000Z</time>
      </trkpt>
      <trkpt lat="47.26109" lon="-2.32185">
        <ele>25</ele>
        <time>2022-04-03T07:03:00.000Z</time>
      </trkpt>
      <trkpt lat="47.26092" lon="-2.32219">
        <ele>25</ele>
        <time>2022-04-03T07:03:06.000Z</time>
      </trkpt>
      <trkpt lat="47.26089" lon="-2.32223">
        <ele>25</ele>
        <time>2022-04-03T07:03:07.000Z</time>
      </trkpt>
      <trkpt lat="47.26079" lon="-2.32235">
        <ele>25</ele>
        <time>2022-04-03T07:03:10.000Z</time>
      </trkpt>
      <trkpt lat="47.26072" lon="-2.32244">
        <ele>25</ele>
        <time>2022-04-03T07:03:12.000Z</time>
      </trkpt>
      <trkpt lat="47.26035" lon="-2.32286">
        <ele>25</ele>
        <time>2022-04-03T07:03:22.000Z</time>
      </trkpt>
      <trkpt lat="47.25999" lon="-2.32331">
        <ele>25</ele>
        <time>2022-04-03T07:03:32.000Z</time>
      </trkpt>
      <trkpt lat="47.25966" lon="-2.32373">
        <ele>25</ele>
        <time>2022-04-03T07:03:41.000Z</time>
      </trkpt>
      <trkpt lat="47.25942" lon="-2.32405">
        <ele>25</ele>
        <time>2022-04-03T07:03:48.000Z</time>
      </trkpt>
      <trkpt lat="47.25921" lon="-2.32433">
        <ele>25</ele>
        <time>2022-04-03T07:03:54.000Z</time>
      </trkpt>
      <trkpt lat="47.25917" lon="-2.32437">
        <ele>25</ele>
        <time>2022-04-03T07:03:55.000Z</time>
      </trkpt>
      <trkpt lat="47.25893" lon="-2.32466">
        <ele>25</ele>
        <time>2022-04-03T07:04:02.000Z</time>
      </trkpt>
      <trkpt lat="47.2588" lon="-2.32472">
        <ele>25</ele>
        <time>2022-04-03T07:04:05.000Z</time>
      </trkpt>
      <trkpt lat="47.25867" lon="-2.32474">
        <ele>25</ele>
        <time>2022-04-03T07:04:08.000Z</time>
      </trkpt>
      <trkpt lat="47.25837" lon="-2.32472">
        <ele>25</ele>
        <time>2022-04-03T07:04:14.000Z</time>
      </trkpt>
      <trkpt lat="47.25833" lon="-2.32469">
        <ele>25</ele>
        <time>2022-04-03T07:04:15.000Z</time>
      </trkpt>
      <trkpt lat="47.25811" lon="-2.32458">
        <ele>25</ele>
        <time>2022-04-03T07:04:20.000Z</time>
      </trkpt>
      <trkpt lat="47.25803" lon="-2.32455">
        <ele>25</ele>
        <time>2022-04-03T07:04:22.000Z</time>
      </trkpt>
      <trkpt lat="47.25791" lon="-2.32457">
        <ele>25</ele>
        <time>2022-04-03T07:04:25.000Z</time>
      </trkpt>
      <trkpt lat="47.25783" lon="-2.32453">
        <ele>25</ele>
        <time>2022-04-03T07:04:27.000Z</time>
      </trkpt>
      <trkpt lat="47.25777" lon="-2.32444">
        <ele>25</ele>
        <time>2022-04-03T07:04:29.000Z</time>
      </trkpt>
      <trkpt lat="47.2576" lon="-2.32425">
        <ele>25</ele>
        <time>2022-04-03T07:04:34.000Z</time>
      </trkpt>
      <trkpt lat="47.25745" lon="-2.32424">
        <ele>25</ele>
        <time>2022-04-03T07:04:37.000Z</time>
      </trkpt>
      <trkpt lat="47.25739" lon="-2.32424">
        <ele>25</ele>
        <time>2022-04-03T07:04:38.000Z</time>
      </trkpt>
      <trkpt lat="47.25704" lon="-2.32422">
        <ele>25</ele>
        <time>2022-04-03T07:04:45.000Z</time>
      </trkpt>
      <trkpt lat="47.25668" lon="-2.3242">
        <ele>25</ele>
        <time>2022-04-03T07:04:53.000Z</time>
      </trkpt>
      <trkpt lat="47.25661" lon="-2.32434">
        <ele>25</ele>
        <time>2022-04-03T07:04:56.000Z</time>
      </trkpt>
      <trkpt lat="47.25664" lon="-2.32453">
        <ele>25</ele>
        <time>2022-04-03T07:04:59.000Z</time>
      </trkpt>
      <trkpt lat="47.25667" lon="-2.32464">
        <ele>25</ele>
        <time>2022-04-03T07:05:01.000Z</time>
      </trkpt>
      <trkpt lat="47.25675" lon="-2.32485">
        <ele>25.39999961853</ele>
        <time>2022-04-03T07:05:05.000Z</time>
      </trkpt>
      <trkpt lat="47.25676" lon="-2.3249">
        <ele>25.799999237061</ele>
        <time>2022-04-03T07:05:06.000Z</time>
      </trkpt>
      <trkpt lat="47.25678" lon="-2.32496">
        <ele>26.200000762939</ele>
        <time>2022-04-03T07:05:07.000Z</time>
      </trkpt>
      <trkpt lat="47.2568" lon="-2.32501">
        <ele>26.60000038147</ele>
        <time>2022-04-03T07:05:08.000Z</time>
      </trkpt>
      <trkpt lat="47.25681" lon="-2.32507">
        <ele>27</ele>
        <time>2022-04-03T07:05:09.000Z</time>
      </trkpt>
      <trkpt lat="47.25688" lon="-2.32528">
        <ele>27</ele>
        <time>2022-04-03T07:05:13.000Z</time>
      </trkpt>
      <trkpt lat="47.25702" lon="-2.32567">
        <ele>27.39999961853</ele>
        <time>2022-04-03T07:05:21.000Z</time>
      </trkpt>
      <trkpt lat="47.25703" lon="-2.32572">
        <ele>27.799999237061</ele>
        <time>2022-04-03T07:05:22.000Z</time>
      </trkpt>
      <trkpt lat="47.25705" lon="-2.32577">
        <ele>28.799999237061</ele>
        <time>2022-04-03T07:05:23.000Z</time>
      </trkpt>
      <trkpt lat="47.25706" lon="-2.32582">
        <ele>29.200000762939</ele>
        <time>2022-04-03T07:05:24.000Z</time>
      </trkpt>
      <trkpt lat="47.25711" lon="-2.32609">
        <ele>29.200000762939</ele>
        <time>2022-04-03T07:05:29.000Z</time>
      </trkpt>
      <trkpt lat="47.25704" lon="-2.32622">
        <ele>29.200000762939</ele>
        <time>2022-04-03T07:05:32.000Z</time>
      </trkpt>
      <trkpt lat="47.25686" lon="-2.32632">
        <ele>29.200000762939</ele>
        <time>2022-04-03T07:05:37.000Z</time>
      </trkpt>
      <trkpt lat="47.25682" lon="-2.32633">
        <ele>29.200000762939</ele>
        <time>2022-04-03T07:05:38.000Z</time>
      </trkpt>
      <trkpt lat="47.25664" lon="-2.32642">
        <ele>29.60000038147</ele>
        <time>2022-04-03T07:05:43.000Z</time>
      </trkpt>
      <trkpt lat="47.25661" lon="-2.32643">
        <ele>30</ele>
        <time>2022-04-03T07:05:44.000Z</time>
      </trkpt>
      <trkpt lat="47.25657" lon="-2.32645">
        <ele>30.39999961853</ele>
        <time>2022-04-03T07:05:45.000Z</time>
      </trkpt>
      <trkpt lat="47.25653" lon="-2.32646">
        <ele>30.799999237061</ele>
        <time>2022-04-03T07:05:46.000Z</time>
      </trkpt>
      <trkpt lat="47.2565" lon="-2.32648">
        <ele>31.39999961853</ele>
        <time>2022-04-03T07:05:47.000Z</time>
      </trkpt>
      <trkpt lat="47.25622" lon="-2.3266">
        <ele>31.39999961853</ele>
        <time>2022-04-03T07:05:55.000Z</time>
      </trkpt>
      <trkpt lat="47.25611" lon="-2.32665">
        <ele>31.39999961853</ele>
        <time>2022-04-03T07:05:58.000Z</time>
      </trkpt>
      <trkpt lat="47.25601" lon="-2.32669">
        <ele>31.39999961853</ele>
        <time>2022-04-03T07:06:01.000Z</time>
      </trkpt>
      <trkpt lat="47.25597" lon="-2.32671">
        <ele>31.799999237061</ele>
        <time>2022-04-03T07:06:02.000Z</time>
      </trkpt>
      <trkpt lat="47.25593" lon="-2.32672">
        <ele>32.200000762939</ele>
        <time>2022-04-03T07:06:03.000Z</time>
      </trkpt>
      <trkpt lat="47.25589" lon="-2.32674">
        <ele>32.599998474121</ele>
        <time>2022-04-03T07:06:04.000Z</time>
      </trkpt>
      <trkpt lat="47.25585" lon="-2.32675">
        <ele>33</ele>
        <time>2022-04-03T07:06:05.000Z</time>
      </trkpt>
      <trkpt lat="47.25581" lon="-2.32678">
        <ele>33.400001525879</ele>
        <time>2022-04-03T07:06:06.000Z</time>
      </trkpt>
      <trkpt lat="47.25573" lon="-2.32681">
        <ele>33.400001525879</ele>
        <time>2022-04-03T07:06:08.000Z</time>
      </trkpt>
      <trkpt lat="47.25539" lon="-2.32694">
        <ele>33.400001525879</ele>
        <time>2022-04-03T07:06:16.000Z</time>
      </trkpt>
      <trkpt lat="47.25522" lon="-2.327">
        <ele>33.400001525879</ele>
        <time>2022-04-03T07:06:20.000Z</time>
      </trkpt>
      <trkpt lat="47.25514" lon="-2.32701">
        <ele>33.400001525879</ele>
        <time>2022-04-03T07:06:22.000Z</time>
      </trkpt>
      <trkpt lat="47.25492" lon="-2.32704">
        <ele>33.400001525879</ele>
        <time>2022-04-03T07:06:27.000Z</time>
      </trkpt>
      <trkpt lat="47.25484" lon="-2.32707">
        <ele>33.400001525879</ele>
        <time>2022-04-03T07:06:29.000Z</time>
      </trkpt>
      <trkpt lat="47.25469" lon="-2.32723">
        <ele>33.400001525879</ele>
        <time>2022-04-03T07:06:33.000Z</time>
      </trkpt>
      <trkpt lat="47.25466" lon="-2.32727">
        <ele>33.400001525879</ele>
        <time>2022-04-03T07:06:34.000Z</time>
      </trkpt>
      <trkpt lat="47.2544" lon="-2.32766">
        <ele>33.400001525879</ele>
        <time>2022-04-03T07:06:42.000Z</time>
      </trkpt>
      <trkpt lat="47.25434" lon="-2.32777">
        <ele>33.400001525879</ele>
        <time>2022-04-03T07:06:44.000Z</time>
      </trkpt>
      <trkpt lat="47.25424" lon="-2.32792">
        <ele>33.400001525879</ele>
        <time>2022-04-03T07:06:47.000Z</time>
      </trkpt>
      <trkpt lat="47.25421" lon="-2.32798">
        <ele>33.400001525879</ele>
        <time>2022-04-03T07:06:48.000Z</time>
      </trkpt>
      <trkpt lat="47.2541" lon="-2.32816">
        <ele>33</ele>
        <time>2022-04-03T07:06:51.000Z</time>
      </trkpt>
      <trkpt lat="47.25405" lon="-2.32821">
        <ele>32.400001525879</ele>
        <time>2022-04-03T07:06:52.000Z</time>
      </trkpt>
      <trkpt lat="47.25401" lon="-2.32827">
        <ele>32</ele>
        <time>2022-04-03T07:06:53.000Z</time>
      </trkpt>
      <trkpt lat="47.25396" lon="-2.32833">
        <ele>31.60000038147</ele>
        <time>2022-04-03T07:06:54.000Z</time>
      </trkpt>
      <trkpt lat="47.25392" lon="-2.32838">
        <ele>31.200000762939</ele>
        <time>2022-04-03T07:06:55.000Z</time>
      </trkpt>
      <trkpt lat="47.2537" lon="-2.32862">
        <ele>31.200000762939</ele>
        <time>2022-04-03T07:07:00.000Z</time>
      </trkpt>
      <trkpt lat="47.25353" lon="-2.3288">
        <ele>31.200000762939</ele>
        <time>2022-04-03T07:07:04.000Z</time>
      </trkpt>
      <trkpt lat="47.25341" lon="-2.32892">
        <ele>31.200000762939</ele>
        <time>2022-04-03T07:07:07.000Z</time>
      </trkpt>
      <trkpt lat="47.25328" lon="-2.32903">
        <ele>31.200000762939</ele>
        <time>2022-04-03T07:07:10.000Z</time>
      </trkpt>
      <trkpt lat="47.2532" lon="-2.32911">
        <ele>31.200000762939</ele>
        <time>2022-04-03T07:07:12.000Z</time>
      </trkpt>
      <trkpt lat="47.25316" lon="-2.32915">
        <ele>31.200000762939</ele>
        <time>2022-04-03T07:07:13.000Z</time>
      </trkpt>
      <trkpt lat="47.25309" lon="-2.3294">
        <ele>31.200000762939</ele>
        <time>2022-04-03T07:07:17.000Z</time>
      </trkpt>
      <trkpt lat="47.25315" lon="-2.32967">
        <ele>31.200000762939</ele>
        <time>2022-04-03T07:07:21.000Z</time>
      </trkpt>
      <trkpt lat="47.25331" lon="-2.3301">
        <ele>31.200000762939</ele>
        <time>2022-04-03T07:07:28.000Z</time>
      </trkpt>
      <trkpt lat="47.25348" lon="-2.3305">
        <ele>31.200000762939</ele>
        <time>2022-04-03T07:07:35.000Z</time>
      </trkpt>
      <trkpt lat="47.25363" lon="-2.33086">
        <ele>31.200000762939</ele>
        <time>2022-04-03T07:07:42.000Z</time>
      </trkpt>
      <trkpt lat="47.25365" lon="-2.33091">
        <ele>30.799999237061</ele>
        <time>2022-04-03T07:07:43.000Z</time>
      </trkpt>
      <trkpt lat="47.25366" lon="-2.33093">
        <ele>30.39999961853</ele>
        <time>2022-04-03T07:07:44.000Z</time>
      </trkpt>
      <trkpt lat="47.25368" lon="-2.33096">
        <ele>30</ele>
        <time>2022-04-03T07:07:45.000Z</time>
      </trkpt>
      <trkpt lat="47.25369" lon="-2.33098">
        <ele>29.60000038147</ele>
        <time>2022-04-03T07:07:46.000Z</time>
      </trkpt>
      <trkpt lat="47.25369" lon="-2.33099">
        <ele>29.200000762939</ele>
        <time>2022-04-03T07:07:47.000Z</time>
      </trkpt>
      <trkpt lat="47.25369" lon="-2.33098">
        <ele>29.200000762939</ele>
        <time>2022-04-03T07:07:48.000Z</time>
      </trkpt>
      <trkpt lat="47.2537" lon="-2.33103">
        <ele>29.200000762939</ele>
        <time>2022-04-03T07:12:37.000Z</time>
      </trkpt>
      <trkpt lat="47.25371" lon="-2.33105">
        <ele>29.200000762939</ele>
        <time>2022-04-03T07:12:38.000Z</time>
      </trkpt>
      <trkpt lat="47.25379" lon="-2.33124">
        <ele>29.200000762939</ele>
        <time>2022-04-03T07:12:44.000Z</time>
      </trkpt>
      <trkpt lat="47.2539" lon="-2.33145">
        <ele>29.200000762939</ele>
        <time>2022-04-03T07:12:50.000Z</time>
      </trkpt>
      <trkpt lat="47.25404" lon="-2.33175">
        <ele>29.200000762939</ele>
        <time>2022-04-03T07:12:57.000Z</time>
      </trkpt>
      <trkpt lat="47.25421" lon="-2.33214">
        <ele>29.200000762939</ele>
        <time>2022-04-03T07:13:06.000Z</time>
      </trkpt>
      <trkpt lat="47.25437" lon="-2.33252">
        <ele>29.200000762939</ele>
        <time>2022-04-03T07:13:14.000Z</time>
      </trkpt>
      <trkpt lat="47.25443" lon="-2.33267">
        <ele>29.200000762939</ele>
        <time>2022-04-03T07:13:17.000Z</time>
      </trkpt>
      <trkpt lat="47.2545" lon="-2.33284">
        <ele>29.200000762939</ele>
        <time>2022-04-03T07:13:20.000Z</time>
      </trkpt>
      <trkpt lat="47.25449" lon="-2.33308">
        <ele>29.200000762939</ele>
        <time>2022-04-03T07:13:24.000Z</time>
      </trkpt>
      <trkpt lat="47.25447" lon="-2.33314">
        <ele>29.200000762939</ele>
        <time>2022-04-03T07:13:25.000Z</time>
      </trkpt>
      <trkpt lat="47.25433" lon="-2.3335">
        <ele>29.200000762939</ele>
        <time>2022-04-03T07:13:31.000Z</time>
      </trkpt>
      <trkpt lat="47.25433" lon="-2.33384">
        <ele>29.200000762939</ele>
        <time>2022-04-03T07:13:36.000Z</time>
      </trkpt>
      <trkpt lat="47.25432" lon="-2.33431">
        <ele>29.200000762939</ele>
        <time>2022-04-03T07:13:43.000Z</time>
      </trkpt>
      <trkpt lat="47.25433" lon="-2.3345">
        <ele>29.200000762939</ele>
        <time>2022-04-03T07:13:46.000Z</time>
      </trkpt>
      <trkpt lat="47.25438" lon="-2.33475">
        <ele>29.200000762939</ele>
        <time>2022-04-03T07:13:50.000Z</time>
      </trkpt>
      <trkpt lat="47.25448" lon="-2.33522">
        <ele>29.200000762939</ele>
        <time>2022-04-03T07:13:58.000Z</time>
      </trkpt>
      <trkpt lat="47.25455" lon="-2.33562">
        <ele>28.799999237061</ele>
        <time>2022-04-03T07:14:05.000Z</time>
      </trkpt>
      <trkpt lat="47.25456" lon="-2.33568">
        <ele>28.39999961853</ele>
        <time>2022-04-03T07:14:06.000Z</time>
      </trkpt>
      <trkpt lat="47.25457" lon="-2.33573">
        <ele>28</ele>
        <time>2022-04-03T07:14:07.000Z</time>
      </trkpt>
      <trkpt lat="47.25456" lon="-2.33576">
        <ele>27.60000038147</ele>
        <time>2022-04-03T07:14:08.000Z</time>
      </trkpt>
      <trkpt lat="47.25454" lon="-2.33579">
        <ele>27.200000762939</ele>
        <time>2022-04-03T07:14:09.000Z</time>
      </trkpt>
      <trkpt lat="47.25443" lon="-2.33585">
        <ele>27.200000762939</ele>
        <time>2022-04-03T07:14:12.000Z</time>
      </trkpt>
      <trkpt lat="47.25441" lon="-2.33588">
        <ele>27.200000762939</ele>
        <time>2022-04-03T07:14:13.000Z</time>
      </trkpt>
      <trkpt lat="47.2544" lon="-2.33599">
        <ele>27.200000762939</ele>
        <time>2022-04-03T07:14:15.000Z</time>
      </trkpt>
      <trkpt lat="47.25446" lon="-2.3365">
        <ele>27.200000762939</ele>
        <time>2022-04-03T07:14:23.000Z</time>
      </trkpt>
      <trkpt lat="47.25451" lon="-2.33696">
        <ele>27.200000762939</ele>
        <time>2022-04-03T07:14:30.000Z</time>
      </trkpt>
      <trkpt lat="47.25456" lon="-2.33733">
        <ele>27.200000762939</ele>
        <time>2022-04-03T07:14:36.000Z</time>
      </trkpt>
      <trkpt lat="47.25459" lon="-2.33737">
        <ele>27.200000762939</ele>
        <time>2022-04-03T07:14:37.000Z</time>
      </trkpt>
      <trkpt lat="47.25473" lon="-2.33748">
        <ele>27.200000762939</ele>
        <time>2022-04-03T07:14:41.000Z</time>
      </trkpt>
      <trkpt lat="47.25487" lon="-2.33754">
        <ele>27.200000762939</ele>
        <time>2022-04-03T07:14:44.000Z</time>
      </trkpt>
      <trkpt lat="47.25497" lon="-2.33754">
        <ele>27.200000762939</ele>
        <time>2022-04-03T07:14:46.000Z</time>
      </trkpt>
      <trkpt lat="47.25544" lon="-2.33754">
        <ele>27.200000762939</ele>
        <time>2022-04-03T07:14:55.000Z</time>
      </trkpt>
      <trkpt lat="47.2558" lon="-2.33753">
        <ele>27.200000762939</ele>
        <time>2022-04-03T07:15:02.000Z</time>
      </trkpt>
      <trkpt lat="47.25612" lon="-2.33756">
        <ele>27.200000762939</ele>
        <time>2022-04-03T07:15:09.000Z</time>
      </trkpt>
      <trkpt lat="47.25623" lon="-2.33759">
        <ele>27.200000762939</ele>
        <time>2022-04-03T07:15:12.000Z</time>
      </trkpt>
      <trkpt lat="47.25626" lon="-2.33762">
        <ele>27.200000762939</ele>
        <time>2022-04-03T07:15:13.000Z</time>
      </trkpt>
      <trkpt lat="47.2563" lon="-2.33765">
        <ele>27.200000762939</ele>
        <time>2022-04-03T07:15:14.000Z</time>
      </trkpt>
      <trkpt lat="47.25638" lon="-2.33778">
        <ele>27.200000762939</ele>
        <time>2022-04-03T07:15:17.000Z</time>
      </trkpt>
      <trkpt lat="47.25638" lon="-2.33789">
        <ele>27.200000762939</ele>
        <time>2022-04-03T07:15:19.000Z</time>
      </trkpt>
      <trkpt lat="47.2564" lon="-2.33807">
        <ele>27.200000762939</ele>
        <time>2022-04-03T07:15:22.000Z</time>
      </trkpt>
      <trkpt lat="47.25645" lon="-2.33846">
        <ele>27.200000762939</ele>
        <time>2022-04-03T07:15:28.000Z</time>
      </trkpt>
      <trkpt lat="47.25652" lon="-2.33886">
        <ele>27.200000762939</ele>
        <time>2022-04-03T07:15:35.000Z</time>
      </trkpt>
      <trkpt lat="47.25659" lon="-2.33938">
        <ele>27.200000762939</ele>
        <time>2022-04-03T07:15:44.000Z</time>
      </trkpt>
      <trkpt lat="47.25659" lon="-2.33966">
        <ele>27.200000762939</ele>
        <time>2022-04-03T07:15:49.000Z</time>
      </trkpt>
      <trkpt lat="47.2565" lon="-2.34014">
        <ele>27.200000762939</ele>
        <time>2022-04-03T07:15:57.000Z</time>
      </trkpt>
      <trkpt lat="47.25643" lon="-2.34057">
        <ele>27.200000762939</ele>
        <time>2022-04-03T07:16:04.000Z</time>
      </trkpt>
      <trkpt lat="47.25639" lon="-2.34088">
        <ele>27.200000762939</ele>
        <time>2022-04-03T07:16:09.000Z</time>
      </trkpt>
      <trkpt lat="47.25639" lon="-2.34094">
        <ele>27.200000762939</ele>
        <time>2022-04-03T07:16:10.000Z</time>
      </trkpt>
      <trkpt lat="47.25642" lon="-2.34114">
        <ele>27.200000762939</ele>
        <time>2022-04-03T07:16:13.000Z</time>
      </trkpt>
      <trkpt lat="47.25646" lon="-2.34134">
        <ele>27.200000762939</ele>
        <time>2022-04-03T07:16:16.000Z</time>
      </trkpt>
      <trkpt lat="47.2565" lon="-2.34147">
        <ele>27.200000762939</ele>
        <time>2022-04-03T07:16:18.000Z</time>
      </trkpt>
      <trkpt lat="47.25662" lon="-2.34169">
        <ele>27.200000762939</ele>
        <time>2022-04-03T07:16:22.000Z</time>
      </trkpt>
      <trkpt lat="47.25674" lon="-2.34188">
        <ele>27.200000762939</ele>
        <time>2022-04-03T07:16:26.000Z</time>
      </trkpt>
      <trkpt lat="47.25682" lon="-2.34193">
        <ele>27.200000762939</ele>
        <time>2022-04-03T07:16:28.000Z</time>
      </trkpt>
      <trkpt lat="47.25705" lon="-2.34193">
        <ele>27.200000762939</ele>
        <time>2022-04-03T07:16:33.000Z</time>
      </trkpt>
      <trkpt lat="47.25746" lon="-2.34183">
        <ele>27.200000762939</ele>
        <time>2022-04-03T07:16:41.000Z</time>
      </trkpt>
      <trkpt lat="47.25771" lon="-2.34178">
        <ele>27.200000762939</ele>
        <time>2022-04-03T07:16:46.000Z</time>
      </trkpt>
      <trkpt lat="47.25781" lon="-2.34177">
        <ele>27.200000762939</ele>
        <time>2022-04-03T07:16:48.000Z</time>
      </trkpt>
      <trkpt lat="47.25794" lon="-2.34177">
        <ele>27.200000762939</ele>
        <time>2022-04-03T07:16:51.000Z</time>
      </trkpt>
      <trkpt lat="47.25806" lon="-2.34179">
        <ele>27.200000762939</ele>
        <time>2022-04-03T07:16:54.000Z</time>
      </trkpt>
      <trkpt lat="47.25827" lon="-2.34182">
        <ele>27.200000762939</ele>
        <time>2022-04-03T07:16:59.000Z</time>
      </trkpt>
      <trkpt lat="47.2583" lon="-2.34179">
        <ele>27.200000762939</ele>
        <time>2022-04-03T07:17:00.000Z</time>
      </trkpt>
      <trkpt lat="47.25834" lon="-2.34169">
        <ele>27.200000762939</ele>
        <time>2022-04-03T07:17:02.000Z</time>
      </trkpt>
      <trkpt lat="47.25839" lon="-2.34158">
        <ele>27.200000762939</ele>
        <time>2022-04-03T07:17:05.000Z</time>
      </trkpt>
      <trkpt lat="47.25843" lon="-2.34158">
        <ele>27.200000762939</ele>
        <time>2022-04-03T07:17:06.000Z</time>
      </trkpt>
      <trkpt lat="47.25855" lon="-2.34159">
        <ele>27.200000762939</ele>
        <time>2022-04-03T07:17:09.000Z</time>
      </trkpt>
      <trkpt lat="47.25863" lon="-2.34163">
        <ele>27.200000762939</ele>
        <time>2022-04-03T07:17:11.000Z</time>
      </trkpt>
      <trkpt lat="47.25866" lon="-2.34164">
        <ele>26.799999237061</ele>
        <time>2022-04-03T07:17:12.000Z</time>
      </trkpt>
      <trkpt lat="47.25869" lon="-2.34166">
        <ele>26.39999961853</ele>
        <time>2022-04-03T07:17:13.000Z</time>
      </trkpt>
      <trkpt lat="47.25871" lon="-2.34166">
        <ele>25.799999237061</ele>
        <time>2022-04-03T07:17:14.000Z</time>
      </trkpt>
      <trkpt lat="47.25873" lon="-2.34166">
        <ele>25.39999961853</ele>
        <time>2022-04-03T07:17:15.000Z</time>
      </trkpt>
      <trkpt lat="47.25876" lon="-2.34164">
        <ele>25</ele>
        <time>2022-04-03T07:17:16.000Z</time>
      </trkpt>
      <trkpt lat="47.25883" lon="-2.34159">
        <ele>25</ele>
        <time>2022-04-03T07:17:18.000Z</time>
      </trkpt>
      <trkpt lat="47.25889" lon="-2.34152">
        <ele>25</ele>
        <time>2022-04-03T07:17:20.000Z</time>
      </trkpt>
      <trkpt lat="47.25916" lon="-2.34137">
        <ele>25</ele>
        <time>2022-04-03T07:17:27.000Z</time>
      </trkpt>
      <trkpt lat="47.2595" lon="-2.34115">
        <ele>25</ele>
        <time>2022-04-03T07:17:36.000Z</time>
      </trkpt>
      <trkpt lat="47.25967" lon="-2.3411">
        <ele>25</ele>
        <time>2022-04-03T07:17:41.000Z</time>
      </trkpt>
      <trkpt lat="47.26005" lon="-2.34119">
        <ele>25</ele>
        <time>2022-04-03T07:17:50.000Z</time>
      </trkpt>
      <trkpt lat="47.26033" lon="-2.34131">
        <ele>25</ele>
        <time>2022-04-03T07:17:56.000Z</time>
      </trkpt>
      <trkpt lat="47.26056" lon="-2.34141">
        <ele>25</ele>
        <time>2022-04-03T07:18:01.000Z</time>
      </trkpt>
      <trkpt lat="47.26092" lon="-2.34161">
        <ele>25</ele>
        <time>2022-04-03T07:18:10.000Z</time>
      </trkpt>
      <trkpt lat="47.26113" lon="-2.34168">
        <ele>25</ele>
        <time>2022-04-03T07:18:16.000Z</time>
      </trkpt>
      <trkpt lat="47.26116" lon="-2.34165">
        <ele>25</ele>
        <time>2022-04-03T07:18:17.000Z</time>
      </trkpt>
      <trkpt lat="47.26118" lon="-2.34153">
        <ele>25</ele>
        <time>2022-04-03T07:18:20.000Z</time>
      </trkpt>
      <trkpt lat="47.26125" lon="-2.34148">
        <ele>25</ele>
        <time>2022-04-03T07:18:23.000Z</time>
      </trkpt>
      <trkpt lat="47.26132" lon="-2.3415">
        <ele>25</ele>
        <time>2022-04-03T07:18:25.000Z</time>
      </trkpt>
      <trkpt lat="47.26138" lon="-2.3415">
        <ele>25</ele>
        <time>2022-04-03T07:18:27.000Z</time>
      </trkpt>
      <trkpt lat="47.26141" lon="-2.34149">
        <ele>25</ele>
        <time>2022-04-03T07:18:28.000Z</time>
      </trkpt>
      <trkpt lat="47.26147" lon="-2.34138">
        <ele>25</ele>
        <time>2022-04-03T07:18:31.000Z</time>
      </trkpt>
      <trkpt lat="47.26154" lon="-2.34123">
        <ele>25</ele>
        <time>2022-04-03T07:18:36.000Z</time>
      </trkpt>
      <trkpt lat="47.26165" lon="-2.34099">
        <ele>25</ele>
        <time>2022-04-03T07:18:41.000Z</time>
      </trkpt>
      <trkpt lat="47.26181" lon="-2.34063">
        <ele>25</ele>
        <time>2022-04-03T07:18:48.000Z</time>
      </trkpt>
      <trkpt lat="47.26189" lon="-2.34047">
        <ele>25</ele>
        <time>2022-04-03T07:18:51.000Z</time>
      </trkpt>
      <trkpt lat="47.26196" lon="-2.34028">
        <ele>25</ele>
        <time>2022-04-03T07:18:54.000Z</time>
      </trkpt>
      <trkpt lat="47.26212" lon="-2.33988">
        <ele>25</ele>
        <time>2022-04-03T07:19:01.000Z</time>
      </trkpt>
      <trkpt lat="47.26219" lon="-2.33975">
        <ele>25</ele>
        <time>2022-04-03T07:19:05.000Z</time>
      </trkpt>
      <trkpt lat="47.26229" lon="-2.33974">
        <ele>25</ele>
        <time>2022-04-03T07:19:08.000Z</time>
      </trkpt>
      <trkpt lat="47.26237" lon="-2.33974">
        <ele>25</ele>
        <time>2022-04-03T07:19:10.000Z</time>
      </trkpt>
      <trkpt lat="47.26257" lon="-2.3398">
        <ele>25</ele>
        <time>2022-04-03T07:19:15.000Z</time>
      </trkpt>
      <trkpt lat="47.26261" lon="-2.33981">
        <ele>25</ele>
        <time>2022-04-03T07:19:16.000Z</time>
      </trkpt>
      <trkpt lat="47.26283" lon="-2.33987">
        <ele>25</ele>
        <time>2022-04-03T07:19:21.000Z</time>
      </trkpt>
      <trkpt lat="47.26292" lon="-2.33989">
        <ele>25.39999961853</ele>
        <time>2022-04-03T07:19:23.000Z</time>
      </trkpt>
      <trkpt lat="47.26296" lon="-2.33991">
        <ele>26</ele>
        <time>2022-04-03T07:19:24.000Z</time>
      </trkpt>
      <trkpt lat="47.26301" lon="-2.33991">
        <ele>26.39999961853</ele>
        <time>2022-04-03T07:19:25.000Z</time>
      </trkpt>
      <trkpt lat="47.26306" lon="-2.33993">
        <ele>26.799999237061</ele>
        <time>2022-04-03T07:19:26.000Z</time>
      </trkpt>
      <trkpt lat="47.2631" lon="-2.33994">
        <ele>27.200000762939</ele>
        <time>2022-04-03T07:19:27.000Z</time>
      </trkpt>
      <trkpt lat="47.2632" lon="-2.33996">
        <ele>27.200000762939</ele>
        <time>2022-04-03T07:19:29.000Z</time>
      </trkpt>
      <trkpt lat="47.26353" lon="-2.34002">
        <ele>27.200000762939</ele>
        <time>2022-04-03T07:19:36.000Z</time>
      </trkpt>
      <trkpt lat="47.26388" lon="-2.34011">
        <ele>27.200000762939</ele>
        <time>2022-04-03T07:19:44.000Z</time>
      </trkpt>
      <trkpt lat="47.2641" lon="-2.34015">
        <ele>27.200000762939</ele>
        <time>2022-04-03T07:19:49.000Z</time>
      </trkpt>
      <trkpt lat="47.26419" lon="-2.34016">
        <ele>27.200000762939</ele>
        <time>2022-04-03T07:19:51.000Z</time>
      </trkpt>
      <trkpt lat="47.26445" lon="-2.34022">
        <ele>27.200000762939</ele>
        <time>2022-04-03T07:19:57.000Z</time>
      </trkpt>
      <trkpt lat="47.2648" lon="-2.34031">
        <ele>27.200000762939</ele>
        <time>2022-04-03T07:20:05.000Z</time>
      </trkpt>
      <trkpt lat="47.26525" lon="-2.3404">
        <ele>27.200000762939</ele>
        <time>2022-04-03T07:20:15.000Z</time>
      </trkpt>
      <trkpt lat="47.26557" lon="-2.34046">
        <ele>27.200000762939</ele>
        <time>2022-04-03T07:20:22.000Z</time>
      </trkpt>
      <trkpt lat="47.26565" lon="-2.34048">
        <ele>27.200000762939</ele>
        <time>2022-04-03T07:20:24.000Z</time>
      </trkpt>
      <trkpt lat="47.26582" lon="-2.34058">
        <ele>27.200000762939</ele>
        <time>2022-04-03T07:20:28.000Z</time>
      </trkpt>
      <trkpt lat="47.2659" lon="-2.34064">
        <ele>27.60000038147</ele>
        <time>2022-04-03T07:20:30.000Z</time>
      </trkpt>
      <trkpt lat="47.26594" lon="-2.34066">
        <ele>28</ele>
        <time>2022-04-03T07:20:31.000Z</time>
      </trkpt>
      <trkpt lat="47.26598" lon="-2.34068">
        <ele>28.39999961853</ele>
        <time>2022-04-03T07:20:32.000Z</time>
      </trkpt>
      <trkpt lat="47.26602" lon="-2.3407">
        <ele>28.799999237061</ele>
        <time>2022-04-03T07:20:33.000Z</time>
      </trkpt>
      <trkpt lat="47.26605" lon="-2.34072">
        <ele>29.200000762939</ele>
        <time>2022-04-03T07:20:34.000Z</time>
      </trkpt>
      <trkpt lat="47.26621" lon="-2.34084">
        <ele>29.200000762939</ele>
        <time>2022-04-03T07:20:38.000Z</time>
      </trkpt>
      <trkpt lat="47.26626" lon="-2.34087">
        <ele>29.200000762939</ele>
        <time>2022-04-03T07:20:39.000Z</time>
      </trkpt>
      <trkpt lat="47.26658" lon="-2.34112">
        <ele>29.200000762939</ele>
        <time>2022-04-03T07:20:47.000Z</time>
      </trkpt>
      <trkpt lat="47.26675" lon="-2.34124">
        <ele>29.200000762939</ele>
        <time>2022-04-03T07:20:51.000Z</time>
      </trkpt>
      <trkpt lat="47.26685" lon="-2.3413">
        <ele>29.200000762939</ele>
        <time>2022-04-03T07:20:53.000Z</time>
      </trkpt>
      <trkpt lat="47.26715" lon="-2.3415">
        <ele>29.200000762939</ele>
        <time>2022-04-03T07:21:00.000Z</time>
      </trkpt>
      <trkpt lat="47.26731" lon="-2.34162">
        <ele>29.200000762939</ele>
        <time>2022-04-03T07:21:04.000Z</time>
      </trkpt>
      <trkpt lat="47.26739" lon="-2.34168">
        <ele>29.200000762939</ele>
        <time>2022-04-03T07:21:06.000Z</time>
      </trkpt>
      <trkpt lat="47.26748" lon="-2.34174">
        <ele>29.200000762939</ele>
        <time>2022-04-03T07:21:08.000Z</time>
      </trkpt>
      <trkpt lat="47.26772" lon="-2.34189">
        <ele>29.200000762939</ele>
        <time>2022-04-03T07:21:13.000Z</time>
      </trkpt>
      <trkpt lat="47.2678" lon="-2.34195">
        <ele>29.200000762939</ele>
        <time>2022-04-03T07:21:15.000Z</time>
      </trkpt>
      <trkpt lat="47.26794" lon="-2.34205">
        <ele>29.200000762939</ele>
        <time>2022-04-03T07:21:18.000Z</time>
      </trkpt>
      <trkpt lat="47.26815" lon="-2.3422">
        <ele>29.200000762939</ele>
        <time>2022-04-03T07:21:23.000Z</time>
      </trkpt>
      <trkpt lat="47.2684" lon="-2.34239">
        <ele>29.200000762939</ele>
        <time>2022-04-03T07:21:29.000Z</time>
      </trkpt>
      <trkpt lat="47.26862" lon="-2.34256">
        <ele>29.200000762939</ele>
        <time>2022-04-03T07:21:34.000Z</time>
      </trkpt>
      <trkpt lat="47.2687" lon="-2.34263">
        <ele>29.200000762939</ele>
        <time>2022-04-03T07:21:36.000Z</time>
      </trkpt>
      <trkpt lat="47.269" lon="-2.34285">
        <ele>29.200000762939</ele>
        <time>2022-04-03T07:21:43.000Z</time>
      </trkpt>
      <trkpt lat="47.26916" lon="-2.34296">
        <ele>29.200000762939</ele>
        <time>2022-04-03T07:21:47.000Z</time>
      </trkpt>
      <trkpt lat="47.26923" lon="-2.34301">
        <ele>29.200000762939</ele>
        <time>2022-04-03T07:21:49.000Z</time>
      </trkpt>
      <trkpt lat="47.26933" lon="-2.34307">
        <ele>29.200000762939</ele>
        <time>2022-04-03T07:21:52.000Z</time>
      </trkpt>
      <trkpt lat="47.26937" lon="-2.34309">
        <ele>29.200000762939</ele>
        <time>2022-04-03T07:21:53.000Z</time>
      </trkpt>
      <trkpt lat="47.2695" lon="-2.34314">
        <ele>29.200000762939</ele>
        <time>2022-04-03T07:21:56.000Z</time>
      </trkpt>
      <trkpt lat="47.26959" lon="-2.34318">
        <ele>29.200000762939</ele>
        <time>2022-04-03T07:21:58.000Z</time>
      </trkpt>
      <trkpt lat="47.26992" lon="-2.34322">
        <ele>29.200000762939</ele>
        <time>2022-04-03T07:22:05.000Z</time>
      </trkpt>
      <trkpt lat="47.27024" lon="-2.34322">
        <ele>29.200000762939</ele>
        <time>2022-04-03T07:22:12.000Z</time>
      </trkpt>
      <trkpt lat="47.27047" lon="-2.34321">
        <ele>29.200000762939</ele>
        <time>2022-04-03T07:22:18.000Z</time>
      </trkpt>
      <trkpt lat="47.27053" lon="-2.34317">
        <ele>29.200000762939</ele>
        <time>2022-04-03T07:22:20.000Z</time>
      </trkpt>
      <trkpt lat="47.27055" lon="-2.34309">
        <ele>29.200000762939</ele>
        <time>2022-04-03T07:22:22.000Z</time>
      </trkpt>
      <trkpt lat="47.27051" lon="-2.34289">
        <ele>29.200000762939</ele>
        <time>2022-04-03T07:22:26.000Z</time>
      </trkpt>
      <trkpt lat="47.27044" lon="-2.3425">
        <ele>29.200000762939</ele>
        <time>2022-04-03T07:22:32.000Z</time>
      </trkpt>
      <trkpt lat="47.27044" lon="-2.342">
        <ele>29.200000762939</ele>
        <time>2022-04-03T07:22:39.000Z</time>
      </trkpt>
      <trkpt lat="47.27044" lon="-2.34173">
        <ele>29.200000762939</ele>
        <time>2022-04-03T07:22:43.000Z</time>
      </trkpt>
      <trkpt lat="47.27047" lon="-2.34162">
        <ele>29.200000762939</ele>
        <time>2022-04-03T07:22:45.000Z</time>
      </trkpt>
      <trkpt lat="47.27057" lon="-2.34147">
        <ele>29.200000762939</ele>
        <time>2022-04-03T07:22:48.000Z</time>
      </trkpt>
      <trkpt lat="47.27064" lon="-2.34136">
        <ele>29.200000762939</ele>
        <time>2022-04-03T07:22:50.000Z</time>
      </trkpt>
      <trkpt lat="47.27075" lon="-2.34119">
        <ele>29.200000762939</ele>
        <time>2022-04-03T07:22:53.000Z</time>
      </trkpt>
      <trkpt lat="47.27083" lon="-2.34104">
        <ele>29.200000762939</ele>
        <time>2022-04-03T07:22:56.000Z</time>
      </trkpt>
      <trkpt lat="47.27089" lon="-2.34095">
        <ele>29.799999237061</ele>
        <time>2022-04-03T07:22:58.000Z</time>
      </trkpt>
      <trkpt lat="47.27092" lon="-2.3409">
        <ele>30.200000762939</ele>
        <time>2022-04-03T07:22:59.000Z</time>
      </trkpt>
      <trkpt lat="47.27094" lon="-2.34086">
        <ele>30.60000038147</ele>
        <time>2022-04-03T07:23:00.000Z</time>
      </trkpt>
      <trkpt lat="47.27096" lon="-2.34081">
        <ele>31</ele>
        <time>2022-04-03T07:23:01.000Z</time>
      </trkpt>
      <trkpt lat="47.27098" lon="-2.34076">
        <ele>31.60000038147</ele>
        <time>2022-04-03T07:23:02.000Z</time>
      </trkpt>
      <trkpt lat="47.27099" lon="-2.34066">
        <ele>32</ele>
        <time>2022-04-03T07:23:04.000Z</time>
      </trkpt>
      <trkpt lat="47.271" lon="-2.34062">
        <ele>32.799999237061</ele>
        <time>2022-04-03T07:23:05.000Z</time>
      </trkpt>
      <trkpt lat="47.27101" lon="-2.34057">
        <ele>33.400001525879</ele>
        <time>2022-04-03T07:23:06.000Z</time>
      </trkpt>
      <trkpt lat="47.27101" lon="-2.34052">
        <ele>33.799999237061</ele>
        <time>2022-04-03T07:23:07.000Z</time>
      </trkpt>
      <trkpt lat="47.27102" lon="-2.34048">
        <ele>33.799999237061</ele>
        <time>2022-04-03T07:23:08.000Z</time>
      </trkpt>
      <trkpt lat="47.27103" lon="-2.34043">
        <ele>34.200000762939</ele>
        <time>2022-04-03T07:23:09.000Z</time>
      </trkpt>
      <trkpt lat="47.27104" lon="-2.34038">
        <ele>34.599998474121</ele>
        <time>2022-04-03T07:23:10.000Z</time>
      </trkpt>
      <trkpt lat="47.27105" lon="-2.34033">
        <ele>35</ele>
        <time>2022-04-03T07:23:11.000Z</time>
      </trkpt>
      <trkpt lat="47.27105" lon="-2.34029">
        <ele>35.599998474121</ele>
        <time>2022-04-03T07:23:12.000Z</time>
      </trkpt>
      <trkpt lat="47.27106" lon="-2.34024">
        <ele>36</ele>
        <time>2022-04-03T07:23:13.000Z</time>
      </trkpt>
      <trkpt lat="47.27108" lon="-2.34014">
        <ele>36</ele>
        <time>2022-04-03T07:23:15.000Z</time>
      </trkpt>
      <trkpt lat="47.27109" lon="-2.34009">
        <ele>36.400001525879</ele>
        <time>2022-04-03T07:23:16.000Z</time>
      </trkpt>
      <trkpt lat="47.27109" lon="-2.34004">
        <ele>36.799999237061</ele>
        <time>2022-04-03T07:23:17.000Z</time>
      </trkpt>
      <trkpt lat="47.2711" lon="-2.33999">
        <ele>37.200000762939</ele>
        <time>2022-04-03T07:23:18.000Z</time>
      </trkpt>
      <trkpt lat="47.27111" lon="-2.33994">
        <ele>37.799999237061</ele>
        <time>2022-04-03T07:23:19.000Z</time>
      </trkpt>
      <trkpt lat="47.27112" lon="-2.33989">
        <ele>38.200000762939</ele>
        <time>2022-04-03T07:23:20.000Z</time>
      </trkpt>
      <trkpt lat="47.27113" lon="-2.33984">
        <ele>38.200000762939</ele>
        <time>2022-04-03T07:23:21.000Z</time>
      </trkpt>
      <trkpt lat="47.2712" lon="-2.3396">
        <ele>38.599998474121</ele>
        <time>2022-04-03T07:23:26.000Z</time>
      </trkpt>
      <trkpt lat="47.27122" lon="-2.33956">
        <ele>39</ele>
        <time>2022-04-03T07:23:27.000Z</time>
      </trkpt>
      <trkpt lat="47.27124" lon="-2.33953">
        <ele>39.400001525879</ele>
        <time>2022-04-03T07:23:28.000Z</time>
      </trkpt>
      <trkpt lat="47.27127" lon="-2.33949">
        <ele>39.799999237061</ele>
        <time>2022-04-03T07:23:29.000Z</time>
      </trkpt>
      <trkpt lat="47.27129" lon="-2.33946">
        <ele>40.200000762939</ele>
        <time>2022-04-03T07:23:30.000Z</time>
      </trkpt>
      <trkpt lat="47.27139" lon="-2.33931">
        <ele>40.200000762939</ele>
        <time>2022-04-03T07:23:34.000Z</time>
      </trkpt>
      <trkpt lat="47.27143" lon="-2.33925">
        <ele>40.599998474121</ele>
        <time>2022-04-03T07:23:36.000Z</time>
      </trkpt>
      <trkpt lat="47.27146" lon="-2.33923">
        <ele>41</ele>
        <time>2022-04-03T07:23:37.000Z</time>
      </trkpt>
      <trkpt lat="47.27148" lon="-2.3392">
        <ele>41.400001525879</ele>
        <time>2022-04-03T07:23:38.000Z</time>
      </trkpt>
      <trkpt lat="47.2715" lon="-2.33917">
        <ele>41.799999237061</ele>
        <time>2022-04-03T07:23:39.000Z</time>
      </trkpt>
      <trkpt lat="47.27151" lon="-2.33914">
        <ele>42.200000762939</ele>
        <time>2022-04-03T07:23:40.000Z</time>
      </trkpt>
      <trkpt lat="47.27153" lon="-2.33911">
        <ele>42.200000762939</ele>
        <time>2022-04-03T07:23:41.000Z</time>
      </trkpt>
      <trkpt lat="47.27169" lon="-2.33888">
        <ele>42.200000762939</ele>
        <time>2022-04-03T07:23:47.000Z</time>
      </trkpt>
      <trkpt lat="47.27172" lon="-2.33885">
        <ele>42.599998474121</ele>
        <time>2022-04-03T07:23:48.000Z</time>
      </trkpt>
      <trkpt lat="47.27175" lon="-2.3388">
        <ele>43</ele>
        <time>2022-04-03T07:23:49.000Z</time>
      </trkpt>
      <trkpt lat="47.27177" lon="-2.33877">
        <ele>43.400001525879</ele>
        <time>2022-04-03T07:23:50.000Z</time>
      </trkpt>
      <trkpt lat="47.2718" lon="-2.33872">
        <ele>43.799999237061</ele>
        <time>2022-04-03T07:23:51.000Z</time>
      </trkpt>
      <trkpt lat="47.27182" lon="-2.33868">
        <ele>44.200000762939</ele>
        <time>2022-04-03T07:23:52.000Z</time>
      </trkpt>
      <trkpt lat="47.27184" lon="-2.33862">
        <ele>44.200000762939</ele>
        <time>2022-04-03T07:23:53.000Z</time>
      </trkpt>
      <trkpt lat="47.27197" lon="-2.33845">
        <ele>44.200000762939</ele>
        <time>2022-04-03T07:23:57.000Z</time>
      </trkpt>
      <trkpt lat="47.27212" lon="-2.33845">
        <ele>44.599998474121</ele>
        <time>2022-04-03T07:24:01.000Z</time>
      </trkpt>
      <trkpt lat="47.27215" lon="-2.33847">
        <ele>45</ele>
        <time>2022-04-03T07:24:02.000Z</time>
      </trkpt>
      <trkpt lat="47.27218" lon="-2.33848">
        <ele>45.400001525879</ele>
        <time>2022-04-03T07:24:03.000Z</time>
      </trkpt>
      <trkpt lat="47.27222" lon="-2.33849">
        <ele>45.799999237061</ele>
        <time>2022-04-03T07:24:04.000Z</time>
      </trkpt>
      <trkpt lat="47.27225" lon="-2.3385">
        <ele>46.200000762939</ele>
        <time>2022-04-03T07:24:05.000Z</time>
      </trkpt>
      <trkpt lat="47.27239" lon="-2.33856">
        <ele>46.200000762939</ele>
        <time>2022-04-03T07:24:09.000Z</time>
      </trkpt>
      <trkpt lat="47.27258" lon="-2.33868">
        <ele>46.200000762939</ele>
        <time>2022-04-03T07:24:15.000Z</time>
      </trkpt>
      <trkpt lat="47.27272" lon="-2.33887">
        <ele>46.200000762939</ele>
        <time>2022-04-03T07:24:20.000Z</time>
      </trkpt>
      <trkpt lat="47.27275" lon="-2.33891">
        <ele>46.200000762939</ele>
        <time>2022-04-03T07:24:21.000Z</time>
      </trkpt>
      <trkpt lat="47.2729" lon="-2.3391">
        <ele>46.200000762939</ele>
        <time>2022-04-03T07:24:26.000Z</time>
      </trkpt>
      <trkpt lat="47.27312" lon="-2.33934">
        <ele>46.200000762939</ele>
        <time>2022-04-03T07:24:33.000Z</time>
      </trkpt>
      <trkpt lat="47.27319" lon="-2.33941">
        <ele>46.200000762939</ele>
        <time>2022-04-03T07:24:35.000Z</time>
      </trkpt>
      <trkpt lat="47.27326" lon="-2.3395">
        <ele>46.200000762939</ele>
        <time>2022-04-03T07:24:37.000Z</time>
      </trkpt>
      <trkpt lat="47.27333" lon="-2.33958">
        <ele>46.200000762939</ele>
        <time>2022-04-03T07:24:39.000Z</time>
      </trkpt>
      <trkpt lat="47.2735" lon="-2.33965">
        <ele>46.200000762939</ele>
        <time>2022-04-03T07:24:43.000Z</time>
      </trkpt>
      <trkpt lat="47.27354" lon="-2.33966">
        <ele>46.200000762939</ele>
        <time>2022-04-03T07:24:44.000Z</time>
      </trkpt>
      <trkpt lat="47.27363" lon="-2.33967">
        <ele>46.200000762939</ele>
        <time>2022-04-03T07:24:46.000Z</time>
      </trkpt>
      <trkpt lat="47.2738" lon="-2.33963">
        <ele>46.200000762939</ele>
        <time>2022-04-03T07:24:50.000Z</time>
      </trkpt>
      <trkpt lat="47.2739" lon="-2.33968">
        <ele>46.200000762939</ele>
        <time>2022-04-03T07:24:53.000Z</time>
      </trkpt>
      <trkpt lat="47.27391" lon="-2.33973">
        <ele>46.200000762939</ele>
        <time>2022-04-03T07:24:54.000Z</time>
      </trkpt>
      <trkpt lat="47.27395" lon="-2.33997">
        <ele>46.200000762939</ele>
        <time>2022-04-03T07:24:58.000Z</time>
      </trkpt>
      <trkpt lat="47.27397" lon="-2.34002">
        <ele>46.200000762939</ele>
        <time>2022-04-03T07:24:59.000Z</time>
      </trkpt>
      <trkpt lat="47.27408" lon="-2.34002">
        <ele>46.200000762939</ele>
        <time>2022-04-03T07:25:02.000Z</time>
      </trkpt>
      <trkpt lat="47.27414" lon="-2.33994">
        <ele>46.200000762939</ele>
        <time>2022-04-03T07:25:04.000Z</time>
      </trkpt>
      <trkpt lat="47.27421" lon="-2.33987">
        <ele>46.200000762939</ele>
        <time>2022-04-03T07:25:06.000Z</time>
      </trkpt>
      <trkpt lat="47.27441" lon="-2.33961">
        <ele>46.599998474121</ele>
        <time>2022-04-03T07:25:12.000Z</time>
      </trkpt>
      <trkpt lat="47.27444" lon="-2.33956">
        <ele>47.200000762939</ele>
        <time>2022-04-03T07:25:13.000Z</time>
      </trkpt>
      <trkpt lat="47.27447" lon="-2.33951">
        <ele>47.599998474121</ele>
        <time>2022-04-03T07:25:14.000Z</time>
      </trkpt>
      <trkpt lat="47.2745" lon="-2.33946">
        <ele>48</ele>
        <time>2022-04-03T07:25:15.000Z</time>
      </trkpt>
      <trkpt lat="47.27454" lon="-2.3394">
        <ele>48.400001525879</ele>
        <time>2022-04-03T07:25:16.000Z</time>
      </trkpt>
      <trkpt lat="47.27463" lon="-2.33927">
        <ele>48.400001525879</ele>
        <time>2022-04-03T07:25:19.000Z</time>
      </trkpt>
      <trkpt lat="47.27493" lon="-2.33889">
        <ele>48.400001525879</ele>
        <time>2022-04-03T07:25:27.000Z</time>
      </trkpt>
      <trkpt lat="47.27524" lon="-2.33858">
        <ele>48.400001525879</ele>
        <time>2022-04-03T07:25:34.000Z</time>
      </trkpt>
      <trkpt lat="47.2756" lon="-2.33826">
        <ele>48.400001525879</ele>
        <time>2022-04-03T07:25:41.000Z</time>
      </trkpt>
      <trkpt lat="47.27599" lon="-2.33796">
        <ele>48.400001525879</ele>
        <time>2022-04-03T07:25:49.000Z</time>
      </trkpt>
      <trkpt lat="47.27624" lon="-2.3378">
        <ele>48.400001525879</ele>
        <time>2022-04-03T07:25:54.000Z</time>
      </trkpt>
      <trkpt lat="47.2766" lon="-2.33758">
        <ele>48.400001525879</ele>
        <time>2022-04-03T07:26:02.000Z</time>
      </trkpt>
      <trkpt lat="47.27691" lon="-2.33744">
        <ele>48.400001525879</ele>
        <time>2022-04-03T07:26:09.000Z</time>
      </trkpt>
      <trkpt lat="47.277" lon="-2.33738">
        <ele>48.400001525879</ele>
        <time>2022-04-03T07:26:11.000Z</time>
      </trkpt>
      <trkpt lat="47.27712" lon="-2.33725">
        <ele>48.400001525879</ele>
        <time>2022-04-03T07:26:14.000Z</time>
      </trkpt>
      <trkpt lat="47.27728" lon="-2.33703">
        <ele>48</ele>
        <time>2022-04-03T07:26:18.000Z</time>
      </trkpt>
      <trkpt lat="47.27733" lon="-2.33698">
        <ele>47.599998474121</ele>
        <time>2022-04-03T07:26:19.000Z</time>
      </trkpt>
      <trkpt lat="47.27738" lon="-2.33692">
        <ele>47.200000762939</ele>
        <time>2022-04-03T07:26:20.000Z</time>
      </trkpt>
      <trkpt lat="47.27742" lon="-2.33687">
        <ele>46.599998474121</ele>
        <time>2022-04-03T07:26:21.000Z</time>
      </trkpt>
      <trkpt lat="47.27747" lon="-2.33681">
        <ele>46.200000762939</ele>
        <time>2022-04-03T07:26:22.000Z</time>
      </trkpt>
      <trkpt lat="47.2777" lon="-2.33661">
        <ele>46.200000762939</ele>
        <time>2022-04-03T07:26:27.000Z</time>
      </trkpt>
      <trkpt lat="47.27777" lon="-2.33654">
        <ele>46.200000762939</ele>
        <time>2022-04-03T07:26:29.000Z</time>
      </trkpt>
      <trkpt lat="47.2779" lon="-2.33647">
        <ele>46.200000762939</ele>
        <time>2022-04-03T07:26:32.000Z</time>
      </trkpt>
      <trkpt lat="47.27816" lon="-2.33636">
        <ele>45.799999237061</ele>
        <time>2022-04-03T07:26:37.000Z</time>
      </trkpt>
      <trkpt lat="47.27822" lon="-2.33634">
        <ele>45.400001525879</ele>
        <time>2022-04-03T07:26:38.000Z</time>
      </trkpt>
      <trkpt lat="47.27827" lon="-2.33631">
        <ele>45</ele>
        <time>2022-04-03T07:26:39.000Z</time>
      </trkpt>
      <trkpt lat="47.27833" lon="-2.33629">
        <ele>44.599998474121</ele>
        <time>2022-04-03T07:26:40.000Z</time>
      </trkpt>
      <trkpt lat="47.27838" lon="-2.33626">
        <ele>44.200000762939</ele>
        <time>2022-04-03T07:26:41.000Z</time>
      </trkpt>
      <trkpt lat="47.27866" lon="-2.33614">
        <ele>44.200000762939</ele>
        <time>2022-04-03T07:26:46.000Z</time>
      </trkpt>
      <trkpt lat="47.27896" lon="-2.33601">
        <ele>43.799999237061</ele>
        <time>2022-04-03T07:26:51.000Z</time>
      </trkpt>
      <trkpt lat="47.27902" lon="-2.33598">
        <ele>43.400001525879</ele>
        <time>2022-04-03T07:26:52.000Z</time>
      </trkpt>
      <trkpt lat="47.27908" lon="-2.33595">
        <ele>43</ele>
        <time>2022-04-03T07:26:53.000Z</time>
      </trkpt>
      <trkpt lat="47.27914" lon="-2.33592">
        <ele>42.599998474121</ele>
        <time>2022-04-03T07:26:54.000Z</time>
      </trkpt>
      <trkpt lat="47.27919" lon="-2.33589">
        <ele>42.200000762939</ele>
        <time>2022-04-03T07:26:55.000Z</time>
      </trkpt>
      <trkpt lat="47.27947" lon="-2.33573">
        <ele>41.799999237061</ele>
        <time>2022-04-03T07:27:00.000Z</time>
      </trkpt>
      <trkpt lat="47.27953" lon="-2.3357">
        <ele>41.400001525879</ele>
        <time>2022-04-03T07:27:01.000Z</time>
      </trkpt>
      <trkpt lat="47.27958" lon="-2.33567">
        <ele>40.799999237061</ele>
        <time>2022-04-03T07:27:02.000Z</time>
      </trkpt>
      <trkpt lat="47.27964" lon="-2.33564">
        <ele>40.400001525879</ele>
        <time>2022-04-03T07:27:03.000Z</time>
      </trkpt>
      <trkpt lat="47.27969" lon="-2.33559">
        <ele>40</ele>
        <time>2022-04-03T07:27:04.000Z</time>
      </trkpt>
      <trkpt lat="47.27984" lon="-2.33549">
        <ele>40</ele>
        <time>2022-04-03T07:27:07.000Z</time>
      </trkpt>
      <trkpt lat="47.28024" lon="-2.33522">
        <ele>40</ele>
        <time>2022-04-03T07:27:15.000Z</time>
      </trkpt>
      <trkpt lat="47.28032" lon="-2.3352">
        <ele>39.599998474121</ele>
        <time>2022-04-03T07:27:17.000Z</time>
      </trkpt>
      <trkpt lat="47.28036" lon="-2.3352">
        <ele>39.200000762939</ele>
        <time>2022-04-03T07:27:18.000Z</time>
      </trkpt>
      <trkpt lat="47.2804" lon="-2.3352">
        <ele>38.799999237061</ele>
        <time>2022-04-03T07:27:19.000Z</time>
      </trkpt>
      <trkpt lat="47.28044" lon="-2.33519">
        <ele>38.400001525879</ele>
        <time>2022-04-03T07:27:20.000Z</time>
      </trkpt>
      <trkpt lat="47.28048" lon="-2.33517">
        <ele>37.799999237061</ele>
        <time>2022-04-03T07:27:21.000Z</time>
      </trkpt>
      <trkpt lat="47.28052" lon="-2.33517">
        <ele>37.799999237061</ele>
        <time>2022-04-03T07:27:22.000Z</time>
      </trkpt>
      <trkpt lat="47.28056" lon="-2.33518">
        <ele>37.799999237061</ele>
        <time>2022-04-03T07:27:23.000Z</time>
      </trkpt>
      <trkpt lat="47.28069" lon="-2.33516">
        <ele>37.799999237061</ele>
        <time>2022-04-03T07:27:26.000Z</time>
      </trkpt>
      <trkpt lat="47.28073" lon="-2.33518">
        <ele>37.799999237061</ele>
        <time>2022-04-03T07:27:27.000Z</time>
      </trkpt>
      <trkpt lat="47.28075" lon="-2.33523">
        <ele>37.799999237061</ele>
        <time>2022-04-03T07:27:28.000Z</time>
      </trkpt>
      <trkpt lat="47.28076" lon="-2.33541">
        <ele>37.799999237061</ele>
        <time>2022-04-03T07:27:31.000Z</time>
      </trkpt>
      <trkpt lat="47.28078" lon="-2.33561">
        <ele>37.799999237061</ele>
        <time>2022-04-03T07:27:34.000Z</time>
      </trkpt>
      <trkpt lat="47.28081" lon="-2.3358">
        <ele>37.799999237061</ele>
        <time>2022-04-03T07:27:37.000Z</time>
      </trkpt>
      <trkpt lat="47.28088" lon="-2.33621">
        <ele>37.799999237061</ele>
        <time>2022-04-03T07:27:43.000Z</time>
      </trkpt>
      <trkpt lat="47.2809" lon="-2.33639">
        <ele>37.799999237061</ele>
        <time>2022-04-03T07:27:46.000Z</time>
      </trkpt>
      <trkpt lat="47.28091" lon="-2.33643">
        <ele>37.799999237061</ele>
        <time>2022-04-03T07:27:47.000Z</time>
      </trkpt>
      <trkpt lat="47.28104" lon="-2.33668">
        <ele>37.799999237061</ele>
        <time>2022-04-03T07:27:52.000Z</time>
      </trkpt>
      <trkpt lat="47.28107" lon="-2.33673">
        <ele>37.799999237061</ele>
        <time>2022-04-03T07:27:53.000Z</time>
      </trkpt>
      <trkpt lat="47.28124" lon="-2.33694">
        <ele>37.799999237061</ele>
        <time>2022-04-03T07:27:57.000Z</time>
      </trkpt>
      <trkpt lat="47.28147" lon="-2.3373">
        <ele>37.799999237061</ele>
        <time>2022-04-03T07:28:03.000Z</time>
      </trkpt>
      <trkpt lat="47.28151" lon="-2.33735">
        <ele>37.799999237061</ele>
        <time>2022-04-03T07:28:04.000Z</time>
      </trkpt>
      <trkpt lat="47.28163" lon="-2.33749">
        <ele>37.799999237061</ele>
        <time>2022-04-03T07:28:07.000Z</time>
      </trkpt>
      <trkpt lat="47.28175" lon="-2.33764">
        <ele>37.799999237061</ele>
        <time>2022-04-03T07:28:10.000Z</time>
      </trkpt>
      <trkpt lat="47.28199" lon="-2.33792">
        <ele>37.799999237061</ele>
        <time>2022-04-03T07:28:16.000Z</time>
      </trkpt>
      <trkpt lat="47.28209" lon="-2.33799">
        <ele>37.799999237061</ele>
        <time>2022-04-03T07:28:18.000Z</time>
      </trkpt>
      <trkpt lat="47.28215" lon="-2.33801">
        <ele>38.200000762939</ele>
        <time>2022-04-03T07:28:19.000Z</time>
      </trkpt>
      <trkpt lat="47.28221" lon="-2.33803">
        <ele>38.599998474121</ele>
        <time>2022-04-03T07:28:20.000Z</time>
      </trkpt>
      <trkpt lat="47.28227" lon="-2.33805">
        <ele>39</ele>
        <time>2022-04-03T07:28:21.000Z</time>
      </trkpt>
      <trkpt lat="47.28233" lon="-2.33808">
        <ele>39.599998474121</ele>
        <time>2022-04-03T07:28:22.000Z</time>
      </trkpt>
      <trkpt lat="47.28238" lon="-2.33811">
        <ele>40</ele>
        <time>2022-04-03T07:28:23.000Z</time>
      </trkpt>
      <trkpt lat="47.28254" lon="-2.33822">
        <ele>40</ele>
        <time>2022-04-03T07:28:26.000Z</time>
      </trkpt>
      <trkpt lat="47.28258" lon="-2.33827">
        <ele>40</ele>
        <time>2022-04-03T07:28:27.000Z</time>
      </trkpt>
      <trkpt lat="47.28269" lon="-2.33845">
        <ele>40</ele>
        <time>2022-04-03T07:28:30.000Z</time>
      </trkpt>
      <trkpt lat="47.28272" lon="-2.33852">
        <ele>40</ele>
        <time>2022-04-03T07:28:31.000Z</time>
      </trkpt>
      <trkpt lat="47.28292" lon="-2.33899">
        <ele>40</ele>
        <time>2022-04-03T07:28:38.000Z</time>
      </trkpt>
      <trkpt lat="47.28304" lon="-2.33929">
        <ele>40</ele>
        <time>2022-04-03T07:28:43.000Z</time>
      </trkpt>
      <trkpt lat="47.28308" lon="-2.3393">
        <ele>40</ele>
        <time>2022-04-03T07:28:44.000Z</time>
      </trkpt>
      <trkpt lat="47.28322" lon="-2.33922">
        <ele>40.400001525879</ele>
        <time>2022-04-03T07:28:47.000Z</time>
      </trkpt>
      <trkpt lat="47.28326" lon="-2.33918">
        <ele>40.799999237061</ele>
        <time>2022-04-03T07:28:48.000Z</time>
      </trkpt>
      <trkpt lat="47.28331" lon="-2.33915">
        <ele>41.599998474121</ele>
        <time>2022-04-03T07:28:49.000Z</time>
      </trkpt>
      <trkpt lat="47.28335" lon="-2.3391">
        <ele>42</ele>
        <time>2022-04-03T07:28:50.000Z</time>
      </trkpt>
      <trkpt lat="47.28349" lon="-2.33898">
        <ele>42</ele>
        <time>2022-04-03T07:28:53.000Z</time>
      </trkpt>
      <trkpt lat="47.2838" lon="-2.3387">
        <ele>42.400001525879</ele>
        <time>2022-04-03T07:29:00.000Z</time>
      </trkpt>
      <trkpt lat="47.28385" lon="-2.33866">
        <ele>42.799999237061</ele>
        <time>2022-04-03T07:29:01.000Z</time>
      </trkpt>
      <trkpt lat="47.28389" lon="-2.33861">
        <ele>43.200000762939</ele>
        <time>2022-04-03T07:29:02.000Z</time>
      </trkpt>
      <trkpt lat="47.28393" lon="-2.33857">
        <ele>43.599998474121</ele>
        <time>2022-04-03T07:29:03.000Z</time>
      </trkpt>
      <trkpt lat="47.28398" lon="-2.33853">
        <ele>44</ele>
        <time>2022-04-03T07:29:04.000Z</time>
      </trkpt>
      <trkpt lat="47.28402" lon="-2.3385">
        <ele>44</ele>
        <time>2022-04-03T07:29:05.000Z</time>
      </trkpt>
      <trkpt lat="47.28407" lon="-2.33847">
        <ele>44</ele>
        <time>2022-04-03T07:29:06.000Z</time>
      </trkpt>
      <trkpt lat="47.28437" lon="-2.33818">
        <ele>44.400001525879</ele>
        <time>2022-04-03T07:29:13.000Z</time>
      </trkpt>
      <trkpt lat="47.28441" lon="-2.33813">
        <ele>45.200000762939</ele>
        <time>2022-04-03T07:29:14.000Z</time>
      </trkpt>
      <trkpt lat="47.28445" lon="-2.33809">
        <ele>45.599998474121</ele>
        <time>2022-04-03T07:29:15.000Z</time>
      </trkpt>
      <trkpt lat="47.2845" lon="-2.33805">
        <ele>46</ele>
        <time>2022-04-03T07:29:16.000Z</time>
      </trkpt>
      <trkpt lat="47.28476" lon="-2.33775">
        <ele>46</ele>
        <time>2022-04-03T07:29:22.000Z</time>
      </trkpt>
      <trkpt lat="47.2851" lon="-2.33738">
        <ele>46</ele>
        <time>2022-04-03T07:29:30.000Z</time>
      </trkpt>
      <trkpt lat="47.28515" lon="-2.33735">
        <ele>46</ele>
        <time>2022-04-03T07:29:31.000Z</time>
      </trkpt>
      <trkpt lat="47.28532" lon="-2.33731">
        <ele>46</ele>
        <time>2022-04-03T07:29:34.000Z</time>
      </trkpt>
      <trkpt lat="47.28537" lon="-2.33731">
        <ele>46</ele>
        <time>2022-04-03T07:29:35.000Z</time>
      </trkpt>
      <trkpt lat="47.28575" lon="-2.33732">
        <ele>46</ele>
        <time>2022-04-03T07:29:42.000Z</time>
      </trkpt>
      <trkpt lat="47.28585" lon="-2.33733">
        <ele>46</ele>
        <time>2022-04-03T07:29:44.000Z</time>
      </trkpt>
      <trkpt lat="47.28601" lon="-2.33728">
        <ele>46</ele>
        <time>2022-04-03T07:29:47.000Z</time>
      </trkpt>
      <trkpt lat="47.28645" lon="-2.33711">
        <ele>46</ele>
        <time>2022-04-03T07:29:55.000Z</time>
      </trkpt>
      <trkpt lat="47.28687" lon="-2.33695">
        <ele>46</ele>
        <time>2022-04-03T07:30:03.000Z</time>
      </trkpt>
      <trkpt lat="47.28702" lon="-2.33692">
        <ele>46</ele>
        <time>2022-04-03T07:30:06.000Z</time>
      </trkpt>
      <trkpt lat="47.28712" lon="-2.33693">
        <ele>46</ele>
        <time>2022-04-03T07:30:08.000Z</time>
      </trkpt>
      <trkpt lat="47.28731" lon="-2.33704">
        <ele>46</ele>
        <time>2022-04-03T07:30:12.000Z</time>
      </trkpt>
      <trkpt lat="47.28746" lon="-2.33725">
        <ele>46</ele>
        <time>2022-04-03T07:30:16.000Z</time>
      </trkpt>
      <trkpt lat="47.28752" lon="-2.33745">
        <ele>46</ele>
        <time>2022-04-03T07:30:20.000Z</time>
      </trkpt>
      <trkpt lat="47.28755" lon="-2.33755">
        <ele>46</ele>
        <time>2022-04-03T07:30:23.000Z</time>
      </trkpt>
      <trkpt lat="47.2876" lon="-2.33757">
        <ele>46</ele>
        <time>2022-04-03T07:30:25.000Z</time>
      </trkpt>
      <trkpt lat="47.28765" lon="-2.33745">
        <ele>46</ele>
        <time>2022-04-03T07:30:28.000Z</time>
      </trkpt>
      <trkpt lat="47.28762" lon="-2.33726">
        <ele>46</ele>
        <time>2022-04-03T07:30:31.000Z</time>
      </trkpt>
      <trkpt lat="47.28761" lon="-2.3371">
        <ele>46</ele>
        <time>2022-04-03T07:30:33.000Z</time>
      </trkpt>
      <trkpt lat="47.28759" lon="-2.33678">
        <ele>46</ele>
        <time>2022-04-03T07:30:37.000Z</time>
      </trkpt>
      <trkpt lat="47.2875" lon="-2.33607">
        <ele>46</ele>
        <time>2022-04-03T07:30:45.000Z</time>
      </trkpt>
      <trkpt lat="47.2874" lon="-2.33564">
        <ele>45.599998474121</ele>
        <time>2022-04-03T07:30:50.000Z</time>
      </trkpt>
      <trkpt lat="47.28739" lon="-2.33556">
        <ele>45.200000762939</ele>
        <time>2022-04-03T07:30:51.000Z</time>
      </trkpt>
      <trkpt lat="47.28736" lon="-2.33548">
        <ele>44.799999237061</ele>
        <time>2022-04-03T07:30:52.000Z</time>
      </trkpt>
      <trkpt lat="47.28734" lon="-2.3354">
        <ele>44</ele>
        <time>2022-04-03T07:30:53.000Z</time>
      </trkpt>
      <trkpt lat="47.28731" lon="-2.33532">
        <ele>44</ele>
        <time>2022-04-03T07:30:54.000Z</time>
      </trkpt>
      <trkpt lat="47.28723" lon="-2.33509">
        <ele>44</ele>
        <time>2022-04-03T07:30:57.000Z</time>
      </trkpt>
      <trkpt lat="47.2873" lon="-2.3349">
        <ele>44</ele>
        <time>2022-04-03T07:31:00.000Z</time>
      </trkpt>
      <trkpt lat="47.28747" lon="-2.33485">
        <ele>44</ele>
        <time>2022-04-03T07:31:03.000Z</time>
      </trkpt>
      <trkpt lat="47.28791" lon="-2.33477">
        <ele>44</ele>
        <time>2022-04-03T07:31:10.000Z</time>
      </trkpt>
      <trkpt lat="47.28838" lon="-2.33469">
        <ele>44</ele>
        <time>2022-04-03T07:31:18.000Z</time>
      </trkpt>
      <trkpt lat="47.28877" lon="-2.33455">
        <ele>44</ele>
        <time>2022-04-03T07:31:25.000Z</time>
      </trkpt>
      <trkpt lat="47.28882" lon="-2.33451">
        <ele>44</ele>
        <time>2022-04-03T07:31:26.000Z</time>
      </trkpt>
      <trkpt lat="47.28891" lon="-2.33441">
        <ele>44</ele>
        <time>2022-04-03T07:31:28.000Z</time>
      </trkpt>
      <trkpt lat="47.28902" lon="-2.33421">
        <ele>44</ele>
        <time>2022-04-03T07:31:31.000Z</time>
      </trkpt>
      <trkpt lat="47.28908" lon="-2.33395">
        <ele>44</ele>
        <time>2022-04-03T07:31:34.000Z</time>
      </trkpt>
      <trkpt lat="47.28912" lon="-2.33378">
        <ele>44</ele>
        <time>2022-04-03T07:31:36.000Z</time>
      </trkpt>
      <trkpt lat="47.28926" lon="-2.3332">
        <ele>44</ele>
        <time>2022-04-03T07:31:43.000Z</time>
      </trkpt>
      <trkpt lat="47.28932" lon="-2.33304">
        <ele>44</ele>
        <time>2022-04-03T07:31:45.000Z</time>
      </trkpt>
      <trkpt lat="47.28945" lon="-2.33275">
        <ele>44</ele>
        <time>2022-04-03T07:31:49.000Z</time>
      </trkpt>
      <trkpt lat="47.28967" lon="-2.33226">
        <ele>43.599998474121</ele>
        <time>2022-04-03T07:31:56.000Z</time>
      </trkpt>
      <trkpt lat="47.28971" lon="-2.3322">
        <ele>43.200000762939</ele>
        <time>2022-04-03T07:31:57.000Z</time>
      </trkpt>
      <trkpt lat="47.28975" lon="-2.33214">
        <ele>42.799999237061</ele>
        <time>2022-04-03T07:31:58.000Z</time>
      </trkpt>
      <trkpt lat="47.2898" lon="-2.33208">
        <ele>42.400001525879</ele>
        <time>2022-04-03T07:31:59.000Z</time>
      </trkpt>
      <trkpt lat="47.28984" lon="-2.33203">
        <ele>42</ele>
        <time>2022-04-03T07:32:00.000Z</time>
      </trkpt>
      <trkpt lat="47.28989" lon="-2.33199">
        <ele>42</ele>
        <time>2022-04-03T07:32:01.000Z</time>
      </trkpt>
      <trkpt lat="47.2902" lon="-2.33169">
        <ele>42</ele>
        <time>2022-04-03T07:32:08.000Z</time>
      </trkpt>
      <trkpt lat="47.29047" lon="-2.33146">
        <ele>42</ele>
        <time>2022-04-03T07:32:13.000Z</time>
      </trkpt>
      <trkpt lat="47.29081" lon="-2.33116">
        <ele>42</ele>
        <time>2022-04-03T07:32:19.000Z</time>
      </trkpt>
      <trkpt lat="47.29117" lon="-2.33073">
        <ele>42</ele>
        <time>2022-04-03T07:32:26.000Z</time>
      </trkpt>
      <trkpt lat="47.29156" lon="-2.33016">
        <ele>41.599998474121</ele>
        <time>2022-04-03T07:32:35.000Z</time>
      </trkpt>
      <trkpt lat="47.29159" lon="-2.3301">
        <ele>41</ele>
        <time>2022-04-03T07:32:36.000Z</time>
      </trkpt>
      <trkpt lat="47.29163" lon="-2.33005">
        <ele>40.599998474121</ele>
        <time>2022-04-03T07:32:37.000Z</time>
      </trkpt>
      <trkpt lat="47.29166" lon="-2.33">
        <ele>40.200000762939</ele>
        <time>2022-04-03T07:32:38.000Z</time>
      </trkpt>
      <trkpt lat="47.29169" lon="-2.32997">
        <ele>39.799999237061</ele>
        <time>2022-04-03T07:32:39.000Z</time>
      </trkpt>
      <trkpt lat="47.29172" lon="-2.32997">
        <ele>39.799999237061</ele>
        <time>2022-04-03T07:32:40.000Z</time>
      </trkpt>
      <trkpt lat="47.29182" lon="-2.33009">
        <ele>39.799999237061</ele>
        <time>2022-04-03T07:32:43.000Z</time>
      </trkpt>
      <trkpt lat="47.29184" lon="-2.33014">
        <ele>39.799999237061</ele>
        <time>2022-04-03T07:32:44.000Z</time>
      </trkpt>
      <trkpt lat="47.29198" lon="-2.33036">
        <ele>39.799999237061</ele>
        <time>2022-04-03T07:32:48.000Z</time>
      </trkpt>
      <trkpt lat="47.29214" lon="-2.3307">
        <ele>39.799999237061</ele>
        <time>2022-04-03T07:32:53.000Z</time>
      </trkpt>
      <trkpt lat="47.29238" lon="-2.33117">
        <ele>39.799999237061</ele>
        <time>2022-04-03T07:33:00.000Z</time>
      </trkpt>
      <trkpt lat="47.29265" lon="-2.33173">
        <ele>40.400001525879</ele>
        <time>2022-04-03T07:33:08.000Z</time>
      </trkpt>
      <trkpt lat="47.29269" lon="-2.3318">
        <ele>40.799999237061</ele>
        <time>2022-04-03T07:33:09.000Z</time>
      </trkpt>
      <trkpt lat="47.29272" lon="-2.33186">
        <ele>41.200000762939</ele>
        <time>2022-04-03T07:33:10.000Z</time>
      </trkpt>
      <trkpt lat="47.29276" lon="-2.33191">
        <ele>41.599998474121</ele>
        <time>2022-04-03T07:33:11.000Z</time>
      </trkpt>
      <trkpt lat="47.2928" lon="-2.33194">
        <ele>42</ele>
        <time>2022-04-03T07:33:12.000Z</time>
      </trkpt>
      <trkpt lat="47.29284" lon="-2.33194">
        <ele>42</ele>
        <time>2022-04-03T07:33:13.000Z</time>
      </trkpt>
      <trkpt lat="47.29297" lon="-2.33181">
        <ele>42</ele>
        <time>2022-04-03T07:33:16.000Z</time>
      </trkpt>
      <trkpt lat="47.29321" lon="-2.33151">
        <ele>42</ele>
        <time>2022-04-03T07:33:22.000Z</time>
      </trkpt>
      <trkpt lat="47.29348" lon="-2.33129">
        <ele>42</ele>
        <time>2022-04-03T07:33:28.000Z</time>
      </trkpt>
      <trkpt lat="47.29366" lon="-2.3312">
        <ele>42</ele>
        <time>2022-04-03T07:33:33.000Z</time>
      </trkpt>
      <trkpt lat="47.2937" lon="-2.33122">
        <ele>42</ele>
        <time>2022-04-03T07:33:34.000Z</time>
      </trkpt>
      <trkpt lat="47.29379" lon="-2.3313">
        <ele>42</ele>
        <time>2022-04-03T07:33:36.000Z</time>
      </trkpt>
      <trkpt lat="47.29398" lon="-2.33158">
        <ele>42</ele>
        <time>2022-04-03T07:33:41.000Z</time>
      </trkpt>
      <trkpt lat="47.29415" lon="-2.33203">
        <ele>42</ele>
        <time>2022-04-03T07:33:47.000Z</time>
      </trkpt>
      <trkpt lat="47.29426" lon="-2.33262">
        <ele>42</ele>
        <time>2022-04-03T07:33:54.000Z</time>
      </trkpt>
      <trkpt lat="47.29432" lon="-2.33324">
        <ele>42</ele>
        <time>2022-04-03T07:34:01.000Z</time>
      </trkpt>
      <trkpt lat="47.29432" lon="-2.33333">
        <ele>42</ele>
        <time>2022-04-03T07:34:02.000Z</time>
      </trkpt>
      <trkpt lat="47.29431" lon="-2.3337">
        <ele>42</ele>
        <time>2022-04-03T07:34:06.000Z</time>
      </trkpt>
      <trkpt lat="47.29434" lon="-2.33388">
        <ele>42</ele>
        <time>2022-04-03T07:34:08.000Z</time>
      </trkpt>
      <trkpt lat="47.29445" lon="-2.33421">
        <ele>42</ele>
        <time>2022-04-03T07:34:12.000Z</time>
      </trkpt>
      <trkpt lat="47.29449" lon="-2.33428">
        <ele>42</ele>
        <time>2022-04-03T07:34:13.000Z</time>
      </trkpt>
      <trkpt lat="47.29474" lon="-2.33481">
        <ele>42</ele>
        <time>2022-04-03T07:34:20.000Z</time>
      </trkpt>
      <trkpt lat="47.29504" lon="-2.33543">
        <ele>42</ele>
        <time>2022-04-03T07:34:28.000Z</time>
      </trkpt>
      <trkpt lat="47.29525" lon="-2.33603">
        <ele>42</ele>
        <time>2022-04-03T07:34:35.000Z</time>
      </trkpt>
      <trkpt lat="47.29544" lon="-2.33675">
        <ele>41.599998474121</ele>
        <time>2022-04-03T07:34:43.000Z</time>
      </trkpt>
      <trkpt lat="47.29547" lon="-2.33684">
        <ele>41.200000762939</ele>
        <time>2022-04-03T07:34:44.000Z</time>
      </trkpt>
      <trkpt lat="47.29551" lon="-2.33692">
        <ele>40.799999237061</ele>
        <time>2022-04-03T07:34:45.000Z</time>
      </trkpt>
      <trkpt lat="47.29555" lon="-2.337">
        <ele>40.400001525879</ele>
        <time>2022-04-03T07:34:46.000Z</time>
      </trkpt>
      <trkpt lat="47.2956" lon="-2.33706">
        <ele>40</ele>
        <time>2022-04-03T07:34:47.000Z</time>
      </trkpt>
      <trkpt lat="47.29565" lon="-2.33712">
        <ele>40</ele>
        <time>2022-04-03T07:34:48.000Z</time>
      </trkpt>
      <trkpt lat="47.29588" lon="-2.33742">
        <ele>40</ele>
        <time>2022-04-03T07:34:53.000Z</time>
      </trkpt>
      <trkpt lat="47.29593" lon="-2.33748">
        <ele>40</ele>
        <time>2022-04-03T07:34:54.000Z</time>
      </trkpt>
      <trkpt lat="47.29601" lon="-2.33761">
        <ele>40</ele>
        <time>2022-04-03T07:34:56.000Z</time>
      </trkpt>
      <trkpt lat="47.29611" lon="-2.33782">
        <ele>40</ele>
        <time>2022-04-03T07:34:59.000Z</time>
      </trkpt>
      <trkpt lat="47.2963" lon="-2.33819">
        <ele>40</ele>
        <time>2022-04-03T07:35:05.000Z</time>
      </trkpt>
      <trkpt lat="47.29642" lon="-2.33841">
        <ele>40</ele>
        <time>2022-04-03T07:35:09.000Z</time>
      </trkpt>
      <trkpt lat="47.29651" lon="-2.33848">
        <ele>40</ele>
        <time>2022-04-03T07:35:11.000Z</time>
      </trkpt>
      <trkpt lat="47.2966" lon="-2.33846">
        <ele>40.400001525879</ele>
        <time>2022-04-03T07:35:13.000Z</time>
      </trkpt>
      <trkpt lat="47.29663" lon="-2.33841">
        <ele>40.799999237061</ele>
        <time>2022-04-03T07:35:14.000Z</time>
      </trkpt>
      <trkpt lat="47.29666" lon="-2.33837">
        <ele>41.200000762939</ele>
        <time>2022-04-03T07:35:15.000Z</time>
      </trkpt>
      <trkpt lat="47.2967" lon="-2.33832">
        <ele>41.599998474121</ele>
        <time>2022-04-03T07:35:16.000Z</time>
      </trkpt>
      <trkpt lat="47.29675" lon="-2.33829">
        <ele>42</ele>
        <time>2022-04-03T07:35:17.000Z</time>
      </trkpt>
      <trkpt lat="47.29683" lon="-2.33819">
        <ele>42</ele>
        <time>2022-04-03T07:35:19.000Z</time>
      </trkpt>
      <trkpt lat="47.29687" lon="-2.33815">
        <ele>42</ele>
        <time>2022-04-03T07:35:20.000Z</time>
      </trkpt>
      <trkpt lat="47.29699" lon="-2.33803">
        <ele>42</ele>
        <time>2022-04-03T07:35:23.000Z</time>
      </trkpt>
      <trkpt lat="47.29704" lon="-2.33794">
        <ele>42</ele>
        <time>2022-04-03T07:35:25.000Z</time>
      </trkpt>
      <trkpt lat="47.2971" lon="-2.33785">
        <ele>42.400001525879</ele>
        <time>2022-04-03T07:35:27.000Z</time>
      </trkpt>
      <trkpt lat="47.29713" lon="-2.3378">
        <ele>43</ele>
        <time>2022-04-03T07:35:28.000Z</time>
      </trkpt>
      <trkpt lat="47.29716" lon="-2.33775">
        <ele>43.400001525879</ele>
        <time>2022-04-03T07:35:29.000Z</time>
      </trkpt>
      <trkpt lat="47.29719" lon="-2.3377">
        <ele>43.799999237061</ele>
        <time>2022-04-03T07:35:30.000Z</time>
      </trkpt>
      <trkpt lat="47.29722" lon="-2.33764">
        <ele>44.200000762939</ele>
        <time>2022-04-03T07:35:31.000Z</time>
      </trkpt>
      <trkpt lat="47.29724" lon="-2.33758">
        <ele>44.200000762939</ele>
        <time>2022-04-03T07:35:32.000Z</time>
      </trkpt>
      <trkpt lat="47.29738" lon="-2.33733">
        <ele>44.200000762939</ele>
        <time>2022-04-03T07:35:36.000Z</time>
      </trkpt>
      <trkpt lat="47.29762" lon="-2.33692">
        <ele>44.200000762939</ele>
        <time>2022-04-03T07:35:42.000Z</time>
      </trkpt>
      <trkpt lat="47.29801" lon="-2.33626">
        <ele>44.200000762939</ele>
        <time>2022-04-03T07:35:51.000Z</time>
      </trkpt>
      <trkpt lat="47.29832" lon="-2.33573">
        <ele>44.200000762939</ele>
        <time>2022-04-03T07:35:58.000Z</time>
      </trkpt>
      <trkpt lat="47.29849" lon="-2.33543">
        <ele>43.799999237061</ele>
        <time>2022-04-03T07:36:02.000Z</time>
      </trkpt>
      <trkpt lat="47.29854" lon="-2.33535">
        <ele>43.400001525879</ele>
        <time>2022-04-03T07:36:03.000Z</time>
      </trkpt>
      <trkpt lat="47.29858" lon="-2.33527">
        <ele>42.799999237061</ele>
        <time>2022-04-03T07:36:04.000Z</time>
      </trkpt>
      <trkpt lat="47.29863" lon="-2.33519">
        <ele>42.400001525879</ele>
        <time>2022-04-03T07:36:05.000Z</time>
      </trkpt>
      <trkpt lat="47.29868" lon="-2.33511">
        <ele>42</ele>
        <time>2022-04-03T07:36:06.000Z</time>
      </trkpt>
      <trkpt lat="47.29891" lon="-2.33473">
        <ele>41.599998474121</ele>
        <time>2022-04-03T07:36:12.000Z</time>
      </trkpt>
      <trkpt lat="47.29894" lon="-2.33469">
        <ele>41.200000762939</ele>
        <time>2022-04-03T07:36:13.000Z</time>
      </trkpt>
      <trkpt lat="47.29897" lon="-2.33464">
        <ele>40.400001525879</ele>
        <time>2022-04-03T07:36:14.000Z</time>
      </trkpt>
      <trkpt lat="47.29901" lon="-2.3346">
        <ele>40</ele>
        <time>2022-04-03T07:36:15.000Z</time>
      </trkpt>
      <trkpt lat="47.29904" lon="-2.33455">
        <ele>40</ele>
        <time>2022-04-03T07:36:16.000Z</time>
      </trkpt>
      <trkpt lat="47.29913" lon="-2.33447">
        <ele>40</ele>
        <time>2022-04-03T07:36:18.000Z</time>
      </trkpt>
      <trkpt lat="47.29922" lon="-2.33443">
        <ele>40</ele>
        <time>2022-04-03T07:36:20.000Z</time>
      </trkpt>
      <trkpt lat="47.29932" lon="-2.3345">
        <ele>40</ele>
        <time>2022-04-03T07:36:22.000Z</time>
      </trkpt>
      <trkpt lat="47.29941" lon="-2.3346">
        <ele>40</ele>
        <time>2022-04-03T07:36:24.000Z</time>
      </trkpt>
      <trkpt lat="47.29954" lon="-2.33476">
        <ele>40</ele>
        <time>2022-04-03T07:36:27.000Z</time>
      </trkpt>
      <trkpt lat="47.29981" lon="-2.33506">
        <ele>40</ele>
        <time>2022-04-03T07:36:33.000Z</time>
      </trkpt>
      <trkpt lat="47.29995" lon="-2.33518">
        <ele>40</ele>
        <time>2022-04-03T07:36:36.000Z</time>
      </trkpt>
      <trkpt lat="47.30003" lon="-2.33528">
        <ele>40</ele>
        <time>2022-04-03T07:36:38.000Z</time>
      </trkpt>
      <trkpt lat="47.30003" lon="-2.33549">
        <ele>40</ele>
        <time>2022-04-03T07:36:41.000Z</time>
      </trkpt>
      <trkpt lat="47.30002" lon="-2.33557">
        <ele>40</ele>
        <time>2022-04-03T07:36:42.000Z</time>
      </trkpt>
      <trkpt lat="47.3" lon="-2.33598">
        <ele>40</ele>
        <time>2022-04-03T07:36:47.000Z</time>
      </trkpt>
      <trkpt lat="47.30003" lon="-2.33659">
        <ele>40</ele>
        <time>2022-04-03T07:36:54.000Z</time>
      </trkpt>
      <trkpt lat="47.30001" lon="-2.33701">
        <ele>40</ele>
        <time>2022-04-03T07:36:59.000Z</time>
      </trkpt>
      <trkpt lat="47.3" lon="-2.33717">
        <ele>40</ele>
        <time>2022-04-03T07:37:01.000Z</time>
      </trkpt>
      <trkpt lat="47.29998" lon="-2.33739">
        <ele>40.400001525879</ele>
        <time>2022-04-03T07:37:04.000Z</time>
      </trkpt>
      <trkpt lat="47.29998" lon="-2.33746">
        <ele>40.799999237061</ele>
        <time>2022-04-03T07:37:05.000Z</time>
      </trkpt>
      <trkpt lat="47.29997" lon="-2.33754">
        <ele>41.200000762939</ele>
        <time>2022-04-03T07:37:06.000Z</time>
      </trkpt>
      <trkpt lat="47.29996" lon="-2.33761">
        <ele>41.599998474121</ele>
        <time>2022-04-03T07:37:07.000Z</time>
      </trkpt>
      <trkpt lat="47.29996" lon="-2.33769">
        <ele>42</ele>
        <time>2022-04-03T07:37:08.000Z</time>
      </trkpt>
      <trkpt lat="47.29997" lon="-2.33776">
        <ele>42</ele>
        <time>2022-04-03T07:37:09.000Z</time>
      </trkpt>
      <trkpt lat="47.29999" lon="-2.33791">
        <ele>42</ele>
        <time>2022-04-03T07:37:11.000Z</time>
      </trkpt>
      <trkpt lat="47.30002" lon="-2.33806">
        <ele>42</ele>
        <time>2022-04-03T07:37:13.000Z</time>
      </trkpt>
      <trkpt lat="47.30007" lon="-2.3382">
        <ele>42</ele>
        <time>2022-04-03T07:37:15.000Z</time>
      </trkpt>
      <trkpt lat="47.3001" lon="-2.33827">
        <ele>42</ele>
        <time>2022-04-03T07:37:16.000Z</time>
      </trkpt>
      <trkpt lat="47.30021" lon="-2.33848">
        <ele>42</ele>
        <time>2022-04-03T07:37:19.000Z</time>
      </trkpt>
      <trkpt lat="47.30028" lon="-2.33861">
        <ele>42.400001525879</ele>
        <time>2022-04-03T07:37:21.000Z</time>
      </trkpt>
      <trkpt lat="47.30031" lon="-2.33868">
        <ele>42.799999237061</ele>
        <time>2022-04-03T07:37:22.000Z</time>
      </trkpt>
      <trkpt lat="47.30034" lon="-2.33874">
        <ele>43.200000762939</ele>
        <time>2022-04-03T07:37:23.000Z</time>
      </trkpt>
      <trkpt lat="47.30037" lon="-2.3388">
        <ele>43.599998474121</ele>
        <time>2022-04-03T07:37:24.000Z</time>
      </trkpt>
      <trkpt lat="47.3004" lon="-2.33886">
        <ele>44</ele>
        <time>2022-04-03T07:37:25.000Z</time>
      </trkpt>
      <trkpt lat="47.30043" lon="-2.33892">
        <ele>44</ele>
        <time>2022-04-03T07:37:26.000Z</time>
      </trkpt>
      <trkpt lat="47.30058" lon="-2.33927">
        <ele>44</ele>
        <time>2022-04-03T07:37:31.000Z</time>
      </trkpt>
      <trkpt lat="47.30079" lon="-2.33976">
        <ele>44</ele>
        <time>2022-04-03T07:37:38.000Z</time>
      </trkpt>
      <trkpt lat="47.30086" lon="-2.33989">
        <ele>44.400001525879</ele>
        <time>2022-04-03T07:37:40.000Z</time>
      </trkpt>
      <trkpt lat="47.30088" lon="-2.33995">
        <ele>44.799999237061</ele>
        <time>2022-04-03T07:37:41.000Z</time>
      </trkpt>
      <trkpt lat="47.30091" lon="-2.34001">
        <ele>45.400001525879</ele>
        <time>2022-04-03T07:37:42.000Z</time>
      </trkpt>
      <trkpt lat="47.30095" lon="-2.34006">
        <ele>45.799999237061</ele>
        <time>2022-04-03T07:37:43.000Z</time>
      </trkpt>
      <trkpt lat="47.301" lon="-2.34007">
        <ele>46.200000762939</ele>
        <time>2022-04-03T07:37:44.000Z</time>
      </trkpt>
      <trkpt lat="47.30108" lon="-2.34003">
        <ele>46.200000762939</ele>
        <time>2022-04-03T07:37:46.000Z</time>
      </trkpt>
      <trkpt lat="47.30119" lon="-2.33991">
        <ele>46.200000762939</ele>
        <time>2022-04-03T07:37:49.000Z</time>
      </trkpt>
      <trkpt lat="47.30122" lon="-2.33987">
        <ele>46.200000762939</ele>
        <time>2022-04-03T07:37:50.000Z</time>
      </trkpt>
      <trkpt lat="47.30126" lon="-2.33984">
        <ele>46.200000762939</ele>
        <time>2022-04-03T07:37:51.000Z</time>
      </trkpt>
      <trkpt lat="47.30134" lon="-2.33976">
        <ele>46.599998474121</ele>
        <time>2022-04-03T07:37:53.000Z</time>
      </trkpt>
      <trkpt lat="47.30138" lon="-2.33972">
        <ele>47</ele>
        <time>2022-04-03T07:37:54.000Z</time>
      </trkpt>
      <trkpt lat="47.30142" lon="-2.33968">
        <ele>47.400001525879</ele>
        <time>2022-04-03T07:37:55.000Z</time>
      </trkpt>
      <trkpt lat="47.30146" lon="-2.33964">
        <ele>48</ele>
        <time>2022-04-03T07:37:56.000Z</time>
      </trkpt>
      <trkpt lat="47.30151" lon="-2.3396">
        <ele>48.400001525879</ele>
        <time>2022-04-03T07:37:57.000Z</time>
      </trkpt>
      <trkpt lat="47.30155" lon="-2.33957">
        <ele>48.400001525879</ele>
        <time>2022-04-03T07:37:58.000Z</time>
      </trkpt>
      <trkpt lat="47.30167" lon="-2.33949">
        <ele>48.400001525879</ele>
        <time>2022-04-03T07:38:01.000Z</time>
      </trkpt>
      <trkpt lat="47.3017" lon="-2.33945">
        <ele>48.400001525879</ele>
        <time>2022-04-03T07:38:02.000Z</time>
      </trkpt>
      <trkpt lat="47.30184" lon="-2.3393">
        <ele>48.400001525879</ele>
        <time>2022-04-03T07:38:06.000Z</time>
      </trkpt>
      <trkpt lat="47.30199" lon="-2.33915">
        <ele>48.799999237061</ele>
        <time>2022-04-03T07:38:10.000Z</time>
      </trkpt>
      <trkpt lat="47.30202" lon="-2.33911">
        <ele>49.200000762939</ele>
        <time>2022-04-03T07:38:11.000Z</time>
      </trkpt>
      <trkpt lat="47.30207" lon="-2.33907">
        <ele>49.599998474121</ele>
        <time>2022-04-03T07:38:12.000Z</time>
      </trkpt>
      <trkpt lat="47.30211" lon="-2.33904">
        <ele>50</ele>
        <time>2022-04-03T07:38:13.000Z</time>
      </trkpt>
      <trkpt lat="47.30215" lon="-2.339">
        <ele>50.400001525879</ele>
        <time>2022-04-03T07:38:14.000Z</time>
      </trkpt>
      <trkpt lat="47.30241" lon="-2.3388">
        <ele>50.400001525879</ele>
        <time>2022-04-03T07:38:20.000Z</time>
      </trkpt>
      <trkpt lat="47.30266" lon="-2.33862">
        <ele>50.799999237061</ele>
        <time>2022-04-03T07:38:26.000Z</time>
      </trkpt>
      <trkpt lat="47.30269" lon="-2.33858">
        <ele>51.200000762939</ele>
        <time>2022-04-03T07:38:27.000Z</time>
      </trkpt>
      <trkpt lat="47.30272" lon="-2.33855">
        <ele>51.599998474121</ele>
        <time>2022-04-03T07:38:28.000Z</time>
      </trkpt>
      <trkpt lat="47.30275" lon="-2.33852">
        <ele>52</ele>
        <time>2022-04-03T07:38:29.000Z</time>
      </trkpt>
      <trkpt lat="47.30279" lon="-2.33849">
        <ele>52.400001525879</ele>
        <time>2022-04-03T07:38:30.000Z</time>
      </trkpt>
      <trkpt lat="47.30287" lon="-2.33843">
        <ele>52.400001525879</ele>
        <time>2022-04-03T07:38:32.000Z</time>
      </trkpt>
      <trkpt lat="47.30295" lon="-2.33836">
        <ele>52.400001525879</ele>
        <time>2022-04-03T07:38:34.000Z</time>
      </trkpt>
      <trkpt lat="47.30313" lon="-2.33824">
        <ele>52.400001525879</ele>
        <time>2022-04-03T07:38:38.000Z</time>
      </trkpt>
      <trkpt lat="47.30322" lon="-2.33819">
        <ele>52.400001525879</ele>
        <time>2022-04-03T07:38:40.000Z</time>
      </trkpt>
      <trkpt lat="47.30334" lon="-2.3381">
        <ele>52.400001525879</ele>
        <time>2022-04-03T07:38:43.000Z</time>
      </trkpt>
      <trkpt lat="47.30344" lon="-2.33796">
        <ele>52.400001525879</ele>
        <time>2022-04-03T07:38:46.000Z</time>
      </trkpt>
      <trkpt lat="47.30356" lon="-2.33782">
        <ele>52.400001525879</ele>
        <time>2022-04-03T07:38:49.000Z</time>
      </trkpt>
      <trkpt lat="47.30367" lon="-2.33768">
        <ele>52.400001525879</ele>
        <time>2022-04-03T07:38:52.000Z</time>
      </trkpt>
      <trkpt lat="47.30379" lon="-2.33753">
        <ele>52.400001525879</ele>
        <time>2022-04-03T07:38:55.000Z</time>
      </trkpt>
      <trkpt lat="47.30393" lon="-2.33732">
        <ele>52.400001525879</ele>
        <time>2022-04-03T07:38:59.000Z</time>
      </trkpt>
      <trkpt lat="47.30398" lon="-2.33721">
        <ele>52.400001525879</ele>
        <time>2022-04-03T07:39:01.000Z</time>
      </trkpt>
      <trkpt lat="47.30417" lon="-2.33693">
        <ele>52.400001525879</ele>
        <time>2022-04-03T07:39:06.000Z</time>
      </trkpt>
      <trkpt lat="47.30422" lon="-2.3369">
        <ele>52.400001525879</ele>
        <time>2022-04-03T07:39:07.000Z</time>
      </trkpt>
      <trkpt lat="47.30443" lon="-2.3368">
        <ele>52.400001525879</ele>
        <time>2022-04-03T07:39:11.000Z</time>
      </trkpt>
      <trkpt lat="47.30449" lon="-2.33676">
        <ele>52.400001525879</ele>
        <time>2022-04-03T07:39:12.000Z</time>
      </trkpt>
      <trkpt lat="47.30459" lon="-2.33672">
        <ele>52.400001525879</ele>
        <time>2022-04-03T07:39:14.000Z</time>
      </trkpt>
      <trkpt lat="47.30474" lon="-2.33663">
        <ele>52.400001525879</ele>
        <time>2022-04-03T07:39:17.000Z</time>
      </trkpt>
      <trkpt lat="47.30513" lon="-2.33647">
        <ele>52.400001525879</ele>
        <time>2022-04-03T07:39:24.000Z</time>
      </trkpt>
      <trkpt lat="47.30519" lon="-2.33646">
        <ele>52.400001525879</ele>
        <time>2022-04-03T07:39:25.000Z</time>
      </trkpt>
      <trkpt lat="47.3054" lon="-2.33643">
        <ele>52.400001525879</ele>
        <time>2022-04-03T07:39:29.000Z</time>
      </trkpt>
      <trkpt lat="47.30546" lon="-2.33644">
        <ele>52.400001525879</ele>
        <time>2022-04-03T07:39:30.000Z</time>
      </trkpt>
      <trkpt lat="47.3055" lon="-2.33649">
        <ele>52</ele>
        <time>2022-04-03T07:39:31.000Z</time>
      </trkpt>
      <trkpt lat="47.30553" lon="-2.33655">
        <ele>51.200000762939</ele>
        <time>2022-04-03T07:39:32.000Z</time>
      </trkpt>
      <trkpt lat="47.30555" lon="-2.33662">
        <ele>50.799999237061</ele>
        <time>2022-04-03T07:39:33.000Z</time>
      </trkpt>
      <trkpt lat="47.30556" lon="-2.33668">
        <ele>50.400001525879</ele>
        <time>2022-04-03T07:39:34.000Z</time>
      </trkpt>
      <trkpt lat="47.30557" lon="-2.33675">
        <ele>50.400001525879</ele>
        <time>2022-04-03T07:39:35.000Z</time>
      </trkpt>
      <trkpt lat="47.30558" lon="-2.33681">
        <ele>50.400001525879</ele>
        <time>2022-04-03T07:39:36.000Z</time>
      </trkpt>
      <trkpt lat="47.30566" lon="-2.33723">
        <ele>50.400001525879</ele>
        <time>2022-04-03T07:39:42.000Z</time>
      </trkpt>
      <trkpt lat="47.3057" lon="-2.33737">
        <ele>50.799999237061</ele>
        <time>2022-04-03T07:39:44.000Z</time>
      </trkpt>
      <trkpt lat="47.30571" lon="-2.33743">
        <ele>51.200000762939</ele>
        <time>2022-04-03T07:39:45.000Z</time>
      </trkpt>
      <trkpt lat="47.30571" lon="-2.33748">
        <ele>51.799999237061</ele>
        <time>2022-04-03T07:39:46.000Z</time>
      </trkpt>
      <trkpt lat="47.30571" lon="-2.33754">
        <ele>52.200000762939</ele>
        <time>2022-04-03T07:39:47.000Z</time>
      </trkpt>
      <trkpt lat="47.30572" lon="-2.3376">
        <ele>52.599998474121</ele>
        <time>2022-04-03T07:39:48.000Z</time>
      </trkpt>
      <trkpt lat="47.30573" lon="-2.33767">
        <ele>52.599998474121</ele>
        <time>2022-04-03T07:39:49.000Z</time>
      </trkpt>
      <trkpt lat="47.30575" lon="-2.33783">
        <ele>52.599998474121</ele>
        <time>2022-04-03T07:39:51.000Z</time>
      </trkpt>
      <trkpt lat="47.30577" lon="-2.3379">
        <ele>52.599998474121</ele>
        <time>2022-04-03T07:39:52.000Z</time>
      </trkpt>
      <trkpt lat="47.30588" lon="-2.33828">
        <ele>52.599998474121</ele>
        <time>2022-04-03T07:39:58.000Z</time>
      </trkpt>
      <trkpt lat="47.30594" lon="-2.33848">
        <ele>52.599998474121</ele>
        <time>2022-04-03T07:40:02.000Z</time>
      </trkpt>
      <trkpt lat="47.30595" lon="-2.33854">
        <ele>52.599998474121</ele>
        <time>2022-04-03T07:40:03.000Z</time>
      </trkpt>
      <trkpt lat="47.30597" lon="-2.33878">
        <ele>52.599998474121</ele>
        <time>2022-04-03T07:40:07.000Z</time>
      </trkpt>
      <trkpt lat="47.30598" lon="-2.33896">
        <ele>52.599998474121</ele>
        <time>2022-04-03T07:40:10.000Z</time>
      </trkpt>
      <trkpt lat="47.30599" lon="-2.3391">
        <ele>52.599998474121</ele>
        <time>2022-04-03T07:40:12.000Z</time>
      </trkpt>
      <trkpt lat="47.30602" lon="-2.33929">
        <ele>52.599998474121</ele>
        <time>2022-04-03T07:40:15.000Z</time>
      </trkpt>
      <trkpt lat="47.30605" lon="-2.3394">
        <ele>52.599998474121</ele>
        <time>2022-04-03T07:40:17.000Z</time>
      </trkpt>
      <trkpt lat="47.30612" lon="-2.33954">
        <ele>52.599998474121</ele>
        <time>2022-04-03T07:40:20.000Z</time>
      </trkpt>
      <trkpt lat="47.30615" lon="-2.33958">
        <ele>52.599998474121</ele>
        <time>2022-04-03T07:40:21.000Z</time>
      </trkpt>
      <trkpt lat="47.30627" lon="-2.3397">
        <ele>52.599998474121</ele>
        <time>2022-04-03T07:40:24.000Z</time>
      </trkpt>
      <trkpt lat="47.30636" lon="-2.33979">
        <ele>52.599998474121</ele>
        <time>2022-04-03T07:40:26.000Z</time>
      </trkpt>
      <trkpt lat="47.30645" lon="-2.33987">
        <ele>52.599998474121</ele>
        <time>2022-04-03T07:40:28.000Z</time>
      </trkpt>
      <trkpt lat="47.30662" lon="-2.33991">
        <ele>52.599998474121</ele>
        <time>2022-04-03T07:40:31.000Z</time>
      </trkpt>
      <trkpt lat="47.30682" lon="-2.33991">
        <ele>52.599998474121</ele>
        <time>2022-04-03T07:40:35.000Z</time>
      </trkpt>
      <trkpt lat="47.30688" lon="-2.33991">
        <ele>52.599998474121</ele>
        <time>2022-04-03T07:40:36.000Z</time>
      </trkpt>
      <trkpt lat="47.30725" lon="-2.33983">
        <ele>52.599998474121</ele>
        <time>2022-04-03T07:40:43.000Z</time>
      </trkpt>
      <trkpt lat="47.30754" lon="-2.33974">
        <ele>52.599998474121</ele>
        <time>2022-04-03T07:40:49.000Z</time>
      </trkpt>
      <trkpt lat="47.30771" lon="-2.3397">
        <ele>52.599998474121</ele>
        <time>2022-04-03T07:40:55.000Z</time>
      </trkpt>
      <trkpt lat="47.30779" lon="-2.33979">
        <ele>52.599998474121</ele>
        <time>2022-04-03T07:40:59.000Z</time>
      </trkpt>
      <trkpt lat="47.3078" lon="-2.34">
        <ele>52.599998474121</ele>
        <time>2022-04-03T07:41:03.000Z</time>
      </trkpt>
      <trkpt lat="47.30779" lon="-2.34013">
        <ele>52.599998474121</ele>
        <time>2022-04-03T07:41:05.000Z</time>
      </trkpt>
      <trkpt lat="47.30778" lon="-2.34033">
        <ele>52.599998474121</ele>
        <time>2022-04-03T07:41:08.000Z</time>
      </trkpt>
      <trkpt lat="47.30778" lon="-2.34046">
        <ele>53</ele>
        <time>2022-04-03T07:41:10.000Z</time>
      </trkpt>
      <trkpt lat="47.30777" lon="-2.34053">
        <ele>53.799999237061</ele>
        <time>2022-04-03T07:41:11.000Z</time>
      </trkpt>
      <trkpt lat="47.30777" lon="-2.3406">
        <ele>54.200000762939</ele>
        <time>2022-04-03T07:41:12.000Z</time>
      </trkpt>
      <trkpt lat="47.30777" lon="-2.34067">
        <ele>54.599998474121</ele>
        <time>2022-04-03T07:41:13.000Z</time>
      </trkpt>
      <trkpt lat="47.30774" lon="-2.34101">
        <ele>54.599998474121</ele>
        <time>2022-04-03T07:41:18.000Z</time>
      </trkpt>
      <trkpt lat="47.30771" lon="-2.34146">
        <ele>54.599998474121</ele>
        <time>2022-04-03T07:41:24.000Z</time>
      </trkpt>
      <trkpt lat="47.3077" lon="-2.3416">
        <ele>54.599998474121</ele>
        <time>2022-04-03T07:41:26.000Z</time>
      </trkpt>
      <trkpt lat="47.3077" lon="-2.34175">
        <ele>54.599998474121</ele>
        <time>2022-04-03T07:41:28.000Z</time>
      </trkpt>
      <trkpt lat="47.3077" lon="-2.34182">
        <ele>54.599998474121</ele>
        <time>2022-04-03T07:41:29.000Z</time>
      </trkpt>
      <trkpt lat="47.30766" lon="-2.34209">
        <ele>54.599998474121</ele>
        <time>2022-04-03T07:41:33.000Z</time>
      </trkpt>
      <trkpt lat="47.30761" lon="-2.34214">
        <ele>54.599998474121</ele>
        <time>2022-04-03T07:41:34.000Z</time>
      </trkpt>
      <trkpt lat="47.30745" lon="-2.34217">
        <ele>54.599998474121</ele>
        <time>2022-04-03T07:41:37.000Z</time>
      </trkpt>
      <trkpt lat="47.30731" lon="-2.34221">
        <ele>54.599998474121</ele>
        <time>2022-04-03T07:41:40.000Z</time>
      </trkpt>
      <trkpt lat="47.30729" lon="-2.34226">
        <ele>54.599998474121</ele>
        <time>2022-04-03T07:41:41.000Z</time>
      </trkpt>
      <trkpt lat="47.30728" lon="-2.34248">
        <ele>54.599998474121</ele>
        <time>2022-04-03T07:41:44.000Z</time>
      </trkpt>
      <trkpt lat="47.3072" lon="-2.34283">
        <ele>54.599998474121</ele>
        <time>2022-04-03T07:41:49.000Z</time>
      </trkpt>
      <trkpt lat="47.30712" lon="-2.34298">
        <ele>54.599998474121</ele>
        <time>2022-04-03T07:41:52.000Z</time>
      </trkpt>
      <trkpt lat="47.3071" lon="-2.34304">
        <ele>54.599998474121</ele>
        <time>2022-04-03T07:41:53.000Z</time>
      </trkpt>
      <trkpt lat="47.307" lon="-2.34321">
        <ele>54.599998474121</ele>
        <time>2022-04-03T07:41:56.000Z</time>
      </trkpt>
      <trkpt lat="47.30696" lon="-2.34327">
        <ele>55</ele>
        <time>2022-04-03T07:41:57.000Z</time>
      </trkpt>
      <trkpt lat="47.30694" lon="-2.34331">
        <ele>55.400001525879</ele>
        <time>2022-04-03T07:41:58.000Z</time>
      </trkpt>
      <trkpt lat="47.30692" lon="-2.34336">
        <ele>55.799999237061</ele>
        <time>2022-04-03T07:41:59.000Z</time>
      </trkpt>
      <trkpt lat="47.30689" lon="-2.34342">
        <ele>56.599998474121</ele>
        <time>2022-04-03T07:42:00.000Z</time>
      </trkpt>
      <trkpt lat="47.30676" lon="-2.34366">
        <ele>56.599998474121</ele>
        <time>2022-04-03T07:42:04.000Z</time>
      </trkpt>
      <trkpt lat="47.30673" lon="-2.34371">
        <ele>56.599998474121</ele>
        <time>2022-04-03T07:42:05.000Z</time>
      </trkpt>
      <trkpt lat="47.30654" lon="-2.34399">
        <ele>56.599998474121</ele>
        <time>2022-04-03T07:42:10.000Z</time>
      </trkpt>
      <trkpt lat="47.30634" lon="-2.34425">
        <ele>56.599998474121</ele>
        <time>2022-04-03T07:42:15.000Z</time>
      </trkpt>
      <trkpt lat="47.30631" lon="-2.34431">
        <ele>56.599998474121</ele>
        <time>2022-04-03T07:42:16.000Z</time>
      </trkpt>
      <trkpt lat="47.30611" lon="-2.34457">
        <ele>56.599998474121</ele>
        <time>2022-04-03T07:42:21.000Z</time>
      </trkpt>
      <trkpt lat="47.30608" lon="-2.34462">
        <ele>56.599998474121</ele>
        <time>2022-04-03T07:42:22.000Z</time>
      </trkpt>
      <trkpt lat="47.30584" lon="-2.345">
        <ele>56.599998474121</ele>
        <time>2022-04-03T07:42:28.000Z</time>
      </trkpt>
      <trkpt lat="47.30565" lon="-2.34539">
        <ele>56.599998474121</ele>
        <time>2022-04-03T07:42:33.000Z</time>
      </trkpt>
      <trkpt lat="47.30543" lon="-2.34574">
        <ele>56.599998474121</ele>
        <time>2022-04-03T07:42:38.000Z</time>
      </trkpt>
      <trkpt lat="47.30516" lon="-2.34614">
        <ele>56.599998474121</ele>
        <time>2022-04-03T07:42:44.000Z</time>
      </trkpt>
      <trkpt lat="47.30491" lon="-2.34654">
        <ele>56.599998474121</ele>
        <time>2022-04-03T07:42:50.000Z</time>
      </trkpt>
      <trkpt lat="47.3047" lon="-2.34678">
        <ele>56.599998474121</ele>
        <time>2022-04-03T07:42:54.000Z</time>
      </trkpt>
      <trkpt lat="47.30449" lon="-2.34697">
        <ele>56.599998474121</ele>
        <time>2022-04-03T07:42:58.000Z</time>
      </trkpt>
      <trkpt lat="47.30441" lon="-2.34706">
        <ele>56.599998474121</ele>
        <time>2022-04-03T07:43:00.000Z</time>
      </trkpt>
      <trkpt lat="47.30427" lon="-2.34721">
        <ele>56.599998474121</ele>
        <time>2022-04-03T07:43:03.000Z</time>
      </trkpt>
      <trkpt lat="47.30418" lon="-2.34728">
        <ele>56.599998474121</ele>
        <time>2022-04-03T07:43:05.000Z</time>
      </trkpt>
      <trkpt lat="47.3038" lon="-2.34752">
        <ele>56.599998474121</ele>
        <time>2022-04-03T07:43:12.000Z</time>
      </trkpt>
      <trkpt lat="47.30366" lon="-2.34762">
        <ele>56.599998474121</ele>
        <time>2022-04-03T07:43:15.000Z</time>
      </trkpt>
      <trkpt lat="47.30355" lon="-2.34768">
        <ele>56.599998474121</ele>
        <time>2022-04-03T07:43:17.000Z</time>
      </trkpt>
      <trkpt lat="47.3035" lon="-2.34772">
        <ele>56.599998474121</ele>
        <time>2022-04-03T07:43:18.000Z</time>
      </trkpt>
      <trkpt lat="47.30336" lon="-2.34789">
        <ele>56.599998474121</ele>
        <time>2022-04-03T07:43:21.000Z</time>
      </trkpt>
      <trkpt lat="47.30325" lon="-2.34809">
        <ele>56.599998474121</ele>
        <time>2022-04-03T07:43:24.000Z</time>
      </trkpt>
      <trkpt lat="47.3032" lon="-2.34816">
        <ele>56.599998474121</ele>
        <time>2022-04-03T07:43:25.000Z</time>
      </trkpt>
      <trkpt lat="47.3029" lon="-2.3485">
        <ele>56.599998474121</ele>
        <time>2022-04-03T07:43:31.000Z</time>
      </trkpt>
      <trkpt lat="47.30259" lon="-2.34866">
        <ele>56.599998474121</ele>
        <time>2022-04-03T07:43:36.000Z</time>
      </trkpt>
      <trkpt lat="47.3023" lon="-2.34888">
        <ele>56.599998474121</ele>
        <time>2022-04-03T07:43:41.000Z</time>
      </trkpt>
      <trkpt lat="47.30225" lon="-2.34893">
        <ele>56.599998474121</ele>
        <time>2022-04-03T07:43:42.000Z</time>
      </trkpt>
      <trkpt lat="47.3021" lon="-2.34911">
        <ele>56.599998474121</ele>
        <time>2022-04-03T07:43:45.000Z</time>
      </trkpt>
      <trkpt lat="47.3021" lon="-2.3492">
        <ele>56.599998474121</ele>
        <time>2022-04-03T07:43:46.000Z</time>
      </trkpt>
      <trkpt lat="47.3021" lon="-2.34958">
        <ele>56.200000762939</ele>
        <time>2022-04-03T07:43:50.000Z</time>
      </trkpt>
      <trkpt lat="47.30209" lon="-2.34968">
        <ele>55.799999237061</ele>
        <time>2022-04-03T07:43:51.000Z</time>
      </trkpt>
      <trkpt lat="47.30209" lon="-2.34977">
        <ele>55.400001525879</ele>
        <time>2022-04-03T07:43:52.000Z</time>
      </trkpt>
      <trkpt lat="47.30208" lon="-2.34988">
        <ele>55</ele>
        <time>2022-04-03T07:43:53.000Z</time>
      </trkpt>
      <trkpt lat="47.30208" lon="-2.34998">
        <ele>54.599998474121</ele>
        <time>2022-04-03T07:43:54.000Z</time>
      </trkpt>
      <trkpt lat="47.3021" lon="-2.35018">
        <ele>54.599998474121</ele>
        <time>2022-04-03T07:43:56.000Z</time>
      </trkpt>
      <trkpt lat="47.30209" lon="-2.35048">
        <ele>54.200000762939</ele>
        <time>2022-04-03T07:43:59.000Z</time>
      </trkpt>
      <trkpt lat="47.30209" lon="-2.35057">
        <ele>53.799999237061</ele>
        <time>2022-04-03T07:44:00.000Z</time>
      </trkpt>
      <trkpt lat="47.30209" lon="-2.35067">
        <ele>53.400001525879</ele>
        <time>2022-04-03T07:44:01.000Z</time>
      </trkpt>
      <trkpt lat="47.30209" lon="-2.35076">
        <ele>52.799999237061</ele>
        <time>2022-04-03T07:44:02.000Z</time>
      </trkpt>
      <trkpt lat="47.3021" lon="-2.35085">
        <ele>52.400001525879</ele>
        <time>2022-04-03T07:44:03.000Z</time>
      </trkpt>
      <trkpt lat="47.30209" lon="-2.35113">
        <ele>52.400001525879</ele>
        <time>2022-04-03T07:44:06.000Z</time>
      </trkpt>
      <trkpt lat="47.30208" lon="-2.35149">
        <ele>52.400001525879</ele>
        <time>2022-04-03T07:44:10.000Z</time>
      </trkpt>
      <trkpt lat="47.30208" lon="-2.35155">
        <ele>52</ele>
        <time>2022-04-03T07:44:11.000Z</time>
      </trkpt>
      <trkpt lat="47.30206" lon="-2.3516">
        <ele>51.599998474121</ele>
        <time>2022-04-03T07:44:12.000Z</time>
      </trkpt>
      <trkpt lat="47.30204" lon="-2.35164">
        <ele>51.200000762939</ele>
        <time>2022-04-03T07:44:13.000Z</time>
      </trkpt>
      <trkpt lat="47.30201" lon="-2.35167">
        <ele>50.599998474121</ele>
        <time>2022-04-03T07:44:14.000Z</time>
      </trkpt>
      <trkpt lat="47.30197" lon="-2.35168">
        <ele>50.200000762939</ele>
        <time>2022-04-03T07:44:15.000Z</time>
      </trkpt>
      <trkpt lat="47.30191" lon="-2.3517">
        <ele>50.200000762939</ele>
        <time>2022-04-03T07:44:17.000Z</time>
      </trkpt>
      <trkpt lat="47.30183" lon="-2.35174">
        <ele>50.200000762939</ele>
        <time>2022-04-03T07:44:20.000Z</time>
      </trkpt>
      <trkpt lat="47.30176" lon="-2.35176">
        <ele>50.200000762939</ele>
        <time>2022-04-03T07:44:22.000Z</time>
      </trkpt>
      <trkpt lat="47.30168" lon="-2.3518">
        <ele>50.200000762939</ele>
        <time>2022-04-03T07:44:26.000Z</time>
      </trkpt>
      <trkpt lat="47.30161" lon="-2.35186">
        <ele>49.799999237061</ele>
        <time>2022-04-03T07:44:31.000Z</time>
      </trkpt>
      <trkpt lat="47.30161" lon="-2.35187">
        <ele>49.400001525879</ele>
        <time>2022-04-03T07:44:32.000Z</time>
      </trkpt>
      <trkpt lat="47.3016" lon="-2.35189">
        <ele>49</ele>
        <time>2022-04-03T07:44:33.000Z</time>
      </trkpt>
      <trkpt lat="47.30159" lon="-2.3519">
        <ele>48.599998474121</ele>
        <time>2022-04-03T07:44:34.000Z</time>
      </trkpt>
      <trkpt lat="47.30158" lon="-2.35191">
        <ele>48.200000762939</ele>
        <time>2022-04-03T07:44:35.000Z</time>
      </trkpt>
      <trkpt lat="47.30153" lon="-2.35193">
        <ele>48.200000762939</ele>
        <time>2022-04-03T07:44:39.000Z</time>
      </trkpt>
      <trkpt lat="47.30147" lon="-2.35193">
        <ele>48.200000762939</ele>
        <time>2022-04-03T07:44:45.000Z</time>
      </trkpt>
      <trkpt lat="47.30141" lon="-2.35191">
        <ele>48.200000762939</ele>
        <time>2022-04-03T07:44:49.000Z</time>
      </trkpt>
      <trkpt lat="47.30139" lon="-2.35191">
        <ele>48.200000762939</ele>
        <time>2022-04-03T07:44:50.000Z</time>
      </trkpt>
      <trkpt lat="47.30125" lon="-2.35195">
        <ele>48.200000762939</ele>
        <time>2022-04-03T07:44:54.000Z</time>
      </trkpt>
      <trkpt lat="47.30106" lon="-2.35206">
        <ele>48.200000762939</ele>
        <time>2022-04-03T07:44:59.000Z</time>
      </trkpt>
      <trkpt lat="47.30089" lon="-2.35214">
        <ele>48.200000762939</ele>
        <time>2022-04-03T07:45:03.000Z</time>
      </trkpt>
      <trkpt lat="47.30085" lon="-2.35215">
        <ele>48.200000762939</ele>
        <time>2022-04-03T07:45:04.000Z</time>
      </trkpt>
      <trkpt lat="47.30066" lon="-2.35225">
        <ele>48.200000762939</ele>
        <time>2022-04-03T07:45:09.000Z</time>
      </trkpt>
      <trkpt lat="47.30043" lon="-2.35236">
        <ele>48.200000762939</ele>
        <time>2022-04-03T07:45:15.000Z</time>
      </trkpt>
      <trkpt lat="47.3003" lon="-2.35245">
        <ele>48.200000762939</ele>
        <time>2022-04-03T07:45:20.000Z</time>
      </trkpt>
      <trkpt lat="47.30029" lon="-2.35244">
        <ele>48.200000762939</ele>
        <time>2022-04-03T07:45:21.000Z</time>
      </trkpt>
      <trkpt lat="47.30024" lon="-2.35246">
        <ele>48.200000762939</ele>
        <time>2022-04-03T07:45:24.000Z</time>
      </trkpt>
      <trkpt lat="47.30019" lon="-2.3525">
        <ele>48.200000762939</ele>
        <time>2022-04-03T07:45:27.000Z</time>
      </trkpt>
      <trkpt lat="47.30014" lon="-2.35255">
        <ele>48.200000762939</ele>
        <time>2022-04-03T07:45:30.000Z</time>
      </trkpt>
      <trkpt lat="47.30003" lon="-2.35259">
        <ele>48.200000762939</ele>
        <time>2022-04-03T07:45:36.000Z</time>
      </trkpt>
      <trkpt lat="47.30002" lon="-2.35258">
        <ele>48.200000762939</ele>
        <time>2022-04-03T07:45:38.000Z</time>
      </trkpt>
      <trkpt lat="47.30003" lon="-2.3526">
        <ele>48.200000762939</ele>
        <time>2022-04-03T07:47:44.000Z</time>
      </trkpt>
      <trkpt lat="47.30004" lon="-2.35261">
        <ele>48.200000762939</ele>
        <time>2022-04-03T07:47:45.000Z</time>
      </trkpt>
      <trkpt lat="47.30007" lon="-2.35264">
        <ele>48.200000762939</ele>
        <time>2022-04-03T07:47:47.000Z</time>
      </trkpt>
      <trkpt lat="47.30014" lon="-2.35274">
        <ele>48.200000762939</ele>
        <time>2022-04-03T07:47:50.000Z</time>
      </trkpt>
      <trkpt lat="47.30027" lon="-2.35305">
        <ele>48.200000762939</ele>
        <time>2022-04-03T07:47:56.000Z</time>
      </trkpt>
      <trkpt lat="47.30045" lon="-2.35345">
        <ele>48.200000762939</ele>
        <time>2022-04-03T07:48:03.000Z</time>
      </trkpt>
      <trkpt lat="47.30062" lon="-2.35385">
        <ele>48.200000762939</ele>
        <time>2022-04-03T07:48:10.000Z</time>
      </trkpt>
      <trkpt lat="47.30081" lon="-2.35416">
        <ele>48.200000762939</ele>
        <time>2022-04-03T07:48:16.000Z</time>
      </trkpt>
      <trkpt lat="47.30097" lon="-2.35437">
        <ele>48.599998474121</ele>
        <time>2022-04-03T07:48:21.000Z</time>
      </trkpt>
      <trkpt lat="47.301" lon="-2.35442">
        <ele>49</ele>
        <time>2022-04-03T07:48:22.000Z</time>
      </trkpt>
      <trkpt lat="47.30103" lon="-2.35447">
        <ele>49.400001525879</ele>
        <time>2022-04-03T07:48:23.000Z</time>
      </trkpt>
      <trkpt lat="47.30107" lon="-2.35451">
        <ele>49.799999237061</ele>
        <time>2022-04-03T07:48:24.000Z</time>
      </trkpt>
      <trkpt lat="47.3011" lon="-2.35455">
        <ele>50.400001525879</ele>
        <time>2022-04-03T07:48:25.000Z</time>
      </trkpt>
      <trkpt lat="47.30112" lon="-2.3546">
        <ele>50.400001525879</ele>
        <time>2022-04-03T07:48:26.000Z</time>
      </trkpt>
      <trkpt lat="47.30119" lon="-2.35475">
        <ele>50.400001525879</ele>
        <time>2022-04-03T07:48:29.000Z</time>
      </trkpt>
      <trkpt lat="47.3012" lon="-2.35481">
        <ele>50.400001525879</ele>
        <time>2022-04-03T07:48:30.000Z</time>
      </trkpt>
      <trkpt lat="47.30123" lon="-2.35493">
        <ele>50.799999237061</ele>
        <time>2022-04-03T07:48:32.000Z</time>
      </trkpt>
      <trkpt lat="47.30124" lon="-2.35499">
        <ele>51.200000762939</ele>
        <time>2022-04-03T07:48:33.000Z</time>
      </trkpt>
      <trkpt lat="47.30125" lon="-2.35506">
        <ele>51.599998474121</ele>
        <time>2022-04-03T07:48:34.000Z</time>
      </trkpt>
      <trkpt lat="47.30125" lon="-2.35512">
        <ele>52.400001525879</ele>
        <time>2022-04-03T07:48:35.000Z</time>
      </trkpt>
      <trkpt lat="47.30127" lon="-2.35556">
        <ele>52.400001525879</ele>
        <time>2022-04-03T07:48:42.000Z</time>
      </trkpt>
      <trkpt lat="47.30128" lon="-2.35562">
        <ele>52.799999237061</ele>
        <time>2022-04-03T07:48:43.000Z</time>
      </trkpt>
      <trkpt lat="47.30128" lon="-2.35568">
        <ele>53.200000762939</ele>
        <time>2022-04-03T07:48:44.000Z</time>
      </trkpt>
      <trkpt lat="47.30128" lon="-2.35574">
        <ele>53.599998474121</ele>
        <time>2022-04-03T07:48:45.000Z</time>
      </trkpt>
      <trkpt lat="47.30128" lon="-2.3558">
        <ele>54.200000762939</ele>
        <time>2022-04-03T07:48:46.000Z</time>
      </trkpt>
      <trkpt lat="47.30129" lon="-2.35585">
        <ele>54.599998474121</ele>
        <time>2022-04-03T07:48:47.000Z</time>
      </trkpt>
      <trkpt lat="47.3013" lon="-2.35591">
        <ele>54.599998474121</ele>
        <time>2022-04-03T07:48:48.000Z</time>
      </trkpt>
      <trkpt lat="47.30134" lon="-2.35613">
        <ele>54.599998474121</ele>
        <time>2022-04-03T07:48:52.000Z</time>
      </trkpt>
      <trkpt lat="47.30133" lon="-2.35619">
        <ele>54.599998474121</ele>
        <time>2022-04-03T07:48:53.000Z</time>
      </trkpt>
      <trkpt lat="47.30132" lon="-2.35631">
        <ele>54.599998474121</ele>
        <time>2022-04-03T07:48:55.000Z</time>
      </trkpt>
      <trkpt lat="47.30132" lon="-2.35637">
        <ele>55</ele>
        <time>2022-04-03T07:48:56.000Z</time>
      </trkpt>
      <trkpt lat="47.30133" lon="-2.35644">
        <ele>55.400001525879</ele>
        <time>2022-04-03T07:48:57.000Z</time>
      </trkpt>
      <trkpt lat="47.30133" lon="-2.3565">
        <ele>55.799999237061</ele>
        <time>2022-04-03T07:48:58.000Z</time>
      </trkpt>
      <trkpt lat="47.30133" lon="-2.35656">
        <ele>56.200000762939</ele>
        <time>2022-04-03T07:48:59.000Z</time>
      </trkpt>
      <trkpt lat="47.30133" lon="-2.35662">
        <ele>56.599998474121</ele>
        <time>2022-04-03T07:49:00.000Z</time>
      </trkpt>
      <trkpt lat="47.30135" lon="-2.35687">
        <ele>56.599998474121</ele>
        <time>2022-04-03T07:49:04.000Z</time>
      </trkpt>
      <trkpt lat="47.30138" lon="-2.35731">
        <ele>56.599998474121</ele>
        <time>2022-04-03T07:49:10.000Z</time>
      </trkpt>
      <trkpt lat="47.30141" lon="-2.35798">
        <ele>56.599998474121</ele>
        <time>2022-04-03T07:49:17.000Z</time>
      </trkpt>
      <trkpt lat="47.30136" lon="-2.35854">
        <ele>56.200000762939</ele>
        <time>2022-04-03T07:49:22.000Z</time>
      </trkpt>
      <trkpt lat="47.30133" lon="-2.35866">
        <ele>55.799999237061</ele>
        <time>2022-04-03T07:49:23.000Z</time>
      </trkpt>
      <trkpt lat="47.30131" lon="-2.35877">
        <ele>55.400001525879</ele>
        <time>2022-04-03T07:49:24.000Z</time>
      </trkpt>
      <trkpt lat="47.30129" lon="-2.35889">
        <ele>54.400001525879</ele>
        <time>2022-04-03T07:49:25.000Z</time>
      </trkpt>
      <trkpt lat="47.30124" lon="-2.35911">
        <ele>54</ele>
        <time>2022-04-03T07:49:27.000Z</time>
      </trkpt>
      <trkpt lat="47.30122" lon="-2.35923">
        <ele>53.599998474121</ele>
        <time>2022-04-03T07:49:28.000Z</time>
      </trkpt>
      <trkpt lat="47.3012" lon="-2.35934">
        <ele>53.200000762939</ele>
        <time>2022-04-03T07:49:29.000Z</time>
      </trkpt>
      <trkpt lat="47.30117" lon="-2.35945">
        <ele>52.799999237061</ele>
        <time>2022-04-03T07:49:30.000Z</time>
      </trkpt>
      <trkpt lat="47.30115" lon="-2.35958">
        <ele>52.400001525879</ele>
        <time>2022-04-03T07:49:31.000Z</time>
      </trkpt>
      <trkpt lat="47.30106" lon="-2.36014">
        <ele>51.799999237061</ele>
        <time>2022-04-03T07:49:36.000Z</time>
      </trkpt>
      <trkpt lat="47.30105" lon="-2.36026">
        <ele>51.400001525879</ele>
        <time>2022-04-03T07:49:37.000Z</time>
      </trkpt>
      <trkpt lat="47.30103" lon="-2.36038">
        <ele>51</ele>
        <time>2022-04-03T07:49:38.000Z</time>
      </trkpt>
      <trkpt lat="47.30102" lon="-2.36049">
        <ele>50.400001525879</ele>
        <time>2022-04-03T07:49:39.000Z</time>
      </trkpt>
      <trkpt lat="47.30101" lon="-2.3606">
        <ele>50</ele>
        <time>2022-04-03T07:49:40.000Z</time>
      </trkpt>
      <trkpt lat="47.30094" lon="-2.36124">
        <ele>50</ele>
        <time>2022-04-03T07:49:46.000Z</time>
      </trkpt>
      <trkpt lat="47.30088" lon="-2.36212">
        <ele>50</ele>
        <time>2022-04-03T07:49:55.000Z</time>
      </trkpt>
      <trkpt lat="47.30092" lon="-2.36264">
        <ele>50</ele>
        <time>2022-04-03T07:50:01.000Z</time>
      </trkpt>
      <trkpt lat="47.30095" lon="-2.36297">
        <ele>50.400001525879</ele>
        <time>2022-04-03T07:50:05.000Z</time>
      </trkpt>
      <trkpt lat="47.30096" lon="-2.36305">
        <ele>50.799999237061</ele>
        <time>2022-04-03T07:50:06.000Z</time>
      </trkpt>
      <trkpt lat="47.30096" lon="-2.36313">
        <ele>51.200000762939</ele>
        <time>2022-04-03T07:50:07.000Z</time>
      </trkpt>
      <trkpt lat="47.30097" lon="-2.36321">
        <ele>51.599998474121</ele>
        <time>2022-04-03T07:50:08.000Z</time>
      </trkpt>
      <trkpt lat="47.30097" lon="-2.36329">
        <ele>52</ele>
        <time>2022-04-03T07:50:09.000Z</time>
      </trkpt>
      <trkpt lat="47.30098" lon="-2.36337">
        <ele>52</ele>
        <time>2022-04-03T07:50:10.000Z</time>
      </trkpt>
      <trkpt lat="47.30104" lon="-2.36404">
        <ele>52</ele>
        <time>2022-04-03T07:50:18.000Z</time>
      </trkpt>
      <trkpt lat="47.3011" lon="-2.36454">
        <ele>52</ele>
        <time>2022-04-03T07:50:24.000Z</time>
      </trkpt>
      <trkpt lat="47.30111" lon="-2.36462">
        <ele>52.400001525879</ele>
        <time>2022-04-03T07:50:25.000Z</time>
      </trkpt>
      <trkpt lat="47.30112" lon="-2.3647">
        <ele>52.799999237061</ele>
        <time>2022-04-03T07:50:26.000Z</time>
      </trkpt>
      <trkpt lat="47.30113" lon="-2.36479">
        <ele>53.200000762939</ele>
        <time>2022-04-03T07:50:27.000Z</time>
      </trkpt>
      <trkpt lat="47.30114" lon="-2.36487">
        <ele>53.599998474121</ele>
        <time>2022-04-03T07:50:28.000Z</time>
      </trkpt>
      <trkpt lat="47.30115" lon="-2.36495">
        <ele>54.200000762939</ele>
        <time>2022-04-03T07:50:29.000Z</time>
      </trkpt>
      <trkpt lat="47.30119" lon="-2.3652">
        <ele>54.200000762939</ele>
        <time>2022-04-03T07:50:32.000Z</time>
      </trkpt>
      <trkpt lat="47.30127" lon="-2.36577">
        <ele>54.200000762939</ele>
        <time>2022-04-03T07:50:39.000Z</time>
      </trkpt>
      <trkpt lat="47.30129" lon="-2.36592">
        <ele>54.599998474121</ele>
        <time>2022-04-03T07:50:41.000Z</time>
      </trkpt>
      <trkpt lat="47.30131" lon="-2.366">
        <ele>55</ele>
        <time>2022-04-03T07:50:42.000Z</time>
      </trkpt>
      <trkpt lat="47.30132" lon="-2.36608">
        <ele>55.400001525879</ele>
        <time>2022-04-03T07:50:43.000Z</time>
      </trkpt>
      <trkpt lat="47.30135" lon="-2.36615">
        <ele>55.799999237061</ele>
        <time>2022-04-03T07:50:44.000Z</time>
      </trkpt>
      <trkpt lat="47.30137" lon="-2.36622">
        <ele>56.200000762939</ele>
        <time>2022-04-03T07:50:45.000Z</time>
      </trkpt>
      <trkpt lat="47.3014" lon="-2.36629">
        <ele>56.200000762939</ele>
        <time>2022-04-03T07:50:46.000Z</time>
      </trkpt>
      <trkpt lat="47.30159" lon="-2.36668">
        <ele>56.200000762939</ele>
        <time>2022-04-03T07:50:53.000Z</time>
      </trkpt>
      <trkpt lat="47.30171" lon="-2.36683">
        <ele>56.200000762939</ele>
        <time>2022-04-03T07:50:58.000Z</time>
      </trkpt>
      <trkpt lat="47.30173" lon="-2.36683">
        <ele>56.599998474121</ele>
        <time>2022-04-03T07:50:59.000Z</time>
      </trkpt>
      <trkpt lat="47.30175" lon="-2.36682">
        <ele>57</ele>
        <time>2022-04-03T07:51:00.000Z</time>
      </trkpt>
      <trkpt lat="47.30176" lon="-2.36681">
        <ele>57.400001525879</ele>
        <time>2022-04-03T07:51:01.000Z</time>
      </trkpt>
      <trkpt lat="47.30177" lon="-2.36681">
        <ele>57.799999237061</ele>
        <time>2022-04-03T07:51:02.000Z</time>
      </trkpt>
      <trkpt lat="47.30178" lon="-2.36681">
        <ele>58.200000762939</ele>
        <time>2022-04-03T07:51:03.000Z</time>
      </trkpt>
      <trkpt lat="47.30179" lon="-2.36681">
        <ele>58.200000762939</ele>
        <time>2022-04-03T07:51:05.000Z</time>
      </trkpt>
      <trkpt lat="47.30182" lon="-2.36679">
        <ele>58.200000762939</ele>
        <time>2022-04-03T07:51:08.000Z</time>
      </trkpt>
      <trkpt lat="47.30185" lon="-2.36676">
        <ele>58.200000762939</ele>
        <time>2022-04-03T07:51:12.000Z</time>
      </trkpt>
      <trkpt lat="47.30185" lon="-2.36676">
        <ele>58.200000762939</ele>
        <time>2022-04-03T07:51:42.000Z</time>
      </trkpt>
      <trkpt lat="47.30197" lon="-2.36672">
        <ele>58.200000762939</ele>
        <time>2022-04-03T07:51:47.000Z</time>
      </trkpt>
      <trkpt lat="47.30215" lon="-2.36669">
        <ele>58.200000762939</ele>
        <time>2022-04-03T07:51:52.000Z</time>
      </trkpt>
      <trkpt lat="47.30249" lon="-2.36664">
        <ele>58.200000762939</ele>
        <time>2022-04-03T07:52:00.000Z</time>
      </trkpt>
      <trkpt lat="47.30278" lon="-2.36654">
        <ele>58.200000762939</ele>
        <time>2022-04-03T07:52:06.000Z</time>
      </trkpt>
      <trkpt lat="47.30309" lon="-2.36645">
        <ele>58.200000762939</ele>
        <time>2022-04-03T07:52:12.000Z</time>
      </trkpt>
      <trkpt lat="47.30314" lon="-2.36645">
        <ele>58.200000762939</ele>
        <time>2022-04-03T07:52:13.000Z</time>
      </trkpt>
      <trkpt lat="47.30332" lon="-2.36649">
        <ele>58.200000762939</ele>
        <time>2022-04-03T07:52:17.000Z</time>
      </trkpt>
      <trkpt lat="47.30358" lon="-2.36654">
        <ele>58.200000762939</ele>
        <time>2022-04-03T07:52:24.000Z</time>
      </trkpt>
      <trkpt lat="47.30365" lon="-2.36655">
        <ele>58.599998474121</ele>
        <time>2022-04-03T07:52:27.000Z</time>
      </trkpt>
      <trkpt lat="47.30366" lon="-2.36656">
        <ele>59</ele>
        <time>2022-04-03T07:52:28.000Z</time>
      </trkpt>
      <trkpt lat="47.30368" lon="-2.36656">
        <ele>59.400001525879</ele>
        <time>2022-04-03T07:52:29.000Z</time>
      </trkpt>
      <trkpt lat="47.3037" lon="-2.36656">
        <ele>59.799999237061</ele>
        <time>2022-04-03T07:52:30.000Z</time>
      </trkpt>
      <trkpt lat="47.30373" lon="-2.36655">
        <ele>60.200000762939</ele>
        <time>2022-04-03T07:52:31.000Z</time>
      </trkpt>
      <trkpt lat="47.3038" lon="-2.36656">
        <ele>60.200000762939</ele>
        <time>2022-04-03T07:52:34.000Z</time>
      </trkpt>
      <trkpt lat="47.30398" lon="-2.36656">
        <ele>60.200000762939</ele>
        <time>2022-04-03T07:52:40.000Z</time>
      </trkpt>
      <trkpt lat="47.30415" lon="-2.36652">
        <ele>60.200000762939</ele>
        <time>2022-04-03T07:52:45.000Z</time>
      </trkpt>
      <trkpt lat="47.30419" lon="-2.36651">
        <ele>60.599998474121</ele>
        <time>2022-04-03T07:52:46.000Z</time>
      </trkpt>
      <trkpt lat="47.30423" lon="-2.36649">
        <ele>61.200000762939</ele>
        <time>2022-04-03T07:52:47.000Z</time>
      </trkpt>
      <trkpt lat="47.30427" lon="-2.36646">
        <ele>61.599998474121</ele>
        <time>2022-04-03T07:52:48.000Z</time>
      </trkpt>
      <trkpt lat="47.3043" lon="-2.36644">
        <ele>62</ele>
        <time>2022-04-03T07:52:49.000Z</time>
      </trkpt>
      <trkpt lat="47.30434" lon="-2.3664">
        <ele>62.400001525879</ele>
        <time>2022-04-03T07:52:50.000Z</time>
      </trkpt>
      <trkpt lat="47.30461" lon="-2.36616">
        <ele>62.400001525879</ele>
        <time>2022-04-03T07:52:57.000Z</time>
      </trkpt>
      <trkpt lat="47.30479" lon="-2.36605">
        <ele>62.400001525879</ele>
        <time>2022-04-03T07:53:02.000Z</time>
      </trkpt>
      <trkpt lat="47.30481" lon="-2.36605">
        <ele>62.400001525879</ele>
        <time>2022-04-03T07:53:05.000Z</time>
      </trkpt>
      <trkpt lat="47.30487" lon="-2.36603">
        <ele>62.400001525879</ele>
        <time>2022-04-03T07:53:15.000Z</time>
      </trkpt>
      <trkpt lat="47.30499" lon="-2.36599">
        <ele>62.400001525879</ele>
        <time>2022-04-03T07:53:20.000Z</time>
      </trkpt>
      <trkpt lat="47.30521" lon="-2.36591">
        <ele>62.400001525879</ele>
        <time>2022-04-03T07:53:27.000Z</time>
      </trkpt>
      <trkpt lat="47.30529" lon="-2.36587">
        <ele>62.400001525879</ele>
        <time>2022-04-03T07:53:29.000Z</time>
      </trkpt>
      <trkpt lat="47.30542" lon="-2.36577">
        <ele>62.400001525879</ele>
        <time>2022-04-03T07:53:32.000Z</time>
      </trkpt>
      <trkpt lat="47.30559" lon="-2.36563">
        <ele>62.400001525879</ele>
        <time>2022-04-03T07:53:36.000Z</time>
      </trkpt>
      <trkpt lat="47.30567" lon="-2.36557">
        <ele>62.400001525879</ele>
        <time>2022-04-03T07:53:38.000Z</time>
      </trkpt>
      <trkpt lat="47.30592" lon="-2.36547">
        <ele>62.400001525879</ele>
        <time>2022-04-03T07:53:44.000Z</time>
      </trkpt>
      <trkpt lat="47.30626" lon="-2.36538">
        <ele>62.400001525879</ele>
        <time>2022-04-03T07:53:52.000Z</time>
      </trkpt>
      <trkpt lat="47.30652" lon="-2.36525">
        <ele>62.400001525879</ele>
        <time>2022-04-03T07:53:58.000Z</time>
      </trkpt>
      <trkpt lat="47.3069" lon="-2.36509">
        <ele>62.400001525879</ele>
        <time>2022-04-03T07:54:06.000Z</time>
      </trkpt>
      <trkpt lat="47.30694" lon="-2.3651">
        <ele>62.400001525879</ele>
        <time>2022-04-03T07:54:07.000Z</time>
      </trkpt>
      <trkpt lat="47.30698" lon="-2.36517">
        <ele>62</ele>
        <time>2022-04-03T07:54:09.000Z</time>
      </trkpt>
      <trkpt lat="47.307" lon="-2.36519">
        <ele>61.599998474121</ele>
        <time>2022-04-03T07:54:10.000Z</time>
      </trkpt>
      <trkpt lat="47.30703" lon="-2.36519">
        <ele>61.200000762939</ele>
        <time>2022-04-03T07:54:11.000Z</time>
      </trkpt>
      <trkpt lat="47.30706" lon="-2.36517">
        <ele>60.599998474121</ele>
        <time>2022-04-03T07:54:12.000Z</time>
      </trkpt>
      <trkpt lat="47.3071" lon="-2.36513">
        <ele>60.200000762939</ele>
        <time>2022-04-03T07:54:13.000Z</time>
      </trkpt>
      <trkpt lat="47.30727" lon="-2.36499">
        <ele>60.200000762939</ele>
        <time>2022-04-03T07:54:17.000Z</time>
      </trkpt>
      <trkpt lat="47.30732" lon="-2.36497">
        <ele>60.200000762939</ele>
        <time>2022-04-03T07:54:18.000Z</time>
      </trkpt>
      <trkpt lat="47.30758" lon="-2.36487">
        <ele>60.200000762939</ele>
        <time>2022-04-03T07:54:23.000Z</time>
      </trkpt>
      <trkpt lat="47.30789" lon="-2.36479">
        <ele>60.200000762939</ele>
        <time>2022-04-03T07:54:29.000Z</time>
      </trkpt>
      <trkpt lat="47.30794" lon="-2.36477">
        <ele>60.200000762939</ele>
        <time>2022-04-03T07:54:30.000Z</time>
      </trkpt>
      <trkpt lat="47.30805" lon="-2.36474">
        <ele>60.200000762939</ele>
        <time>2022-04-03T07:54:32.000Z</time>
      </trkpt>
      <trkpt lat="47.3081" lon="-2.36473">
        <ele>59.799999237061</ele>
        <time>2022-04-03T07:54:33.000Z</time>
      </trkpt>
      <trkpt lat="47.30816" lon="-2.36474">
        <ele>59.400001525879</ele>
        <time>2022-04-03T07:54:34.000Z</time>
      </trkpt>
      <trkpt lat="47.3082" lon="-2.36477">
        <ele>59</ele>
        <time>2022-04-03T07:54:35.000Z</time>
      </trkpt>
      <trkpt lat="47.30824" lon="-2.36481">
        <ele>58.599998474121</ele>
        <time>2022-04-03T07:54:36.000Z</time>
      </trkpt>
      <trkpt lat="47.30829" lon="-2.36484">
        <ele>58.200000762939</ele>
        <time>2022-04-03T07:54:37.000Z</time>
      </trkpt>
      <trkpt lat="47.30838" lon="-2.36486">
        <ele>58.200000762939</ele>
        <time>2022-04-03T07:54:39.000Z</time>
      </trkpt>
      <trkpt lat="47.30848" lon="-2.36484">
        <ele>58.200000762939</ele>
        <time>2022-04-03T07:54:41.000Z</time>
      </trkpt>
      <trkpt lat="47.30863" lon="-2.36481">
        <ele>58.200000762939</ele>
        <time>2022-04-03T07:54:44.000Z</time>
      </trkpt>
      <trkpt lat="47.30902" lon="-2.3647">
        <ele>58.200000762939</ele>
        <time>2022-04-03T07:54:52.000Z</time>
      </trkpt>
      <trkpt lat="47.30929" lon="-2.36461">
        <ele>58.200000762939</ele>
        <time>2022-04-03T07:54:58.000Z</time>
      </trkpt>
      <trkpt lat="47.30968" lon="-2.36447">
        <ele>58.200000762939</ele>
        <time>2022-04-03T07:55:06.000Z</time>
      </trkpt>
      <trkpt lat="47.30973" lon="-2.36445">
        <ele>57.799999237061</ele>
        <time>2022-04-03T07:55:07.000Z</time>
      </trkpt>
      <trkpt lat="47.30978" lon="-2.36442">
        <ele>57.400001525879</ele>
        <time>2022-04-03T07:55:08.000Z</time>
      </trkpt>
      <trkpt lat="47.30982" lon="-2.36439">
        <ele>57</ele>
        <time>2022-04-03T07:55:09.000Z</time>
      </trkpt>
      <trkpt lat="47.30987" lon="-2.36437">
        <ele>56.599998474121</ele>
        <time>2022-04-03T07:55:10.000Z</time>
      </trkpt>
      <trkpt lat="47.30993" lon="-2.36434">
        <ele>56</ele>
        <time>2022-04-03T07:55:11.000Z</time>
      </trkpt>
      <trkpt lat="47.31004" lon="-2.36429">
        <ele>56</ele>
        <time>2022-04-03T07:55:13.000Z</time>
      </trkpt>
      <trkpt lat="47.3102" lon="-2.36424">
        <ele>56</ele>
        <time>2022-04-03T07:55:16.000Z</time>
      </trkpt>
      <trkpt lat="47.31043" lon="-2.3642">
        <ele>56</ele>
        <time>2022-04-03T07:55:20.000Z</time>
      </trkpt>
      <trkpt lat="47.31079" lon="-2.36417">
        <ele>56</ele>
        <time>2022-04-03T07:55:27.000Z</time>
      </trkpt>
      <trkpt lat="47.31086" lon="-2.36417">
        <ele>55.599998474121</ele>
        <time>2022-04-03T07:55:29.000Z</time>
      </trkpt>
      <trkpt lat="47.31089" lon="-2.36416">
        <ele>55.200000762939</ele>
        <time>2022-04-03T07:55:30.000Z</time>
      </trkpt>
      <trkpt lat="47.31094" lon="-2.36415">
        <ele>54.799999237061</ele>
        <time>2022-04-03T07:55:31.000Z</time>
      </trkpt>
      <trkpt lat="47.31098" lon="-2.36414">
        <ele>54.400001525879</ele>
        <time>2022-04-03T07:55:32.000Z</time>
      </trkpt>
      <trkpt lat="47.31104" lon="-2.36413">
        <ele>54</ele>
        <time>2022-04-03T07:55:33.000Z</time>
      </trkpt>
      <trkpt lat="47.31109" lon="-2.36411">
        <ele>54</ele>
        <time>2022-04-03T07:55:34.000Z</time>
      </trkpt>
      <trkpt lat="47.31115" lon="-2.36408">
        <ele>54</ele>
        <time>2022-04-03T07:55:35.000Z</time>
      </trkpt>
      <trkpt lat="47.31148" lon="-2.36388">
        <ele>54</ele>
        <time>2022-04-03T07:55:41.000Z</time>
      </trkpt>
      <trkpt lat="47.31179" lon="-2.36365">
        <ele>54</ele>
        <time>2022-04-03T07:55:47.000Z</time>
      </trkpt>
      <trkpt lat="47.31211" lon="-2.36346">
        <ele>54</ele>
        <time>2022-04-03T07:55:53.000Z</time>
      </trkpt>
      <trkpt lat="47.3124" lon="-2.36328">
        <ele>54</ele>
        <time>2022-04-03T07:55:59.000Z</time>
      </trkpt>
      <trkpt lat="47.31249" lon="-2.36321">
        <ele>54.400001525879</ele>
        <time>2022-04-03T07:56:01.000Z</time>
      </trkpt>
      <trkpt lat="47.31253" lon="-2.36318">
        <ele>54.799999237061</ele>
        <time>2022-04-03T07:56:02.000Z</time>
      </trkpt>
      <trkpt lat="47.31258" lon="-2.36315">
        <ele>55.200000762939</ele>
        <time>2022-04-03T07:56:03.000Z</time>
      </trkpt>
      <trkpt lat="47.31262" lon="-2.36313">
        <ele>55.599998474121</ele>
        <time>2022-04-03T07:56:04.000Z</time>
      </trkpt>
      <trkpt lat="47.31267" lon="-2.3631">
        <ele>56</ele>
        <time>2022-04-03T07:56:05.000Z</time>
      </trkpt>
      <trkpt lat="47.31277" lon="-2.36306">
        <ele>56</ele>
        <time>2022-04-03T07:56:07.000Z</time>
      </trkpt>
      <trkpt lat="47.31305" lon="-2.36293">
        <ele>56</ele>
        <time>2022-04-03T07:56:13.000Z</time>
      </trkpt>
      <trkpt lat="47.31319" lon="-2.36283">
        <ele>56.400001525879</ele>
        <time>2022-04-03T07:56:16.000Z</time>
      </trkpt>
      <trkpt lat="47.31323" lon="-2.3628">
        <ele>57</ele>
        <time>2022-04-03T07:56:17.000Z</time>
      </trkpt>
      <trkpt lat="47.31327" lon="-2.36275">
        <ele>57.400001525879</ele>
        <time>2022-04-03T07:56:18.000Z</time>
      </trkpt>
      <trkpt lat="47.3133" lon="-2.36271">
        <ele>57.799999237061</ele>
        <time>2022-04-03T07:56:19.000Z</time>
      </trkpt>
      <trkpt lat="47.31334" lon="-2.36267">
        <ele>58.200000762939</ele>
        <time>2022-04-03T07:56:20.000Z</time>
      </trkpt>
      <trkpt lat="47.3135" lon="-2.36251">
        <ele>58.200000762939</ele>
        <time>2022-04-03T07:56:24.000Z</time>
      </trkpt>
      <trkpt lat="47.31356" lon="-2.3624">
        <ele>58.200000762939</ele>
        <time>2022-04-03T07:56:26.000Z</time>
      </trkpt>
      <trkpt lat="47.3136" lon="-2.36234">
        <ele>58.200000762939</ele>
        <time>2022-04-03T07:56:27.000Z</time>
      </trkpt>
      <trkpt lat="47.31376" lon="-2.36218">
        <ele>58.200000762939</ele>
        <time>2022-04-03T07:56:31.000Z</time>
      </trkpt>
      <trkpt lat="47.31385" lon="-2.36214">
        <ele>58.200000762939</ele>
        <time>2022-04-03T07:56:33.000Z</time>
      </trkpt>
      <trkpt lat="47.31398" lon="-2.3621">
        <ele>58.200000762939</ele>
        <time>2022-04-03T07:56:36.000Z</time>
      </trkpt>
      <trkpt lat="47.31411" lon="-2.36204">
        <ele>58.200000762939</ele>
        <time>2022-04-03T07:56:39.000Z</time>
      </trkpt>
      <trkpt lat="47.31424" lon="-2.36196">
        <ele>58.200000762939</ele>
        <time>2022-04-03T07:56:42.000Z</time>
      </trkpt>
      <trkpt lat="47.31449" lon="-2.36179">
        <ele>58.200000762939</ele>
        <time>2022-04-03T07:56:47.000Z</time>
      </trkpt>
      <trkpt lat="47.31459" lon="-2.36176">
        <ele>58.200000762939</ele>
        <time>2022-04-03T07:56:50.000Z</time>
      </trkpt>
      <trkpt lat="47.3147" lon="-2.36167">
        <ele>58.200000762939</ele>
        <time>2022-04-03T07:56:54.000Z</time>
      </trkpt>
      <trkpt lat="47.31488" lon="-2.36149">
        <ele>58.200000762939</ele>
        <time>2022-04-03T07:57:00.000Z</time>
      </trkpt>
      <trkpt lat="47.31502" lon="-2.36134">
        <ele>58.200000762939</ele>
        <time>2022-04-03T07:57:04.000Z</time>
      </trkpt>
      <trkpt lat="47.31509" lon="-2.36125">
        <ele>57.799999237061</ele>
        <time>2022-04-03T07:57:06.000Z</time>
      </trkpt>
      <trkpt lat="47.31513" lon="-2.3612">
        <ele>57.400001525879</ele>
        <time>2022-04-03T07:57:07.000Z</time>
      </trkpt>
      <trkpt lat="47.31516" lon="-2.36116">
        <ele>57</ele>
        <time>2022-04-03T07:57:08.000Z</time>
      </trkpt>
      <trkpt lat="47.3152" lon="-2.36112">
        <ele>56.599998474121</ele>
        <time>2022-04-03T07:57:09.000Z</time>
      </trkpt>
      <trkpt lat="47.31524" lon="-2.36108">
        <ele>56.200000762939</ele>
        <time>2022-04-03T07:57:10.000Z</time>
      </trkpt>
      <trkpt lat="47.31528" lon="-2.36103">
        <ele>56.200000762939</ele>
        <time>2022-04-03T07:57:11.000Z</time>
      </trkpt>
      <trkpt lat="47.31552" lon="-2.36076">
        <ele>56.200000762939</ele>
        <time>2022-04-03T07:57:17.000Z</time>
      </trkpt>
      <trkpt lat="47.31557" lon="-2.36073">
        <ele>56.200000762939</ele>
        <time>2022-04-03T07:57:18.000Z</time>
      </trkpt>
      <trkpt lat="47.31582" lon="-2.36048">
        <ele>56.200000762939</ele>
        <time>2022-04-03T07:57:24.000Z</time>
      </trkpt>
      <trkpt lat="47.31611" lon="-2.3602">
        <ele>56.200000762939</ele>
        <time>2022-04-03T07:57:30.000Z</time>
      </trkpt>
      <trkpt lat="47.31635" lon="-2.35996">
        <ele>55.799999237061</ele>
        <time>2022-04-03T07:57:35.000Z</time>
      </trkpt>
      <trkpt lat="47.31639" lon="-2.35991">
        <ele>55.400001525879</ele>
        <time>2022-04-03T07:57:36.000Z</time>
      </trkpt>
      <trkpt lat="47.31644" lon="-2.35986">
        <ele>55</ele>
        <time>2022-04-03T07:57:37.000Z</time>
      </trkpt>
      <trkpt lat="47.31649" lon="-2.35981">
        <ele>54.599998474121</ele>
        <time>2022-04-03T07:57:38.000Z</time>
      </trkpt>
      <trkpt lat="47.31654" lon="-2.35977">
        <ele>54.200000762939</ele>
        <time>2022-04-03T07:57:39.000Z</time>
      </trkpt>
      <trkpt lat="47.31666" lon="-2.35971">
        <ele>54.200000762939</ele>
        <time>2022-04-03T07:57:41.000Z</time>
      </trkpt>
      <trkpt lat="47.31705" lon="-2.35947">
        <ele>54.200000762939</ele>
        <time>2022-04-03T07:57:48.000Z</time>
      </trkpt>
      <trkpt lat="47.31723" lon="-2.35936">
        <ele>53.799999237061</ele>
        <time>2022-04-03T07:57:51.000Z</time>
      </trkpt>
      <trkpt lat="47.31729" lon="-2.35932">
        <ele>53.400001525879</ele>
        <time>2022-04-03T07:57:52.000Z</time>
      </trkpt>
      <trkpt lat="47.31735" lon="-2.35928">
        <ele>53</ele>
        <time>2022-04-03T07:57:53.000Z</time>
      </trkpt>
      <trkpt lat="47.31741" lon="-2.35924">
        <ele>52.599998474121</ele>
        <time>2022-04-03T07:57:54.000Z</time>
      </trkpt>
      <trkpt lat="47.31747" lon="-2.3592">
        <ele>52.200000762939</ele>
        <time>2022-04-03T07:57:55.000Z</time>
      </trkpt>
      <trkpt lat="47.31777" lon="-2.35901">
        <ele>52.200000762939</ele>
        <time>2022-04-03T07:58:00.000Z</time>
      </trkpt>
      <trkpt lat="47.31805" lon="-2.35887">
        <ele>51.799999237061</ele>
        <time>2022-04-03T07:58:05.000Z</time>
      </trkpt>
      <trkpt lat="47.3181" lon="-2.35884">
        <ele>51.200000762939</ele>
        <time>2022-04-03T07:58:06.000Z</time>
      </trkpt>
      <trkpt lat="47.31815" lon="-2.35881">
        <ele>50.799999237061</ele>
        <time>2022-04-03T07:58:07.000Z</time>
      </trkpt>
      <trkpt lat="47.3182" lon="-2.35877">
        <ele>50.400001525879</ele>
        <time>2022-04-03T07:58:08.000Z</time>
      </trkpt>
      <trkpt lat="47.31823" lon="-2.35872">
        <ele>50</ele>
        <time>2022-04-03T07:58:09.000Z</time>
      </trkpt>
      <trkpt lat="47.31824" lon="-2.35866">
        <ele>50</ele>
        <time>2022-04-03T07:58:10.000Z</time>
      </trkpt>
      <trkpt lat="47.31822" lon="-2.35851">
        <ele>50</ele>
        <time>2022-04-03T07:58:13.000Z</time>
      </trkpt>
      <trkpt lat="47.3181" lon="-2.35831">
        <ele>50</ele>
        <time>2022-04-03T07:58:18.000Z</time>
      </trkpt>
      <trkpt lat="47.31803" lon="-2.35822">
        <ele>50</ele>
        <time>2022-04-03T07:58:20.000Z</time>
      </trkpt>
      <trkpt lat="47.31795" lon="-2.35814">
        <ele>50</ele>
        <time>2022-04-03T07:58:22.000Z</time>
      </trkpt>
      <trkpt lat="47.31792" lon="-2.35809">
        <ele>50</ele>
        <time>2022-04-03T07:58:23.000Z</time>
      </trkpt>
      <trkpt lat="47.31782" lon="-2.3578">
        <ele>50</ele>
        <time>2022-04-03T07:58:27.000Z</time>
      </trkpt>
      <trkpt lat="47.31781" lon="-2.35763">
        <ele>50</ele>
        <time>2022-04-03T07:58:29.000Z</time>
      </trkpt>
      <trkpt lat="47.31781" lon="-2.35745">
        <ele>50</ele>
        <time>2022-04-03T07:58:31.000Z</time>
      </trkpt>
      <trkpt lat="47.31781" lon="-2.35706">
        <ele>49.599998474121</ele>
        <time>2022-04-03T07:58:35.000Z</time>
      </trkpt>
      <trkpt lat="47.31781" lon="-2.35696">
        <ele>49.200000762939</ele>
        <time>2022-04-03T07:58:36.000Z</time>
      </trkpt>
      <trkpt lat="47.31781" lon="-2.35686">
        <ele>48.799999237061</ele>
        <time>2022-04-03T07:58:37.000Z</time>
      </trkpt>
      <trkpt lat="47.31781" lon="-2.35676">
        <ele>48.400001525879</ele>
        <time>2022-04-03T07:58:38.000Z</time>
      </trkpt>
      <trkpt lat="47.3178" lon="-2.35666">
        <ele>48</ele>
        <time>2022-04-03T07:58:39.000Z</time>
      </trkpt>
      <trkpt lat="47.31783" lon="-2.35628">
        <ele>48</ele>
        <time>2022-04-03T07:58:43.000Z</time>
      </trkpt>
      <trkpt lat="47.31786" lon="-2.3562">
        <ele>47.400001525879</ele>
        <time>2022-04-03T07:58:44.000Z</time>
      </trkpt>
      <trkpt lat="47.31789" lon="-2.35612">
        <ele>47</ele>
        <time>2022-04-03T07:58:45.000Z</time>
      </trkpt>
      <trkpt lat="47.31792" lon="-2.35605">
        <ele>46.599998474121</ele>
        <time>2022-04-03T07:58:46.000Z</time>
      </trkpt>
      <trkpt lat="47.31795" lon="-2.35598">
        <ele>46.200000762939</ele>
        <time>2022-04-03T07:58:47.000Z</time>
      </trkpt>
      <trkpt lat="47.31799" lon="-2.35593">
        <ele>45.799999237061</ele>
        <time>2022-04-03T07:58:48.000Z</time>
      </trkpt>
      <trkpt lat="47.31809" lon="-2.35576">
        <ele>45.400001525879</ele>
        <time>2022-04-03T07:58:52.000Z</time>
      </trkpt>
      <trkpt lat="47.31811" lon="-2.35573">
        <ele>44.799999237061</ele>
        <time>2022-04-03T07:58:53.000Z</time>
      </trkpt>
      <trkpt lat="47.31813" lon="-2.3557">
        <ele>44</ele>
        <time>2022-04-03T07:58:54.000Z</time>
      </trkpt>
      <trkpt lat="47.31814" lon="-2.35568">
        <ele>43.599998474121</ele>
        <time>2022-04-03T07:58:55.000Z</time>
      </trkpt>
      <trkpt lat="47.31818" lon="-2.35561">
        <ele>43.599998474121</ele>
        <time>2022-04-03T07:58:57.000Z</time>
      </trkpt>
      <trkpt lat="47.31827" lon="-2.35545">
        <ele>43.599998474121</ele>
        <time>2022-04-03T07:59:02.000Z</time>
      </trkpt>
      <trkpt lat="47.31824" lon="-2.3553">
        <ele>43.599998474121</ele>
        <time>2022-04-03T07:59:06.000Z</time>
      </trkpt>
      <trkpt lat="47.31817" lon="-2.355">
        <ele>43.599998474121</ele>
        <time>2022-04-03T07:59:12.000Z</time>
      </trkpt>
      <trkpt lat="47.3181" lon="-2.3548">
        <ele>43.599998474121</ele>
        <time>2022-04-03T07:59:17.000Z</time>
      </trkpt>
      <trkpt lat="47.31804" lon="-2.35468">
        <ele>43.599998474121</ele>
        <time>2022-04-03T07:59:22.000Z</time>
      </trkpt>
      <trkpt lat="47.31794" lon="-2.35451">
        <ele>43.599998474121</ele>
        <time>2022-04-03T07:59:28.000Z</time>
      </trkpt>
      <trkpt lat="47.3179" lon="-2.35442">
        <ele>43.599998474121</ele>
        <time>2022-04-03T07:59:33.000Z</time>
      </trkpt>
      <trkpt lat="47.31789" lon="-2.35442">
        <ele>43.599998474121</ele>
        <time>2022-04-03T07:59:34.000Z</time>
      </trkpt>
      <trkpt lat="47.31783" lon="-2.35436">
        <ele>43.599998474121</ele>
        <time>2022-04-03T08:00:18.000Z</time>
      </trkpt>
      <trkpt lat="47.31778" lon="-2.35429">
        <ele>43.599998474121</ele>
        <time>2022-04-03T08:00:21.000Z</time>
      </trkpt>
      <trkpt lat="47.31768" lon="-2.35412">
        <ele>44</ele>
        <time>2022-04-03T08:00:25.000Z</time>
      </trkpt>
      <trkpt lat="47.31767" lon="-2.35406">
        <ele>44.400001525879</ele>
        <time>2022-04-03T08:00:26.000Z</time>
      </trkpt>
      <trkpt lat="47.31765" lon="-2.35402">
        <ele>44.799999237061</ele>
        <time>2022-04-03T08:00:27.000Z</time>
      </trkpt>
      <trkpt lat="47.31763" lon="-2.35397">
        <ele>45.200000762939</ele>
        <time>2022-04-03T08:00:28.000Z</time>
      </trkpt>
      <trkpt lat="47.3176" lon="-2.35392">
        <ele>45.599998474121</ele>
        <time>2022-04-03T08:00:29.000Z</time>
      </trkpt>
      <trkpt lat="47.31754" lon="-2.35382">
        <ele>45.599998474121</ele>
        <time>2022-04-03T08:00:31.000Z</time>
      </trkpt>
      <trkpt lat="47.31752" lon="-2.35372">
        <ele>45.599998474121</ele>
        <time>2022-04-03T08:00:33.000Z</time>
      </trkpt>
      <trkpt lat="47.31754" lon="-2.35362">
        <ele>45.599998474121</ele>
        <time>2022-04-03T08:00:35.000Z</time>
      </trkpt>
      <trkpt lat="47.31767" lon="-2.35343">
        <ele>45.599998474121</ele>
        <time>2022-04-03T08:00:40.000Z</time>
      </trkpt>
      <trkpt lat="47.31772" lon="-2.3534">
        <ele>45.599998474121</ele>
        <time>2022-04-03T08:00:41.000Z</time>
      </trkpt>
      <trkpt lat="47.31792" lon="-2.35327">
        <ele>45.599998474121</ele>
        <time>2022-04-03T08:00:46.000Z</time>
      </trkpt>
      <trkpt lat="47.31814" lon="-2.35315">
        <ele>45.599998474121</ele>
        <time>2022-04-03T08:00:51.000Z</time>
      </trkpt>
      <trkpt lat="47.31835" lon="-2.35303">
        <ele>45.599998474121</ele>
        <time>2022-04-03T08:00:56.000Z</time>
      </trkpt>
      <trkpt lat="47.3184" lon="-2.35299">
        <ele>45.200000762939</ele>
        <time>2022-04-03T08:00:57.000Z</time>
      </trkpt>
      <trkpt lat="47.31845" lon="-2.35295">
        <ele>44.400001525879</ele>
        <time>2022-04-03T08:00:58.000Z</time>
      </trkpt>
      <trkpt lat="47.3185" lon="-2.35291">
        <ele>44</ele>
        <time>2022-04-03T08:00:59.000Z</time>
      </trkpt>
      <trkpt lat="47.31854" lon="-2.35288">
        <ele>43.599998474121</ele>
        <time>2022-04-03T08:01:00.000Z</time>
      </trkpt>
      <trkpt lat="47.31859" lon="-2.35285">
        <ele>43.599998474121</ele>
        <time>2022-04-03T08:01:01.000Z</time>
      </trkpt>
      <trkpt lat="47.31886" lon="-2.35259">
        <ele>43.599998474121</ele>
        <time>2022-04-03T08:01:07.000Z</time>
      </trkpt>
      <trkpt lat="47.31895" lon="-2.35249">
        <ele>43.599998474121</ele>
        <time>2022-04-03T08:01:09.000Z</time>
      </trkpt>
      <trkpt lat="47.31912" lon="-2.35231">
        <ele>43.599998474121</ele>
        <time>2022-04-03T08:01:13.000Z</time>
      </trkpt>
      <trkpt lat="47.31926" lon="-2.35219">
        <ele>43.200000762939</ele>
        <time>2022-04-03T08:01:16.000Z</time>
      </trkpt>
      <trkpt lat="47.31931" lon="-2.35215">
        <ele>42.799999237061</ele>
        <time>2022-04-03T08:01:17.000Z</time>
      </trkpt>
      <trkpt lat="47.31935" lon="-2.35212">
        <ele>42.400001525879</ele>
        <time>2022-04-03T08:01:18.000Z</time>
      </trkpt>
      <trkpt lat="47.3194" lon="-2.35208">
        <ele>42</ele>
        <time>2022-04-03T08:01:19.000Z</time>
      </trkpt>
      <trkpt lat="47.31944" lon="-2.35204">
        <ele>41.599998474121</ele>
        <time>2022-04-03T08:01:20.000Z</time>
      </trkpt>
      <trkpt lat="47.31972" lon="-2.35177">
        <ele>41.599998474121</ele>
        <time>2022-04-03T08:01:27.000Z</time>
      </trkpt>
      <trkpt lat="47.31999" lon="-2.3515">
        <ele>41.599998474121</ele>
        <time>2022-04-03T08:01:33.000Z</time>
      </trkpt>
      <trkpt lat="47.32009" lon="-2.35141">
        <ele>41.599998474121</ele>
        <time>2022-04-03T08:01:35.000Z</time>
      </trkpt>
      <trkpt lat="47.32025" lon="-2.35124">
        <ele>41.599998474121</ele>
        <time>2022-04-03T08:01:38.000Z</time>
      </trkpt>
      <trkpt lat="47.32033" lon="-2.35104">
        <ele>41.599998474121</ele>
        <time>2022-04-03T08:01:41.000Z</time>
      </trkpt>
      <trkpt lat="47.32031" lon="-2.35077">
        <ele>41.599998474121</ele>
        <time>2022-04-03T08:01:45.000Z</time>
      </trkpt>
      <trkpt lat="47.32032" lon="-2.35065">
        <ele>41.599998474121</ele>
        <time>2022-04-03T08:01:47.000Z</time>
      </trkpt>
      <trkpt lat="47.32035" lon="-2.35061">
        <ele>41.599998474121</ele>
        <time>2022-04-03T08:01:48.000Z</time>
      </trkpt>
      <trkpt lat="47.32046" lon="-2.35059">
        <ele>41.599998474121</ele>
        <time>2022-04-03T08:01:51.000Z</time>
      </trkpt>
      <trkpt lat="47.3205" lon="-2.3506">
        <ele>41.599998474121</ele>
        <time>2022-04-03T08:01:52.000Z</time>
      </trkpt>
      <trkpt lat="47.32075" lon="-2.35058">
        <ele>41.599998474121</ele>
        <time>2022-04-03T08:01:57.000Z</time>
      </trkpt>
      <trkpt lat="47.32115" lon="-2.35055">
        <ele>41.599998474121</ele>
        <time>2022-04-03T08:02:04.000Z</time>
      </trkpt>
      <trkpt lat="47.32161" lon="-2.35053">
        <ele>41.599998474121</ele>
        <time>2022-04-03T08:02:12.000Z</time>
      </trkpt>
      <trkpt lat="47.32201" lon="-2.3505">
        <ele>41.599998474121</ele>
        <time>2022-04-03T08:02:19.000Z</time>
      </trkpt>
      <trkpt lat="47.32239" lon="-2.35044">
        <ele>41.599998474121</ele>
        <time>2022-04-03T08:02:26.000Z</time>
      </trkpt>
      <trkpt lat="47.32271" lon="-2.35043">
        <ele>41.599998474121</ele>
        <time>2022-04-03T08:02:32.000Z</time>
      </trkpt>
      <trkpt lat="47.32303" lon="-2.35043">
        <ele>42</ele>
        <time>2022-04-03T08:02:38.000Z</time>
      </trkpt>
      <trkpt lat="47.32309" lon="-2.35042">
        <ele>42.400001525879</ele>
        <time>2022-04-03T08:02:39.000Z</time>
      </trkpt>
      <trkpt lat="47.32314" lon="-2.35042">
        <ele>42.799999237061</ele>
        <time>2022-04-03T08:02:40.000Z</time>
      </trkpt>
      <trkpt lat="47.32319" lon="-2.35042">
        <ele>43.400001525879</ele>
        <time>2022-04-03T08:02:41.000Z</time>
      </trkpt>
      <trkpt lat="47.32325" lon="-2.35041">
        <ele>43.799999237061</ele>
        <time>2022-04-03T08:02:42.000Z</time>
      </trkpt>
      <trkpt lat="47.32345" lon="-2.35042">
        <ele>43.799999237061</ele>
        <time>2022-04-03T08:02:46.000Z</time>
      </trkpt>
      <trkpt lat="47.32378" lon="-2.35042">
        <ele>44.200000762939</ele>
        <time>2022-04-03T08:02:53.000Z</time>
      </trkpt>
      <trkpt lat="47.32384" lon="-2.35042">
        <ele>44.599998474121</ele>
        <time>2022-04-03T08:02:54.000Z</time>
      </trkpt>
      <trkpt lat="47.32389" lon="-2.35041">
        <ele>45</ele>
        <time>2022-04-03T08:02:55.000Z</time>
      </trkpt>
      <trkpt lat="47.32395" lon="-2.35041">
        <ele>45.400001525879</ele>
        <time>2022-04-03T08:02:56.000Z</time>
      </trkpt>
      <trkpt lat="47.32401" lon="-2.3504">
        <ele>45.799999237061</ele>
        <time>2022-04-03T08:02:57.000Z</time>
      </trkpt>
      <trkpt lat="47.32417" lon="-2.35039">
        <ele>45.799999237061</ele>
        <time>2022-04-03T08:03:00.000Z</time>
      </trkpt>
      <trkpt lat="47.32421" lon="-2.35039">
        <ele>45.799999237061</ele>
        <time>2022-04-03T08:03:01.000Z</time>
      </trkpt>
      <trkpt lat="47.32452" lon="-2.35032">
        <ele>45.799999237061</ele>
        <time>2022-04-03T08:03:07.000Z</time>
      </trkpt>
      <trkpt lat="47.32473" lon="-2.35028">
        <ele>45.799999237061</ele>
        <time>2022-04-03T08:03:11.000Z</time>
      </trkpt>
      <trkpt lat="47.32484" lon="-2.35024">
        <ele>45.799999237061</ele>
        <time>2022-04-03T08:03:13.000Z</time>
      </trkpt>
      <trkpt lat="47.32525" lon="-2.35016">
        <ele>45.799999237061</ele>
        <time>2022-04-03T08:03:22.000Z</time>
      </trkpt>
      <trkpt lat="47.3255" lon="-2.35009">
        <ele>45.799999237061</ele>
        <time>2022-04-03T08:03:27.000Z</time>
      </trkpt>
      <trkpt lat="47.32575" lon="-2.34995">
        <ele>45.799999237061</ele>
        <time>2022-04-03T08:03:32.000Z</time>
      </trkpt>
      <trkpt lat="47.3258" lon="-2.34992">
        <ele>45.400001525879</ele>
        <time>2022-04-03T08:03:33.000Z</time>
      </trkpt>
      <trkpt lat="47.32585" lon="-2.34989">
        <ele>45</ele>
        <time>2022-04-03T08:03:34.000Z</time>
      </trkpt>
      <trkpt lat="47.32589" lon="-2.34986">
        <ele>44.599998474121</ele>
        <time>2022-04-03T08:03:35.000Z</time>
      </trkpt>
      <trkpt lat="47.32594" lon="-2.34983">
        <ele>44.200000762939</ele>
        <time>2022-04-03T08:03:36.000Z</time>
      </trkpt>
      <trkpt lat="47.326" lon="-2.34981">
        <ele>43.799999237061</ele>
        <time>2022-04-03T08:03:37.000Z</time>
      </trkpt>
      <trkpt lat="47.32612" lon="-2.34973">
        <ele>43.799999237061</ele>
        <time>2022-04-03T08:03:40.000Z</time>
      </trkpt>
      <trkpt lat="47.32644" lon="-2.34958">
        <ele>43.799999237061</ele>
        <time>2022-04-03T08:03:48.000Z</time>
      </trkpt>
      <trkpt lat="47.32662" lon="-2.34946">
        <ele>43.799999237061</ele>
        <time>2022-04-03T08:03:54.000Z</time>
      </trkpt>
      <trkpt lat="47.32673" lon="-2.34937">
        <ele>43.799999237061</ele>
        <time>2022-04-03T08:03:57.000Z</time>
      </trkpt>
      <trkpt lat="47.32681" lon="-2.3493">
        <ele>43.799999237061</ele>
        <time>2022-04-03T08:03:59.000Z</time>
      </trkpt>
      <trkpt lat="47.327" lon="-2.34916">
        <ele>43.799999237061</ele>
        <time>2022-04-03T08:04:03.000Z</time>
      </trkpt>
      <trkpt lat="47.32705" lon="-2.34913">
        <ele>43.400001525879</ele>
        <time>2022-04-03T08:04:04.000Z</time>
      </trkpt>
      <trkpt lat="47.32711" lon="-2.34909">
        <ele>42.799999237061</ele>
        <time>2022-04-03T08:04:05.000Z</time>
      </trkpt>
      <trkpt lat="47.32717" lon="-2.34906">
        <ele>42.400001525879</ele>
        <time>2022-04-03T08:04:06.000Z</time>
      </trkpt>
      <trkpt lat="47.32722" lon="-2.34903">
        <ele>42</ele>
        <time>2022-04-03T08:04:07.000Z</time>
      </trkpt>
      <trkpt lat="47.32728" lon="-2.34899">
        <ele>41.599998474121</ele>
        <time>2022-04-03T08:04:08.000Z</time>
      </trkpt>
      <trkpt lat="47.32739" lon="-2.34891">
        <ele>41.599998474121</ele>
        <time>2022-04-03T08:04:10.000Z</time>
      </trkpt>
      <trkpt lat="47.32779" lon="-2.3486">
        <ele>41.599998474121</ele>
        <time>2022-04-03T08:04:18.000Z</time>
      </trkpt>
      <trkpt lat="47.32824" lon="-2.34829">
        <ele>41.599998474121</ele>
        <time>2022-04-03T08:04:26.000Z</time>
      </trkpt>
      <trkpt lat="47.32867" lon="-2.348">
        <ele>41.200000762939</ele>
        <time>2022-04-03T08:04:34.000Z</time>
      </trkpt>
      <trkpt lat="47.32872" lon="-2.34797">
        <ele>40.799999237061</ele>
        <time>2022-04-03T08:04:35.000Z</time>
      </trkpt>
      <trkpt lat="47.32878" lon="-2.34793">
        <ele>40.400001525879</ele>
        <time>2022-04-03T08:04:36.000Z</time>
      </trkpt>
      <trkpt lat="47.32883" lon="-2.3479">
        <ele>40</ele>
        <time>2022-04-03T08:04:37.000Z</time>
      </trkpt>
      <trkpt lat="47.32888" lon="-2.34786">
        <ele>39.599998474121</ele>
        <time>2022-04-03T08:04:38.000Z</time>
      </trkpt>
      <trkpt lat="47.32898" lon="-2.34781">
        <ele>39.599998474121</ele>
        <time>2022-04-03T08:04:40.000Z</time>
      </trkpt>
      <trkpt lat="47.32902" lon="-2.34783">
        <ele>39.599998474121</ele>
        <time>2022-04-03T08:04:41.000Z</time>
      </trkpt>
      <trkpt lat="47.3291" lon="-2.34795">
        <ele>39.599998474121</ele>
        <time>2022-04-03T08:04:44.000Z</time>
      </trkpt>
      <trkpt lat="47.32912" lon="-2.34799">
        <ele>39.599998474121</ele>
        <time>2022-04-03T08:04:45.000Z</time>
      </trkpt>
      <trkpt lat="47.3292" lon="-2.3482">
        <ele>39.599998474121</ele>
        <time>2022-04-03T08:04:50.000Z</time>
      </trkpt>
      <trkpt lat="47.32934" lon="-2.34853">
        <ele>39.599998474121</ele>
        <time>2022-04-03T08:04:56.000Z</time>
      </trkpt>
      <trkpt lat="47.32944" lon="-2.34875">
        <ele>39.599998474121</ele>
        <time>2022-04-03T08:05:00.000Z</time>
      </trkpt>
      <trkpt lat="47.32947" lon="-2.34881">
        <ele>39.599998474121</ele>
        <time>2022-04-03T08:05:01.000Z</time>
      </trkpt>
      <trkpt lat="47.32953" lon="-2.34892">
        <ele>39.599998474121</ele>
        <time>2022-04-03T08:05:03.000Z</time>
      </trkpt>
      <trkpt lat="47.32957" lon="-2.34906">
        <ele>39.599998474121</ele>
        <time>2022-04-03T08:05:05.000Z</time>
      </trkpt>
      <trkpt lat="47.32965" lon="-2.34928">
        <ele>39.599998474121</ele>
        <time>2022-04-03T08:05:09.000Z</time>
      </trkpt>
      <trkpt lat="47.32968" lon="-2.34934">
        <ele>39.599998474121</ele>
        <time>2022-04-03T08:05:10.000Z</time>
      </trkpt>
      <trkpt lat="47.32976" lon="-2.34958">
        <ele>39.599998474121</ele>
        <time>2022-04-03T08:05:14.000Z</time>
      </trkpt>
      <trkpt lat="47.32982" lon="-2.34978">
        <ele>39.599998474121</ele>
        <time>2022-04-03T08:05:18.000Z</time>
      </trkpt>
      <trkpt lat="47.32991" lon="-2.35001">
        <ele>39.599998474121</ele>
        <time>2022-04-03T08:05:23.000Z</time>
      </trkpt>
      <trkpt lat="47.32996" lon="-2.35011">
        <ele>39.599998474121</ele>
        <time>2022-04-03T08:05:26.000Z</time>
      </trkpt>
      <trkpt lat="47.32998" lon="-2.35014">
        <ele>39.599998474121</ele>
        <time>2022-04-03T08:05:27.000Z</time>
      </trkpt>
      <trkpt lat="47.33002" lon="-2.35024">
        <ele>39.599998474121</ele>
        <time>2022-04-03T08:05:31.000Z</time>
      </trkpt>
      <trkpt lat="47.33004" lon="-2.35041">
        <ele>39.599998474121</ele>
        <time>2022-04-03T08:05:36.000Z</time>
      </trkpt>
      <trkpt lat="47.33003" lon="-2.35045">
        <ele>39.599998474121</ele>
        <time>2022-04-03T08:05:37.000Z</time>
      </trkpt>
      <trkpt lat="47.33003" lon="-2.35048">
        <ele>39.599998474121</ele>
        <time>2022-04-03T08:05:38.000Z</time>
      </trkpt>
      <trkpt lat="47.33008" lon="-2.35064">
        <ele>39.599998474121</ele>
        <time>2022-04-03T08:05:41.000Z</time>
      </trkpt>
      <trkpt lat="47.3301" lon="-2.3507">
        <ele>40</ele>
        <time>2022-04-03T08:05:42.000Z</time>
      </trkpt>
      <trkpt lat="47.33012" lon="-2.35077">
        <ele>40.400001525879</ele>
        <time>2022-04-03T08:05:43.000Z</time>
      </trkpt>
      <trkpt lat="47.33013" lon="-2.35082">
        <ele>40.799999237061</ele>
        <time>2022-04-03T08:05:44.000Z</time>
      </trkpt>
      <trkpt lat="47.33014" lon="-2.35087">
        <ele>41.200000762939</ele>
        <time>2022-04-03T08:05:45.000Z</time>
      </trkpt>
      <trkpt lat="47.33014" lon="-2.35092">
        <ele>41.599998474121</ele>
        <time>2022-04-03T08:05:46.000Z</time>
      </trkpt>
      <trkpt lat="47.33018" lon="-2.35119">
        <ele>41.599998474121</ele>
        <time>2022-04-03T08:05:51.000Z</time>
      </trkpt>
      <trkpt lat="47.3302" lon="-2.35148">
        <ele>41.599998474121</ele>
        <time>2022-04-03T08:05:56.000Z</time>
      </trkpt>
      <trkpt lat="47.33027" lon="-2.35172">
        <ele>41.599998474121</ele>
        <time>2022-04-03T08:06:01.000Z</time>
      </trkpt>
      <trkpt lat="47.33029" lon="-2.35175">
        <ele>41.599998474121</ele>
        <time>2022-04-03T08:06:02.000Z</time>
      </trkpt>
      <trkpt lat="47.33031" lon="-2.35177">
        <ele>41.599998474121</ele>
        <time>2022-04-03T08:06:04.000Z</time>
      </trkpt>
      <trkpt lat="47.33032" lon="-2.35177">
        <ele>41.599998474121</ele>
        <time>2022-04-03T08:06:05.000Z</time>
      </trkpt>
      <trkpt lat="47.33033" lon="-2.35177">
        <ele>41.599998474121</ele>
        <time>2022-04-03T08:06:13.000Z</time>
      </trkpt>
      <trkpt lat="47.33037" lon="-2.35175">
        <ele>41.599998474121</ele>
        <time>2022-04-03T08:06:15.000Z</time>
      </trkpt>
      <trkpt lat="47.33043" lon="-2.35164">
        <ele>41.599998474121</ele>
        <time>2022-04-03T08:06:18.000Z</time>
      </trkpt>
      <trkpt lat="47.33045" lon="-2.3516">
        <ele>41.599998474121</ele>
        <time>2022-04-03T08:06:19.000Z</time>
      </trkpt>
      <trkpt lat="47.33056" lon="-2.35136">
        <ele>41.599998474121</ele>
        <time>2022-04-03T08:06:24.000Z</time>
      </trkpt>
      <trkpt lat="47.33072" lon="-2.35115">
        <ele>41.599998474121</ele>
        <time>2022-04-03T08:06:29.000Z</time>
      </trkpt>
      <trkpt lat="47.33088" lon="-2.35096">
        <ele>41.599998474121</ele>
        <time>2022-04-03T08:06:33.000Z</time>
      </trkpt>
      <trkpt lat="47.33095" lon="-2.35088">
        <ele>41.599998474121</ele>
        <time>2022-04-03T08:06:35.000Z</time>
      </trkpt>
      <trkpt lat="47.33107" lon="-2.35069">
        <ele>41.599998474121</ele>
        <time>2022-04-03T08:06:39.000Z</time>
      </trkpt>
      <trkpt lat="47.3311" lon="-2.35063">
        <ele>41.599998474121</ele>
        <time>2022-04-03T08:06:40.000Z</time>
      </trkpt>
      <trkpt lat="47.33125" lon="-2.35039">
        <ele>41.599998474121</ele>
        <time>2022-04-03T08:06:45.000Z</time>
      </trkpt>
      <trkpt lat="47.33142" lon="-2.35018">
        <ele>41.599998474121</ele>
        <time>2022-04-03T08:06:50.000Z</time>
      </trkpt>
      <trkpt lat="47.33144" lon="-2.35013">
        <ele>41.599998474121</ele>
        <time>2022-04-03T08:06:51.000Z</time>
      </trkpt>
      <trkpt lat="47.33151" lon="-2.35002">
        <ele>41.599998474121</ele>
        <time>2022-04-03T08:06:53.000Z</time>
      </trkpt>
      <trkpt lat="47.33164" lon="-2.3498">
        <ele>41.599998474121</ele>
        <time>2022-04-03T08:06:57.000Z</time>
      </trkpt>
      <trkpt lat="47.33169" lon="-2.34967">
        <ele>41.599998474121</ele>
        <time>2022-04-03T08:06:59.000Z</time>
      </trkpt>
      <trkpt lat="47.33177" lon="-2.34943">
        <ele>41.599998474121</ele>
        <time>2022-04-03T08:07:03.000Z</time>
      </trkpt>
      <trkpt lat="47.33179" lon="-2.34938">
        <ele>41.200000762939</ele>
        <time>2022-04-03T08:07:04.000Z</time>
      </trkpt>
      <trkpt lat="47.33181" lon="-2.3493">
        <ele>40.799999237061</ele>
        <time>2022-04-03T08:07:05.000Z</time>
      </trkpt>
      <trkpt lat="47.33183" lon="-2.34923">
        <ele>40.400001525879</ele>
        <time>2022-04-03T08:07:06.000Z</time>
      </trkpt>
      <trkpt lat="47.33186" lon="-2.34915">
        <ele>40</ele>
        <time>2022-04-03T08:07:07.000Z</time>
      </trkpt>
      <trkpt lat="47.33189" lon="-2.34908">
        <ele>39.599998474121</ele>
        <time>2022-04-03T08:07:08.000Z</time>
      </trkpt>
      <trkpt lat="47.33191" lon="-2.34901">
        <ele>39.599998474121</ele>
        <time>2022-04-03T08:07:09.000Z</time>
      </trkpt>
      <trkpt lat="47.33205" lon="-2.34864">
        <ele>39.599998474121</ele>
        <time>2022-04-03T08:07:15.000Z</time>
      </trkpt>
      <trkpt lat="47.33212" lon="-2.34846">
        <ele>39.200000762939</ele>
        <time>2022-04-03T08:07:18.000Z</time>
      </trkpt>
      <trkpt lat="47.33214" lon="-2.34841">
        <ele>38.599998474121</ele>
        <time>2022-04-03T08:07:19.000Z</time>
      </trkpt>
      <trkpt lat="47.33216" lon="-2.34835">
        <ele>38.200000762939</ele>
        <time>2022-04-03T08:07:20.000Z</time>
      </trkpt>
      <trkpt lat="47.33218" lon="-2.34829">
        <ele>37.799999237061</ele>
        <time>2022-04-03T08:07:21.000Z</time>
      </trkpt>
      <trkpt lat="47.3322" lon="-2.34823">
        <ele>37.400001525879</ele>
        <time>2022-04-03T08:07:22.000Z</time>
      </trkpt>
      <trkpt lat="47.33227" lon="-2.34804">
        <ele>37.400001525879</ele>
        <time>2022-04-03T08:07:25.000Z</time>
      </trkpt>
      <trkpt lat="47.33236" lon="-2.3478">
        <ele>37.400001525879</ele>
        <time>2022-04-03T08:07:29.000Z</time>
      </trkpt>
      <trkpt lat="47.33251" lon="-2.34739">
        <ele>37.400001525879</ele>
        <time>2022-04-03T08:07:35.000Z</time>
      </trkpt>
      <trkpt lat="47.33261" lon="-2.34714">
        <ele>37.400001525879</ele>
        <time>2022-04-03T08:07:39.000Z</time>
      </trkpt>
      <trkpt lat="47.33266" lon="-2.347">
        <ele>37.400001525879</ele>
        <time>2022-04-03T08:07:41.000Z</time>
      </trkpt>
      <trkpt lat="47.33268" lon="-2.34694">
        <ele>37</ele>
        <time>2022-04-03T08:07:42.000Z</time>
      </trkpt>
      <trkpt lat="47.3327" lon="-2.34689">
        <ele>36.599998474121</ele>
        <time>2022-04-03T08:07:43.000Z</time>
      </trkpt>
      <trkpt lat="47.33272" lon="-2.34685">
        <ele>36.200000762939</ele>
        <time>2022-04-03T08:07:44.000Z</time>
      </trkpt>
      <trkpt lat="47.33274" lon="-2.34682">
        <ele>35.799999237061</ele>
        <time>2022-04-03T08:07:45.000Z</time>
      </trkpt>
      <trkpt lat="47.33275" lon="-2.34678">
        <ele>35.400001525879</ele>
        <time>2022-04-03T08:07:46.000Z</time>
      </trkpt>
      <trkpt lat="47.33283" lon="-2.34656">
        <ele>35.400001525879</ele>
        <time>2022-04-03T08:07:52.000Z</time>
      </trkpt>
      <trkpt lat="47.33292" lon="-2.34637">
        <ele>35.400001525879</ele>
        <time>2022-04-03T08:07:56.000Z</time>
      </trkpt>
      <trkpt lat="47.33302" lon="-2.3461">
        <ele>35.400001525879</ele>
        <time>2022-04-03T08:08:00.000Z</time>
      </trkpt>
      <trkpt lat="47.33314" lon="-2.34583">
        <ele>35.400001525879</ele>
        <time>2022-04-03T08:08:06.000Z</time>
      </trkpt>
      <trkpt lat="47.3332" lon="-2.34572">
        <ele>35.400001525879</ele>
        <time>2022-04-03T08:08:09.000Z</time>
      </trkpt>
      <trkpt lat="47.33322" lon="-2.34566">
        <ele>35.400001525879</ele>
        <time>2022-04-03T08:08:11.000Z</time>
      </trkpt>
      <trkpt lat="47.33326" lon="-2.34552">
        <ele>35.400001525879</ele>
        <time>2022-04-03T08:08:15.000Z</time>
      </trkpt>
      <trkpt lat="47.33335" lon="-2.34517">
        <ele>35.400001525879</ele>
        <time>2022-04-03T08:08:21.000Z</time>
      </trkpt>
      <trkpt lat="47.33347" lon="-2.34492">
        <ele>35.400001525879</ele>
        <time>2022-04-03T08:08:25.000Z</time>
      </trkpt>
      <trkpt lat="47.33349" lon="-2.34485">
        <ele>35.400001525879</ele>
        <time>2022-04-03T08:08:26.000Z</time>
      </trkpt>
      <trkpt lat="47.33355" lon="-2.34472">
        <ele>35.799999237061</ele>
        <time>2022-04-03T08:08:28.000Z</time>
      </trkpt>
      <trkpt lat="47.33357" lon="-2.34465">
        <ele>36.200000762939</ele>
        <time>2022-04-03T08:08:29.000Z</time>
      </trkpt>
      <trkpt lat="47.3336" lon="-2.34459">
        <ele>36.599998474121</ele>
        <time>2022-04-03T08:08:30.000Z</time>
      </trkpt>
      <trkpt lat="47.33362" lon="-2.34453">
        <ele>37</ele>
        <time>2022-04-03T08:08:31.000Z</time>
      </trkpt>
      <trkpt lat="47.33365" lon="-2.34446">
        <ele>37.400001525879</ele>
        <time>2022-04-03T08:08:32.000Z</time>
      </trkpt>
      <trkpt lat="47.33369" lon="-2.34432">
        <ele>37.400001525879</ele>
        <time>2022-04-03T08:08:34.000Z</time>
      </trkpt>
      <trkpt lat="47.33384" lon="-2.34392">
        <ele>37.400001525879</ele>
        <time>2022-04-03T08:08:40.000Z</time>
      </trkpt>
      <trkpt lat="47.33402" lon="-2.34339">
        <ele>37.400001525879</ele>
        <time>2022-04-03T08:08:47.000Z</time>
      </trkpt>
      <trkpt lat="47.33425" lon="-2.34271">
        <ele>37.400001525879</ele>
        <time>2022-04-03T08:08:55.000Z</time>
      </trkpt>
      <trkpt lat="47.33444" lon="-2.34231">
        <ele>37.400001525879</ele>
        <time>2022-04-03T08:09:00.000Z</time>
      </trkpt>
      <trkpt lat="47.33478" lon="-2.34189">
        <ele>37.400001525879</ele>
        <time>2022-04-03T08:09:06.000Z</time>
      </trkpt>
      <trkpt lat="47.33484" lon="-2.34183">
        <ele>37</ele>
        <time>2022-04-03T08:09:07.000Z</time>
      </trkpt>
      <trkpt lat="47.3349" lon="-2.34178">
        <ele>36.599998474121</ele>
        <time>2022-04-03T08:09:08.000Z</time>
      </trkpt>
      <trkpt lat="47.33496" lon="-2.34173">
        <ele>36.200000762939</ele>
        <time>2022-04-03T08:09:09.000Z</time>
      </trkpt>
      <trkpt lat="47.33503" lon="-2.34169">
        <ele>35.799999237061</ele>
        <time>2022-04-03T08:09:10.000Z</time>
      </trkpt>
      <trkpt lat="47.33509" lon="-2.34165">
        <ele>35.400001525879</ele>
        <time>2022-04-03T08:09:11.000Z</time>
      </trkpt>
      <trkpt lat="47.33557" lon="-2.34132">
        <ele>35.400001525879</ele>
        <time>2022-04-03T08:09:19.000Z</time>
      </trkpt>
      <trkpt lat="47.33603" lon="-2.34096">
        <ele>35.400001525879</ele>
        <time>2022-04-03T08:09:27.000Z</time>
      </trkpt>
      <trkpt lat="47.3365" lon="-2.34058">
        <ele>35.400001525879</ele>
        <time>2022-04-03T08:09:35.000Z</time>
      </trkpt>
      <trkpt lat="47.33661" lon="-2.34048">
        <ele>34.599998474121</ele>
        <time>2022-04-03T08:09:37.000Z</time>
      </trkpt>
      <trkpt lat="47.33667" lon="-2.34043">
        <ele>34.200000762939</ele>
        <time>2022-04-03T08:09:38.000Z</time>
      </trkpt>
      <trkpt lat="47.33673" lon="-2.34038">
        <ele>33.799999237061</ele>
        <time>2022-04-03T08:09:39.000Z</time>
      </trkpt>
      <trkpt lat="47.33679" lon="-2.34033">
        <ele>33.400001525879</ele>
        <time>2022-04-03T08:09:40.000Z</time>
      </trkpt>
      <trkpt lat="47.33691" lon="-2.34023">
        <ele>33.400001525879</ele>
        <time>2022-04-03T08:09:42.000Z</time>
      </trkpt>
      <trkpt lat="47.33739" lon="-2.33985">
        <ele>33.400001525879</ele>
        <time>2022-04-03T08:09:50.000Z</time>
      </trkpt>
      <trkpt lat="47.33756" lon="-2.33971">
        <ele>33</ele>
        <time>2022-04-03T08:09:53.000Z</time>
      </trkpt>
      <trkpt lat="47.33762" lon="-2.33966">
        <ele>32.599998474121</ele>
        <time>2022-04-03T08:09:54.000Z</time>
      </trkpt>
      <trkpt lat="47.33767" lon="-2.33961">
        <ele>32.200000762939</ele>
        <time>2022-04-03T08:09:55.000Z</time>
      </trkpt>
      <trkpt lat="47.33773" lon="-2.33956">
        <ele>31.799999237061</ele>
        <time>2022-04-03T08:09:56.000Z</time>
      </trkpt>
      <trkpt lat="47.33778" lon="-2.33951">
        <ele>31.39999961853</ele>
        <time>2022-04-03T08:09:57.000Z</time>
      </trkpt>
      <trkpt lat="47.33816" lon="-2.3392">
        <ele>31.39999961853</ele>
        <time>2022-04-03T08:10:04.000Z</time>
      </trkpt>
      <trkpt lat="47.33851" lon="-2.33893">
        <ele>31.39999961853</ele>
        <time>2022-04-03T08:10:11.000Z</time>
      </trkpt>
      <trkpt lat="47.33865" lon="-2.33878">
        <ele>31.39999961853</ele>
        <time>2022-04-03T08:10:15.000Z</time>
      </trkpt>
      <trkpt lat="47.33881" lon="-2.33861">
        <ele>31.39999961853</ele>
        <time>2022-04-03T08:10:20.000Z</time>
      </trkpt>
      <trkpt lat="47.33885" lon="-2.33856">
        <ele>31.39999961853</ele>
        <time>2022-04-03T08:10:21.000Z</time>
      </trkpt>
      <trkpt lat="47.33896" lon="-2.33838">
        <ele>31.39999961853</ele>
        <time>2022-04-03T08:10:24.000Z</time>
      </trkpt>
      <trkpt lat="47.33916" lon="-2.33804">
        <ele>31</ele>
        <time>2022-04-03T08:10:29.000Z</time>
      </trkpt>
      <trkpt lat="47.3392" lon="-2.33797">
        <ele>30.60000038147</ele>
        <time>2022-04-03T08:10:30.000Z</time>
      </trkpt>
      <trkpt lat="47.33924" lon="-2.3379">
        <ele>30.200000762939</ele>
        <time>2022-04-03T08:10:31.000Z</time>
      </trkpt>
      <trkpt lat="47.33928" lon="-2.33783">
        <ele>29.799999237061</ele>
        <time>2022-04-03T08:10:32.000Z</time>
      </trkpt>
      <trkpt lat="47.33933" lon="-2.33775">
        <ele>29.39999961853</ele>
        <time>2022-04-03T08:10:33.000Z</time>
      </trkpt>
      <trkpt lat="47.33962" lon="-2.33725">
        <ele>29.39999961853</ele>
        <time>2022-04-03T08:10:40.000Z</time>
      </trkpt>
      <trkpt lat="47.33986" lon="-2.33679">
        <ele>29.39999961853</ele>
        <time>2022-04-03T08:10:46.000Z</time>
      </trkpt>
      <trkpt lat="47.3399" lon="-2.33671">
        <ele>29.39999961853</ele>
        <time>2022-04-03T08:10:47.000Z</time>
      </trkpt>
      <trkpt lat="47.33995" lon="-2.33664">
        <ele>29</ele>
        <time>2022-04-03T08:10:48.000Z</time>
      </trkpt>
      <trkpt lat="47.33998" lon="-2.33656">
        <ele>28.39999961853</ele>
        <time>2022-04-03T08:10:49.000Z</time>
      </trkpt>
      <trkpt lat="47.34003" lon="-2.33649">
        <ele>28</ele>
        <time>2022-04-03T08:10:50.000Z</time>
      </trkpt>
      <trkpt lat="47.34008" lon="-2.33641">
        <ele>27.200000762939</ele>
        <time>2022-04-03T08:10:51.000Z</time>
      </trkpt>
      <trkpt lat="47.34021" lon="-2.33618">
        <ele>27.200000762939</ele>
        <time>2022-04-03T08:10:54.000Z</time>
      </trkpt>
      <trkpt lat="47.34048" lon="-2.33576">
        <ele>27.200000762939</ele>
        <time>2022-04-03T08:11:00.000Z</time>
      </trkpt>
      <trkpt lat="47.34074" lon="-2.33531">
        <ele>27.200000762939</ele>
        <time>2022-04-03T08:11:07.000Z</time>
      </trkpt>
      <trkpt lat="47.34081" lon="-2.3352">
        <ele>27.200000762939</ele>
        <time>2022-04-03T08:11:09.000Z</time>
      </trkpt>
      <trkpt lat="47.34085" lon="-2.33514">
        <ele>26.799999237061</ele>
        <time>2022-04-03T08:11:10.000Z</time>
      </trkpt>
      <trkpt lat="47.34088" lon="-2.33508">
        <ele>26.39999961853</ele>
        <time>2022-04-03T08:11:11.000Z</time>
      </trkpt>
      <trkpt lat="47.34091" lon="-2.33502">
        <ele>26</ele>
        <time>2022-04-03T08:11:12.000Z</time>
      </trkpt>
      <trkpt lat="47.34095" lon="-2.33497">
        <ele>25.60000038147</ele>
        <time>2022-04-03T08:11:13.000Z</time>
      </trkpt>
      <trkpt lat="47.34098" lon="-2.33495">
        <ele>25.200000762939</ele>
        <time>2022-04-03T08:11:14.000Z</time>
      </trkpt>
      <trkpt lat="47.34101" lon="-2.33492">
        <ele>25.200000762939</ele>
        <time>2022-04-03T08:11:15.000Z</time>
      </trkpt>
      <trkpt lat="47.34105" lon="-2.33483">
        <ele>25.200000762939</ele>
        <time>2022-04-03T08:11:18.000Z</time>
      </trkpt>
      <trkpt lat="47.34107" lon="-2.33476">
        <ele>25.200000762939</ele>
        <time>2022-04-03T08:11:20.000Z</time>
      </trkpt>
      <trkpt lat="47.34115" lon="-2.33467">
        <ele>25.200000762939</ele>
        <time>2022-04-03T08:11:23.000Z</time>
      </trkpt>
      <trkpt lat="47.34119" lon="-2.33462">
        <ele>25.200000762939</ele>
        <time>2022-04-03T08:11:25.000Z</time>
      </trkpt>
      <trkpt lat="47.3412" lon="-2.3346">
        <ele>25.200000762939</ele>
        <time>2022-04-03T08:11:27.000Z</time>
      </trkpt>
      <trkpt lat="47.34121" lon="-2.33457">
        <ele>25.200000762939</ele>
        <time>2022-04-03T08:11:31.000Z</time>
      </trkpt>
      <trkpt lat="47.34128" lon="-2.33443">
        <ele>25.200000762939</ele>
        <time>2022-04-03T08:11:36.000Z</time>
      </trkpt>
      <trkpt lat="47.34137" lon="-2.33428">
        <ele>25.200000762939</ele>
        <time>2022-04-03T08:11:40.000Z</time>
      </trkpt>
      <trkpt lat="47.34146" lon="-2.33415">
        <ele>25.200000762939</ele>
        <time>2022-04-03T08:11:43.000Z</time>
      </trkpt>
      <trkpt lat="47.34151" lon="-2.33406">
        <ele>25.200000762939</ele>
        <time>2022-04-03T08:11:45.000Z</time>
      </trkpt>
      <trkpt lat="47.34163" lon="-2.33373">
        <ele>25.200000762939</ele>
        <time>2022-04-03T08:11:51.000Z</time>
      </trkpt>
      <trkpt lat="47.34167" lon="-2.33361">
        <ele>24.799999237061</ele>
        <time>2022-04-03T08:11:53.000Z</time>
      </trkpt>
      <trkpt lat="47.34169" lon="-2.33355">
        <ele>24.39999961853</ele>
        <time>2022-04-03T08:11:54.000Z</time>
      </trkpt>
      <trkpt lat="47.34171" lon="-2.33348">
        <ele>24</ele>
        <time>2022-04-03T08:11:55.000Z</time>
      </trkpt>
      <trkpt lat="47.34173" lon="-2.33342">
        <ele>23.60000038147</ele>
        <time>2022-04-03T08:11:56.000Z</time>
      </trkpt>
      <trkpt lat="47.34175" lon="-2.33336">
        <ele>23.200000762939</ele>
        <time>2022-04-03T08:11:57.000Z</time>
      </trkpt>
      <trkpt lat="47.34177" lon="-2.33329">
        <ele>23.200000762939</ele>
        <time>2022-04-03T08:11:58.000Z</time>
      </trkpt>
      <trkpt lat="47.34193" lon="-2.33281">
        <ele>23.200000762939</ele>
        <time>2022-04-03T08:12:05.000Z</time>
      </trkpt>
      <trkpt lat="47.342" lon="-2.33253">
        <ele>23.200000762939</ele>
        <time>2022-04-03T08:12:09.000Z</time>
      </trkpt>
      <trkpt lat="47.34207" lon="-2.33234">
        <ele>23.200000762939</ele>
        <time>2022-04-03T08:12:12.000Z</time>
      </trkpt>
      <trkpt lat="47.34209" lon="-2.33228">
        <ele>23.200000762939</ele>
        <time>2022-04-03T08:12:13.000Z</time>
      </trkpt>
      <trkpt lat="47.34213" lon="-2.33215">
        <ele>22.799999237061</ele>
        <time>2022-04-03T08:12:15.000Z</time>
      </trkpt>
      <trkpt lat="47.34215" lon="-2.33209">
        <ele>22.39999961853</ele>
        <time>2022-04-03T08:12:16.000Z</time>
      </trkpt>
      <trkpt lat="47.34216" lon="-2.33202">
        <ele>22</ele>
        <time>2022-04-03T08:12:17.000Z</time>
      </trkpt>
      <trkpt lat="47.34219" lon="-2.33195">
        <ele>21.39999961853</ele>
        <time>2022-04-03T08:12:18.000Z</time>
      </trkpt>
      <trkpt lat="47.34222" lon="-2.33189">
        <ele>21</ele>
        <time>2022-04-03T08:12:19.000Z</time>
      </trkpt>
      <trkpt lat="47.34226" lon="-2.33176">
        <ele>21</ele>
        <time>2022-04-03T08:12:21.000Z</time>
      </trkpt>
      <trkpt lat="47.34228" lon="-2.33169">
        <ele>21</ele>
        <time>2022-04-03T08:12:22.000Z</time>
      </trkpt>
      <trkpt lat="47.34241" lon="-2.33126">
        <ele>21</ele>
        <time>2022-04-03T08:12:28.000Z</time>
      </trkpt>
      <trkpt lat="47.34253" lon="-2.33082">
        <ele>21</ele>
        <time>2022-04-03T08:12:34.000Z</time>
      </trkpt>
      <trkpt lat="47.34261" lon="-2.3306">
        <ele>21</ele>
        <time>2022-04-03T08:12:39.000Z</time>
      </trkpt>
      <trkpt lat="47.34266" lon="-2.33037">
        <ele>21</ele>
        <time>2022-04-03T08:12:44.000Z</time>
      </trkpt>
      <trkpt lat="47.34266" lon="-2.33027">
        <ele>20.60000038147</ele>
        <time>2022-04-03T08:12:47.000Z</time>
      </trkpt>
      <trkpt lat="47.34267" lon="-2.33024">
        <ele>20.200000762939</ele>
        <time>2022-04-03T08:12:48.000Z</time>
      </trkpt>
      <trkpt lat="47.34268" lon="-2.33021">
        <ele>19.799999237061</ele>
        <time>2022-04-03T08:12:49.000Z</time>
      </trkpt>
      <trkpt lat="47.34269" lon="-2.33017">
        <ele>19.39999961853</ele>
        <time>2022-04-03T08:12:50.000Z</time>
      </trkpt>
      <trkpt lat="47.34269" lon="-2.33015">
        <ele>19</ele>
        <time>2022-04-03T08:12:51.000Z</time>
      </trkpt>
      <trkpt lat="47.34269" lon="-2.33003">
        <ele>19</ele>
        <time>2022-04-03T08:12:55.000Z</time>
      </trkpt>
      <trkpt lat="47.34266" lon="-2.32995">
        <ele>19</ele>
        <time>2022-04-03T08:12:57.000Z</time>
      </trkpt>
      <trkpt lat="47.34256" lon="-2.32973">
        <ele>19</ele>
        <time>2022-04-03T08:13:05.000Z</time>
      </trkpt>
      <trkpt lat="47.34256" lon="-2.32972">
        <ele>19</ele>
        <time>2022-04-03T08:13:07.000Z</time>
      </trkpt>
      <trkpt lat="47.34247" lon="-2.32952">
        <ele>19</ele>
        <time>2022-04-03T08:13:18.000Z</time>
      </trkpt>
      <trkpt lat="47.34245" lon="-2.32946">
        <ele>19</ele>
        <time>2022-04-03T08:13:20.000Z</time>
      </trkpt>
      <trkpt lat="47.34239" lon="-2.32935">
        <ele>19.39999961853</ele>
        <time>2022-04-03T08:13:24.000Z</time>
      </trkpt>
      <trkpt lat="47.34236" lon="-2.32932">
        <ele>19.799999237061</ele>
        <time>2022-04-03T08:13:25.000Z</time>
      </trkpt>
      <trkpt lat="47.34235" lon="-2.3293">
        <ele>20.200000762939</ele>
        <time>2022-04-03T08:13:26.000Z</time>
      </trkpt>
      <trkpt lat="47.34233" lon="-2.32927">
        <ele>20.60000038147</ele>
        <time>2022-04-03T08:13:27.000Z</time>
      </trkpt>
      <trkpt lat="47.34232" lon="-2.32924">
        <ele>21</ele>
        <time>2022-04-03T08:13:28.000Z</time>
      </trkpt>
      <trkpt lat="47.34228" lon="-2.32916">
        <ele>21</ele>
        <time>2022-04-03T08:13:31.000Z</time>
      </trkpt>
      <trkpt lat="47.34219" lon="-2.32894">
        <ele>21</ele>
        <time>2022-04-03T08:13:37.000Z</time>
      </trkpt>
      <trkpt lat="47.34217" lon="-2.32889">
        <ele>21.39999961853</ele>
        <time>2022-04-03T08:13:38.000Z</time>
      </trkpt>
      <trkpt lat="47.34214" lon="-2.32884">
        <ele>21.799999237061</ele>
        <time>2022-04-03T08:13:39.000Z</time>
      </trkpt>
      <trkpt lat="47.34212" lon="-2.32879">
        <ele>22.200000762939</ele>
        <time>2022-04-03T08:13:40.000Z</time>
      </trkpt>
      <trkpt lat="47.34209" lon="-2.32875">
        <ele>22.60000038147</ele>
        <time>2022-04-03T08:13:41.000Z</time>
      </trkpt>
      <trkpt lat="47.34205" lon="-2.32871">
        <ele>23</ele>
        <time>2022-04-03T08:13:42.000Z</time>
      </trkpt>
      <trkpt lat="47.34192" lon="-2.32848">
        <ele>23</ele>
        <time>2022-04-03T08:13:48.000Z</time>
      </trkpt>
      <trkpt lat="47.34183" lon="-2.3283">
        <ele>23.60000038147</ele>
        <time>2022-04-03T08:13:53.000Z</time>
      </trkpt>
      <trkpt lat="47.34181" lon="-2.32826">
        <ele>24</ele>
        <time>2022-04-03T08:13:54.000Z</time>
      </trkpt>
      <trkpt lat="47.3418" lon="-2.32821">
        <ele>24.39999961853</ele>
        <time>2022-04-03T08:13:55.000Z</time>
      </trkpt>
      <trkpt lat="47.34178" lon="-2.32816">
        <ele>24.799999237061</ele>
        <time>2022-04-03T08:13:56.000Z</time>
      </trkpt>
      <trkpt lat="47.34176" lon="-2.32811">
        <ele>25.200000762939</ele>
        <time>2022-04-03T08:13:57.000Z</time>
      </trkpt>
      <trkpt lat="47.34172" lon="-2.32799">
        <ele>25.200000762939</ele>
        <time>2022-04-03T08:14:00.000Z</time>
      </trkpt>
      <trkpt lat="47.34166" lon="-2.32776">
        <ele>25.200000762939</ele>
        <time>2022-04-03T08:14:06.000Z</time>
      </trkpt>
      <trkpt lat="47.34163" lon="-2.32747">
        <ele>25.60000038147</ele>
        <time>2022-04-03T08:14:12.000Z</time>
      </trkpt>
      <trkpt lat="47.34163" lon="-2.32742">
        <ele>26</ele>
        <time>2022-04-03T08:14:13.000Z</time>
      </trkpt>
      <trkpt lat="47.34163" lon="-2.32737">
        <ele>26.39999961853</ele>
        <time>2022-04-03T08:14:14.000Z</time>
      </trkpt>
      <trkpt lat="47.34164" lon="-2.32731">
        <ele>27</ele>
        <time>2022-04-03T08:14:15.000Z</time>
      </trkpt>
      <trkpt lat="47.34164" lon="-2.32726">
        <ele>27.39999961853</ele>
        <time>2022-04-03T08:14:16.000Z</time>
      </trkpt>
      <trkpt lat="47.34163" lon="-2.32715">
        <ele>27.39999961853</ele>
        <time>2022-04-03T08:14:18.000Z</time>
      </trkpt>
      <trkpt lat="47.34161" lon="-2.32679">
        <ele>27.39999961853</ele>
        <time>2022-04-03T08:14:24.000Z</time>
      </trkpt>
      <trkpt lat="47.34156" lon="-2.32637">
        <ele>27.39999961853</ele>
        <time>2022-04-03T08:14:31.000Z</time>
      </trkpt>
      <trkpt lat="47.34154" lon="-2.32602">
        <ele>27.39999961853</ele>
        <time>2022-04-03T08:14:37.000Z</time>
      </trkpt>
      <trkpt lat="47.34153" lon="-2.3259">
        <ele>27.39999961853</ele>
        <time>2022-04-03T08:14:41.000Z</time>
      </trkpt>
      <trkpt lat="47.34153" lon="-2.3259">
        <ele>27.39999961853</ele>
        <time>2022-04-03T08:14:42.000Z</time>
      </trkpt>
      <trkpt lat="47.34154" lon="-2.32585">
        <ele>27.39999961853</ele>
        <time>2022-04-03T08:15:05.000Z</time>
      </trkpt>
      <trkpt lat="47.34155" lon="-2.32584">
        <ele>27.39999961853</ele>
        <time>2022-04-03T08:15:06.000Z</time>
      </trkpt>
      <trkpt lat="47.34158" lon="-2.32569">
        <ele>27.39999961853</ele>
        <time>2022-04-03T08:15:10.000Z</time>
      </trkpt>
      <trkpt lat="47.34158" lon="-2.32564">
        <ele>27.39999961853</ele>
        <time>2022-04-03T08:15:11.000Z</time>
      </trkpt>
      <trkpt lat="47.34155" lon="-2.32541">
        <ele>27.39999961853</ele>
        <time>2022-04-03T08:15:15.000Z</time>
      </trkpt>
      <trkpt lat="47.34154" lon="-2.32535">
        <ele>27.39999961853</ele>
        <time>2022-04-03T08:15:16.000Z</time>
      </trkpt>
      <trkpt lat="47.34153" lon="-2.325">
        <ele>27.39999961853</ele>
        <time>2022-04-03T08:15:21.000Z</time>
      </trkpt>
      <trkpt lat="47.3415" lon="-2.32486">
        <ele>27.39999961853</ele>
        <time>2022-04-03T08:15:23.000Z</time>
      </trkpt>
      <trkpt lat="47.34145" lon="-2.32464">
        <ele>27.39999961853</ele>
        <time>2022-04-03T08:15:26.000Z</time>
      </trkpt>
      <trkpt lat="47.34138" lon="-2.32443">
        <ele>27.39999961853</ele>
        <time>2022-04-03T08:15:29.000Z</time>
      </trkpt>
      <trkpt lat="47.3413" lon="-2.32414">
        <ele>27.39999961853</ele>
        <time>2022-04-03T08:15:33.000Z</time>
      </trkpt>
      <trkpt lat="47.34126" lon="-2.32399">
        <ele>27.39999961853</ele>
        <time>2022-04-03T08:15:35.000Z</time>
      </trkpt>
      <trkpt lat="47.34112" lon="-2.32352">
        <ele>27.39999961853</ele>
        <time>2022-04-03T08:15:41.000Z</time>
      </trkpt>
      <trkpt lat="47.34095" lon="-2.32289">
        <ele>27.39999961853</ele>
        <time>2022-04-03T08:15:48.000Z</time>
      </trkpt>
      <trkpt lat="47.34093" lon="-2.3228">
        <ele>26.39999961853</ele>
        <time>2022-04-03T08:15:49.000Z</time>
      </trkpt>
      <trkpt lat="47.34091" lon="-2.3227">
        <ele>26</ele>
        <time>2022-04-03T08:15:50.000Z</time>
      </trkpt>
      <trkpt lat="47.34088" lon="-2.3226">
        <ele>25.60000038147</ele>
        <time>2022-04-03T08:15:51.000Z</time>
      </trkpt>
      <trkpt lat="47.34085" lon="-2.3225">
        <ele>25.200000762939</ele>
        <time>2022-04-03T08:15:52.000Z</time>
      </trkpt>
      <trkpt lat="47.34076" lon="-2.32233">
        <ele>25.200000762939</ele>
        <time>2022-04-03T08:15:54.000Z</time>
      </trkpt>
      <trkpt lat="47.34064" lon="-2.32221">
        <ele>24.799999237061</ele>
        <time>2022-04-03T08:15:56.000Z</time>
      </trkpt>
      <trkpt lat="47.34057" lon="-2.32219">
        <ele>24.200000762939</ele>
        <time>2022-04-03T08:15:57.000Z</time>
      </trkpt>
      <trkpt lat="47.3405" lon="-2.32217">
        <ele>23.799999237061</ele>
        <time>2022-04-03T08:15:58.000Z</time>
      </trkpt>
      <trkpt lat="47.34043" lon="-2.32216">
        <ele>23.39999961853</ele>
        <time>2022-04-03T08:15:59.000Z</time>
      </trkpt>
      <trkpt lat="47.34036" lon="-2.32216">
        <ele>23</ele>
        <time>2022-04-03T08:16:00.000Z</time>
      </trkpt>
      <trkpt lat="47.34028" lon="-2.32216">
        <ele>23</ele>
        <time>2022-04-03T08:16:01.000Z</time>
      </trkpt>
      <trkpt lat="47.33991" lon="-2.32219">
        <ele>22.39999961853</ele>
        <time>2022-04-03T08:16:06.000Z</time>
      </trkpt>
      <trkpt lat="47.33984" lon="-2.3222">
        <ele>22</ele>
        <time>2022-04-03T08:16:07.000Z</time>
      </trkpt>
      <trkpt lat="47.33977" lon="-2.3222">
        <ele>21.60000038147</ele>
        <time>2022-04-03T08:16:08.000Z</time>
      </trkpt>
      <trkpt lat="47.3397" lon="-2.3222">
        <ele>21.200000762939</ele>
        <time>2022-04-03T08:16:09.000Z</time>
      </trkpt>
      <trkpt lat="47.33964" lon="-2.32219">
        <ele>20.799999237061</ele>
        <time>2022-04-03T08:16:10.000Z</time>
      </trkpt>
      <trkpt lat="47.33948" lon="-2.32207">
        <ele>20.799999237061</ele>
        <time>2022-04-03T08:16:13.000Z</time>
      </trkpt>
      <trkpt lat="47.33942" lon="-2.32202">
        <ele>20.799999237061</ele>
        <time>2022-04-03T08:16:14.000Z</time>
      </trkpt>
      <trkpt lat="47.3393" lon="-2.32194">
        <ele>20.799999237061</ele>
        <time>2022-04-03T08:16:16.000Z</time>
      </trkpt>
      <trkpt lat="47.33923" lon="-2.32195">
        <ele>20.799999237061</ele>
        <time>2022-04-03T08:16:17.000Z</time>
      </trkpt>
      <trkpt lat="47.3389" lon="-2.32194">
        <ele>20.799999237061</ele>
        <time>2022-04-03T08:16:22.000Z</time>
      </trkpt>
      <trkpt lat="47.33857" lon="-2.32195">
        <ele>20.799999237061</ele>
        <time>2022-04-03T08:16:27.000Z</time>
      </trkpt>
      <trkpt lat="47.33817" lon="-2.32204">
        <ele>20.799999237061</ele>
        <time>2022-04-03T08:16:34.000Z</time>
      </trkpt>
      <trkpt lat="47.33784" lon="-2.3221">
        <ele>20.799999237061</ele>
        <time>2022-04-03T08:16:40.000Z</time>
      </trkpt>
      <trkpt lat="47.33743" lon="-2.32221">
        <ele>20.799999237061</ele>
        <time>2022-04-03T08:16:47.000Z</time>
      </trkpt>
      <trkpt lat="47.33709" lon="-2.3224">
        <ele>20.799999237061</ele>
        <time>2022-04-03T08:16:53.000Z</time>
      </trkpt>
      <trkpt lat="47.33667" lon="-2.32266">
        <ele>20.799999237061</ele>
        <time>2022-04-03T08:17:00.000Z</time>
      </trkpt>
      <trkpt lat="47.33661" lon="-2.32269">
        <ele>21.200000762939</ele>
        <time>2022-04-03T08:17:01.000Z</time>
      </trkpt>
      <trkpt lat="47.33655" lon="-2.32272">
        <ele>21.60000038147</ele>
        <time>2022-04-03T08:17:02.000Z</time>
      </trkpt>
      <trkpt lat="47.33649" lon="-2.32275">
        <ele>22</ele>
        <time>2022-04-03T08:17:03.000Z</time>
      </trkpt>
      <trkpt lat="47.33643" lon="-2.32277">
        <ele>22.799999237061</ele>
        <time>2022-04-03T08:17:04.000Z</time>
      </trkpt>
      <trkpt lat="47.33632" lon="-2.3228">
        <ele>22.799999237061</ele>
        <time>2022-04-03T08:17:06.000Z</time>
      </trkpt>
      <trkpt lat="47.33595" lon="-2.32288">
        <ele>22.799999237061</ele>
        <time>2022-04-03T08:17:12.000Z</time>
      </trkpt>
      <trkpt lat="47.33556" lon="-2.32301">
        <ele>22.799999237061</ele>
        <time>2022-04-03T08:17:18.000Z</time>
      </trkpt>
      <trkpt lat="47.33543" lon="-2.32304">
        <ele>22.799999237061</ele>
        <time>2022-04-03T08:17:20.000Z</time>
      </trkpt>
      <trkpt lat="47.33529" lon="-2.32302">
        <ele>22.799999237061</ele>
        <time>2022-04-03T08:17:22.000Z</time>
      </trkpt>
      <trkpt lat="47.33514" lon="-2.32306">
        <ele>22.799999237061</ele>
        <time>2022-04-03T08:17:24.000Z</time>
      </trkpt>
      <trkpt lat="47.33507" lon="-2.32311">
        <ele>22.39999961853</ele>
        <time>2022-04-03T08:17:25.000Z</time>
      </trkpt>
      <trkpt lat="47.335" lon="-2.32314">
        <ele>22</ele>
        <time>2022-04-03T08:17:26.000Z</time>
      </trkpt>
      <trkpt lat="47.33492" lon="-2.32318">
        <ele>21.39999961853</ele>
        <time>2022-04-03T08:17:27.000Z</time>
      </trkpt>
      <trkpt lat="47.33484" lon="-2.32322">
        <ele>20.60000038147</ele>
        <time>2022-04-03T08:17:28.000Z</time>
      </trkpt>
      <trkpt lat="47.33451" lon="-2.32341">
        <ele>20.60000038147</ele>
        <time>2022-04-03T08:17:33.000Z</time>
      </trkpt>
      <trkpt lat="47.33423" lon="-2.32361">
        <ele>20.60000038147</ele>
        <time>2022-04-03T08:17:38.000Z</time>
      </trkpt>
      <trkpt lat="47.33385" lon="-2.32393">
        <ele>20.60000038147</ele>
        <time>2022-04-03T08:17:45.000Z</time>
      </trkpt>
      <trkpt lat="47.3335" lon="-2.32428">
        <ele>20.60000038147</ele>
        <time>2022-04-03T08:17:52.000Z</time>
      </trkpt>
      <trkpt lat="47.33332" lon="-2.32452">
        <ele>20.60000038147</ele>
        <time>2022-04-03T08:17:56.000Z</time>
      </trkpt>
      <trkpt lat="47.33327" lon="-2.32455">
        <ele>20.60000038147</ele>
        <time>2022-04-03T08:17:57.000Z</time>
      </trkpt>
      <trkpt lat="47.3332" lon="-2.32456">
        <ele>20.60000038147</ele>
        <time>2022-04-03T08:17:58.000Z</time>
      </trkpt>
      <trkpt lat="47.33315" lon="-2.32458">
        <ele>21</ele>
        <time>2022-04-03T08:17:59.000Z</time>
      </trkpt>
      <trkpt lat="47.3331" lon="-2.32462">
        <ele>21.39999961853</ele>
        <time>2022-04-03T08:18:00.000Z</time>
      </trkpt>
      <trkpt lat="47.33305" lon="-2.32465">
        <ele>21.799999237061</ele>
        <time>2022-04-03T08:18:01.000Z</time>
      </trkpt>
      <trkpt lat="47.33299" lon="-2.32467">
        <ele>22.200000762939</ele>
        <time>2022-04-03T08:18:02.000Z</time>
      </trkpt>
      <trkpt lat="47.33294" lon="-2.3247">
        <ele>22.60000038147</ele>
        <time>2022-04-03T08:18:03.000Z</time>
      </trkpt>
      <trkpt lat="47.33265" lon="-2.32483">
        <ele>22.60000038147</ele>
        <time>2022-04-03T08:18:08.000Z</time>
      </trkpt>
      <trkpt lat="47.33229" lon="-2.325">
        <ele>22.60000038147</ele>
        <time>2022-04-03T08:18:14.000Z</time>
      </trkpt>
      <trkpt lat="47.33176" lon="-2.32523">
        <ele>22.60000038147</ele>
        <time>2022-04-03T08:18:23.000Z</time>
      </trkpt>
      <trkpt lat="47.33163" lon="-2.32529">
        <ele>22.60000038147</ele>
        <time>2022-04-03T08:18:25.000Z</time>
      </trkpt>
      <trkpt lat="47.33145" lon="-2.32541">
        <ele>22.60000038147</ele>
        <time>2022-04-03T08:18:28.000Z</time>
      </trkpt>
      <trkpt lat="47.33107" lon="-2.32569">
        <ele>22.60000038147</ele>
        <time>2022-04-03T08:18:34.000Z</time>
      </trkpt>
      <trkpt lat="47.33095" lon="-2.32581">
        <ele>22.60000038147</ele>
        <time>2022-04-03T08:18:36.000Z</time>
      </trkpt>
      <trkpt lat="47.33061" lon="-2.3261">
        <ele>21.799999237061</ele>
        <time>2022-04-03T08:18:42.000Z</time>
      </trkpt>
      <trkpt lat="47.33054" lon="-2.32615">
        <ele>21.39999961853</ele>
        <time>2022-04-03T08:18:43.000Z</time>
      </trkpt>
      <trkpt lat="47.33048" lon="-2.32621">
        <ele>21</ele>
        <time>2022-04-03T08:18:44.000Z</time>
      </trkpt>
      <trkpt lat="47.33041" lon="-2.32627">
        <ele>20.60000038147</ele>
        <time>2022-04-03T08:18:45.000Z</time>
      </trkpt>
      <trkpt lat="47.33028" lon="-2.32637">
        <ele>20.200000762939</ele>
        <time>2022-04-03T08:18:47.000Z</time>
      </trkpt>
      <trkpt lat="47.3302" lon="-2.32637">
        <ele>19.60000038147</ele>
        <time>2022-04-03T08:18:48.000Z</time>
      </trkpt>
      <trkpt lat="47.33014" lon="-2.32635">
        <ele>19.200000762939</ele>
        <time>2022-04-03T08:18:49.000Z</time>
      </trkpt>
      <trkpt lat="47.33008" lon="-2.32631">
        <ele>18.799999237061</ele>
        <time>2022-04-03T08:18:50.000Z</time>
      </trkpt>
      <trkpt lat="47.33002" lon="-2.32628">
        <ele>18.39999961853</ele>
        <time>2022-04-03T08:18:51.000Z</time>
      </trkpt>
      <trkpt lat="47.32983" lon="-2.32626">
        <ele>18.39999961853</ele>
        <time>2022-04-03T08:18:54.000Z</time>
      </trkpt>
      <trkpt lat="47.32978" lon="-2.32631">
        <ele>18.39999961853</ele>
        <time>2022-04-03T08:18:55.000Z</time>
      </trkpt>
      <trkpt lat="47.32969" lon="-2.32637">
        <ele>18.39999961853</ele>
        <time>2022-04-03T08:18:57.000Z</time>
      </trkpt>
      <trkpt lat="47.32936" lon="-2.32646">
        <ele>18.39999961853</ele>
        <time>2022-04-03T08:19:03.000Z</time>
      </trkpt>
      <trkpt lat="47.3292" lon="-2.32638">
        <ele>18.39999961853</ele>
        <time>2022-04-03T08:19:06.000Z</time>
      </trkpt>
      <trkpt lat="47.32915" lon="-2.32624">
        <ele>18.799999237061</ele>
        <time>2022-04-03T08:19:08.000Z</time>
      </trkpt>
      <trkpt lat="47.32915" lon="-2.32616">
        <ele>19.200000762939</ele>
        <time>2022-04-03T08:19:09.000Z</time>
      </trkpt>
      <trkpt lat="47.32914" lon="-2.32608">
        <ele>19.60000038147</ele>
        <time>2022-04-03T08:19:10.000Z</time>
      </trkpt>
      <trkpt lat="47.32915" lon="-2.326">
        <ele>20</ele>
        <time>2022-04-03T08:19:11.000Z</time>
      </trkpt>
      <trkpt lat="47.32916" lon="-2.32592">
        <ele>20.39999961853</ele>
        <time>2022-04-03T08:19:12.000Z</time>
      </trkpt>
      <trkpt lat="47.32915" lon="-2.32559">
        <ele>20.39999961853</ele>
        <time>2022-04-03T08:19:16.000Z</time>
      </trkpt>
      <trkpt lat="47.32913" lon="-2.32535">
        <ele>20.39999961853</ele>
        <time>2022-04-03T08:19:19.000Z</time>
      </trkpt>
      <trkpt lat="47.32908" lon="-2.32511">
        <ele>20.39999961853</ele>
        <time>2022-04-03T08:19:22.000Z</time>
      </trkpt>
      <trkpt lat="47.32893" lon="-2.32466">
        <ele>20.39999961853</ele>
        <time>2022-04-03T08:19:28.000Z</time>
      </trkpt>
      <trkpt lat="47.32874" lon="-2.32447">
        <ele>20.39999961853</ele>
        <time>2022-04-03T08:19:32.000Z</time>
      </trkpt>
      <trkpt lat="47.32868" lon="-2.32444">
        <ele>20.39999961853</ele>
        <time>2022-04-03T08:19:33.000Z</time>
      </trkpt>
      <trkpt lat="47.32833" lon="-2.32419">
        <ele>20.39999961853</ele>
        <time>2022-04-03T08:19:39.000Z</time>
      </trkpt>
      <trkpt lat="47.3279" lon="-2.32379">
        <ele>20.39999961853</ele>
        <time>2022-04-03T08:19:47.000Z</time>
      </trkpt>
      <trkpt lat="47.32768" lon="-2.32365">
        <ele>20.39999961853</ele>
        <time>2022-04-03T08:19:51.000Z</time>
      </trkpt>
      <trkpt lat="47.32727" lon="-2.3234">
        <ele>20.39999961853</ele>
        <time>2022-04-03T08:19:59.000Z</time>
      </trkpt>
      <trkpt lat="47.32697" lon="-2.32326">
        <ele>20.39999961853</ele>
        <time>2022-04-03T08:20:05.000Z</time>
      </trkpt>
      <trkpt lat="47.32691" lon="-2.32324">
        <ele>20.799999237061</ele>
        <time>2022-04-03T08:20:06.000Z</time>
      </trkpt>
      <trkpt lat="47.32686" lon="-2.32322">
        <ele>21.200000762939</ele>
        <time>2022-04-03T08:20:07.000Z</time>
      </trkpt>
      <trkpt lat="47.32681" lon="-2.32321">
        <ele>21.60000038147</ele>
        <time>2022-04-03T08:20:08.000Z</time>
      </trkpt>
      <trkpt lat="47.32676" lon="-2.32319">
        <ele>22</ele>
        <time>2022-04-03T08:20:09.000Z</time>
      </trkpt>
      <trkpt lat="47.32671" lon="-2.32318">
        <ele>22.39999961853</ele>
        <time>2022-04-03T08:20:10.000Z</time>
      </trkpt>
      <trkpt lat="47.3266" lon="-2.32315">
        <ele>22.39999961853</ele>
        <time>2022-04-03T08:20:12.000Z</time>
      </trkpt>
      <trkpt lat="47.32631" lon="-2.32311">
        <ele>22.39999961853</ele>
        <time>2022-04-03T08:20:18.000Z</time>
      </trkpt>
      <trkpt lat="47.32593" lon="-2.32311">
        <ele>22.39999961853</ele>
        <time>2022-04-03T08:20:25.000Z</time>
      </trkpt>
      <trkpt lat="47.3256" lon="-2.32316">
        <ele>22.39999961853</ele>
        <time>2022-04-03T08:20:32.000Z</time>
      </trkpt>
      <trkpt lat="47.32548" lon="-2.32317">
        <ele>22.799999237061</ele>
        <time>2022-04-03T08:20:36.000Z</time>
      </trkpt>
      <trkpt lat="47.32545" lon="-2.32318">
        <ele>23.200000762939</ele>
        <time>2022-04-03T08:20:37.000Z</time>
      </trkpt>
      <trkpt lat="47.32542" lon="-2.32318">
        <ele>23.60000038147</ele>
        <time>2022-04-03T08:20:38.000Z</time>
      </trkpt>
      <trkpt lat="47.3254" lon="-2.32317">
        <ele>24</ele>
        <time>2022-04-03T08:20:39.000Z</time>
      </trkpt>
      <trkpt lat="47.32538" lon="-2.32317">
        <ele>24.39999961853</ele>
        <time>2022-04-03T08:20:40.000Z</time>
      </trkpt>
      <trkpt lat="47.32536" lon="-2.32316">
        <ele>24.39999961853</ele>
        <time>2022-04-03T08:20:42.000Z</time>
      </trkpt>
      <trkpt lat="47.32534" lon="-2.32311">
        <ele>24.39999961853</ele>
        <time>2022-04-03T08:21:05.000Z</time>
      </trkpt>
      <trkpt lat="47.32534" lon="-2.32305">
        <ele>24.39999961853</ele>
        <time>2022-04-03T08:21:07.000Z</time>
      </trkpt>
      <trkpt lat="47.32538" lon="-2.32281">
        <ele>24.39999961853</ele>
        <time>2022-04-03T08:21:12.000Z</time>
      </trkpt>
      <trkpt lat="47.32539" lon="-2.32276">
        <ele>24.39999961853</ele>
        <time>2022-04-03T08:21:13.000Z</time>
      </trkpt>
      <trkpt lat="47.32543" lon="-2.32264">
        <ele>24</ele>
        <time>2022-04-03T08:21:15.000Z</time>
      </trkpt>
      <trkpt lat="47.32544" lon="-2.32257">
        <ele>23.39999961853</ele>
        <time>2022-04-03T08:21:16.000Z</time>
      </trkpt>
      <trkpt lat="47.32547" lon="-2.32251">
        <ele>23</ele>
        <time>2022-04-03T08:21:17.000Z</time>
      </trkpt>
      <trkpt lat="47.32549" lon="-2.32245">
        <ele>22.39999961853</ele>
        <time>2022-04-03T08:21:18.000Z</time>
      </trkpt>
      <trkpt lat="47.32551" lon="-2.32237">
        <ele>22</ele>
        <time>2022-04-03T08:21:19.000Z</time>
      </trkpt>
      <trkpt lat="47.32555" lon="-2.32223">
        <ele>21.60000038147</ele>
        <time>2022-04-03T08:21:21.000Z</time>
      </trkpt>
      <trkpt lat="47.32557" lon="-2.32216">
        <ele>21.200000762939</ele>
        <time>2022-04-03T08:21:22.000Z</time>
      </trkpt>
      <trkpt lat="47.3256" lon="-2.3221">
        <ele>20.799999237061</ele>
        <time>2022-04-03T08:21:23.000Z</time>
      </trkpt>
      <trkpt lat="47.32562" lon="-2.32203">
        <ele>20.39999961853</ele>
        <time>2022-04-03T08:21:24.000Z</time>
      </trkpt>
      <trkpt lat="47.32564" lon="-2.32196">
        <ele>20</ele>
        <time>2022-04-03T08:21:25.000Z</time>
      </trkpt>
      <trkpt lat="47.32566" lon="-2.3219">
        <ele>20</ele>
        <time>2022-04-03T08:21:26.000Z</time>
      </trkpt>
      <trkpt lat="47.32578" lon="-2.32142">
        <ele>20</ele>
        <time>2022-04-03T08:21:33.000Z</time>
      </trkpt>
      <trkpt lat="47.32584" lon="-2.32116">
        <ele>20.39999961853</ele>
        <time>2022-04-03T08:21:37.000Z</time>
      </trkpt>
      <trkpt lat="47.32585" lon="-2.3211">
        <ele>20.799999237061</ele>
        <time>2022-04-03T08:21:38.000Z</time>
      </trkpt>
      <trkpt lat="47.32584" lon="-2.32104">
        <ele>21.39999961853</ele>
        <time>2022-04-03T08:21:39.000Z</time>
      </trkpt>
      <trkpt lat="47.32581" lon="-2.32099">
        <ele>21.799999237061</ele>
        <time>2022-04-03T08:21:40.000Z</time>
      </trkpt>
      <trkpt lat="47.32578" lon="-2.32097">
        <ele>22.200000762939</ele>
        <time>2022-04-03T08:21:41.000Z</time>
      </trkpt>
      <trkpt lat="47.32574" lon="-2.32095">
        <ele>22.200000762939</ele>
        <time>2022-04-03T08:21:42.000Z</time>
      </trkpt>
      <trkpt lat="47.32565" lon="-2.32095">
        <ele>22.200000762939</ele>
        <time>2022-04-03T08:21:44.000Z</time>
      </trkpt>
      <trkpt lat="47.32544" lon="-2.32096">
        <ele>22.60000038147</ele>
        <time>2022-04-03T08:21:48.000Z</time>
      </trkpt>
      <trkpt lat="47.32539" lon="-2.32097">
        <ele>23</ele>
        <time>2022-04-03T08:21:49.000Z</time>
      </trkpt>
      <trkpt lat="47.32533" lon="-2.32097">
        <ele>23.39999961853</ele>
        <time>2022-04-03T08:21:50.000Z</time>
      </trkpt>
      <trkpt lat="47.32528" lon="-2.32098">
        <ele>23.799999237061</ele>
        <time>2022-04-03T08:21:51.000Z</time>
      </trkpt>
      <trkpt lat="47.32522" lon="-2.32099">
        <ele>24.200000762939</ele>
        <time>2022-04-03T08:21:52.000Z</time>
      </trkpt>
      <trkpt lat="47.32499" lon="-2.32101">
        <ele>24.200000762939</ele>
        <time>2022-04-03T08:21:56.000Z</time>
      </trkpt>
      <trkpt lat="47.32455" lon="-2.32103">
        <ele>24.200000762939</ele>
        <time>2022-04-03T08:22:03.000Z</time>
      </trkpt>
      <trkpt lat="47.32418" lon="-2.32105">
        <ele>24.200000762939</ele>
        <time>2022-04-03T08:22:09.000Z</time>
      </trkpt>
      <trkpt lat="47.3238" lon="-2.32107">
        <ele>24.200000762939</ele>
        <time>2022-04-03T08:22:16.000Z</time>
      </trkpt>
      <trkpt lat="47.32354" lon="-2.32108">
        <ele>24.200000762939</ele>
        <time>2022-04-03T08:22:22.000Z</time>
      </trkpt>
      <trkpt lat="47.3234" lon="-2.32102">
        <ele>24.200000762939</ele>
        <time>2022-04-03T08:22:27.000Z</time>
      </trkpt>
      <trkpt lat="47.3233" lon="-2.32104">
        <ele>24.200000762939</ele>
        <time>2022-04-03T08:22:31.000Z</time>
      </trkpt>
      <trkpt lat="47.32324" lon="-2.32103">
        <ele>24.200000762939</ele>
        <time>2022-04-03T08:22:33.000Z</time>
      </trkpt>
      <trkpt lat="47.32307" lon="-2.32098">
        <ele>24.200000762939</ele>
        <time>2022-04-03T08:22:38.000Z</time>
      </trkpt>
      <trkpt lat="47.32286" lon="-2.32099">
        <ele>24.200000762939</ele>
        <time>2022-04-03T08:22:43.000Z</time>
      </trkpt>
      <trkpt lat="47.32249" lon="-2.32105">
        <ele>24.200000762939</ele>
        <time>2022-04-03T08:22:50.000Z</time>
      </trkpt>
      <trkpt lat="47.32211" lon="-2.32114">
        <ele>24.200000762939</ele>
        <time>2022-04-03T08:22:57.000Z</time>
      </trkpt>
      <trkpt lat="47.32198" lon="-2.32118">
        <ele>24.200000762939</ele>
        <time>2022-04-03T08:23:01.000Z</time>
      </trkpt>
      <trkpt lat="47.3218" lon="-2.32128">
        <ele>23.799999237061</ele>
        <time>2022-04-03T08:23:05.000Z</time>
      </trkpt>
      <trkpt lat="47.32175" lon="-2.32132">
        <ele>23.39999961853</ele>
        <time>2022-04-03T08:23:06.000Z</time>
      </trkpt>
      <trkpt lat="47.3217" lon="-2.32136">
        <ele>23</ele>
        <time>2022-04-03T08:23:07.000Z</time>
      </trkpt>
      <trkpt lat="47.32165" lon="-2.3214">
        <ele>22.60000038147</ele>
        <time>2022-04-03T08:23:08.000Z</time>
      </trkpt>
      <trkpt lat="47.3216" lon="-2.32144">
        <ele>22.200000762939</ele>
        <time>2022-04-03T08:23:09.000Z</time>
      </trkpt>
      <trkpt lat="47.32135" lon="-2.32165">
        <ele>22.200000762939</ele>
        <time>2022-04-03T08:23:14.000Z</time>
      </trkpt>
      <trkpt lat="47.32121" lon="-2.32175">
        <ele>22.200000762939</ele>
        <time>2022-04-03T08:23:17.000Z</time>
      </trkpt>
      <trkpt lat="47.3211" lon="-2.32178">
        <ele>22.200000762939</ele>
        <time>2022-04-03T08:23:19.000Z</time>
      </trkpt>
      <trkpt lat="47.32076" lon="-2.32183">
        <ele>22.200000762939</ele>
        <time>2022-04-03T08:23:25.000Z</time>
      </trkpt>
      <trkpt lat="47.32055" lon="-2.32185">
        <ele>22.60000038147</ele>
        <time>2022-04-03T08:23:29.000Z</time>
      </trkpt>
      <trkpt lat="47.3205" lon="-2.32186">
        <ele>23.200000762939</ele>
        <time>2022-04-03T08:23:30.000Z</time>
      </trkpt>
      <trkpt lat="47.32045" lon="-2.32187">
        <ele>23.60000038147</ele>
        <time>2022-04-03T08:23:31.000Z</time>
      </trkpt>
      <trkpt lat="47.3204" lon="-2.32187">
        <ele>24</ele>
        <time>2022-04-03T08:23:32.000Z</time>
      </trkpt>
      <trkpt lat="47.32034" lon="-2.32188">
        <ele>24.60000038147</ele>
        <time>2022-04-03T08:23:33.000Z</time>
      </trkpt>
      <trkpt lat="47.32013" lon="-2.32193">
        <ele>24.60000038147</ele>
        <time>2022-04-03T08:23:37.000Z</time>
      </trkpt>
      <trkpt lat="47.32007" lon="-2.32196">
        <ele>24.60000038147</ele>
        <time>2022-04-03T08:23:38.000Z</time>
      </trkpt>
      <trkpt lat="47.31966" lon="-2.32226">
        <ele>24.60000038147</ele>
        <time>2022-04-03T08:23:46.000Z</time>
      </trkpt>
      <trkpt lat="47.31961" lon="-2.32235">
        <ele>25</ele>
        <time>2022-04-03T08:23:48.000Z</time>
      </trkpt>
      <trkpt lat="47.31959" lon="-2.3224">
        <ele>25.39999961853</ele>
        <time>2022-04-03T08:23:49.000Z</time>
      </trkpt>
      <trkpt lat="47.31957" lon="-2.32245">
        <ele>25.799999237061</ele>
        <time>2022-04-03T08:23:50.000Z</time>
      </trkpt>
      <trkpt lat="47.31955" lon="-2.3225">
        <ele>26.200000762939</ele>
        <time>2022-04-03T08:23:51.000Z</time>
      </trkpt>
      <trkpt lat="47.31953" lon="-2.32256">
        <ele>26.60000038147</ele>
        <time>2022-04-03T08:23:52.000Z</time>
      </trkpt>
      <trkpt lat="47.31948" lon="-2.3226">
        <ele>27</ele>
        <time>2022-04-03T08:23:54.000Z</time>
      </trkpt>
      <trkpt lat="47.31946" lon="-2.32258">
        <ele>27.39999961853</ele>
        <time>2022-04-03T08:23:55.000Z</time>
      </trkpt>
      <trkpt lat="47.31945" lon="-2.32254">
        <ele>27.799999237061</ele>
        <time>2022-04-03T08:23:56.000Z</time>
      </trkpt>
      <trkpt lat="47.31945" lon="-2.3225">
        <ele>28.200000762939</ele>
        <time>2022-04-03T08:23:57.000Z</time>
      </trkpt>
      <trkpt lat="47.31947" lon="-2.32246">
        <ele>28.799999237061</ele>
        <time>2022-04-03T08:23:58.000Z</time>
      </trkpt>
      <trkpt lat="47.31948" lon="-2.32242">
        <ele>29.200000762939</ele>
        <time>2022-04-03T08:23:59.000Z</time>
      </trkpt>
      <trkpt lat="47.3195" lon="-2.32237">
        <ele>29.799999237061</ele>
        <time>2022-04-03T08:24:00.000Z</time>
      </trkpt>
      <trkpt lat="47.31951" lon="-2.32232">
        <ele>30.200000762939</ele>
        <time>2022-04-03T08:24:01.000Z</time>
      </trkpt>
      <trkpt lat="47.31953" lon="-2.32227">
        <ele>30.799999237061</ele>
        <time>2022-04-03T08:24:02.000Z</time>
      </trkpt>
      <trkpt lat="47.31953" lon="-2.32218">
        <ele>30.799999237061</ele>
        <time>2022-04-03T08:24:04.000Z</time>
      </trkpt>
      <trkpt lat="47.31951" lon="-2.32214">
        <ele>30.799999237061</ele>
        <time>2022-04-03T08:24:05.000Z</time>
      </trkpt>
      <trkpt lat="47.3194" lon="-2.32212">
        <ele>30.799999237061</ele>
        <time>2022-04-03T08:24:08.000Z</time>
      </trkpt>
      <trkpt lat="47.31937" lon="-2.32211">
        <ele>30.799999237061</ele>
        <time>2022-04-03T08:24:09.000Z</time>
      </trkpt>
      <trkpt lat="47.3193" lon="-2.32208">
        <ele>31.200000762939</ele>
        <time>2022-04-03T08:24:11.000Z</time>
      </trkpt>
      <trkpt lat="47.31926" lon="-2.32207">
        <ele>31.60000038147</ele>
        <time>2022-04-03T08:24:12.000Z</time>
      </trkpt>
      <trkpt lat="47.31922" lon="-2.32207">
        <ele>32</ele>
        <time>2022-04-03T08:24:13.000Z</time>
      </trkpt>
      <trkpt lat="47.31919" lon="-2.32206">
        <ele>32.400001525879</ele>
        <time>2022-04-03T08:24:14.000Z</time>
      </trkpt>
      <trkpt lat="47.31915" lon="-2.32206">
        <ele>33</ele>
        <time>2022-04-03T08:24:15.000Z</time>
      </trkpt>
      <trkpt lat="47.31902" lon="-2.32206">
        <ele>33.400001525879</ele>
        <time>2022-04-03T08:24:19.000Z</time>
      </trkpt>
      <trkpt lat="47.31899" lon="-2.32206">
        <ele>33.799999237061</ele>
        <time>2022-04-03T08:24:20.000Z</time>
      </trkpt>
      <trkpt lat="47.31895" lon="-2.32206">
        <ele>34.200000762939</ele>
        <time>2022-04-03T08:24:21.000Z</time>
      </trkpt>
      <trkpt lat="47.31892" lon="-2.32207">
        <ele>34.599998474121</ele>
        <time>2022-04-03T08:24:22.000Z</time>
      </trkpt>
      <trkpt lat="47.31889" lon="-2.32207">
        <ele>35</ele>
        <time>2022-04-03T08:24:23.000Z</time>
      </trkpt>
      <trkpt lat="47.31871" lon="-2.32212">
        <ele>35</ele>
        <time>2022-04-03T08:24:28.000Z</time>
      </trkpt>
      <trkpt lat="47.31868" lon="-2.32213">
        <ele>35.599998474121</ele>
        <time>2022-04-03T08:24:29.000Z</time>
      </trkpt>
      <trkpt lat="47.31864" lon="-2.32214">
        <ele>36</ele>
        <time>2022-04-03T08:24:30.000Z</time>
      </trkpt>
      <trkpt lat="47.31861" lon="-2.32215">
        <ele>36.400001525879</ele>
        <time>2022-04-03T08:24:31.000Z</time>
      </trkpt>
      <trkpt lat="47.31858" lon="-2.32216">
        <ele>36.799999237061</ele>
        <time>2022-04-03T08:24:32.000Z</time>
      </trkpt>
      <trkpt lat="47.31854" lon="-2.32217">
        <ele>37.200000762939</ele>
        <time>2022-04-03T08:24:33.000Z</time>
      </trkpt>
      <trkpt lat="47.31851" lon="-2.32219">
        <ele>37.200000762939</ele>
        <time>2022-04-03T08:24:34.000Z</time>
      </trkpt>
      <trkpt lat="47.31846" lon="-2.32221">
        <ele>37.599998474121</ele>
        <time>2022-04-03T08:24:36.000Z</time>
      </trkpt>
      <trkpt lat="47.31843" lon="-2.32222">
        <ele>38</ele>
        <time>2022-04-03T08:24:37.000Z</time>
      </trkpt>
      <trkpt lat="47.3184" lon="-2.32223">
        <ele>38.400001525879</ele>
        <time>2022-04-03T08:24:38.000Z</time>
      </trkpt>
      <trkpt lat="47.31837" lon="-2.32224">
        <ele>38.799999237061</ele>
        <time>2022-04-03T08:24:39.000Z</time>
      </trkpt>
      <trkpt lat="47.31834" lon="-2.32224">
        <ele>39.400001525879</ele>
        <time>2022-04-03T08:24:40.000Z</time>
      </trkpt>
      <trkpt lat="47.31828" lon="-2.32226">
        <ele>39.400001525879</ele>
        <time>2022-04-03T08:24:42.000Z</time>
      </trkpt>
      <trkpt lat="47.31819" lon="-2.32227">
        <ele>39.799999237061</ele>
        <time>2022-04-03T08:24:45.000Z</time>
      </trkpt>
      <trkpt lat="47.31816" lon="-2.32228">
        <ele>40.200000762939</ele>
        <time>2022-04-03T08:24:46.000Z</time>
      </trkpt>
      <trkpt lat="47.31813" lon="-2.32229">
        <ele>40.599998474121</ele>
        <time>2022-04-03T08:24:47.000Z</time>
      </trkpt>
      <trkpt lat="47.3181" lon="-2.32229">
        <ele>41</ele>
        <time>2022-04-03T08:24:48.000Z</time>
      </trkpt>
      <trkpt lat="47.31806" lon="-2.3223">
        <ele>41.400001525879</ele>
        <time>2022-04-03T08:24:49.000Z</time>
      </trkpt>
      <trkpt lat="47.31803" lon="-2.32231">
        <ele>41.400001525879</ele>
        <time>2022-04-03T08:24:50.000Z</time>
      </trkpt>
      <trkpt lat="47.31778" lon="-2.32232">
        <ele>41.400001525879</ele>
        <time>2022-04-03T08:24:57.000Z</time>
      </trkpt>
      <trkpt lat="47.31775" lon="-2.32232">
        <ele>41.799999237061</ele>
        <time>2022-04-03T08:24:58.000Z</time>
      </trkpt>
      <trkpt lat="47.31771" lon="-2.32233">
        <ele>42.200000762939</ele>
        <time>2022-04-03T08:24:59.000Z</time>
      </trkpt>
      <trkpt lat="47.31768" lon="-2.32233">
        <ele>42.599998474121</ele>
        <time>2022-04-03T08:25:00.000Z</time>
      </trkpt>
      <trkpt lat="47.31764" lon="-2.32234">
        <ele>43</ele>
        <time>2022-04-03T08:25:01.000Z</time>
      </trkpt>
      <trkpt lat="47.31761" lon="-2.32234">
        <ele>43.599998474121</ele>
        <time>2022-04-03T08:25:02.000Z</time>
      </trkpt>
      <trkpt lat="47.31757" lon="-2.32236">
        <ele>43.599998474121</ele>
        <time>2022-04-03T08:25:03.000Z</time>
      </trkpt>
      <trkpt lat="47.31755" lon="-2.32239">
        <ele>43.599998474121</ele>
        <time>2022-04-03T08:25:04.000Z</time>
      </trkpt>
      <trkpt lat="47.31754" lon="-2.32249">
        <ele>43.599998474121</ele>
        <time>2022-04-03T08:25:06.000Z</time>
      </trkpt>
      <trkpt lat="47.31761" lon="-2.32289">
        <ele>43.599998474121</ele>
        <time>2022-04-03T08:25:14.000Z</time>
      </trkpt>
      <trkpt lat="47.31767" lon="-2.3233">
        <ele>43.599998474121</ele>
        <time>2022-04-03T08:25:22.000Z</time>
      </trkpt>
      <trkpt lat="47.31774" lon="-2.32356">
        <ele>43.599998474121</ele>
        <time>2022-04-03T08:25:27.000Z</time>
      </trkpt>
      <trkpt lat="47.31781" lon="-2.32395">
        <ele>43.200000762939</ele>
        <time>2022-04-03T08:25:34.000Z</time>
      </trkpt>
      <trkpt lat="47.31781" lon="-2.324">
        <ele>42.799999237061</ele>
        <time>2022-04-03T08:25:35.000Z</time>
      </trkpt>
      <trkpt lat="47.31782" lon="-2.32404">
        <ele>42.400001525879</ele>
        <time>2022-04-03T08:25:36.000Z</time>
      </trkpt>
      <trkpt lat="47.31783" lon="-2.32409">
        <ele>42</ele>
        <time>2022-04-03T08:25:37.000Z</time>
      </trkpt>
      <trkpt lat="47.31784" lon="-2.32412">
        <ele>41.599998474121</ele>
        <time>2022-04-03T08:25:38.000Z</time>
      </trkpt>
      <trkpt lat="47.31786" lon="-2.32416">
        <ele>41.599998474121</ele>
        <time>2022-04-03T08:25:39.000Z</time>
      </trkpt>
      <trkpt lat="47.31788" lon="-2.32436">
        <ele>41.599998474121</ele>
        <time>2022-04-03T08:25:43.000Z</time>
      </trkpt>
      <trkpt lat="47.3179" lon="-2.32455">
        <ele>41.599998474121</ele>
        <time>2022-04-03T08:25:46.000Z</time>
      </trkpt>
      <trkpt lat="47.31792" lon="-2.32467">
        <ele>41</ele>
        <time>2022-04-03T08:25:48.000Z</time>
      </trkpt>
      <trkpt lat="47.31793" lon="-2.32474">
        <ele>40.599998474121</ele>
        <time>2022-04-03T08:25:49.000Z</time>
      </trkpt>
      <trkpt lat="47.31794" lon="-2.32481">
        <ele>40.200000762939</ele>
        <time>2022-04-03T08:25:50.000Z</time>
      </trkpt>
      <trkpt lat="47.31795" lon="-2.32489">
        <ele>39.799999237061</ele>
        <time>2022-04-03T08:25:51.000Z</time>
      </trkpt>
      <trkpt lat="47.31797" lon="-2.32497">
        <ele>39.400001525879</ele>
        <time>2022-04-03T08:25:52.000Z</time>
      </trkpt>
      <trkpt lat="47.31799" lon="-2.32507">
        <ele>39</ele>
        <time>2022-04-03T08:25:53.000Z</time>
      </trkpt>
      <trkpt lat="47.31801" lon="-2.32517">
        <ele>38.599998474121</ele>
        <time>2022-04-03T08:25:54.000Z</time>
      </trkpt>
      <trkpt lat="47.31803" lon="-2.32527">
        <ele>38.200000762939</ele>
        <time>2022-04-03T08:25:55.000Z</time>
      </trkpt>
      <trkpt lat="47.31806" lon="-2.32538">
        <ele>37.799999237061</ele>
        <time>2022-04-03T08:25:56.000Z</time>
      </trkpt>
      <trkpt lat="47.31809" lon="-2.32548">
        <ele>37.400001525879</ele>
        <time>2022-04-03T08:25:57.000Z</time>
      </trkpt>
      <trkpt lat="47.31815" lon="-2.32572">
        <ele>37.400001525879</ele>
        <time>2022-04-03T08:25:59.000Z</time>
      </trkpt>
      <trkpt lat="47.3182" lon="-2.32595">
        <ele>37</ele>
        <time>2022-04-03T08:26:01.000Z</time>
      </trkpt>
      <trkpt lat="47.31823" lon="-2.32606">
        <ele>36.599998474121</ele>
        <time>2022-04-03T08:26:02.000Z</time>
      </trkpt>
      <trkpt lat="47.31825" lon="-2.32618">
        <ele>36.200000762939</ele>
        <time>2022-04-03T08:26:03.000Z</time>
      </trkpt>
      <trkpt lat="47.31828" lon="-2.32628">
        <ele>35.599998474121</ele>
        <time>2022-04-03T08:26:04.000Z</time>
      </trkpt>
      <trkpt lat="47.3183" lon="-2.32639">
        <ele>35.200000762939</ele>
        <time>2022-04-03T08:26:05.000Z</time>
      </trkpt>
      <trkpt lat="47.31835" lon="-2.32658">
        <ele>35.200000762939</ele>
        <time>2022-04-03T08:26:07.000Z</time>
      </trkpt>
      <trkpt lat="47.31846" lon="-2.32686">
        <ele>35.200000762939</ele>
        <time>2022-04-03T08:26:10.000Z</time>
      </trkpt>
      <trkpt lat="47.3185" lon="-2.32695">
        <ele>34.799999237061</ele>
        <time>2022-04-03T08:26:11.000Z</time>
      </trkpt>
      <trkpt lat="47.31853" lon="-2.32704">
        <ele>34.400001525879</ele>
        <time>2022-04-03T08:26:12.000Z</time>
      </trkpt>
      <trkpt lat="47.31857" lon="-2.32713">
        <ele>34</ele>
        <time>2022-04-03T08:26:13.000Z</time>
      </trkpt>
      <trkpt lat="47.3186" lon="-2.32723">
        <ele>33.599998474121</ele>
        <time>2022-04-03T08:26:14.000Z</time>
      </trkpt>
      <trkpt lat="47.31865" lon="-2.32733">
        <ele>33.200000762939</ele>
        <time>2022-04-03T08:26:15.000Z</time>
      </trkpt>
      <trkpt lat="47.31868" lon="-2.32741">
        <ele>33.200000762939</ele>
        <time>2022-04-03T08:26:16.000Z</time>
      </trkpt>
      <trkpt lat="47.31872" lon="-2.32751">
        <ele>33.200000762939</ele>
        <time>2022-04-03T08:26:17.000Z</time>
      </trkpt>
      <trkpt lat="47.31879" lon="-2.32783">
        <ele>33.200000762939</ele>
        <time>2022-04-03T08:26:20.000Z</time>
      </trkpt>
      <trkpt lat="47.31881" lon="-2.32807">
        <ele>32.799999237061</ele>
        <time>2022-04-03T08:26:22.000Z</time>
      </trkpt>
      <trkpt lat="47.31882" lon="-2.3282">
        <ele>32.200000762939</ele>
        <time>2022-04-03T08:26:23.000Z</time>
      </trkpt>
      <trkpt lat="47.31883" lon="-2.32831">
        <ele>31.799999237061</ele>
        <time>2022-04-03T08:26:24.000Z</time>
      </trkpt>
      <trkpt lat="47.31883" lon="-2.32842">
        <ele>31.39999961853</ele>
        <time>2022-04-03T08:26:25.000Z</time>
      </trkpt>
      <trkpt lat="47.31883" lon="-2.32851">
        <ele>31</ele>
        <time>2022-04-03T08:26:26.000Z</time>
      </trkpt>
      <trkpt lat="47.31885" lon="-2.32911">
        <ele>31</ele>
        <time>2022-04-03T08:26:32.000Z</time>
      </trkpt>
      <trkpt lat="47.31885" lon="-2.32942">
        <ele>31</ele>
        <time>2022-04-03T08:26:35.000Z</time>
      </trkpt>
      <trkpt lat="47.31883" lon="-2.32976">
        <ele>31</ele>
        <time>2022-04-03T08:26:38.000Z</time>
      </trkpt>
      <trkpt lat="47.3188" lon="-2.33008">
        <ele>31</ele>
        <time>2022-04-03T08:26:41.000Z</time>
      </trkpt>
      <trkpt lat="47.3188" lon="-2.33026">
        <ele>31</ele>
        <time>2022-04-03T08:26:43.000Z</time>
      </trkpt>
      <trkpt lat="47.3188" lon="-2.33044">
        <ele>30.60000038147</ele>
        <time>2022-04-03T08:26:45.000Z</time>
      </trkpt>
      <trkpt lat="47.3188" lon="-2.33053">
        <ele>30</ele>
        <time>2022-04-03T08:26:46.000Z</time>
      </trkpt>
      <trkpt lat="47.31879" lon="-2.33061">
        <ele>29.60000038147</ele>
        <time>2022-04-03T08:26:47.000Z</time>
      </trkpt>
      <trkpt lat="47.31879" lon="-2.3307">
        <ele>29.200000762939</ele>
        <time>2022-04-03T08:26:48.000Z</time>
      </trkpt>
      <trkpt lat="47.3188" lon="-2.33078">
        <ele>28.799999237061</ele>
        <time>2022-04-03T08:26:49.000Z</time>
      </trkpt>
      <trkpt lat="47.31879" lon="-2.33108">
        <ele>28.799999237061</ele>
        <time>2022-04-03T08:26:53.000Z</time>
      </trkpt>
      <trkpt lat="47.31875" lon="-2.33143">
        <ele>29.200000762939</ele>
        <time>2022-04-03T08:26:59.000Z</time>
      </trkpt>
      <trkpt lat="47.31875" lon="-2.33149">
        <ele>29.60000038147</ele>
        <time>2022-04-03T08:27:00.000Z</time>
      </trkpt>
      <trkpt lat="47.31874" lon="-2.33155">
        <ele>30</ele>
        <time>2022-04-03T08:27:01.000Z</time>
      </trkpt>
      <trkpt lat="47.31873" lon="-2.33161">
        <ele>30.39999961853</ele>
        <time>2022-04-03T08:27:02.000Z</time>
      </trkpt>
      <trkpt lat="47.31872" lon="-2.33167">
        <ele>30.799999237061</ele>
        <time>2022-04-03T08:27:03.000Z</time>
      </trkpt>
      <trkpt lat="47.31869" lon="-2.33185">
        <ele>30.799999237061</ele>
        <time>2022-04-03T08:27:06.000Z</time>
      </trkpt>
      <trkpt lat="47.31868" lon="-2.33191">
        <ele>31.200000762939</ele>
        <time>2022-04-03T08:27:07.000Z</time>
      </trkpt>
      <trkpt lat="47.31867" lon="-2.33197">
        <ele>31.60000038147</ele>
        <time>2022-04-03T08:27:08.000Z</time>
      </trkpt>
      <trkpt lat="47.31866" lon="-2.33203">
        <ele>32</ele>
        <time>2022-04-03T08:27:09.000Z</time>
      </trkpt>
      <trkpt lat="47.31866" lon="-2.3321">
        <ele>32.400001525879</ele>
        <time>2022-04-03T08:27:10.000Z</time>
      </trkpt>
      <trkpt lat="47.31865" lon="-2.33216">
        <ele>33</ele>
        <time>2022-04-03T08:27:11.000Z</time>
      </trkpt>
      <trkpt lat="47.31864" lon="-2.33229">
        <ele>33</ele>
        <time>2022-04-03T08:27:13.000Z</time>
      </trkpt>
      <trkpt lat="47.31863" lon="-2.33235">
        <ele>33</ele>
        <time>2022-04-03T08:27:14.000Z</time>
      </trkpt>
      <trkpt lat="47.31859" lon="-2.33246">
        <ele>33</ele>
        <time>2022-04-03T08:27:16.000Z</time>
      </trkpt>
      <trkpt lat="47.31848" lon="-2.33265">
        <ele>33.400001525879</ele>
        <time>2022-04-03T08:27:20.000Z</time>
      </trkpt>
      <trkpt lat="47.31845" lon="-2.3327">
        <ele>33.799999237061</ele>
        <time>2022-04-03T08:27:21.000Z</time>
      </trkpt>
      <trkpt lat="47.31842" lon="-2.33275">
        <ele>34.200000762939</ele>
        <time>2022-04-03T08:27:22.000Z</time>
      </trkpt>
      <trkpt lat="47.3184" lon="-2.3328">
        <ele>34.599998474121</ele>
        <time>2022-04-03T08:27:23.000Z</time>
      </trkpt>
      <trkpt lat="47.31836" lon="-2.33284">
        <ele>35</ele>
        <time>2022-04-03T08:27:24.000Z</time>
      </trkpt>
      <trkpt lat="47.31829" lon="-2.3329">
        <ele>35</ele>
        <time>2022-04-03T08:27:26.000Z</time>
      </trkpt>
      <trkpt lat="47.31808" lon="-2.33307">
        <ele>35.400001525879</ele>
        <time>2022-04-03T08:27:32.000Z</time>
      </trkpt>
      <trkpt lat="47.31805" lon="-2.3331">
        <ele>35.799999237061</ele>
        <time>2022-04-03T08:27:33.000Z</time>
      </trkpt>
      <trkpt lat="47.31802" lon="-2.33313">
        <ele>36.200000762939</ele>
        <time>2022-04-03T08:27:34.000Z</time>
      </trkpt>
      <trkpt lat="47.31799" lon="-2.33316">
        <ele>36.799999237061</ele>
        <time>2022-04-03T08:27:35.000Z</time>
      </trkpt>
      <trkpt lat="47.31796" lon="-2.33318">
        <ele>37.200000762939</ele>
        <time>2022-04-03T08:27:36.000Z</time>
      </trkpt>
      <trkpt lat="47.31789" lon="-2.33326">
        <ele>37.599998474121</ele>
        <time>2022-04-03T08:27:39.000Z</time>
      </trkpt>
      <trkpt lat="47.31787" lon="-2.33329">
        <ele>38</ele>
        <time>2022-04-03T08:27:40.000Z</time>
      </trkpt>
      <trkpt lat="47.31784" lon="-2.3333">
        <ele>38.599998474121</ele>
        <time>2022-04-03T08:27:41.000Z</time>
      </trkpt>
      <trkpt lat="47.3178" lon="-2.3333">
        <ele>39</ele>
        <time>2022-04-03T08:27:42.000Z</time>
      </trkpt>
      <trkpt lat="47.31778" lon="-2.33328">
        <ele>39.400001525879</ele>
        <time>2022-04-03T08:27:43.000Z</time>
      </trkpt>
      <trkpt lat="47.31769" lon="-2.3332">
        <ele>39.400001525879</ele>
        <time>2022-04-03T08:27:46.000Z</time>
      </trkpt>
      <trkpt lat="47.31764" lon="-2.33312">
        <ele>39.799999237061</ele>
        <time>2022-04-03T08:27:48.000Z</time>
      </trkpt>
      <trkpt lat="47.31762" lon="-2.33307">
        <ele>40.400001525879</ele>
        <time>2022-04-03T08:27:49.000Z</time>
      </trkpt>
      <trkpt lat="47.31759" lon="-2.33303">
        <ele>40.799999237061</ele>
        <time>2022-04-03T08:27:50.000Z</time>
      </trkpt>
      <trkpt lat="47.31757" lon="-2.33299">
        <ele>41.200000762939</ele>
        <time>2022-04-03T08:27:51.000Z</time>
      </trkpt>
      <trkpt lat="47.31755" lon="-2.33294">
        <ele>41.599998474121</ele>
        <time>2022-04-03T08:27:52.000Z</time>
      </trkpt>
      <trkpt lat="47.31751" lon="-2.33283">
        <ele>41.599998474121</ele>
        <time>2022-04-03T08:27:54.000Z</time>
      </trkpt>
      <trkpt lat="47.31743" lon="-2.33252">
        <ele>41.599998474121</ele>
        <time>2022-04-03T08:28:00.000Z</time>
      </trkpt>
      <trkpt lat="47.31731" lon="-2.33253">
        <ele>41.599998474121</ele>
        <time>2022-04-03T08:28:03.000Z</time>
      </trkpt>
      <trkpt lat="47.31727" lon="-2.33254">
        <ele>41.599998474121</ele>
        <time>2022-04-03T08:28:04.000Z</time>
      </trkpt>
      <trkpt lat="47.31709" lon="-2.3326">
        <ele>41.599998474121</ele>
        <time>2022-04-03T08:28:09.000Z</time>
      </trkpt>
      <trkpt lat="47.31705" lon="-2.33262">
        <ele>42</ele>
        <time>2022-04-03T08:28:10.000Z</time>
      </trkpt>
      <trkpt lat="47.31702" lon="-2.33263">
        <ele>42.599998474121</ele>
        <time>2022-04-03T08:28:11.000Z</time>
      </trkpt>
      <trkpt lat="47.317" lon="-2.33264">
        <ele>43</ele>
        <time>2022-04-03T08:28:12.000Z</time>
      </trkpt>
      <trkpt lat="47.31697" lon="-2.33265">
        <ele>43.400001525879</ele>
        <time>2022-04-03T08:28:13.000Z</time>
      </trkpt>
      <trkpt lat="47.31693" lon="-2.33267">
        <ele>44</ele>
        <time>2022-04-03T08:28:14.000Z</time>
      </trkpt>
      <trkpt lat="47.31685" lon="-2.3327">
        <ele>44</ele>
        <time>2022-04-03T08:28:16.000Z</time>
      </trkpt>
      <trkpt lat="47.31671" lon="-2.33275">
        <ele>44.400001525879</ele>
        <time>2022-04-03T08:28:19.000Z</time>
      </trkpt>
      <trkpt lat="47.31667" lon="-2.33278">
        <ele>44.799999237061</ele>
        <time>2022-04-03T08:28:20.000Z</time>
      </trkpt>
      <trkpt lat="47.31663" lon="-2.3328">
        <ele>45.200000762939</ele>
        <time>2022-04-03T08:28:21.000Z</time>
      </trkpt>
      <trkpt lat="47.31659" lon="-2.33282">
        <ele>45.599998474121</ele>
        <time>2022-04-03T08:28:22.000Z</time>
      </trkpt>
      <trkpt lat="47.31655" lon="-2.33283">
        <ele>46</ele>
        <time>2022-04-03T08:28:23.000Z</time>
      </trkpt>
      <trkpt lat="47.31633" lon="-2.33295">
        <ele>46</ele>
        <time>2022-04-03T08:28:29.000Z</time>
      </trkpt>
      <trkpt lat="47.316" lon="-2.33313">
        <ele>46</ele>
        <time>2022-04-03T08:28:37.000Z</time>
      </trkpt>
      <trkpt lat="47.31588" lon="-2.33321">
        <ele>46</ele>
        <time>2022-04-03T08:28:40.000Z</time>
      </trkpt>
      <trkpt lat="47.31572" lon="-2.3333">
        <ele>46</ele>
        <time>2022-04-03T08:28:44.000Z</time>
      </trkpt>
      <trkpt lat="47.3154" lon="-2.33345">
        <ele>46</ele>
        <time>2022-04-03T08:28:51.000Z</time>
      </trkpt>
      <trkpt lat="47.31509" lon="-2.33362">
        <ele>46</ele>
        <time>2022-04-03T08:28:58.000Z</time>
      </trkpt>
      <trkpt lat="47.31485" lon="-2.33373">
        <ele>46</ele>
        <time>2022-04-03T08:29:04.000Z</time>
      </trkpt>
      <trkpt lat="47.31483" lon="-2.33374">
        <ele>46</ele>
        <time>2022-04-03T08:29:06.000Z</time>
      </trkpt>
      <trkpt lat="47.31482" lon="-2.33372">
        <ele>46</ele>
        <time>2022-04-03T08:29:08.000Z</time>
      </trkpt>
      <trkpt lat="47.31482" lon="-2.33372">
        <ele>46</ele>
        <time>2022-04-03T08:29:10.000Z</time>
      </trkpt>
      <trkpt lat="47.31481" lon="-2.3337">
        <ele>46</ele>
        <time>2022-04-03T08:30:48.000Z</time>
      </trkpt>
      <trkpt lat="47.31479" lon="-2.33367">
        <ele>46</ele>
        <time>2022-04-03T08:30:50.000Z</time>
      </trkpt>
      <trkpt lat="47.31469" lon="-2.33349">
        <ele>46</ele>
        <time>2022-04-03T08:30:56.000Z</time>
      </trkpt>
      <trkpt lat="47.31461" lon="-2.33331">
        <ele>46</ele>
        <time>2022-04-03T08:31:02.000Z</time>
      </trkpt>
      <trkpt lat="47.31451" lon="-2.33313">
        <ele>46</ele>
        <time>2022-04-03T08:31:08.000Z</time>
      </trkpt>
      <trkpt lat="47.31442" lon="-2.33298">
        <ele>46</ele>
        <time>2022-04-03T08:31:13.000Z</time>
      </trkpt>
      <trkpt lat="47.31427" lon="-2.33283">
        <ele>46</ele>
        <time>2022-04-03T08:31:19.000Z</time>
      </trkpt>
      <trkpt lat="47.31405" lon="-2.33263">
        <ele>46</ele>
        <time>2022-04-03T08:31:27.000Z</time>
      </trkpt>
      <trkpt lat="47.31387" lon="-2.33249">
        <ele>46</ele>
        <time>2022-04-03T08:31:34.000Z</time>
      </trkpt>
      <trkpt lat="47.31369" lon="-2.33236">
        <ele>46</ele>
        <time>2022-04-03T08:31:41.000Z</time>
      </trkpt>
      <trkpt lat="47.31351" lon="-2.33224">
        <ele>46</ele>
        <time>2022-04-03T08:31:49.000Z</time>
      </trkpt>
      <trkpt lat="47.31337" lon="-2.33212">
        <ele>46</ele>
        <time>2022-04-03T08:31:55.000Z</time>
      </trkpt>
      <trkpt lat="47.3132" lon="-2.33197">
        <ele>46</ele>
        <time>2022-04-03T08:32:01.000Z</time>
      </trkpt>
      <trkpt lat="47.31299" lon="-2.33177">
        <ele>46</ele>
        <time>2022-04-03T08:32:08.000Z</time>
      </trkpt>
      <trkpt lat="47.31289" lon="-2.3317">
        <ele>45.599998474121</ele>
        <time>2022-04-03T08:32:11.000Z</time>
      </trkpt>
      <trkpt lat="47.31286" lon="-2.33168">
        <ele>45.200000762939</ele>
        <time>2022-04-03T08:32:12.000Z</time>
      </trkpt>
      <trkpt lat="47.31282" lon="-2.33166">
        <ele>44.799999237061</ele>
        <time>2022-04-03T08:32:13.000Z</time>
      </trkpt>
      <trkpt lat="47.31278" lon="-2.33164">
        <ele>44.400001525879</ele>
        <time>2022-04-03T08:32:14.000Z</time>
      </trkpt>
      <trkpt lat="47.31274" lon="-2.33163">
        <ele>44</ele>
        <time>2022-04-03T08:32:15.000Z</time>
      </trkpt>
      <trkpt lat="47.31256" lon="-2.33155">
        <ele>44</ele>
        <time>2022-04-03T08:32:21.000Z</time>
      </trkpt>
      <trkpt lat="47.31239" lon="-2.33149">
        <ele>44</ele>
        <time>2022-04-03T08:32:26.000Z</time>
      </trkpt>
      <trkpt lat="47.31231" lon="-2.33144">
        <ele>44</ele>
        <time>2022-04-03T08:32:29.000Z</time>
      </trkpt>
      <trkpt lat="47.3123" lon="-2.3314">
        <ele>44</ele>
        <time>2022-04-03T08:32:30.000Z</time>
      </trkpt>
      <trkpt lat="47.31233" lon="-2.33125">
        <ele>44</ele>
        <time>2022-04-03T08:32:34.000Z</time>
      </trkpt>
      <trkpt lat="47.3124" lon="-2.33105">
        <ele>44</ele>
        <time>2022-04-03T08:32:40.000Z</time>
      </trkpt>
      <trkpt lat="47.31248" lon="-2.33085">
        <ele>44</ele>
        <time>2022-04-03T08:32:46.000Z</time>
      </trkpt>
      <trkpt lat="47.31261" lon="-2.33061">
        <ele>44</ele>
        <time>2022-04-03T08:32:52.000Z</time>
      </trkpt>
      <trkpt lat="47.31271" lon="-2.33041">
        <ele>44</ele>
        <time>2022-04-03T08:32:58.000Z</time>
      </trkpt>
      <trkpt lat="47.31285" lon="-2.3302">
        <ele>44</ele>
        <time>2022-04-03T08:33:04.000Z</time>
      </trkpt>
      <trkpt lat="47.31304" lon="-2.32991">
        <ele>44</ele>
        <time>2022-04-03T08:33:11.000Z</time>
      </trkpt>
      <trkpt lat="47.31319" lon="-2.32964">
        <ele>44</ele>
        <time>2022-04-03T08:33:17.000Z</time>
      </trkpt>
      <trkpt lat="47.31335" lon="-2.32934">
        <ele>44</ele>
        <time>2022-04-03T08:33:24.000Z</time>
      </trkpt>
      <trkpt lat="47.31345" lon="-2.32913">
        <ele>44</ele>
        <time>2022-04-03T08:33:29.000Z</time>
      </trkpt>
      <trkpt lat="47.3135" lon="-2.329">
        <ele>44</ele>
        <time>2022-04-03T08:33:32.000Z</time>
      </trkpt>
      <trkpt lat="47.3135" lon="-2.32894">
        <ele>44</ele>
        <time>2022-04-03T08:33:34.000Z</time>
      </trkpt>
      <trkpt lat="47.31354" lon="-2.32893">
        <ele>44</ele>
        <time>2022-04-03T08:33:39.000Z</time>
      </trkpt>
      <trkpt lat="47.31357" lon="-2.329">
        <ele>43.599998474121</ele>
        <time>2022-04-03T08:33:44.000Z</time>
      </trkpt>
      <trkpt lat="47.31356" lon="-2.32901">
        <ele>43.200000762939</ele>
        <time>2022-04-03T08:33:45.000Z</time>
      </trkpt>
      <trkpt lat="47.31355" lon="-2.329">
        <ele>42.799999237061</ele>
        <time>2022-04-03T08:33:46.000Z</time>
      </trkpt>
      <trkpt lat="47.31354" lon="-2.32899">
        <ele>42.400001525879</ele>
        <time>2022-04-03T08:33:47.000Z</time>
      </trkpt>
      <trkpt lat="47.31354" lon="-2.32897">
        <ele>42</ele>
        <time>2022-04-03T08:33:48.000Z</time>
      </trkpt>
      <trkpt lat="47.31354" lon="-2.32895">
        <ele>42</ele>
        <time>2022-04-03T08:33:49.000Z</time>
      </trkpt>
      <trkpt lat="47.31354" lon="-2.32893">
        <ele>42</ele>
        <time>2022-04-03T08:33:50.000Z</time>
      </trkpt>
      <trkpt lat="47.31353" lon="-2.3289">
        <ele>42</ele>
        <time>2022-04-03T08:33:52.000Z</time>
      </trkpt>
      <trkpt lat="47.31349" lon="-2.32886">
        <ele>42</ele>
        <time>2022-04-03T08:33:55.000Z</time>
      </trkpt>
      <trkpt lat="47.31337" lon="-2.32871">
        <ele>42</ele>
        <time>2022-04-03T08:34:03.000Z</time>
      </trkpt>
      <trkpt lat="47.31321" lon="-2.32851">
        <ele>42</ele>
        <time>2022-04-03T08:34:08.000Z</time>
      </trkpt>
      <trkpt lat="47.31299" lon="-2.32817">
        <ele>42</ele>
        <time>2022-04-03T08:34:14.000Z</time>
      </trkpt>
      <trkpt lat="47.31296" lon="-2.32811">
        <ele>42</ele>
        <time>2022-04-03T08:34:15.000Z</time>
      </trkpt>
      <trkpt lat="47.31281" lon="-2.32784">
        <ele>42</ele>
        <time>2022-04-03T08:34:20.000Z</time>
      </trkpt>
      <trkpt lat="47.31263" lon="-2.32771">
        <ele>42</ele>
        <time>2022-04-03T08:34:24.000Z</time>
      </trkpt>
      <trkpt lat="47.3124" lon="-2.32756">
        <ele>42</ele>
        <time>2022-04-03T08:34:29.000Z</time>
      </trkpt>
      <trkpt lat="47.31236" lon="-2.32753">
        <ele>42</ele>
        <time>2022-04-03T08:34:30.000Z</time>
      </trkpt>
      <trkpt lat="47.31227" lon="-2.32748">
        <ele>42.400001525879</ele>
        <time>2022-04-03T08:34:32.000Z</time>
      </trkpt>
      <trkpt lat="47.31222" lon="-2.32745">
        <ele>42.799999237061</ele>
        <time>2022-04-03T08:34:33.000Z</time>
      </trkpt>
      <trkpt lat="47.31218" lon="-2.32741">
        <ele>43.200000762939</ele>
        <time>2022-04-03T08:34:34.000Z</time>
      </trkpt>
      <trkpt lat="47.31215" lon="-2.32737">
        <ele>43.599998474121</ele>
        <time>2022-04-03T08:34:35.000Z</time>
      </trkpt>
      <trkpt lat="47.31211" lon="-2.32733">
        <ele>44</ele>
        <time>2022-04-03T08:34:36.000Z</time>
      </trkpt>
      <trkpt lat="47.31208" lon="-2.32728">
        <ele>44</ele>
        <time>2022-04-03T08:34:37.000Z</time>
      </trkpt>
      <trkpt lat="47.31205" lon="-2.32714">
        <ele>44</ele>
        <time>2022-04-03T08:34:39.000Z</time>
      </trkpt>
      <trkpt lat="47.3119" lon="-2.32661">
        <ele>44</ele>
        <time>2022-04-03T08:34:46.000Z</time>
      </trkpt>
      <trkpt lat="47.31181" lon="-2.32627">
        <ele>44</ele>
        <time>2022-04-03T08:34:50.000Z</time>
      </trkpt>
      <trkpt lat="47.3118" lon="-2.32617">
        <ele>44</ele>
        <time>2022-04-03T08:34:51.000Z</time>
      </trkpt>
      <trkpt lat="47.31179" lon="-2.32547">
        <ele>44</ele>
        <time>2022-04-03T08:34:58.000Z</time>
      </trkpt>
      <trkpt lat="47.31181" lon="-2.32462">
        <ele>44</ele>
        <time>2022-04-03T08:35:08.000Z</time>
      </trkpt>
      <trkpt lat="47.3118" lon="-2.32442">
        <ele>44</ele>
        <time>2022-04-03T08:35:11.000Z</time>
      </trkpt>
      <trkpt lat="47.31176" lon="-2.32436">
        <ele>44</ele>
        <time>2022-04-03T08:35:12.000Z</time>
      </trkpt>
      <trkpt lat="47.31172" lon="-2.32432">
        <ele>43.599998474121</ele>
        <time>2022-04-03T08:35:13.000Z</time>
      </trkpt>
      <trkpt lat="47.31167" lon="-2.3243">
        <ele>43.200000762939</ele>
        <time>2022-04-03T08:35:14.000Z</time>
      </trkpt>
      <trkpt lat="47.31162" lon="-2.32429">
        <ele>42.799999237061</ele>
        <time>2022-04-03T08:35:15.000Z</time>
      </trkpt>
      <trkpt lat="47.31157" lon="-2.32427">
        <ele>42.400001525879</ele>
        <time>2022-04-03T08:35:16.000Z</time>
      </trkpt>
      <trkpt lat="47.31152" lon="-2.32424">
        <ele>42</ele>
        <time>2022-04-03T08:35:17.000Z</time>
      </trkpt>
      <trkpt lat="47.31146" lon="-2.32412">
        <ele>42</ele>
        <time>2022-04-03T08:35:19.000Z</time>
      </trkpt>
      <trkpt lat="47.31146" lon="-2.32396">
        <ele>42</ele>
        <time>2022-04-03T08:35:21.000Z</time>
      </trkpt>
      <trkpt lat="47.31146" lon="-2.32387">
        <ele>42</ele>
        <time>2022-04-03T08:35:22.000Z</time>
      </trkpt>
      <trkpt lat="47.31141" lon="-2.32333">
        <ele>42</ele>
        <time>2022-04-03T08:35:28.000Z</time>
      </trkpt>
      <trkpt lat="47.31128" lon="-2.32289">
        <ele>41.400001525879</ele>
        <time>2022-04-03T08:35:33.000Z</time>
      </trkpt>
      <trkpt lat="47.31124" lon="-2.32281">
        <ele>41</ele>
        <time>2022-04-03T08:35:34.000Z</time>
      </trkpt>
      <trkpt lat="47.31119" lon="-2.32272">
        <ele>40.599998474121</ele>
        <time>2022-04-03T08:35:35.000Z</time>
      </trkpt>
      <trkpt lat="47.31115" lon="-2.32264">
        <ele>39.799999237061</ele>
        <time>2022-04-03T08:35:36.000Z</time>
      </trkpt>
      <trkpt lat="47.311" lon="-2.32229">
        <ele>39.799999237061</ele>
        <time>2022-04-03T08:35:40.000Z</time>
      </trkpt>
      <trkpt lat="47.31097" lon="-2.32221">
        <ele>39.200000762939</ele>
        <time>2022-04-03T08:35:41.000Z</time>
      </trkpt>
      <trkpt lat="47.31094" lon="-2.32212">
        <ele>38.799999237061</ele>
        <time>2022-04-03T08:35:42.000Z</time>
      </trkpt>
      <trkpt lat="47.31091" lon="-2.32204">
        <ele>38.400001525879</ele>
        <time>2022-04-03T08:35:43.000Z</time>
      </trkpt>
      <trkpt lat="47.31088" lon="-2.32197">
        <ele>38</ele>
        <time>2022-04-03T08:35:44.000Z</time>
      </trkpt>
      <trkpt lat="47.31085" lon="-2.32191">
        <ele>37.400001525879</ele>
        <time>2022-04-03T08:35:45.000Z</time>
      </trkpt>
      <trkpt lat="47.31082" lon="-2.32185">
        <ele>37</ele>
        <time>2022-04-03T08:35:46.000Z</time>
      </trkpt>
      <trkpt lat="47.31079" lon="-2.32179">
        <ele>36.599998474121</ele>
        <time>2022-04-03T08:35:47.000Z</time>
      </trkpt>
      <trkpt lat="47.31075" lon="-2.32173">
        <ele>36.200000762939</ele>
        <time>2022-04-03T08:35:48.000Z</time>
      </trkpt>
      <trkpt lat="47.31072" lon="-2.32167">
        <ele>35.799999237061</ele>
        <time>2022-04-03T08:35:49.000Z</time>
      </trkpt>
      <trkpt lat="47.31068" lon="-2.3216">
        <ele>35.200000762939</ele>
        <time>2022-04-03T08:35:50.000Z</time>
      </trkpt>
      <trkpt lat="47.31064" lon="-2.32154">
        <ele>35.200000762939</ele>
        <time>2022-04-03T08:35:51.000Z</time>
      </trkpt>
      <trkpt lat="47.31043" lon="-2.32123">
        <ele>35.200000762939</ele>
        <time>2022-04-03T08:35:56.000Z</time>
      </trkpt>
      <trkpt lat="47.3103" lon="-2.32104">
        <ele>34.799999237061</ele>
        <time>2022-04-03T08:35:59.000Z</time>
      </trkpt>
      <trkpt lat="47.31026" lon="-2.32098">
        <ele>34</ele>
        <time>2022-04-03T08:36:00.000Z</time>
      </trkpt>
      <trkpt lat="47.31022" lon="-2.32091">
        <ele>33.599998474121</ele>
        <time>2022-04-03T08:36:01.000Z</time>
      </trkpt>
      <trkpt lat="47.31018" lon="-2.32085">
        <ele>33</ele>
        <time>2022-04-03T08:36:02.000Z</time>
      </trkpt>
      <trkpt lat="47.31014" lon="-2.32078">
        <ele>33</ele>
        <time>2022-04-03T08:36:03.000Z</time>
      </trkpt>
      <trkpt lat="47.30991" lon="-2.32037">
        <ele>33</ele>
        <time>2022-04-03T08:36:09.000Z</time>
      </trkpt>
      <trkpt lat="47.3097" lon="-2.31988">
        <ele>32.599998474121</ele>
        <time>2022-04-03T08:36:15.000Z</time>
      </trkpt>
      <trkpt lat="47.30967" lon="-2.3198">
        <ele>32.200000762939</ele>
        <time>2022-04-03T08:36:16.000Z</time>
      </trkpt>
      <trkpt lat="47.30965" lon="-2.31971">
        <ele>31.799999237061</ele>
        <time>2022-04-03T08:36:17.000Z</time>
      </trkpt>
      <trkpt lat="47.30963" lon="-2.31962">
        <ele>31.39999961853</ele>
        <time>2022-04-03T08:36:18.000Z</time>
      </trkpt>
      <trkpt lat="47.30963" lon="-2.31953">
        <ele>31</ele>
        <time>2022-04-03T08:36:19.000Z</time>
      </trkpt>
      <trkpt lat="47.30967" lon="-2.31932">
        <ele>31</ele>
        <time>2022-04-03T08:36:22.000Z</time>
      </trkpt>
      <trkpt lat="47.3097" lon="-2.31926">
        <ele>31</ele>
        <time>2022-04-03T08:36:23.000Z</time>
      </trkpt>
      <trkpt lat="47.30976" lon="-2.31902">
        <ele>31</ele>
        <time>2022-04-03T08:36:26.000Z</time>
      </trkpt>
      <trkpt lat="47.30979" lon="-2.31885">
        <ele>31</ele>
        <time>2022-04-03T08:36:28.000Z</time>
      </trkpt>
      <trkpt lat="47.30982" lon="-2.3187">
        <ele>31</ele>
        <time>2022-04-03T08:36:30.000Z</time>
      </trkpt>
      <trkpt lat="47.30988" lon="-2.31855">
        <ele>31</ele>
        <time>2022-04-03T08:36:32.000Z</time>
      </trkpt>
      <trkpt lat="47.30995" lon="-2.31834">
        <ele>31</ele>
        <time>2022-04-03T08:36:35.000Z</time>
      </trkpt>
      <trkpt lat="47.30995" lon="-2.31825">
        <ele>31</ele>
        <time>2022-04-03T08:36:37.000Z</time>
      </trkpt>
      <trkpt lat="47.30984" lon="-2.31811">
        <ele>31</ele>
        <time>2022-04-03T08:36:40.000Z</time>
      </trkpt>
      <trkpt lat="47.30954" lon="-2.31778">
        <ele>31</ele>
        <time>2022-04-03T08:36:46.000Z</time>
      </trkpt>
      <trkpt lat="47.30922" lon="-2.31743">
        <ele>31</ele>
        <time>2022-04-03T08:36:53.000Z</time>
      </trkpt>
      <trkpt lat="47.30887" lon="-2.31701">
        <ele>31</ele>
        <time>2022-04-03T08:37:01.000Z</time>
      </trkpt>
      <trkpt lat="47.30859" lon="-2.31664">
        <ele>31</ele>
        <time>2022-04-03T08:37:08.000Z</time>
      </trkpt>
      <trkpt lat="47.30846" lon="-2.3165">
        <ele>31</ele>
        <time>2022-04-03T08:37:11.000Z</time>
      </trkpt>
      <trkpt lat="47.30841" lon="-2.3165">
        <ele>31</ele>
        <time>2022-04-03T08:37:12.000Z</time>
      </trkpt>
      <trkpt lat="47.30828" lon="-2.31663">
        <ele>31</ele>
        <time>2022-04-03T08:37:15.000Z</time>
      </trkpt>
      <trkpt lat="47.30804" lon="-2.31691">
        <ele>31</ele>
        <time>2022-04-03T08:37:20.000Z</time>
      </trkpt>
      <trkpt lat="47.30769" lon="-2.31733">
        <ele>30.60000038147</ele>
        <time>2022-04-03T08:37:27.000Z</time>
      </trkpt>
      <trkpt lat="47.30764" lon="-2.31738">
        <ele>30.200000762939</ele>
        <time>2022-04-03T08:37:28.000Z</time>
      </trkpt>
      <trkpt lat="47.3076" lon="-2.31742">
        <ele>29.799999237061</ele>
        <time>2022-04-03T08:37:29.000Z</time>
      </trkpt>
      <trkpt lat="47.30755" lon="-2.31746">
        <ele>29.39999961853</ele>
        <time>2022-04-03T08:37:30.000Z</time>
      </trkpt>
      <trkpt lat="47.30752" lon="-2.3175">
        <ele>29</ele>
        <time>2022-04-03T08:37:31.000Z</time>
      </trkpt>
      <trkpt lat="47.30749" lon="-2.31754">
        <ele>29</ele>
        <time>2022-04-03T08:37:32.000Z</time>
      </trkpt>
      <trkpt lat="47.30744" lon="-2.31767">
        <ele>28.60000038147</ele>
        <time>2022-04-03T08:37:35.000Z</time>
      </trkpt>
      <trkpt lat="47.30742" lon="-2.31771">
        <ele>28.200000762939</ele>
        <time>2022-04-03T08:37:36.000Z</time>
      </trkpt>
      <trkpt lat="47.3074" lon="-2.31772">
        <ele>27.799999237061</ele>
        <time>2022-04-03T08:37:37.000Z</time>
      </trkpt>
      <trkpt lat="47.30738" lon="-2.31774">
        <ele>27.39999961853</ele>
        <time>2022-04-03T08:37:38.000Z</time>
      </trkpt>
      <trkpt lat="47.30736" lon="-2.31774">
        <ele>27</ele>
        <time>2022-04-03T08:37:39.000Z</time>
      </trkpt>
      <trkpt lat="47.30733" lon="-2.31772">
        <ele>27</ele>
        <time>2022-04-03T08:37:40.000Z</time>
      </trkpt>
      <trkpt lat="47.30723" lon="-2.31754">
        <ele>27</ele>
        <time>2022-04-03T08:37:44.000Z</time>
      </trkpt>
      <trkpt lat="47.30721" lon="-2.31748">
        <ele>27</ele>
        <time>2022-04-03T08:37:45.000Z</time>
      </trkpt>
      <trkpt lat="47.30708" lon="-2.3171">
        <ele>27</ele>
        <time>2022-04-03T08:37:51.000Z</time>
      </trkpt>
      <trkpt lat="47.30688" lon="-2.31663">
        <ele>27</ele>
        <time>2022-04-03T08:37:58.000Z</time>
      </trkpt>
      <trkpt lat="47.30667" lon="-2.31605">
        <ele>27</ele>
        <time>2022-04-03T08:38:05.000Z</time>
      </trkpt>
      <trkpt lat="47.30651" lon="-2.31572">
        <ele>27</ele>
        <time>2022-04-03T08:38:10.000Z</time>
      </trkpt>
      <trkpt lat="47.3063" lon="-2.31523">
        <ele>27</ele>
        <time>2022-04-03T08:38:17.000Z</time>
      </trkpt>
      <trkpt lat="47.30623" lon="-2.31503">
        <ele>27.39999961853</ele>
        <time>2022-04-03T08:38:20.000Z</time>
      </trkpt>
      <trkpt lat="47.3062" lon="-2.31496">
        <ele>27.799999237061</ele>
        <time>2022-04-03T08:38:21.000Z</time>
      </trkpt>
      <trkpt lat="47.30618" lon="-2.31489">
        <ele>28.200000762939</ele>
        <time>2022-04-03T08:38:22.000Z</time>
      </trkpt>
      <trkpt lat="47.30615" lon="-2.31482">
        <ele>28.60000038147</ele>
        <time>2022-04-03T08:38:23.000Z</time>
      </trkpt>
      <trkpt lat="47.30612" lon="-2.31475">
        <ele>29</ele>
        <time>2022-04-03T08:38:24.000Z</time>
      </trkpt>
      <trkpt lat="47.30594" lon="-2.31433">
        <ele>29</ele>
        <time>2022-04-03T08:38:31.000Z</time>
      </trkpt>
      <trkpt lat="47.30581" lon="-2.31402">
        <ele>29</ele>
        <time>2022-04-03T08:38:37.000Z</time>
      </trkpt>
      <trkpt lat="47.30568" lon="-2.31377">
        <ele>29</ele>
        <time>2022-04-03T08:38:42.000Z</time>
      </trkpt>
      <trkpt lat="47.30546" lon="-2.31343">
        <ele>29</ele>
        <time>2022-04-03T08:38:48.000Z</time>
      </trkpt>
      <trkpt lat="47.30521" lon="-2.31304">
        <ele>29</ele>
        <time>2022-04-03T08:38:55.000Z</time>
      </trkpt>
      <trkpt lat="47.30517" lon="-2.31299">
        <ele>29</ele>
        <time>2022-04-03T08:38:56.000Z</time>
      </trkpt>
      <trkpt lat="47.30501" lon="-2.31275">
        <ele>29</ele>
        <time>2022-04-03T08:39:00.000Z</time>
      </trkpt>
      <trkpt lat="47.30491" lon="-2.31257">
        <ele>29.60000038147</ele>
        <time>2022-04-03T08:39:03.000Z</time>
      </trkpt>
      <trkpt lat="47.30488" lon="-2.3125">
        <ele>30</ele>
        <time>2022-04-03T08:39:04.000Z</time>
      </trkpt>
      <trkpt lat="47.30484" lon="-2.31244">
        <ele>30.39999961853</ele>
        <time>2022-04-03T08:39:05.000Z</time>
      </trkpt>
      <trkpt lat="47.30481" lon="-2.31238">
        <ele>30.799999237061</ele>
        <time>2022-04-03T08:39:06.000Z</time>
      </trkpt>
      <trkpt lat="47.30478" lon="-2.31231">
        <ele>31.200000762939</ele>
        <time>2022-04-03T08:39:07.000Z</time>
      </trkpt>
      <trkpt lat="47.30467" lon="-2.31204">
        <ele>31.200000762939</ele>
        <time>2022-04-03T08:39:11.000Z</time>
      </trkpt>
      <trkpt lat="47.30453" lon="-2.31154">
        <ele>31.200000762939</ele>
        <time>2022-04-03T08:39:18.000Z</time>
      </trkpt>
      <trkpt lat="47.30443" lon="-2.31127">
        <ele>31.200000762939</ele>
        <time>2022-04-03T08:39:22.000Z</time>
      </trkpt>
      <trkpt lat="47.30435" lon="-2.31116">
        <ele>31.200000762939</ele>
        <time>2022-04-03T08:39:24.000Z</time>
      </trkpt>
      <trkpt lat="47.30418" lon="-2.31103">
        <ele>31.200000762939</ele>
        <time>2022-04-03T08:39:27.000Z</time>
      </trkpt>
      <trkpt lat="47.30407" lon="-2.31093">
        <ele>31.200000762939</ele>
        <time>2022-04-03T08:39:29.000Z</time>
      </trkpt>
      <trkpt lat="47.30402" lon="-2.31088">
        <ele>31.200000762939</ele>
        <time>2022-04-03T08:39:30.000Z</time>
      </trkpt>
      <trkpt lat="47.30381" lon="-2.31066">
        <ele>31.200000762939</ele>
        <time>2022-04-03T08:39:34.000Z</time>
      </trkpt>
      <trkpt lat="47.30376" lon="-2.3106">
        <ele>31.200000762939</ele>
        <time>2022-04-03T08:39:35.000Z</time>
      </trkpt>
      <trkpt lat="47.30348" lon="-2.31023">
        <ele>30.60000038147</ele>
        <time>2022-04-03T08:39:41.000Z</time>
      </trkpt>
      <trkpt lat="47.30343" lon="-2.31017">
        <ele>29.799999237061</ele>
        <time>2022-04-03T08:39:42.000Z</time>
      </trkpt>
      <trkpt lat="47.30339" lon="-2.3101">
        <ele>29.200000762939</ele>
        <time>2022-04-03T08:39:43.000Z</time>
      </trkpt>
      <trkpt lat="47.30334" lon="-2.31004">
        <ele>28.799999237061</ele>
        <time>2022-04-03T08:39:44.000Z</time>
      </trkpt>
      <trkpt lat="47.30324" lon="-2.30991">
        <ele>28.39999961853</ele>
        <time>2022-04-03T08:39:46.000Z</time>
      </trkpt>
      <trkpt lat="47.30319" lon="-2.30984">
        <ele>27.799999237061</ele>
        <time>2022-04-03T08:39:47.000Z</time>
      </trkpt>
      <trkpt lat="47.30314" lon="-2.30977">
        <ele>27.39999961853</ele>
        <time>2022-04-03T08:39:48.000Z</time>
      </trkpt>
      <trkpt lat="47.30309" lon="-2.30969">
        <ele>27</ele>
        <time>2022-04-03T08:39:49.000Z</time>
      </trkpt>
      <trkpt lat="47.30304" lon="-2.30961">
        <ele>26.60000038147</ele>
        <time>2022-04-03T08:39:50.000Z</time>
      </trkpt>
      <trkpt lat="47.30276" lon="-2.30923">
        <ele>26</ele>
        <time>2022-04-03T08:39:55.000Z</time>
      </trkpt>
      <trkpt lat="47.3027" lon="-2.30916">
        <ele>25.60000038147</ele>
        <time>2022-04-03T08:39:56.000Z</time>
      </trkpt>
      <trkpt lat="47.30265" lon="-2.30909">
        <ele>25.200000762939</ele>
        <time>2022-04-03T08:39:57.000Z</time>
      </trkpt>
      <trkpt lat="47.3026" lon="-2.30901">
        <ele>24.799999237061</ele>
        <time>2022-04-03T08:39:58.000Z</time>
      </trkpt>
      <trkpt lat="47.30254" lon="-2.30894">
        <ele>24.39999961853</ele>
        <time>2022-04-03T08:39:59.000Z</time>
      </trkpt>
      <trkpt lat="47.30238" lon="-2.30874">
        <ele>23.799999237061</ele>
        <time>2022-04-03T08:40:02.000Z</time>
      </trkpt>
      <trkpt lat="47.30233" lon="-2.30868">
        <ele>23.39999961853</ele>
        <time>2022-04-03T08:40:03.000Z</time>
      </trkpt>
      <trkpt lat="47.30227" lon="-2.30862">
        <ele>22.799999237061</ele>
        <time>2022-04-03T08:40:04.000Z</time>
      </trkpt>
      <trkpt lat="47.30221" lon="-2.30857">
        <ele>22.39999961853</ele>
        <time>2022-04-03T08:40:05.000Z</time>
      </trkpt>
      <trkpt lat="47.30216" lon="-2.30852">
        <ele>21.799999237061</ele>
        <time>2022-04-03T08:40:06.000Z</time>
      </trkpt>
      <trkpt lat="47.30196" lon="-2.30831">
        <ele>21.39999961853</ele>
        <time>2022-04-03T08:40:10.000Z</time>
      </trkpt>
      <trkpt lat="47.30192" lon="-2.30827">
        <ele>21</ele>
        <time>2022-04-03T08:40:11.000Z</time>
      </trkpt>
      <trkpt lat="47.30188" lon="-2.30822">
        <ele>20.60000038147</ele>
        <time>2022-04-03T08:40:12.000Z</time>
      </trkpt>
      <trkpt lat="47.30184" lon="-2.30817">
        <ele>20.200000762939</ele>
        <time>2022-04-03T08:40:13.000Z</time>
      </trkpt>
      <trkpt lat="47.3018" lon="-2.30811">
        <ele>19.799999237061</ele>
        <time>2022-04-03T08:40:14.000Z</time>
      </trkpt>
      <trkpt lat="47.30177" lon="-2.30807">
        <ele>19.799999237061</ele>
        <time>2022-04-03T08:40:15.000Z</time>
      </trkpt>
      <trkpt lat="47.30165" lon="-2.30796">
        <ele>19.39999961853</ele>
        <time>2022-04-03T08:40:18.000Z</time>
      </trkpt>
      <trkpt lat="47.30162" lon="-2.30791">
        <ele>19</ele>
        <time>2022-04-03T08:40:19.000Z</time>
      </trkpt>
      <trkpt lat="47.30161" lon="-2.30786">
        <ele>18.60000038147</ele>
        <time>2022-04-03T08:40:20.000Z</time>
      </trkpt>
      <trkpt lat="47.30161" lon="-2.30779">
        <ele>18.200000762939</ele>
        <time>2022-04-03T08:40:21.000Z</time>
      </trkpt>
      <trkpt lat="47.30162" lon="-2.30772">
        <ele>17.799999237061</ele>
        <time>2022-04-03T08:40:22.000Z</time>
      </trkpt>
      <trkpt lat="47.30163" lon="-2.30766">
        <ele>17.799999237061</ele>
        <time>2022-04-03T08:40:23.000Z</time>
      </trkpt>
      <trkpt lat="47.30164" lon="-2.30759">
        <ele>17.799999237061</ele>
        <time>2022-04-03T08:40:24.000Z</time>
      </trkpt>
      <trkpt lat="47.30165" lon="-2.30751">
        <ele>17.799999237061</ele>
        <time>2022-04-03T08:40:25.000Z</time>
      </trkpt>
      <trkpt lat="47.30167" lon="-2.30729">
        <ele>17.799999237061</ele>
        <time>2022-04-03T08:40:28.000Z</time>
      </trkpt>
      <trkpt lat="47.30167" lon="-2.30721">
        <ele>17.799999237061</ele>
        <time>2022-04-03T08:40:29.000Z</time>
      </trkpt>
      <trkpt lat="47.30165" lon="-2.30706">
        <ele>17.799999237061</ele>
        <time>2022-04-03T08:40:31.000Z</time>
      </trkpt>
      <trkpt lat="47.30164" lon="-2.30693">
        <ele>17.799999237061</ele>
        <time>2022-04-03T08:40:33.000Z</time>
      </trkpt>
      <trkpt lat="47.30163" lon="-2.30686">
        <ele>17.799999237061</ele>
        <time>2022-04-03T08:40:34.000Z</time>
      </trkpt>
      <trkpt lat="47.3016" lon="-2.30645">
        <ele>17.799999237061</ele>
        <time>2022-04-03T08:40:41.000Z</time>
      </trkpt>
      <trkpt lat="47.30167" lon="-2.30619">
        <ele>17.799999237061</ele>
        <time>2022-04-03T08:40:46.000Z</time>
      </trkpt>
      <trkpt lat="47.30168" lon="-2.30613">
        <ele>18.200000762939</ele>
        <time>2022-04-03T08:40:47.000Z</time>
      </trkpt>
      <trkpt lat="47.30169" lon="-2.30607">
        <ele>18.60000038147</ele>
        <time>2022-04-03T08:40:48.000Z</time>
      </trkpt>
      <trkpt lat="47.30171" lon="-2.30601">
        <ele>19.200000762939</ele>
        <time>2022-04-03T08:40:49.000Z</time>
      </trkpt>
      <trkpt lat="47.30173" lon="-2.30595">
        <ele>19.60000038147</ele>
        <time>2022-04-03T08:40:50.000Z</time>
      </trkpt>
      <trkpt lat="47.30175" lon="-2.3059">
        <ele>20</ele>
        <time>2022-04-03T08:40:51.000Z</time>
      </trkpt>
      <trkpt lat="47.30179" lon="-2.30586">
        <ele>20</ele>
        <time>2022-04-03T08:40:52.000Z</time>
      </trkpt>
      <trkpt lat="47.30196" lon="-2.30583">
        <ele>20</ele>
        <time>2022-04-03T08:40:55.000Z</time>
      </trkpt>
      <trkpt lat="47.30206" lon="-2.3058">
        <ele>20</ele>
        <time>2022-04-03T08:40:57.000Z</time>
      </trkpt>
      <trkpt lat="47.30215" lon="-2.30578">
        <ele>20</ele>
        <time>2022-04-03T08:40:59.000Z</time>
      </trkpt>
      <trkpt lat="47.30221" lon="-2.30573">
        <ele>20</ele>
        <time>2022-04-03T08:41:01.000Z</time>
      </trkpt>
      <trkpt lat="47.30223" lon="-2.30565">
        <ele>20</ele>
        <time>2022-04-03T08:41:03.000Z</time>
      </trkpt>
      <trkpt lat="47.30219" lon="-2.30561">
        <ele>20</ele>
        <time>2022-04-03T08:41:06.000Z</time>
      </trkpt>
      <trkpt lat="47.30213" lon="-2.30566">
        <ele>20</ele>
        <time>2022-04-03T08:41:10.000Z</time>
      </trkpt>
      <trkpt lat="47.30206" lon="-2.30565">
        <ele>20</ele>
        <time>2022-04-03T08:41:15.000Z</time>
      </trkpt>
      <trkpt lat="47.30201" lon="-2.30557">
        <ele>20</ele>
        <time>2022-04-03T08:41:20.000Z</time>
      </trkpt>
      <trkpt lat="47.30201" lon="-2.30557">
        <ele>20</ele>
        <time>2022-04-03T08:41:21.000Z</time>
      </trkpt>
      <trkpt lat="47.30207" lon="-2.30558">
        <ele>18</ele>
        <time>2022-04-03T08:54:22.000Z</time>
      </trkpt>
      <trkpt lat="47.30209" lon="-2.30558">
        <ele>18</ele>
        <time>2022-04-03T08:54:24.000Z</time>
      </trkpt>
      <trkpt lat="47.30216" lon="-2.30556">
        <ele>18</ele>
        <time>2022-04-03T08:54:29.000Z</time>
      </trkpt>
      <trkpt lat="47.30219" lon="-2.30554">
        <ele>18</ele>
        <time>2022-04-03T08:54:31.000Z</time>
      </trkpt>
      <trkpt lat="47.30222" lon="-2.30548">
        <ele>18</ele>
        <time>2022-04-03T08:54:35.000Z</time>
      </trkpt>
      <trkpt lat="47.30218" lon="-2.30536">
        <ele>18</ele>
        <time>2022-04-03T08:54:41.000Z</time>
      </trkpt>
      <trkpt lat="47.30209" lon="-2.30526">
        <ele>18</ele>
        <time>2022-04-03T08:54:47.000Z</time>
      </trkpt>
      <trkpt lat="47.30192" lon="-2.3051">
        <ele>18</ele>
        <time>2022-04-03T08:54:55.000Z</time>
      </trkpt>
      <trkpt lat="47.30181" lon="-2.30498">
        <ele>18</ele>
        <time>2022-04-03T08:55:00.000Z</time>
      </trkpt>
      <trkpt lat="47.30171" lon="-2.30491">
        <ele>18</ele>
        <time>2022-04-03T08:55:04.000Z</time>
      </trkpt>
      <trkpt lat="47.30163" lon="-2.30474">
        <ele>18</ele>
        <time>2022-04-03T08:55:09.000Z</time>
      </trkpt>
      <trkpt lat="47.30148" lon="-2.30453">
        <ele>18</ele>
        <time>2022-04-03T08:55:15.000Z</time>
      </trkpt>
      <trkpt lat="47.30143" lon="-2.30438">
        <ele>18</ele>
        <time>2022-04-03T08:55:18.000Z</time>
      </trkpt>
      <trkpt lat="47.30138" lon="-2.30422">
        <ele>18</ele>
        <time>2022-04-03T08:55:21.000Z</time>
      </trkpt>
      <trkpt lat="47.30125" lon="-2.30379">
        <ele>18</ele>
        <time>2022-04-03T08:55:28.000Z</time>
      </trkpt>
      <trkpt lat="47.30112" lon="-2.30327">
        <ele>18</ele>
        <time>2022-04-03T08:55:36.000Z</time>
      </trkpt>
      <trkpt lat="47.30103" lon="-2.30293">
        <ele>18</ele>
        <time>2022-04-03T08:55:41.000Z</time>
      </trkpt>
      <trkpt lat="47.30103" lon="-2.30285">
        <ele>18</ele>
        <time>2022-04-03T08:55:42.000Z</time>
      </trkpt>
      <trkpt lat="47.30111" lon="-2.30265">
        <ele>18</ele>
        <time>2022-04-03T08:55:45.000Z</time>
      </trkpt>
      <trkpt lat="47.30126" lon="-2.30258">
        <ele>18</ele>
        <time>2022-04-03T08:55:48.000Z</time>
      </trkpt>
      <trkpt lat="47.30167" lon="-2.30245">
        <ele>18</ele>
        <time>2022-04-03T08:55:56.000Z</time>
      </trkpt>
      <trkpt lat="47.30186" lon="-2.30234">
        <ele>18</ele>
        <time>2022-04-03T08:56:00.000Z</time>
      </trkpt>
      <trkpt lat="47.30195" lon="-2.30226">
        <ele>18</ele>
        <time>2022-04-03T08:56:02.000Z</time>
      </trkpt>
      <trkpt lat="47.302" lon="-2.30206">
        <ele>18</ele>
        <time>2022-04-03T08:56:05.000Z</time>
      </trkpt>
      <trkpt lat="47.30196" lon="-2.30193">
        <ele>18</ele>
        <time>2022-04-03T08:56:07.000Z</time>
      </trkpt>
      <trkpt lat="47.3019" lon="-2.3018">
        <ele>18</ele>
        <time>2022-04-03T08:56:09.000Z</time>
      </trkpt>
      <trkpt lat="47.30172" lon="-2.30133">
        <ele>18</ele>
        <time>2022-04-03T08:56:16.000Z</time>
      </trkpt>
      <trkpt lat="47.30167" lon="-2.3012">
        <ele>18</ele>
        <time>2022-04-03T08:56:18.000Z</time>
      </trkpt>
      <trkpt lat="47.30159" lon="-2.30092">
        <ele>18</ele>
        <time>2022-04-03T08:56:22.000Z</time>
      </trkpt>
      <trkpt lat="47.30141" lon="-2.30051">
        <ele>18</ele>
        <time>2022-04-03T08:56:28.000Z</time>
      </trkpt>
      <trkpt lat="47.30127" lon="-2.30019">
        <ele>18</ele>
        <time>2022-04-03T08:56:33.000Z</time>
      </trkpt>
      <trkpt lat="47.30124" lon="-2.30015">
        <ele>18</ele>
        <time>2022-04-03T08:56:34.000Z</time>
      </trkpt>
      <trkpt lat="47.3012" lon="-2.3001">
        <ele>17.60000038147</ele>
        <time>2022-04-03T08:56:35.000Z</time>
      </trkpt>
      <trkpt lat="47.30117" lon="-2.30006">
        <ele>17.200000762939</ele>
        <time>2022-04-03T08:56:36.000Z</time>
      </trkpt>
      <trkpt lat="47.30115" lon="-2.30002">
        <ele>16.60000038147</ele>
        <time>2022-04-03T08:56:37.000Z</time>
      </trkpt>
      <trkpt lat="47.30111" lon="-2.3">
        <ele>16.200000762939</ele>
        <time>2022-04-03T08:56:38.000Z</time>
      </trkpt>
      <trkpt lat="47.30108" lon="-2.29998">
        <ele>15.800000190735</ele>
        <time>2022-04-03T08:56:39.000Z</time>
      </trkpt>
      <trkpt lat="47.30101" lon="-2.29988">
        <ele>15.800000190735</ele>
        <time>2022-04-03T08:56:42.000Z</time>
      </trkpt>
      <trkpt lat="47.30096" lon="-2.29966">
        <ele>15.800000190735</ele>
        <time>2022-04-03T08:56:47.000Z</time>
      </trkpt>
      <trkpt lat="47.30099" lon="-2.2995">
        <ele>15.800000190735</ele>
        <time>2022-04-03T08:56:51.000Z</time>
      </trkpt>
      <trkpt lat="47.30098" lon="-2.29946">
        <ele>15.800000190735</ele>
        <time>2022-04-03T08:56:52.000Z</time>
      </trkpt>
      <trkpt lat="47.30094" lon="-2.29937">
        <ele>15.800000190735</ele>
        <time>2022-04-03T08:56:55.000Z</time>
      </trkpt>
      <trkpt lat="47.30094" lon="-2.29934">
        <ele>15.800000190735</ele>
        <time>2022-04-03T08:56:56.000Z</time>
      </trkpt>
      <trkpt lat="47.30093" lon="-2.29924">
        <ele>15.800000190735</ele>
        <time>2022-04-03T08:56:58.000Z</time>
      </trkpt>
      <trkpt lat="47.30093" lon="-2.2992">
        <ele>15.800000190735</ele>
        <time>2022-04-03T08:56:59.000Z</time>
      </trkpt>
      <trkpt lat="47.30098" lon="-2.29916">
        <ele>15.800000190735</ele>
        <time>2022-04-03T08:57:02.000Z</time>
      </trkpt>
      <trkpt lat="47.30107" lon="-2.29904">
        <ele>15.800000190735</ele>
        <time>2022-04-03T08:57:06.000Z</time>
      </trkpt>
      <trkpt lat="47.30113" lon="-2.29899">
        <ele>15.800000190735</ele>
        <time>2022-04-03T08:57:08.000Z</time>
      </trkpt>
      <trkpt lat="47.30122" lon="-2.29891">
        <ele>15.800000190735</ele>
        <time>2022-04-03T08:57:11.000Z</time>
      </trkpt>
      <trkpt lat="47.30135" lon="-2.29879">
        <ele>15.800000190735</ele>
        <time>2022-04-03T08:57:16.000Z</time>
      </trkpt>
      <trkpt lat="47.30148" lon="-2.29865">
        <ele>15.800000190735</ele>
        <time>2022-04-03T08:57:21.000Z</time>
      </trkpt>
      <trkpt lat="47.30158" lon="-2.29844">
        <ele>15.800000190735</ele>
        <time>2022-04-03T08:57:26.000Z</time>
      </trkpt>
      <trkpt lat="47.30167" lon="-2.29833">
        <ele>15.800000190735</ele>
        <time>2022-04-03T08:57:30.000Z</time>
      </trkpt>
      <trkpt lat="47.30171" lon="-2.29827">
        <ele>15.800000190735</ele>
        <time>2022-04-03T08:57:33.000Z</time>
      </trkpt>
      <trkpt lat="47.30177" lon="-2.2982">
        <ele>15.800000190735</ele>
        <time>2022-04-03T08:57:36.000Z</time>
      </trkpt>
      <trkpt lat="47.30186" lon="-2.29809">
        <ele>15.800000190735</ele>
        <time>2022-04-03T08:57:39.000Z</time>
      </trkpt>
      <trkpt lat="47.30188" lon="-2.29805">
        <ele>15.800000190735</ele>
        <time>2022-04-03T08:57:40.000Z</time>
      </trkpt>
      <trkpt lat="47.302" lon="-2.29789">
        <ele>15.800000190735</ele>
        <time>2022-04-03T08:57:45.000Z</time>
      </trkpt>
      <trkpt lat="47.30217" lon="-2.29758">
        <ele>15.800000190735</ele>
        <time>2022-04-03T08:57:52.000Z</time>
      </trkpt>
      <trkpt lat="47.30234" lon="-2.29736">
        <ele>15.800000190735</ele>
        <time>2022-04-03T08:57:57.000Z</time>
      </trkpt>
      <trkpt lat="47.30242" lon="-2.29721">
        <ele>15.800000190735</ele>
        <time>2022-04-03T08:58:01.000Z</time>
      </trkpt>
      <trkpt lat="47.30244" lon="-2.29719">
        <ele>15.800000190735</ele>
        <time>2022-04-03T08:58:02.000Z</time>
      </trkpt>
      <trkpt lat="47.30245" lon="-2.29717">
        <ele>15.800000190735</ele>
        <time>2022-04-03T08:58:03.000Z</time>
      </trkpt>
      <trkpt lat="47.30242" lon="-2.29714">
        <ele>15.800000190735</ele>
        <time>2022-04-03T08:58:05.000Z</time>
      </trkpt>
      <trkpt lat="47.30237" lon="-2.29711">
        <ele>15.800000190735</ele>
        <time>2022-04-03T08:58:07.000Z</time>
      </trkpt>
      <trkpt lat="47.30232" lon="-2.29708">
        <ele>15.800000190735</ele>
        <time>2022-04-03T08:58:09.000Z</time>
      </trkpt>
      <trkpt lat="47.30216" lon="-2.297">
        <ele>15.800000190735</ele>
        <time>2022-04-03T08:58:14.000Z</time>
      </trkpt>
      <trkpt lat="47.30202" lon="-2.2969">
        <ele>15.800000190735</ele>
        <time>2022-04-03T08:58:20.000Z</time>
      </trkpt>
      <trkpt lat="47.30191" lon="-2.29683">
        <ele>15.800000190735</ele>
        <time>2022-04-03T08:58:26.000Z</time>
      </trkpt>
      <trkpt lat="47.3018" lon="-2.29677">
        <ele>15.800000190735</ele>
        <time>2022-04-03T08:58:33.000Z</time>
      </trkpt>
      <trkpt lat="47.30167" lon="-2.29671">
        <ele>15.800000190735</ele>
        <time>2022-04-03T08:58:39.000Z</time>
      </trkpt>
      <trkpt lat="47.30152" lon="-2.29664">
        <ele>15.800000190735</ele>
        <time>2022-04-03T08:58:43.000Z</time>
      </trkpt>
      <trkpt lat="47.30148" lon="-2.29662">
        <ele>15.800000190735</ele>
        <time>2022-04-03T08:58:44.000Z</time>
      </trkpt>
      <trkpt lat="47.30141" lon="-2.29653">
        <ele>15.800000190735</ele>
        <time>2022-04-03T08:58:46.000Z</time>
      </trkpt>
      <trkpt lat="47.3014" lon="-2.29634">
        <ele>15.800000190735</ele>
        <time>2022-04-03T08:58:49.000Z</time>
      </trkpt>
      <trkpt lat="47.3014" lon="-2.29627">
        <ele>15.800000190735</ele>
        <time>2022-04-03T08:58:50.000Z</time>
      </trkpt>
      <trkpt lat="47.3014" lon="-2.2959">
        <ele>15.800000190735</ele>
        <time>2022-04-03T08:58:55.000Z</time>
      </trkpt>
      <trkpt lat="47.30142" lon="-2.29566">
        <ele>15.800000190735</ele>
        <time>2022-04-03T08:58:58.000Z</time>
      </trkpt>
      <trkpt lat="47.30146" lon="-2.29553">
        <ele>15.800000190735</ele>
        <time>2022-04-03T08:59:00.000Z</time>
      </trkpt>
      <trkpt lat="47.30154" lon="-2.29534">
        <ele>15.800000190735</ele>
        <time>2022-04-03T08:59:03.000Z</time>
      </trkpt>
      <trkpt lat="47.30163" lon="-2.29514">
        <ele>15.800000190735</ele>
        <time>2022-04-03T08:59:06.000Z</time>
      </trkpt>
      <trkpt lat="47.30183" lon="-2.29471">
        <ele>15.800000190735</ele>
        <time>2022-04-03T08:59:12.000Z</time>
      </trkpt>
      <trkpt lat="47.30206" lon="-2.29426">
        <ele>15.800000190735</ele>
        <time>2022-04-03T08:59:18.000Z</time>
      </trkpt>
      <trkpt lat="47.3021" lon="-2.29419">
        <ele>15.800000190735</ele>
        <time>2022-04-03T08:59:19.000Z</time>
      </trkpt>
      <trkpt lat="47.3021" lon="-2.29405">
        <ele>15.800000190735</ele>
        <time>2022-04-03T08:59:21.000Z</time>
      </trkpt>
      <trkpt lat="47.30199" lon="-2.29372">
        <ele>15.800000190735</ele>
        <time>2022-04-03T08:59:26.000Z</time>
      </trkpt>
      <trkpt lat="47.30198" lon="-2.29364">
        <ele>15.800000190735</ele>
        <time>2022-04-03T08:59:27.000Z</time>
      </trkpt>
      <trkpt lat="47.30196" lon="-2.29357">
        <ele>15.800000190735</ele>
        <time>2022-04-03T08:59:28.000Z</time>
      </trkpt>
      <trkpt lat="47.3019" lon="-2.29344">
        <ele>15.800000190735</ele>
        <time>2022-04-03T08:59:30.000Z</time>
      </trkpt>
      <trkpt lat="47.30166" lon="-2.29309">
        <ele>15.800000190735</ele>
        <time>2022-04-03T08:59:36.000Z</time>
      </trkpt>
      <trkpt lat="47.30137" lon="-2.29268">
        <ele>16.200000762939</ele>
        <time>2022-04-03T08:59:43.000Z</time>
      </trkpt>
      <trkpt lat="47.30133" lon="-2.29262">
        <ele>16.60000038147</ele>
        <time>2022-04-03T08:59:44.000Z</time>
      </trkpt>
      <trkpt lat="47.30129" lon="-2.29256">
        <ele>17</ele>
        <time>2022-04-03T08:59:45.000Z</time>
      </trkpt>
      <trkpt lat="47.30125" lon="-2.2925">
        <ele>17.39999961853</ele>
        <time>2022-04-03T08:59:46.000Z</time>
      </trkpt>
      <trkpt lat="47.30121" lon="-2.29244">
        <ele>18</ele>
        <time>2022-04-03T08:59:47.000Z</time>
      </trkpt>
      <trkpt lat="47.30113" lon="-2.29232">
        <ele>18</ele>
        <time>2022-04-03T08:59:49.000Z</time>
      </trkpt>
      <trkpt lat="47.30086" lon="-2.29188">
        <ele>18</ele>
        <time>2022-04-03T08:59:56.000Z</time>
      </trkpt>
      <trkpt lat="47.30063" lon="-2.29146">
        <ele>18</ele>
        <time>2022-04-03T09:00:03.000Z</time>
      </trkpt>
      <trkpt lat="47.30059" lon="-2.29141">
        <ele>18</ele>
        <time>2022-04-03T09:00:04.000Z</time>
      </trkpt>
      <trkpt lat="47.30046" lon="-2.2913">
        <ele>18</ele>
        <time>2022-04-03T09:00:07.000Z</time>
      </trkpt>
      <trkpt lat="47.30041" lon="-2.29127">
        <ele>18</ele>
        <time>2022-04-03T09:00:08.000Z</time>
      </trkpt>
      <trkpt lat="47.3001" lon="-2.29104">
        <ele>18</ele>
        <time>2022-04-03T09:00:14.000Z</time>
      </trkpt>
      <trkpt lat="47.29987" lon="-2.2908">
        <ele>18</ele>
        <time>2022-04-03T09:00:19.000Z</time>
      </trkpt>
      <trkpt lat="47.29983" lon="-2.29073">
        <ele>18</ele>
        <time>2022-04-03T09:00:20.000Z</time>
      </trkpt>
      <trkpt lat="47.29961" lon="-2.29028">
        <ele>18.39999961853</ele>
        <time>2022-04-03T09:00:27.000Z</time>
      </trkpt>
      <trkpt lat="47.29958" lon="-2.29022">
        <ele>18.799999237061</ele>
        <time>2022-04-03T09:00:28.000Z</time>
      </trkpt>
      <trkpt lat="47.29955" lon="-2.29016">
        <ele>19.200000762939</ele>
        <time>2022-04-03T09:00:29.000Z</time>
      </trkpt>
      <trkpt lat="47.29952" lon="-2.2901">
        <ele>19.60000038147</ele>
        <time>2022-04-03T09:00:30.000Z</time>
      </trkpt>
      <trkpt lat="47.29949" lon="-2.29004">
        <ele>20</ele>
        <time>2022-04-03T09:00:31.000Z</time>
      </trkpt>
      <trkpt lat="47.29943" lon="-2.28993">
        <ele>20</ele>
        <time>2022-04-03T09:00:33.000Z</time>
      </trkpt>
      <trkpt lat="47.29924" lon="-2.28959">
        <ele>20</ele>
        <time>2022-04-03T09:00:39.000Z</time>
      </trkpt>
      <trkpt lat="47.2992" lon="-2.28955">
        <ele>20</ele>
        <time>2022-04-03T09:00:40.000Z</time>
      </trkpt>
      <trkpt lat="47.2991" lon="-2.28953">
        <ele>20</ele>
        <time>2022-04-03T09:00:42.000Z</time>
      </trkpt>
      <trkpt lat="47.29875" lon="-2.28942">
        <ele>20</ele>
        <time>2022-04-03T09:00:49.000Z</time>
      </trkpt>
      <trkpt lat="47.2987" lon="-2.28926">
        <ele>20</ele>
        <time>2022-04-03T09:00:52.000Z</time>
      </trkpt>
      <trkpt lat="47.2987" lon="-2.2892">
        <ele>20.39999961853</ele>
        <time>2022-04-03T09:00:53.000Z</time>
      </trkpt>
      <trkpt lat="47.2987" lon="-2.28914">
        <ele>20.799999237061</ele>
        <time>2022-04-03T09:00:54.000Z</time>
      </trkpt>
      <trkpt lat="47.2987" lon="-2.28907">
        <ele>21.39999961853</ele>
        <time>2022-04-03T09:00:55.000Z</time>
      </trkpt>
      <trkpt lat="47.29871" lon="-2.28902">
        <ele>21.799999237061</ele>
        <time>2022-04-03T09:00:56.000Z</time>
      </trkpt>
      <trkpt lat="47.29874" lon="-2.28897">
        <ele>22.39999961853</ele>
        <time>2022-04-03T09:00:57.000Z</time>
      </trkpt>
      <trkpt lat="47.29879" lon="-2.28887">
        <ele>22.39999961853</ele>
        <time>2022-04-03T09:00:59.000Z</time>
      </trkpt>
      <trkpt lat="47.29882" lon="-2.28873">
        <ele>22.39999961853</ele>
        <time>2022-04-03T09:01:01.000Z</time>
      </trkpt>
      <trkpt lat="47.29886" lon="-2.28852">
        <ele>22.39999961853</ele>
        <time>2022-04-03T09:01:04.000Z</time>
      </trkpt>
      <trkpt lat="47.2989" lon="-2.28831">
        <ele>22.39999961853</ele>
        <time>2022-04-03T09:01:07.000Z</time>
      </trkpt>
      <trkpt lat="47.29893" lon="-2.28809">
        <ele>22.39999961853</ele>
        <time>2022-04-03T09:01:10.000Z</time>
      </trkpt>
      <trkpt lat="47.29896" lon="-2.28795">
        <ele>22.39999961853</ele>
        <time>2022-04-03T09:01:12.000Z</time>
      </trkpt>
      <trkpt lat="47.29897" lon="-2.28787">
        <ele>22.39999961853</ele>
        <time>2022-04-03T09:01:13.000Z</time>
      </trkpt>
      <trkpt lat="47.29904" lon="-2.28742">
        <ele>22.39999961853</ele>
        <time>2022-04-03T09:01:19.000Z</time>
      </trkpt>
      <trkpt lat="47.29906" lon="-2.28728">
        <ele>22.39999961853</ele>
        <time>2022-04-03T09:01:21.000Z</time>
      </trkpt>
      <trkpt lat="47.2991" lon="-2.28708">
        <ele>22.39999961853</ele>
        <time>2022-04-03T09:01:24.000Z</time>
      </trkpt>
      <trkpt lat="47.29917" lon="-2.2867">
        <ele>22.39999961853</ele>
        <time>2022-04-03T09:01:30.000Z</time>
      </trkpt>
      <trkpt lat="47.29918" lon="-2.28665">
        <ele>22.39999961853</ele>
        <time>2022-04-03T09:01:31.000Z</time>
      </trkpt>
      <trkpt lat="47.29926" lon="-2.28637">
        <ele>22.39999961853</ele>
        <time>2022-04-03T09:01:35.000Z</time>
      </trkpt>
      <trkpt lat="47.29928" lon="-2.2863">
        <ele>22.39999961853</ele>
        <time>2022-04-03T09:01:36.000Z</time>
      </trkpt>
      <trkpt lat="47.29929" lon="-2.28623">
        <ele>22.39999961853</ele>
        <time>2022-04-03T09:01:37.000Z</time>
      </trkpt>
      <trkpt lat="47.29932" lon="-2.286">
        <ele>22.39999961853</ele>
        <time>2022-04-03T09:01:41.000Z</time>
      </trkpt>
      <trkpt lat="47.29935" lon="-2.28576">
        <ele>22.799999237061</ele>
        <time>2022-04-03T09:01:45.000Z</time>
      </trkpt>
      <trkpt lat="47.29933" lon="-2.28571">
        <ele>23.200000762939</ele>
        <time>2022-04-03T09:01:46.000Z</time>
      </trkpt>
      <trkpt lat="47.29931" lon="-2.28568">
        <ele>23.60000038147</ele>
        <time>2022-04-03T09:01:47.000Z</time>
      </trkpt>
      <trkpt lat="47.29927" lon="-2.28565">
        <ele>24</ele>
        <time>2022-04-03T09:01:48.000Z</time>
      </trkpt>
      <trkpt lat="47.29924" lon="-2.28562">
        <ele>24.60000038147</ele>
        <time>2022-04-03T09:01:49.000Z</time>
      </trkpt>
      <trkpt lat="47.2992" lon="-2.28546">
        <ele>24.60000038147</ele>
        <time>2022-04-03T09:01:52.000Z</time>
      </trkpt>
      <trkpt lat="47.29923" lon="-2.28528">
        <ele>24.60000038147</ele>
        <time>2022-04-03T09:01:55.000Z</time>
      </trkpt>
      <trkpt lat="47.29924" lon="-2.28522">
        <ele>24.60000038147</ele>
        <time>2022-04-03T09:01:56.000Z</time>
      </trkpt>
      <trkpt lat="47.2993" lon="-2.28505">
        <ele>24.60000038147</ele>
        <time>2022-04-03T09:01:59.000Z</time>
      </trkpt>
      <trkpt lat="47.29932" lon="-2.28492">
        <ele>24.60000038147</ele>
        <time>2022-04-03T09:02:01.000Z</time>
      </trkpt>
      <trkpt lat="47.29931" lon="-2.28462">
        <ele>24.60000038147</ele>
        <time>2022-04-03T09:02:06.000Z</time>
      </trkpt>
      <trkpt lat="47.29933" lon="-2.28446">
        <ele>24.60000038147</ele>
        <time>2022-04-03T09:02:09.000Z</time>
      </trkpt>
      <trkpt lat="47.29935" lon="-2.28442">
        <ele>24.60000038147</ele>
        <time>2022-04-03T09:02:10.000Z</time>
      </trkpt>
      <trkpt lat="47.29941" lon="-2.28415">
        <ele>24.60000038147</ele>
        <time>2022-04-03T09:02:14.000Z</time>
      </trkpt>
      <trkpt lat="47.29941" lon="-2.28385">
        <ele>24.60000038147</ele>
        <time>2022-04-03T09:02:18.000Z</time>
      </trkpt>
      <trkpt lat="47.29941" lon="-2.28377">
        <ele>24.60000038147</ele>
        <time>2022-04-03T09:02:19.000Z</time>
      </trkpt>
      <trkpt lat="47.29941" lon="-2.28361">
        <ele>24.60000038147</ele>
        <time>2022-04-03T09:02:21.000Z</time>
      </trkpt>
      <trkpt lat="47.29943" lon="-2.28338">
        <ele>24.60000038147</ele>
        <time>2022-04-03T09:02:24.000Z</time>
      </trkpt>
      <trkpt lat="47.29943" lon="-2.28306">
        <ele>24.60000038147</ele>
        <time>2022-04-03T09:02:28.000Z</time>
      </trkpt>
      <trkpt lat="47.29943" lon="-2.28298">
        <ele>24.60000038147</ele>
        <time>2022-04-03T09:02:29.000Z</time>
      </trkpt>
      <trkpt lat="47.2994" lon="-2.28246">
        <ele>24.60000038147</ele>
        <time>2022-04-03T09:02:35.000Z</time>
      </trkpt>
      <trkpt lat="47.2994" lon="-2.28216">
        <ele>25</ele>
        <time>2022-04-03T09:02:39.000Z</time>
      </trkpt>
      <trkpt lat="47.29941" lon="-2.28209">
        <ele>25.39999961853</ele>
        <time>2022-04-03T09:02:40.000Z</time>
      </trkpt>
      <trkpt lat="47.29942" lon="-2.28202">
        <ele>25.799999237061</ele>
        <time>2022-04-03T09:02:41.000Z</time>
      </trkpt>
      <trkpt lat="47.29942" lon="-2.28196">
        <ele>26.200000762939</ele>
        <time>2022-04-03T09:02:42.000Z</time>
      </trkpt>
      <trkpt lat="47.29943" lon="-2.2819">
        <ele>26.60000038147</ele>
        <time>2022-04-03T09:02:43.000Z</time>
      </trkpt>
      <trkpt lat="47.29948" lon="-2.28162">
        <ele>26.60000038147</ele>
        <time>2022-04-03T09:02:47.000Z</time>
      </trkpt>
      <trkpt lat="47.29966" lon="-2.28106">
        <ele>26.60000038147</ele>
        <time>2022-04-03T09:02:53.000Z</time>
      </trkpt>
      <trkpt lat="47.29978" lon="-2.28057">
        <ele>26.60000038147</ele>
        <time>2022-04-03T09:02:59.000Z</time>
      </trkpt>
      <trkpt lat="47.29983" lon="-2.2804">
        <ele>26.60000038147</ele>
        <time>2022-04-03T09:03:02.000Z</time>
      </trkpt>
      <trkpt lat="47.29985" lon="-2.28036">
        <ele>26.60000038147</ele>
        <time>2022-04-03T09:03:03.000Z</time>
      </trkpt>
      <trkpt lat="47.29993" lon="-2.2803">
        <ele>26.60000038147</ele>
        <time>2022-04-03T09:03:05.000Z</time>
      </trkpt>
      <trkpt lat="47.30019" lon="-2.28015">
        <ele>26.60000038147</ele>
        <time>2022-04-03T09:03:10.000Z</time>
      </trkpt>
      <trkpt lat="47.3006" lon="-2.27987">
        <ele>26.60000038147</ele>
        <time>2022-04-03T09:03:17.000Z</time>
      </trkpt>
      <trkpt lat="47.30088" lon="-2.27964">
        <ele>26.200000762939</ele>
        <time>2022-04-03T09:03:22.000Z</time>
      </trkpt>
      <trkpt lat="47.30093" lon="-2.27959">
        <ele>25.799999237061</ele>
        <time>2022-04-03T09:03:23.000Z</time>
      </trkpt>
      <trkpt lat="47.30099" lon="-2.27954">
        <ele>25.39999961853</ele>
        <time>2022-04-03T09:03:24.000Z</time>
      </trkpt>
      <trkpt lat="47.30105" lon="-2.27949">
        <ele>25</ele>
        <time>2022-04-03T09:03:25.000Z</time>
      </trkpt>
      <trkpt lat="47.3011" lon="-2.27944">
        <ele>24.60000038147</ele>
        <time>2022-04-03T09:03:26.000Z</time>
      </trkpt>
      <trkpt lat="47.3014" lon="-2.27924">
        <ele>24.60000038147</ele>
        <time>2022-04-03T09:03:31.000Z</time>
      </trkpt>
      <trkpt lat="47.30168" lon="-2.27916">
        <ele>24.200000762939</ele>
        <time>2022-04-03T09:03:35.000Z</time>
      </trkpt>
      <trkpt lat="47.30175" lon="-2.27915">
        <ele>23.60000038147</ele>
        <time>2022-04-03T09:03:36.000Z</time>
      </trkpt>
      <trkpt lat="47.30183" lon="-2.27914">
        <ele>23.200000762939</ele>
        <time>2022-04-03T09:03:37.000Z</time>
      </trkpt>
      <trkpt lat="47.3019" lon="-2.27914">
        <ele>22.799999237061</ele>
        <time>2022-04-03T09:03:38.000Z</time>
      </trkpt>
      <trkpt lat="47.30197" lon="-2.27914">
        <ele>22.39999961853</ele>
        <time>2022-04-03T09:03:39.000Z</time>
      </trkpt>
      <trkpt lat="47.30225" lon="-2.27914">
        <ele>22.39999961853</ele>
        <time>2022-04-03T09:03:43.000Z</time>
      </trkpt>
      <trkpt lat="47.30258" lon="-2.27911">
        <ele>22.39999961853</ele>
        <time>2022-04-03T09:03:48.000Z</time>
      </trkpt>
      <trkpt lat="47.30272" lon="-2.2791">
        <ele>22</ele>
        <time>2022-04-03T09:03:50.000Z</time>
      </trkpt>
      <trkpt lat="47.30279" lon="-2.2791">
        <ele>21.60000038147</ele>
        <time>2022-04-03T09:03:51.000Z</time>
      </trkpt>
      <trkpt lat="47.30286" lon="-2.27909">
        <ele>21.200000762939</ele>
        <time>2022-04-03T09:03:52.000Z</time>
      </trkpt>
      <trkpt lat="47.30293" lon="-2.27909">
        <ele>20.799999237061</ele>
        <time>2022-04-03T09:03:53.000Z</time>
      </trkpt>
      <trkpt lat="47.30299" lon="-2.27908">
        <ele>20.39999961853</ele>
        <time>2022-04-03T09:03:54.000Z</time>
      </trkpt>
      <trkpt lat="47.30313" lon="-2.27908">
        <ele>20.39999961853</ele>
        <time>2022-04-03T09:03:56.000Z</time>
      </trkpt>
      <trkpt lat="47.30357" lon="-2.27901">
        <ele>20.39999961853</ele>
        <time>2022-04-03T09:04:03.000Z</time>
      </trkpt>
      <trkpt lat="47.30369" lon="-2.27898">
        <ele>19.799999237061</ele>
        <time>2022-04-03T09:04:05.000Z</time>
      </trkpt>
      <trkpt lat="47.30375" lon="-2.27897">
        <ele>19.39999961853</ele>
        <time>2022-04-03T09:04:06.000Z</time>
      </trkpt>
      <trkpt lat="47.30382" lon="-2.27896">
        <ele>19</ele>
        <time>2022-04-03T09:04:07.000Z</time>
      </trkpt>
      <trkpt lat="47.30389" lon="-2.27896">
        <ele>18.60000038147</ele>
        <time>2022-04-03T09:04:08.000Z</time>
      </trkpt>
      <trkpt lat="47.30395" lon="-2.27896">
        <ele>18.200000762939</ele>
        <time>2022-04-03T09:04:09.000Z</time>
      </trkpt>
      <trkpt lat="47.30429" lon="-2.27895">
        <ele>18.200000762939</ele>
        <time>2022-04-03T09:04:15.000Z</time>
      </trkpt>
      <trkpt lat="47.30447" lon="-2.27899">
        <ele>18.200000762939</ele>
        <time>2022-04-03T09:04:18.000Z</time>
      </trkpt>
      <trkpt lat="47.30457" lon="-2.27905">
        <ele>18.200000762939</ele>
        <time>2022-04-03T09:04:20.000Z</time>
      </trkpt>
      <trkpt lat="47.30487" lon="-2.27919">
        <ele>18.200000762939</ele>
        <time>2022-04-03T09:04:25.000Z</time>
      </trkpt>
      <trkpt lat="47.30499" lon="-2.27921">
        <ele>18.200000762939</ele>
        <time>2022-04-03T09:04:27.000Z</time>
      </trkpt>
      <trkpt lat="47.3051" lon="-2.27923">
        <ele>18.200000762939</ele>
        <time>2022-04-03T09:04:29.000Z</time>
      </trkpt>
      <trkpt lat="47.30514" lon="-2.27925">
        <ele>18.200000762939</ele>
        <time>2022-04-03T09:04:30.000Z</time>
      </trkpt>
      <trkpt lat="47.3052" lon="-2.27936">
        <ele>18.200000762939</ele>
        <time>2022-04-03T09:04:32.000Z</time>
      </trkpt>
      <trkpt lat="47.30522" lon="-2.27944">
        <ele>18.200000762939</ele>
        <time>2022-04-03T09:04:33.000Z</time>
      </trkpt>
      <trkpt lat="47.30525" lon="-2.2796">
        <ele>18.200000762939</ele>
        <time>2022-04-03T09:04:35.000Z</time>
      </trkpt>
      <trkpt lat="47.30529" lon="-2.27984">
        <ele>18.200000762939</ele>
        <time>2022-04-03T09:04:38.000Z</time>
      </trkpt>
      <trkpt lat="47.30538" lon="-2.28004">
        <ele>18.200000762939</ele>
        <time>2022-04-03T09:04:41.000Z</time>
      </trkpt>
      <trkpt lat="47.30541" lon="-2.28012">
        <ele>18.200000762939</ele>
        <time>2022-04-03T09:04:42.000Z</time>
      </trkpt>
      <trkpt lat="47.30559" lon="-2.28033">
        <ele>18.200000762939</ele>
        <time>2022-04-03T09:04:46.000Z</time>
      </trkpt>
      <trkpt lat="47.30577" lon="-2.2804">
        <ele>18.200000762939</ele>
        <time>2022-04-03T09:04:49.000Z</time>
      </trkpt>
      <trkpt lat="47.30589" lon="-2.28043">
        <ele>18.200000762939</ele>
        <time>2022-04-03T09:04:51.000Z</time>
      </trkpt>
      <trkpt lat="47.30602" lon="-2.28049">
        <ele>18.200000762939</ele>
        <time>2022-04-03T09:04:53.000Z</time>
      </trkpt>
      <trkpt lat="47.30618" lon="-2.28061">
        <ele>18.200000762939</ele>
        <time>2022-04-03T09:04:56.000Z</time>
      </trkpt>
      <trkpt lat="47.30623" lon="-2.28067">
        <ele>18.200000762939</ele>
        <time>2022-04-03T09:04:57.000Z</time>
      </trkpt>
      <trkpt lat="47.30643" lon="-2.28088">
        <ele>18.200000762939</ele>
        <time>2022-04-03T09:05:01.000Z</time>
      </trkpt>
      <trkpt lat="47.30673" lon="-2.2812">
        <ele>18.200000762939</ele>
        <time>2022-04-03T09:05:07.000Z</time>
      </trkpt>
      <trkpt lat="47.30682" lon="-2.28132">
        <ele>18.200000762939</ele>
        <time>2022-04-03T09:05:09.000Z</time>
      </trkpt>
      <trkpt lat="47.30698" lon="-2.28148">
        <ele>18.200000762939</ele>
        <time>2022-04-03T09:05:12.000Z</time>
      </trkpt>
      <trkpt lat="47.30729" lon="-2.28186">
        <ele>18.200000762939</ele>
        <time>2022-04-03T09:05:18.000Z</time>
      </trkpt>
      <trkpt lat="47.30766" lon="-2.28236">
        <ele>18.200000762939</ele>
        <time>2022-04-03T09:05:26.000Z</time>
      </trkpt>
      <trkpt lat="47.30772" lon="-2.28241">
        <ele>18.200000762939</ele>
        <time>2022-04-03T09:05:27.000Z</time>
      </trkpt>
      <trkpt lat="47.30796" lon="-2.28252">
        <ele>18.200000762939</ele>
        <time>2022-04-03T09:05:31.000Z</time>
      </trkpt>
      <trkpt lat="47.30808" lon="-2.28253">
        <ele>18.200000762939</ele>
        <time>2022-04-03T09:05:33.000Z</time>
      </trkpt>
      <trkpt lat="47.30813" lon="-2.28253">
        <ele>18.200000762939</ele>
        <time>2022-04-03T09:05:34.000Z</time>
      </trkpt>
      <trkpt lat="47.30824" lon="-2.28252">
        <ele>18.200000762939</ele>
        <time>2022-04-03T09:05:36.000Z</time>
      </trkpt>
      <trkpt lat="47.3083" lon="-2.2825">
        <ele>18.200000762939</ele>
        <time>2022-04-03T09:05:37.000Z</time>
      </trkpt>
      <trkpt lat="47.30852" lon="-2.28239">
        <ele>18.200000762939</ele>
        <time>2022-04-03T09:05:41.000Z</time>
      </trkpt>
      <trkpt lat="47.30873" lon="-2.28218">
        <ele>18.200000762939</ele>
        <time>2022-04-03T09:05:45.000Z</time>
      </trkpt>
      <trkpt lat="47.30877" lon="-2.28211">
        <ele>18.200000762939</ele>
        <time>2022-04-03T09:05:46.000Z</time>
      </trkpt>
      <trkpt lat="47.30904" lon="-2.2817">
        <ele>18.200000762939</ele>
        <time>2022-04-03T09:05:52.000Z</time>
      </trkpt>
      <trkpt lat="47.30932" lon="-2.28132">
        <ele>18.200000762939</ele>
        <time>2022-04-03T09:05:58.000Z</time>
      </trkpt>
      <trkpt lat="47.30971" lon="-2.28083">
        <ele>18.200000762939</ele>
        <time>2022-04-03T09:06:06.000Z</time>
      </trkpt>
      <trkpt lat="47.31003" lon="-2.2806">
        <ele>18.200000762939</ele>
        <time>2022-04-03T09:06:12.000Z</time>
      </trkpt>
      <trkpt lat="47.31031" lon="-2.28037">
        <ele>18.200000762939</ele>
        <time>2022-04-03T09:06:17.000Z</time>
      </trkpt>
      <trkpt lat="47.31055" lon="-2.28005">
        <ele>18.200000762939</ele>
        <time>2022-04-03T09:06:22.000Z</time>
      </trkpt>
      <trkpt lat="47.31059" lon="-2.27999">
        <ele>18.200000762939</ele>
        <time>2022-04-03T09:06:23.000Z</time>
      </trkpt>
      <trkpt lat="47.31093" lon="-2.27946">
        <ele>18.200000762939</ele>
        <time>2022-04-03T09:06:31.000Z</time>
      </trkpt>
      <trkpt lat="47.31109" lon="-2.27919">
        <ele>18.200000762939</ele>
        <time>2022-04-03T09:06:35.000Z</time>
      </trkpt>
      <trkpt lat="47.31118" lon="-2.27906">
        <ele>18.200000762939</ele>
        <time>2022-04-03T09:06:37.000Z</time>
      </trkpt>
      <trkpt lat="47.31145" lon="-2.27857">
        <ele>18.200000762939</ele>
        <time>2022-04-03T09:06:44.000Z</time>
      </trkpt>
      <trkpt lat="47.31147" lon="-2.27849">
        <ele>18.200000762939</ele>
        <time>2022-04-03T09:06:45.000Z</time>
      </trkpt>
      <trkpt lat="47.31147" lon="-2.27814">
        <ele>18.200000762939</ele>
        <time>2022-04-03T09:06:49.000Z</time>
      </trkpt>
      <trkpt lat="47.31142" lon="-2.27768">
        <ele>18.200000762939</ele>
        <time>2022-04-03T09:06:55.000Z</time>
      </trkpt>
      <trkpt lat="47.3114" lon="-2.27754">
        <ele>18.200000762939</ele>
        <time>2022-04-03T09:06:57.000Z</time>
      </trkpt>
      <trkpt lat="47.31143" lon="-2.27744">
        <ele>18.200000762939</ele>
        <time>2022-04-03T09:06:59.000Z</time>
      </trkpt>
      <trkpt lat="47.31159" lon="-2.27739">
        <ele>18.200000762939</ele>
        <time>2022-04-03T09:07:03.000Z</time>
      </trkpt>
      <trkpt lat="47.31169" lon="-2.27738">
        <ele>18.200000762939</ele>
        <time>2022-04-03T09:07:05.000Z</time>
      </trkpt>
      <trkpt lat="47.31182" lon="-2.27732">
        <ele>18.200000762939</ele>
        <time>2022-04-03T09:07:07.000Z</time>
      </trkpt>
      <trkpt lat="47.31197" lon="-2.27725">
        <ele>18.200000762939</ele>
        <time>2022-04-03T09:07:10.000Z</time>
      </trkpt>
      <trkpt lat="47.31207" lon="-2.27725">
        <ele>18.200000762939</ele>
        <time>2022-04-03T09:07:12.000Z</time>
      </trkpt>
      <trkpt lat="47.31217" lon="-2.2774">
        <ele>18.200000762939</ele>
        <time>2022-04-03T09:07:15.000Z</time>
      </trkpt>
      <trkpt lat="47.3122" lon="-2.27748">
        <ele>18.200000762939</ele>
        <time>2022-04-03T09:07:16.000Z</time>
      </trkpt>
      <trkpt lat="47.31227" lon="-2.27763">
        <ele>18.200000762939</ele>
        <time>2022-04-03T09:07:18.000Z</time>
      </trkpt>
      <trkpt lat="47.31235" lon="-2.27774">
        <ele>18.200000762939</ele>
        <time>2022-04-03T09:07:20.000Z</time>
      </trkpt>
      <trkpt lat="47.31254" lon="-2.27774">
        <ele>18.200000762939</ele>
        <time>2022-04-03T09:07:23.000Z</time>
      </trkpt>
      <trkpt lat="47.31266" lon="-2.27773">
        <ele>18.200000762939</ele>
        <time>2022-04-03T09:07:25.000Z</time>
      </trkpt>
      <trkpt lat="47.31291" lon="-2.2777">
        <ele>18.200000762939</ele>
        <time>2022-04-03T09:07:29.000Z</time>
      </trkpt>
      <trkpt lat="47.31335" lon="-2.27764">
        <ele>18.200000762939</ele>
        <time>2022-04-03T09:07:36.000Z</time>
      </trkpt>
      <trkpt lat="47.31384" lon="-2.27753">
        <ele>18.200000762939</ele>
        <time>2022-04-03T09:07:44.000Z</time>
      </trkpt>
      <trkpt lat="47.31419" lon="-2.27736">
        <ele>18.200000762939</ele>
        <time>2022-04-03T09:07:50.000Z</time>
      </trkpt>
      <trkpt lat="47.31452" lon="-2.2771">
        <ele>18.200000762939</ele>
        <time>2022-04-03T09:07:56.000Z</time>
      </trkpt>
      <trkpt lat="47.31481" lon="-2.27675">
        <ele>18.200000762939</ele>
        <time>2022-04-03T09:08:02.000Z</time>
      </trkpt>
      <trkpt lat="47.31484" lon="-2.27668">
        <ele>18.200000762939</ele>
        <time>2022-04-03T09:08:03.000Z</time>
      </trkpt>
      <trkpt lat="47.31496" lon="-2.27637">
        <ele>18.200000762939</ele>
        <time>2022-04-03T09:08:07.000Z</time>
      </trkpt>
      <trkpt lat="47.31498" lon="-2.27627">
        <ele>18.200000762939</ele>
        <time>2022-04-03T09:08:08.000Z</time>
      </trkpt>
      <trkpt lat="47.31499" lon="-2.27609">
        <ele>18.200000762939</ele>
        <time>2022-04-03T09:08:10.000Z</time>
      </trkpt>
      <trkpt lat="47.31493" lon="-2.27571">
        <ele>18.200000762939</ele>
        <time>2022-04-03T09:08:14.000Z</time>
      </trkpt>
      <trkpt lat="47.3149" lon="-2.27563">
        <ele>18.200000762939</ele>
        <time>2022-04-03T09:08:15.000Z</time>
      </trkpt>
      <trkpt lat="47.31477" lon="-2.27531">
        <ele>18.200000762939</ele>
        <time>2022-04-03T09:08:19.000Z</time>
      </trkpt>
      <trkpt lat="47.31467" lon="-2.27507">
        <ele>18.200000762939</ele>
        <time>2022-04-03T09:08:22.000Z</time>
      </trkpt>
      <trkpt lat="47.31464" lon="-2.275">
        <ele>18.200000762939</ele>
        <time>2022-04-03T09:08:23.000Z</time>
      </trkpt>
      <trkpt lat="47.31451" lon="-2.27452">
        <ele>18.200000762939</ele>
        <time>2022-04-03T09:08:29.000Z</time>
      </trkpt>
      <trkpt lat="47.31436" lon="-2.2743">
        <ele>18.200000762939</ele>
        <time>2022-04-03T09:08:33.000Z</time>
      </trkpt>
      <trkpt lat="47.3141" lon="-2.27408">
        <ele>18.200000762939</ele>
        <time>2022-04-03T09:08:38.000Z</time>
      </trkpt>
      <trkpt lat="47.31373" lon="-2.27367">
        <ele>18.200000762939</ele>
        <time>2022-04-03T09:08:45.000Z</time>
      </trkpt>
      <trkpt lat="47.31339" lon="-2.27321">
        <ele>18.200000762939</ele>
        <time>2022-04-03T09:08:53.000Z</time>
      </trkpt>
      <trkpt lat="47.31315" lon="-2.27291">
        <ele>18.200000762939</ele>
        <time>2022-04-03T09:08:58.000Z</time>
      </trkpt>
      <trkpt lat="47.31311" lon="-2.27285">
        <ele>18.200000762939</ele>
        <time>2022-04-03T09:08:59.000Z</time>
      </trkpt>
      <trkpt lat="47.31299" lon="-2.27258">
        <ele>18.200000762939</ele>
        <time>2022-04-03T09:09:03.000Z</time>
      </trkpt>
      <trkpt lat="47.31295" lon="-2.27244">
        <ele>18.200000762939</ele>
        <time>2022-04-03T09:09:05.000Z</time>
      </trkpt>
      <trkpt lat="47.31289" lon="-2.27214">
        <ele>18.200000762939</ele>
        <time>2022-04-03T09:09:09.000Z</time>
      </trkpt>
      <trkpt lat="47.31288" lon="-2.27207">
        <ele>18.60000038147</ele>
        <time>2022-04-03T09:09:10.000Z</time>
      </trkpt>
      <trkpt lat="47.31287" lon="-2.27199">
        <ele>19</ele>
        <time>2022-04-03T09:09:11.000Z</time>
      </trkpt>
      <trkpt lat="47.31286" lon="-2.27192">
        <ele>19.39999961853</ele>
        <time>2022-04-03T09:09:12.000Z</time>
      </trkpt>
      <trkpt lat="47.31284" lon="-2.27184">
        <ele>19.799999237061</ele>
        <time>2022-04-03T09:09:13.000Z</time>
      </trkpt>
      <trkpt lat="47.31283" lon="-2.27177">
        <ele>20.200000762939</ele>
        <time>2022-04-03T09:09:14.000Z</time>
      </trkpt>
      <trkpt lat="47.3128" lon="-2.27162">
        <ele>20.200000762939</ele>
        <time>2022-04-03T09:09:16.000Z</time>
      </trkpt>
      <trkpt lat="47.31271" lon="-2.27119">
        <ele>20.200000762939</ele>
        <time>2022-04-03T09:09:23.000Z</time>
      </trkpt>
      <trkpt lat="47.31272" lon="-2.27115">
        <ele>20.200000762939</ele>
        <time>2022-04-03T09:09:24.000Z</time>
      </trkpt>
      <trkpt lat="47.31274" lon="-2.27111">
        <ele>20.200000762939</ele>
        <time>2022-04-03T09:09:26.000Z</time>
      </trkpt>
      <trkpt lat="47.31276" lon="-2.27098">
        <ele>20.200000762939</ele>
        <time>2022-04-03T09:09:32.000Z</time>
      </trkpt>
      <trkpt lat="47.31286" lon="-2.27093">
        <ele>20.200000762939</ele>
        <time>2022-04-03T09:09:36.000Z</time>
      </trkpt>
      <trkpt lat="47.31288" lon="-2.27092">
        <ele>20.200000762939</ele>
        <time>2022-04-03T09:09:37.000Z</time>
      </trkpt>
      <trkpt lat="47.31309" lon="-2.27082">
        <ele>20.200000762939</ele>
        <time>2022-04-03T09:09:44.000Z</time>
      </trkpt>
      <trkpt lat="47.31335" lon="-2.27071">
        <ele>20.200000762939</ele>
        <time>2022-04-03T09:09:52.000Z</time>
      </trkpt>
      <trkpt lat="47.31369" lon="-2.2706">
        <ele>20.200000762939</ele>
        <time>2022-04-03T09:10:02.000Z</time>
      </trkpt>
      <trkpt lat="47.31387" lon="-2.27052">
        <ele>20.200000762939</ele>
        <time>2022-04-03T09:10:07.000Z</time>
      </trkpt>
      <trkpt lat="47.31396" lon="-2.27047">
        <ele>20.200000762939</ele>
        <time>2022-04-03T09:10:09.000Z</time>
      </trkpt>
      <trkpt lat="47.31427" lon="-2.27026">
        <ele>20.200000762939</ele>
        <time>2022-04-03T09:10:15.000Z</time>
      </trkpt>
      <trkpt lat="47.31478" lon="-2.2699">
        <ele>20.200000762939</ele>
        <time>2022-04-03T09:10:24.000Z</time>
      </trkpt>
      <trkpt lat="47.31484" lon="-2.26986">
        <ele>20.200000762939</ele>
        <time>2022-04-03T09:10:25.000Z</time>
      </trkpt>
      <trkpt lat="47.31492" lon="-2.26973">
        <ele>20.200000762939</ele>
        <time>2022-04-03T09:10:27.000Z</time>
      </trkpt>
      <trkpt lat="47.31496" lon="-2.26957">
        <ele>20.200000762939</ele>
        <time>2022-04-03T09:10:29.000Z</time>
      </trkpt>
      <trkpt lat="47.31503" lon="-2.26932">
        <ele>20.200000762939</ele>
        <time>2022-04-03T09:10:32.000Z</time>
      </trkpt>
      <trkpt lat="47.31505" lon="-2.26923">
        <ele>19.799999237061</ele>
        <time>2022-04-03T09:10:33.000Z</time>
      </trkpt>
      <trkpt lat="47.31508" lon="-2.26914">
        <ele>19.39999961853</ele>
        <time>2022-04-03T09:10:34.000Z</time>
      </trkpt>
      <trkpt lat="47.31511" lon="-2.26905">
        <ele>19</ele>
        <time>2022-04-03T09:10:35.000Z</time>
      </trkpt>
      <trkpt lat="47.31513" lon="-2.26897">
        <ele>18.60000038147</ele>
        <time>2022-04-03T09:10:36.000Z</time>
      </trkpt>
      <trkpt lat="47.31516" lon="-2.26888">
        <ele>18.200000762939</ele>
        <time>2022-04-03T09:10:37.000Z</time>
      </trkpt>
      <trkpt lat="47.31519" lon="-2.2688">
        <ele>18.200000762939</ele>
        <time>2022-04-03T09:10:38.000Z</time>
      </trkpt>
      <trkpt lat="47.31536" lon="-2.2684">
        <ele>18.200000762939</ele>
        <time>2022-04-03T09:10:43.000Z</time>
      </trkpt>
      <trkpt lat="47.31538" lon="-2.26831">
        <ele>17.799999237061</ele>
        <time>2022-04-03T09:10:44.000Z</time>
      </trkpt>
      <trkpt lat="47.31541" lon="-2.26823">
        <ele>17.39999961853</ele>
        <time>2022-04-03T09:10:45.000Z</time>
      </trkpt>
      <trkpt lat="47.31543" lon="-2.26816">
        <ele>17</ele>
        <time>2022-04-03T09:10:46.000Z</time>
      </trkpt>
      <trkpt lat="47.31545" lon="-2.26809">
        <ele>16.60000038147</ele>
        <time>2022-04-03T09:10:47.000Z</time>
      </trkpt>
      <trkpt lat="47.31548" lon="-2.26801">
        <ele>16.200000762939</ele>
        <time>2022-04-03T09:10:48.000Z</time>
      </trkpt>
      <trkpt lat="47.31558" lon="-2.26778">
        <ele>16.200000762939</ele>
        <time>2022-04-03T09:10:51.000Z</time>
      </trkpt>
      <trkpt lat="47.31562" lon="-2.26771">
        <ele>16.200000762939</ele>
        <time>2022-04-03T09:10:52.000Z</time>
      </trkpt>
      <trkpt lat="47.31576" lon="-2.26758">
        <ele>16.200000762939</ele>
        <time>2022-04-03T09:10:55.000Z</time>
      </trkpt>
      <trkpt lat="47.31596" lon="-2.26756">
        <ele>16.200000762939</ele>
        <time>2022-04-03T09:10:59.000Z</time>
      </trkpt>
      <trkpt lat="47.31602" lon="-2.26756">
        <ele>16.200000762939</ele>
        <time>2022-04-03T09:11:00.000Z</time>
      </trkpt>
      <trkpt lat="47.31612" lon="-2.26756">
        <ele>16.200000762939</ele>
        <time>2022-04-03T09:11:02.000Z</time>
      </trkpt>
      <trkpt lat="47.31625" lon="-2.26751">
        <ele>16.200000762939</ele>
        <time>2022-04-03T09:11:05.000Z</time>
      </trkpt>
      <trkpt lat="47.31637" lon="-2.26741">
        <ele>16.60000038147</ele>
        <time>2022-04-03T09:11:08.000Z</time>
      </trkpt>
      <trkpt lat="47.3164" lon="-2.26738">
        <ele>17</ele>
        <time>2022-04-03T09:11:09.000Z</time>
      </trkpt>
      <trkpt lat="47.31644" lon="-2.26734">
        <ele>17.39999961853</ele>
        <time>2022-04-03T09:11:10.000Z</time>
      </trkpt>
      <trkpt lat="47.31648" lon="-2.26732">
        <ele>18</ele>
        <time>2022-04-03T09:11:11.000Z</time>
      </trkpt>
      <trkpt lat="47.31652" lon="-2.2673">
        <ele>18.39999961853</ele>
        <time>2022-04-03T09:11:12.000Z</time>
      </trkpt>
      <trkpt lat="47.3166" lon="-2.26729">
        <ele>18.39999961853</ele>
        <time>2022-04-03T09:11:14.000Z</time>
      </trkpt>
      <trkpt lat="47.31693" lon="-2.26724">
        <ele>18.39999961853</ele>
        <time>2022-04-03T09:11:21.000Z</time>
      </trkpt>
      <trkpt lat="47.31697" lon="-2.26723">
        <ele>18.39999961853</ele>
        <time>2022-04-03T09:11:22.000Z</time>
      </trkpt>
      <trkpt lat="47.31716" lon="-2.2672">
        <ele>18.39999961853</ele>
        <time>2022-04-03T09:11:26.000Z</time>
      </trkpt>
      <trkpt lat="47.31749" lon="-2.26711">
        <ele>18.39999961853</ele>
        <time>2022-04-03T09:11:33.000Z</time>
      </trkpt>
      <trkpt lat="47.31767" lon="-2.26705">
        <ele>18.799999237061</ele>
        <time>2022-04-03T09:11:37.000Z</time>
      </trkpt>
      <trkpt lat="47.31771" lon="-2.26703">
        <ele>19.200000762939</ele>
        <time>2022-04-03T09:11:38.000Z</time>
      </trkpt>
      <trkpt lat="47.31775" lon="-2.26702">
        <ele>19.60000038147</ele>
        <time>2022-04-03T09:11:39.000Z</time>
      </trkpt>
      <trkpt lat="47.31779" lon="-2.26701">
        <ele>20</ele>
        <time>2022-04-03T09:11:40.000Z</time>
      </trkpt>
      <trkpt lat="47.31783" lon="-2.26699">
        <ele>20.39999961853</ele>
        <time>2022-04-03T09:11:41.000Z</time>
      </trkpt>
      <trkpt lat="47.31792" lon="-2.26696">
        <ele>20.39999961853</ele>
        <time>2022-04-03T09:11:44.000Z</time>
      </trkpt>
      <trkpt lat="47.31797" lon="-2.2669">
        <ele>20.39999961853</ele>
        <time>2022-04-03T09:11:47.000Z</time>
      </trkpt>
      <trkpt lat="47.31797" lon="-2.26687">
        <ele>20.39999961853</ele>
        <time>2022-04-03T09:11:48.000Z</time>
      </trkpt>
      <trkpt lat="47.31797" lon="-2.26684">
        <ele>20.799999237061</ele>
        <time>2022-04-03T09:11:49.000Z</time>
      </trkpt>
      <trkpt lat="47.31797" lon="-2.26682">
        <ele>21.200000762939</ele>
        <time>2022-04-03T09:11:50.000Z</time>
      </trkpt>
      <trkpt lat="47.31797" lon="-2.26679">
        <ele>21.60000038147</ele>
        <time>2022-04-03T09:11:51.000Z</time>
      </trkpt>
      <trkpt lat="47.31797" lon="-2.26678">
        <ele>22</ele>
        <time>2022-04-03T09:11:52.000Z</time>
      </trkpt>
      <trkpt lat="47.31798" lon="-2.26676">
        <ele>22.39999961853</ele>
        <time>2022-04-03T09:11:53.000Z</time>
      </trkpt>
      <trkpt lat="47.318" lon="-2.26675">
        <ele>22.39999961853</ele>
        <time>2022-04-03T09:11:54.000Z</time>
      </trkpt>
      <trkpt lat="47.31805" lon="-2.26669">
        <ele>22.39999961853</ele>
        <time>2022-04-03T09:11:58.000Z</time>
      </trkpt>
      <trkpt lat="47.31805" lon="-2.26668">
        <ele>22.39999961853</ele>
        <time>2022-04-03T09:12:00.000Z</time>
      </trkpt>
      <trkpt lat="47.31803" lon="-2.26672">
        <ele>22.39999961853</ele>
        <time>2022-04-03T09:12:17.000Z</time>
      </trkpt>
      <trkpt lat="47.31801" lon="-2.26675">
        <ele>22.39999961853</ele>
        <time>2022-04-03T09:12:18.000Z</time>
      </trkpt>
      <trkpt lat="47.318" lon="-2.26689">
        <ele>22.39999961853</ele>
        <time>2022-04-03T09:12:21.000Z</time>
      </trkpt>
      <trkpt lat="47.31805" lon="-2.26698">
        <ele>22.39999961853</ele>
        <time>2022-04-03T09:12:23.000Z</time>
      </trkpt>
      <trkpt lat="47.3181" lon="-2.26707">
        <ele>22.39999961853</ele>
        <time>2022-04-03T09:12:25.000Z</time>
      </trkpt>
      <trkpt lat="47.31825" lon="-2.26742">
        <ele>22.39999961853</ele>
        <time>2022-04-03T09:12:32.000Z</time>
      </trkpt>
      <trkpt lat="47.3183" lon="-2.26764">
        <ele>22.39999961853</ele>
        <time>2022-04-03T09:12:36.000Z</time>
      </trkpt>
      <trkpt lat="47.31831" lon="-2.2677">
        <ele>22.39999961853</ele>
        <time>2022-04-03T09:12:37.000Z</time>
      </trkpt>
      <trkpt lat="47.31835" lon="-2.26796">
        <ele>22.39999961853</ele>
        <time>2022-04-03T09:12:41.000Z</time>
      </trkpt>
      <trkpt lat="47.31835" lon="-2.26809">
        <ele>22.39999961853</ele>
        <time>2022-04-03T09:12:43.000Z</time>
      </trkpt>
      <trkpt lat="47.31836" lon="-2.26822">
        <ele>22</ele>
        <time>2022-04-03T09:12:46.000Z</time>
      </trkpt>
      <trkpt lat="47.31836" lon="-2.26824">
        <ele>21.60000038147</ele>
        <time>2022-04-03T09:12:47.000Z</time>
      </trkpt>
      <trkpt lat="47.31836" lon="-2.26825">
        <ele>21</ele>
        <time>2022-04-03T09:12:48.000Z</time>
      </trkpt>
      <trkpt lat="47.31836" lon="-2.26827">
        <ele>20.200000762939</ele>
        <time>2022-04-03T09:13:08.000Z</time>
      </trkpt>
      <trkpt lat="47.31835" lon="-2.26832">
        <ele>20.200000762939</ele>
        <time>2022-04-03T09:13:09.000Z</time>
      </trkpt>
      <trkpt lat="47.31836" lon="-2.26858">
        <ele>20.200000762939</ele>
        <time>2022-04-03T09:13:13.000Z</time>
      </trkpt>
      <trkpt lat="47.3184" lon="-2.26909">
        <ele>20.200000762939</ele>
        <time>2022-04-03T09:13:19.000Z</time>
      </trkpt>
      <trkpt lat="47.31842" lon="-2.26941">
        <ele>19.799999237061</ele>
        <time>2022-04-03T09:13:23.000Z</time>
      </trkpt>
      <trkpt lat="47.31842" lon="-2.26949">
        <ele>19.39999961853</ele>
        <time>2022-04-03T09:13:24.000Z</time>
      </trkpt>
      <trkpt lat="47.31843" lon="-2.26956">
        <ele>19</ele>
        <time>2022-04-03T09:13:25.000Z</time>
      </trkpt>
      <trkpt lat="47.31843" lon="-2.26963">
        <ele>18.60000038147</ele>
        <time>2022-04-03T09:13:26.000Z</time>
      </trkpt>
      <trkpt lat="47.31844" lon="-2.2697">
        <ele>18.200000762939</ele>
        <time>2022-04-03T09:13:27.000Z</time>
      </trkpt>
      <trkpt lat="47.31844" lon="-2.27008">
        <ele>18.200000762939</ele>
        <time>2022-04-03T09:13:32.000Z</time>
      </trkpt>
      <trkpt lat="47.31844" lon="-2.27015">
        <ele>18.200000762939</ele>
        <time>2022-04-03T09:13:33.000Z</time>
      </trkpt>
      <trkpt lat="47.31845" lon="-2.27042">
        <ele>18.200000762939</ele>
        <time>2022-04-03T09:13:37.000Z</time>
      </trkpt>
      <trkpt lat="47.31845" lon="-2.27071">
        <ele>18.200000762939</ele>
        <time>2022-04-03T09:13:42.000Z</time>
      </trkpt>
      <trkpt lat="47.31845" lon="-2.27076">
        <ele>18.200000762939</ele>
        <time>2022-04-03T09:13:44.000Z</time>
      </trkpt>
      <trkpt lat="47.31845" lon="-2.27081">
        <ele>18.200000762939</ele>
        <time>2022-04-03T09:13:48.000Z</time>
      </trkpt>
      <trkpt lat="47.31846" lon="-2.27102">
        <ele>18.200000762939</ele>
        <time>2022-04-03T09:13:53.000Z</time>
      </trkpt>
      <trkpt lat="47.31847" lon="-2.27123">
        <ele>18.60000038147</ele>
        <time>2022-04-03T09:13:57.000Z</time>
      </trkpt>
      <trkpt lat="47.31848" lon="-2.27128">
        <ele>19</ele>
        <time>2022-04-03T09:13:58.000Z</time>
      </trkpt>
      <trkpt lat="47.31848" lon="-2.27133">
        <ele>19.39999961853</ele>
        <time>2022-04-03T09:13:59.000Z</time>
      </trkpt>
      <trkpt lat="47.31848" lon="-2.27139">
        <ele>20</ele>
        <time>2022-04-03T09:14:00.000Z</time>
      </trkpt>
      <trkpt lat="47.31849" lon="-2.27145">
        <ele>20.39999961853</ele>
        <time>2022-04-03T09:14:01.000Z</time>
      </trkpt>
      <trkpt lat="47.3185" lon="-2.27189">
        <ele>20.39999961853</ele>
        <time>2022-04-03T09:14:09.000Z</time>
      </trkpt>
      <trkpt lat="47.31851" lon="-2.27222">
        <ele>20.39999961853</ele>
        <time>2022-04-03T09:14:16.000Z</time>
      </trkpt>
      <trkpt lat="47.31852" lon="-2.27263">
        <ele>20.39999961853</ele>
        <time>2022-04-03T09:14:23.000Z</time>
      </trkpt>
      <trkpt lat="47.31854" lon="-2.27311">
        <ele>20.39999961853</ele>
        <time>2022-04-03T09:14:30.000Z</time>
      </trkpt>
      <trkpt lat="47.31856" lon="-2.27355">
        <ele>20.39999961853</ele>
        <time>2022-04-03T09:14:36.000Z</time>
      </trkpt>
      <trkpt lat="47.31858" lon="-2.27414">
        <ele>20.39999961853</ele>
        <time>2022-04-03T09:14:43.000Z</time>
      </trkpt>
      <trkpt lat="47.31859" lon="-2.27466">
        <ele>20.39999961853</ele>
        <time>2022-04-03T09:14:49.000Z</time>
      </trkpt>
      <trkpt lat="47.31862" lon="-2.27547">
        <ele>20.39999961853</ele>
        <time>2022-04-03T09:14:58.000Z</time>
      </trkpt>
      <trkpt lat="47.31865" lon="-2.27616">
        <ele>20.39999961853</ele>
        <time>2022-04-03T09:15:06.000Z</time>
      </trkpt>
      <trkpt lat="47.31867" lon="-2.27675">
        <ele>20.39999961853</ele>
        <time>2022-04-03T09:15:13.000Z</time>
      </trkpt>
      <trkpt lat="47.31869" lon="-2.27751">
        <ele>20.39999961853</ele>
        <time>2022-04-03T09:15:22.000Z</time>
      </trkpt>
      <trkpt lat="47.31868" lon="-2.27811">
        <ele>20.39999961853</ele>
        <time>2022-04-03T09:15:29.000Z</time>
      </trkpt>
      <trkpt lat="47.31863" lon="-2.27881">
        <ele>20.39999961853</ele>
        <time>2022-04-03T09:15:37.000Z</time>
      </trkpt>
      <trkpt lat="47.3186" lon="-2.27934">
        <ele>20.39999961853</ele>
        <time>2022-04-03T09:15:43.000Z</time>
      </trkpt>
      <trkpt lat="47.31861" lon="-2.2798">
        <ele>20.39999961853</ele>
        <time>2022-04-03T09:15:48.000Z</time>
      </trkpt>
      <trkpt lat="47.31861" lon="-2.28044">
        <ele>20.39999961853</ele>
        <time>2022-04-03T09:15:55.000Z</time>
      </trkpt>
      <trkpt lat="47.31862" lon="-2.28098">
        <ele>20.39999961853</ele>
        <time>2022-04-03T09:16:01.000Z</time>
      </trkpt>
      <trkpt lat="47.31862" lon="-2.2816">
        <ele>20.39999961853</ele>
        <time>2022-04-03T09:16:08.000Z</time>
      </trkpt>
      <trkpt lat="47.31861" lon="-2.28216">
        <ele>20.39999961853</ele>
        <time>2022-04-03T09:16:14.000Z</time>
      </trkpt>
      <trkpt lat="47.31866" lon="-2.28249">
        <ele>20.39999961853</ele>
        <time>2022-04-03T09:16:18.000Z</time>
      </trkpt>
      <trkpt lat="47.31868" lon="-2.28264">
        <ele>20.39999961853</ele>
        <time>2022-04-03T09:16:20.000Z</time>
      </trkpt>
      <trkpt lat="47.31878" lon="-2.28317">
        <ele>20.39999961853</ele>
        <time>2022-04-03T09:16:28.000Z</time>
      </trkpt>
      <trkpt lat="47.31891" lon="-2.28379">
        <ele>20.39999961853</ele>
        <time>2022-04-03T09:16:36.000Z</time>
      </trkpt>
      <trkpt lat="47.319" lon="-2.28448">
        <ele>20.39999961853</ele>
        <time>2022-04-03T09:16:44.000Z</time>
      </trkpt>
      <trkpt lat="47.31897" lon="-2.28512">
        <ele>20.39999961853</ele>
        <time>2022-04-03T09:16:51.000Z</time>
      </trkpt>
      <trkpt lat="47.31897" lon="-2.28547">
        <ele>20.39999961853</ele>
        <time>2022-04-03T09:16:55.000Z</time>
      </trkpt>
      <trkpt lat="47.31899" lon="-2.28563">
        <ele>20.39999961853</ele>
        <time>2022-04-03T09:16:57.000Z</time>
      </trkpt>
      <trkpt lat="47.31902" lon="-2.28585">
        <ele>20.39999961853</ele>
        <time>2022-04-03T09:17:00.000Z</time>
      </trkpt>
      <trkpt lat="47.31901" lon="-2.28597">
        <ele>20.39999961853</ele>
        <time>2022-04-03T09:17:02.000Z</time>
      </trkpt>
      <trkpt lat="47.31896" lon="-2.28608">
        <ele>20.39999961853</ele>
        <time>2022-04-03T09:17:04.000Z</time>
      </trkpt>
      <trkpt lat="47.31892" lon="-2.28628">
        <ele>20.39999961853</ele>
        <time>2022-04-03T09:17:07.000Z</time>
      </trkpt>
      <trkpt lat="47.31891" lon="-2.28642">
        <ele>20.39999961853</ele>
        <time>2022-04-03T09:17:09.000Z</time>
      </trkpt>
      <trkpt lat="47.31889" lon="-2.28658">
        <ele>20.39999961853</ele>
        <time>2022-04-03T09:17:11.000Z</time>
      </trkpt>
      <trkpt lat="47.31888" lon="-2.28666">
        <ele>20.39999961853</ele>
        <time>2022-04-03T09:17:12.000Z</time>
      </trkpt>
      <trkpt lat="47.31882" lon="-2.28727">
        <ele>20.39999961853</ele>
        <time>2022-04-03T09:17:19.000Z</time>
      </trkpt>
      <trkpt lat="47.31875" lon="-2.28795">
        <ele>20.39999961853</ele>
        <time>2022-04-03T09:17:27.000Z</time>
      </trkpt>
      <trkpt lat="47.31871" lon="-2.28834">
        <ele>20.39999961853</ele>
        <time>2022-04-03T09:17:32.000Z</time>
      </trkpt>
      <trkpt lat="47.31869" lon="-2.2884">
        <ele>20.39999961853</ele>
        <time>2022-04-03T09:17:33.000Z</time>
      </trkpt>
      <trkpt lat="47.31866" lon="-2.28862">
        <ele>20.39999961853</ele>
        <time>2022-04-03T09:17:36.000Z</time>
      </trkpt>
      <trkpt lat="47.31866" lon="-2.2887">
        <ele>20.39999961853</ele>
        <time>2022-04-03T09:17:37.000Z</time>
      </trkpt>
      <trkpt lat="47.31865" lon="-2.2892">
        <ele>20.39999961853</ele>
        <time>2022-04-03T09:17:43.000Z</time>
      </trkpt>
      <trkpt lat="47.31862" lon="-2.28963">
        <ele>20.39999961853</ele>
        <time>2022-04-03T09:17:48.000Z</time>
      </trkpt>
      <trkpt lat="47.31854" lon="-2.2902">
        <ele>20.39999961853</ele>
        <time>2022-04-03T09:17:55.000Z</time>
      </trkpt>
      <trkpt lat="47.31844" lon="-2.29067">
        <ele>20.39999961853</ele>
        <time>2022-04-03T09:18:01.000Z</time>
      </trkpt>
      <trkpt lat="47.31835" lon="-2.29119">
        <ele>20.39999961853</ele>
        <time>2022-04-03T09:18:08.000Z</time>
      </trkpt>
      <trkpt lat="47.31827" lon="-2.29169">
        <ele>20.799999237061</ele>
        <time>2022-04-03T09:18:15.000Z</time>
      </trkpt>
      <trkpt lat="47.31826" lon="-2.29176">
        <ele>21.200000762939</ele>
        <time>2022-04-03T09:18:16.000Z</time>
      </trkpt>
      <trkpt lat="47.31826" lon="-2.29183">
        <ele>21.60000038147</ele>
        <time>2022-04-03T09:18:17.000Z</time>
      </trkpt>
      <trkpt lat="47.31825" lon="-2.2919">
        <ele>22</ele>
        <time>2022-04-03T09:18:18.000Z</time>
      </trkpt>
      <trkpt lat="47.31825" lon="-2.29197">
        <ele>22.39999961853</ele>
        <time>2022-04-03T09:18:19.000Z</time>
      </trkpt>
      <trkpt lat="47.31824" lon="-2.29224">
        <ele>22.39999961853</ele>
        <time>2022-04-03T09:18:23.000Z</time>
      </trkpt>
      <trkpt lat="47.31827" lon="-2.29244">
        <ele>22.39999961853</ele>
        <time>2022-04-03T09:18:26.000Z</time>
      </trkpt>
      <trkpt lat="47.31828" lon="-2.29251">
        <ele>22.799999237061</ele>
        <time>2022-04-03T09:18:27.000Z</time>
      </trkpt>
      <trkpt lat="47.31829" lon="-2.29259">
        <ele>23.200000762939</ele>
        <time>2022-04-03T09:18:28.000Z</time>
      </trkpt>
      <trkpt lat="47.3183" lon="-2.29265">
        <ele>23.799999237061</ele>
        <time>2022-04-03T09:18:29.000Z</time>
      </trkpt>
      <trkpt lat="47.31831" lon="-2.29271">
        <ele>24.200000762939</ele>
        <time>2022-04-03T09:18:30.000Z</time>
      </trkpt>
      <trkpt lat="47.31831" lon="-2.29278">
        <ele>24.60000038147</ele>
        <time>2022-04-03T09:18:31.000Z</time>
      </trkpt>
      <trkpt lat="47.31832" lon="-2.29284">
        <ele>24.60000038147</ele>
        <time>2022-04-03T09:18:32.000Z</time>
      </trkpt>
      <trkpt lat="47.31833" lon="-2.29311">
        <ele>24.60000038147</ele>
        <time>2022-04-03T09:18:36.000Z</time>
      </trkpt>
      <trkpt lat="47.31834" lon="-2.29317">
        <ele>25</ele>
        <time>2022-04-03T09:18:37.000Z</time>
      </trkpt>
      <trkpt lat="47.31834" lon="-2.29323">
        <ele>25.799999237061</ele>
        <time>2022-04-03T09:18:38.000Z</time>
      </trkpt>
      <trkpt lat="47.31835" lon="-2.29329">
        <ele>26.200000762939</ele>
        <time>2022-04-03T09:18:39.000Z</time>
      </trkpt>
      <trkpt lat="47.31836" lon="-2.29335">
        <ele>26.60000038147</ele>
        <time>2022-04-03T09:18:40.000Z</time>
      </trkpt>
      <trkpt lat="47.3184" lon="-2.29354">
        <ele>26.60000038147</ele>
        <time>2022-04-03T09:18:43.000Z</time>
      </trkpt>
      <trkpt lat="47.31852" lon="-2.29416">
        <ele>26.60000038147</ele>
        <time>2022-04-03T09:18:52.000Z</time>
      </trkpt>
      <trkpt lat="47.31853" lon="-2.29429">
        <ele>26.60000038147</ele>
        <time>2022-04-03T09:18:54.000Z</time>
      </trkpt>
      <trkpt lat="47.31851" lon="-2.29448">
        <ele>26.60000038147</ele>
        <time>2022-04-03T09:18:57.000Z</time>
      </trkpt>
      <trkpt lat="47.31848" lon="-2.2946">
        <ele>26.60000038147</ele>
        <time>2022-04-03T09:18:59.000Z</time>
      </trkpt>
      <trkpt lat="47.31847" lon="-2.29467">
        <ele>26.60000038147</ele>
        <time>2022-04-03T09:19:00.000Z</time>
      </trkpt>
      <trkpt lat="47.31847" lon="-2.29481">
        <ele>26.60000038147</ele>
        <time>2022-04-03T09:19:02.000Z</time>
      </trkpt>
      <trkpt lat="47.31853" lon="-2.2951">
        <ele>26.60000038147</ele>
        <time>2022-04-03T09:19:06.000Z</time>
      </trkpt>
      <trkpt lat="47.31855" lon="-2.29518">
        <ele>27</ele>
        <time>2022-04-03T09:19:07.000Z</time>
      </trkpt>
      <trkpt lat="47.31857" lon="-2.29525">
        <ele>27.39999961853</ele>
        <time>2022-04-03T09:19:08.000Z</time>
      </trkpt>
      <trkpt lat="47.31859" lon="-2.29532">
        <ele>27.799999237061</ele>
        <time>2022-04-03T09:19:09.000Z</time>
      </trkpt>
      <trkpt lat="47.31862" lon="-2.29539">
        <ele>28.200000762939</ele>
        <time>2022-04-03T09:19:10.000Z</time>
      </trkpt>
      <trkpt lat="47.31864" lon="-2.29546">
        <ele>28.60000038147</ele>
        <time>2022-04-03T09:19:11.000Z</time>
      </trkpt>
      <trkpt lat="47.3187" lon="-2.29566">
        <ele>28.60000038147</ele>
        <time>2022-04-03T09:19:14.000Z</time>
      </trkpt>
      <trkpt lat="47.31873" lon="-2.29586">
        <ele>28.60000038147</ele>
        <time>2022-04-03T09:19:17.000Z</time>
      </trkpt>
      <trkpt lat="47.31871" lon="-2.29599">
        <ele>28.60000038147</ele>
        <time>2022-04-03T09:19:19.000Z</time>
      </trkpt>
      <trkpt lat="47.31861" lon="-2.29615">
        <ele>28.60000038147</ele>
        <time>2022-04-03T09:19:22.000Z</time>
      </trkpt>
      <trkpt lat="47.31857" lon="-2.2962">
        <ele>28.60000038147</ele>
        <time>2022-04-03T09:19:23.000Z</time>
      </trkpt>
      <trkpt lat="47.31853" lon="-2.29624">
        <ele>28.60000038147</ele>
        <time>2022-04-03T09:19:24.000Z</time>
      </trkpt>
      <trkpt lat="47.31833" lon="-2.29637">
        <ele>28.60000038147</ele>
        <time>2022-04-03T09:19:28.000Z</time>
      </trkpt>
      <trkpt lat="47.31818" lon="-2.29646">
        <ele>28.60000038147</ele>
        <time>2022-04-03T09:19:31.000Z</time>
      </trkpt>
      <trkpt lat="47.31802" lon="-2.29658">
        <ele>28.60000038147</ele>
        <time>2022-04-03T09:19:34.000Z</time>
      </trkpt>
      <trkpt lat="47.31783" lon="-2.29672">
        <ele>28.60000038147</ele>
        <time>2022-04-03T09:19:38.000Z</time>
      </trkpt>
      <trkpt lat="47.31764" lon="-2.29686">
        <ele>28.60000038147</ele>
        <time>2022-04-03T09:19:42.000Z</time>
      </trkpt>
      <trkpt lat="47.3176" lon="-2.2969">
        <ele>28.60000038147</ele>
        <time>2022-04-03T09:19:43.000Z</time>
      </trkpt>
      <trkpt lat="47.31741" lon="-2.29703">
        <ele>28.60000038147</ele>
        <time>2022-04-03T09:19:47.000Z</time>
      </trkpt>
      <trkpt lat="47.31732" lon="-2.29709">
        <ele>28.60000038147</ele>
        <time>2022-04-03T09:19:49.000Z</time>
      </trkpt>
      <trkpt lat="47.31718" lon="-2.29719">
        <ele>28.60000038147</ele>
        <time>2022-04-03T09:19:52.000Z</time>
      </trkpt>
      <trkpt lat="47.31714" lon="-2.29723">
        <ele>29</ele>
        <time>2022-04-03T09:19:53.000Z</time>
      </trkpt>
      <trkpt lat="47.31709" lon="-2.29727">
        <ele>29.39999961853</ele>
        <time>2022-04-03T09:19:54.000Z</time>
      </trkpt>
      <trkpt lat="47.31704" lon="-2.2973">
        <ele>29.799999237061</ele>
        <time>2022-04-03T09:19:55.000Z</time>
      </trkpt>
      <trkpt lat="47.31699" lon="-2.29733">
        <ele>30.200000762939</ele>
        <time>2022-04-03T09:19:56.000Z</time>
      </trkpt>
      <trkpt lat="47.31694" lon="-2.29735">
        <ele>30.60000038147</ele>
        <time>2022-04-03T09:19:57.000Z</time>
      </trkpt>
      <trkpt lat="47.31689" lon="-2.29736">
        <ele>30.60000038147</ele>
        <time>2022-04-03T09:19:58.000Z</time>
      </trkpt>
      <trkpt lat="47.31673" lon="-2.2974">
        <ele>30.60000038147</ele>
        <time>2022-04-03T09:20:01.000Z</time>
      </trkpt>
      <trkpt lat="47.31667" lon="-2.29739">
        <ele>30.60000038147</ele>
        <time>2022-04-03T09:20:02.000Z</time>
      </trkpt>
      <trkpt lat="47.31652" lon="-2.29723">
        <ele>30.60000038147</ele>
        <time>2022-04-03T09:20:05.000Z</time>
      </trkpt>
      <trkpt lat="47.31646" lon="-2.29708">
        <ele>30.60000038147</ele>
        <time>2022-04-03T09:20:07.000Z</time>
      </trkpt>
      <trkpt lat="47.31638" lon="-2.29684">
        <ele>30.60000038147</ele>
        <time>2022-04-03T09:20:10.000Z</time>
      </trkpt>
      <trkpt lat="47.31635" lon="-2.29676">
        <ele>30.60000038147</ele>
        <time>2022-04-03T09:20:11.000Z</time>
      </trkpt>
      <trkpt lat="47.31623" lon="-2.29647">
        <ele>30.60000038147</ele>
        <time>2022-04-03T09:20:15.000Z</time>
      </trkpt>
      <trkpt lat="47.31605" lon="-2.29613">
        <ele>30.60000038147</ele>
        <time>2022-04-03T09:20:20.000Z</time>
      </trkpt>
      <trkpt lat="47.31581" lon="-2.29591">
        <ele>30.60000038147</ele>
        <time>2022-04-03T09:20:25.000Z</time>
      </trkpt>
      <trkpt lat="47.31563" lon="-2.29567">
        <ele>30.60000038147</ele>
        <time>2022-04-03T09:20:29.000Z</time>
      </trkpt>
      <trkpt lat="47.31556" lon="-2.29555">
        <ele>30.60000038147</ele>
        <time>2022-04-03T09:20:31.000Z</time>
      </trkpt>
      <trkpt lat="47.31543" lon="-2.29527">
        <ele>30.60000038147</ele>
        <time>2022-04-03T09:20:35.000Z</time>
      </trkpt>
      <trkpt lat="47.31541" lon="-2.29518">
        <ele>30.60000038147</ele>
        <time>2022-04-03T09:20:36.000Z</time>
      </trkpt>
      <trkpt lat="47.3153" lon="-2.29466">
        <ele>30.60000038147</ele>
        <time>2022-04-03T09:20:42.000Z</time>
      </trkpt>
      <trkpt lat="47.31527" lon="-2.29457">
        <ele>30.60000038147</ele>
        <time>2022-04-03T09:20:43.000Z</time>
      </trkpt>
      <trkpt lat="47.3152" lon="-2.29439">
        <ele>30.200000762939</ele>
        <time>2022-04-03T09:20:45.000Z</time>
      </trkpt>
      <trkpt lat="47.31516" lon="-2.2943">
        <ele>29.799999237061</ele>
        <time>2022-04-03T09:20:46.000Z</time>
      </trkpt>
      <trkpt lat="47.31512" lon="-2.29421">
        <ele>29.39999961853</ele>
        <time>2022-04-03T09:20:47.000Z</time>
      </trkpt>
      <trkpt lat="47.31508" lon="-2.29413">
        <ele>28.799999237061</ele>
        <time>2022-04-03T09:20:48.000Z</time>
      </trkpt>
      <trkpt lat="47.31503" lon="-2.29406">
        <ele>28.39999961853</ele>
        <time>2022-04-03T09:20:49.000Z</time>
      </trkpt>
      <trkpt lat="47.31499" lon="-2.294">
        <ele>28.39999961853</ele>
        <time>2022-04-03T09:20:50.000Z</time>
      </trkpt>
      <trkpt lat="47.31493" lon="-2.29397">
        <ele>28.39999961853</ele>
        <time>2022-04-03T09:20:51.000Z</time>
      </trkpt>
      <trkpt lat="47.31479" lon="-2.29398">
        <ele>28</ele>
        <time>2022-04-03T09:20:53.000Z</time>
      </trkpt>
      <trkpt lat="47.31472" lon="-2.29401">
        <ele>27.60000038147</ele>
        <time>2022-04-03T09:20:54.000Z</time>
      </trkpt>
      <trkpt lat="47.31466" lon="-2.29403">
        <ele>27.200000762939</ele>
        <time>2022-04-03T09:20:55.000Z</time>
      </trkpt>
      <trkpt lat="47.31459" lon="-2.29404">
        <ele>26.799999237061</ele>
        <time>2022-04-03T09:20:56.000Z</time>
      </trkpt>
      <trkpt lat="47.31452" lon="-2.29402">
        <ele>26.39999961853</ele>
        <time>2022-04-03T09:20:57.000Z</time>
      </trkpt>
      <trkpt lat="47.31446" lon="-2.29399">
        <ele>26.39999961853</ele>
        <time>2022-04-03T09:20:58.000Z</time>
      </trkpt>
      <trkpt lat="47.31429" lon="-2.29382">
        <ele>26.39999961853</ele>
        <time>2022-04-03T09:21:01.000Z</time>
      </trkpt>
      <trkpt lat="47.31425" lon="-2.29375">
        <ele>26.39999961853</ele>
        <time>2022-04-03T09:21:02.000Z</time>
      </trkpt>
      <trkpt lat="47.31402" lon="-2.29339">
        <ele>26.39999961853</ele>
        <time>2022-04-03T09:21:07.000Z</time>
      </trkpt>
      <trkpt lat="47.31397" lon="-2.29333">
        <ele>26.39999961853</ele>
        <time>2022-04-03T09:21:08.000Z</time>
      </trkpt>
      <trkpt lat="47.31379" lon="-2.29321">
        <ele>26.39999961853</ele>
        <time>2022-04-03T09:21:11.000Z</time>
      </trkpt>
      <trkpt lat="47.31373" lon="-2.29318">
        <ele>26.39999961853</ele>
        <time>2022-04-03T09:21:12.000Z</time>
      </trkpt>
      <trkpt lat="47.31361" lon="-2.29312">
        <ele>26</ele>
        <time>2022-04-03T09:21:14.000Z</time>
      </trkpt>
      <trkpt lat="47.31354" lon="-2.2931">
        <ele>25.60000038147</ele>
        <time>2022-04-03T09:21:15.000Z</time>
      </trkpt>
      <trkpt lat="47.31348" lon="-2.29307">
        <ele>25.200000762939</ele>
        <time>2022-04-03T09:21:16.000Z</time>
      </trkpt>
      <trkpt lat="47.31341" lon="-2.29304">
        <ele>24.799999237061</ele>
        <time>2022-04-03T09:21:17.000Z</time>
      </trkpt>
      <trkpt lat="47.31334" lon="-2.29302">
        <ele>24.200000762939</ele>
        <time>2022-04-03T09:21:18.000Z</time>
      </trkpt>
      <trkpt lat="47.31321" lon="-2.29298">
        <ele>24.200000762939</ele>
        <time>2022-04-03T09:21:20.000Z</time>
      </trkpt>
      <trkpt lat="47.31308" lon="-2.29296">
        <ele>24.200000762939</ele>
        <time>2022-04-03T09:21:22.000Z</time>
      </trkpt>
      <trkpt lat="47.31295" lon="-2.293">
        <ele>23.799999237061</ele>
        <time>2022-04-03T09:21:24.000Z</time>
      </trkpt>
      <trkpt lat="47.31289" lon="-2.29305">
        <ele>23.39999961853</ele>
        <time>2022-04-03T09:21:25.000Z</time>
      </trkpt>
      <trkpt lat="47.31284" lon="-2.2931">
        <ele>23</ele>
        <time>2022-04-03T09:21:26.000Z</time>
      </trkpt>
      <trkpt lat="47.3128" lon="-2.29317">
        <ele>22.60000038147</ele>
        <time>2022-04-03T09:21:27.000Z</time>
      </trkpt>
      <trkpt lat="47.31276" lon="-2.29325">
        <ele>22.200000762939</ele>
        <time>2022-04-03T09:21:28.000Z</time>
      </trkpt>
      <trkpt lat="47.3127" lon="-2.29341">
        <ele>22.200000762939</ele>
        <time>2022-04-03T09:21:30.000Z</time>
      </trkpt>
      <trkpt lat="47.31263" lon="-2.29356">
        <ele>22.200000762939</ele>
        <time>2022-04-03T09:21:32.000Z</time>
      </trkpt>
      <trkpt lat="47.31252" lon="-2.29378">
        <ele>22.200000762939</ele>
        <time>2022-04-03T09:21:35.000Z</time>
      </trkpt>
      <trkpt lat="47.31243" lon="-2.29389">
        <ele>22.200000762939</ele>
        <time>2022-04-03T09:21:37.000Z</time>
      </trkpt>
      <trkpt lat="47.3121" lon="-2.29414">
        <ele>22.200000762939</ele>
        <time>2022-04-03T09:21:43.000Z</time>
      </trkpt>
      <trkpt lat="47.31172" lon="-2.2944">
        <ele>22.200000762939</ele>
        <time>2022-04-03T09:21:49.000Z</time>
      </trkpt>
      <trkpt lat="47.31159" lon="-2.29449">
        <ele>21.799999237061</ele>
        <time>2022-04-03T09:21:51.000Z</time>
      </trkpt>
      <trkpt lat="47.31153" lon="-2.29454">
        <ele>21.39999961853</ele>
        <time>2022-04-03T09:21:52.000Z</time>
      </trkpt>
      <trkpt lat="47.31148" lon="-2.2946">
        <ele>20.799999237061</ele>
        <time>2022-04-03T09:21:53.000Z</time>
      </trkpt>
      <trkpt lat="47.31144" lon="-2.29467">
        <ele>20.39999961853</ele>
        <time>2022-04-03T09:21:54.000Z</time>
      </trkpt>
      <trkpt lat="47.31142" lon="-2.29476">
        <ele>20</ele>
        <time>2022-04-03T09:21:55.000Z</time>
      </trkpt>
      <trkpt lat="47.31144" lon="-2.29492">
        <ele>20</ele>
        <time>2022-04-03T09:21:57.000Z</time>
      </trkpt>
      <trkpt lat="47.31149" lon="-2.29506">
        <ele>20</ele>
        <time>2022-04-03T09:21:59.000Z</time>
      </trkpt>
      <trkpt lat="47.3116" lon="-2.29537">
        <ele>20</ele>
        <time>2022-04-03T09:22:03.000Z</time>
      </trkpt>
      <trkpt lat="47.3117" lon="-2.29567">
        <ele>20</ele>
        <time>2022-04-03T09:22:07.000Z</time>
      </trkpt>
      <trkpt lat="47.31171" lon="-2.29575">
        <ele>20</ele>
        <time>2022-04-03T09:22:08.000Z</time>
      </trkpt>
      <trkpt lat="47.31161" lon="-2.29591">
        <ele>20</ele>
        <time>2022-04-03T09:22:11.000Z</time>
      </trkpt>
      <trkpt lat="47.31157" lon="-2.29595">
        <ele>20</ele>
        <time>2022-04-03T09:22:12.000Z</time>
      </trkpt>
      <trkpt lat="47.31139" lon="-2.2961">
        <ele>20</ele>
        <time>2022-04-03T09:22:16.000Z</time>
      </trkpt>
      <trkpt lat="47.31134" lon="-2.29614">
        <ele>20</ele>
        <time>2022-04-03T09:22:17.000Z</time>
      </trkpt>
      <trkpt lat="47.31121" lon="-2.29626">
        <ele>20</ele>
        <time>2022-04-03T09:22:20.000Z</time>
      </trkpt>
      <trkpt lat="47.31112" lon="-2.29633">
        <ele>20</ele>
        <time>2022-04-03T09:22:22.000Z</time>
      </trkpt>
      <trkpt lat="47.31104" lon="-2.29642">
        <ele>20</ele>
        <time>2022-04-03T09:22:24.000Z</time>
      </trkpt>
      <trkpt lat="47.31096" lon="-2.29652">
        <ele>20</ele>
        <time>2022-04-03T09:22:26.000Z</time>
      </trkpt>
      <trkpt lat="47.31089" lon="-2.2966">
        <ele>20</ele>
        <time>2022-04-03T09:22:28.000Z</time>
      </trkpt>
      <trkpt lat="47.31078" lon="-2.29673">
        <ele>20</ele>
        <time>2022-04-03T09:22:31.000Z</time>
      </trkpt>
      <trkpt lat="47.31064" lon="-2.29688">
        <ele>20</ele>
        <time>2022-04-03T09:22:35.000Z</time>
      </trkpt>
      <trkpt lat="47.3105" lon="-2.29695">
        <ele>20</ele>
        <time>2022-04-03T09:22:39.000Z</time>
      </trkpt>
      <trkpt lat="47.31033" lon="-2.29682">
        <ele>20</ele>
        <time>2022-04-03T09:22:43.000Z</time>
      </trkpt>
      <trkpt lat="47.3103" lon="-2.29676">
        <ele>20</ele>
        <time>2022-04-03T09:22:44.000Z</time>
      </trkpt>
      <trkpt lat="47.31021" lon="-2.29656">
        <ele>20</ele>
        <time>2022-04-03T09:22:47.000Z</time>
      </trkpt>
      <trkpt lat="47.31002" lon="-2.2961">
        <ele>20</ele>
        <time>2022-04-03T09:22:53.000Z</time>
      </trkpt>
      <trkpt lat="47.30998" lon="-2.29603">
        <ele>20</ele>
        <time>2022-04-03T09:22:54.000Z</time>
      </trkpt>
      <trkpt lat="47.30983" lon="-2.29589">
        <ele>20</ele>
        <time>2022-04-03T09:22:57.000Z</time>
      </trkpt>
      <trkpt lat="47.30965" lon="-2.29583">
        <ele>20</ele>
        <time>2022-04-03T09:23:00.000Z</time>
      </trkpt>
      <trkpt lat="47.30959" lon="-2.29581">
        <ele>20</ele>
        <time>2022-04-03T09:23:01.000Z</time>
      </trkpt>
      <trkpt lat="47.30928" lon="-2.29572">
        <ele>20</ele>
        <time>2022-04-03T09:23:06.000Z</time>
      </trkpt>
      <trkpt lat="47.30893" lon="-2.2956">
        <ele>20</ele>
        <time>2022-04-03T09:23:12.000Z</time>
      </trkpt>
      <trkpt lat="47.30838" lon="-2.29545">
        <ele>20</ele>
        <time>2022-04-03T09:23:21.000Z</time>
      </trkpt>
      <trkpt lat="47.30831" lon="-2.29545">
        <ele>20</ele>
        <time>2022-04-03T09:23:22.000Z</time>
      </trkpt>
      <trkpt lat="47.30804" lon="-2.29549">
        <ele>20</ele>
        <time>2022-04-03T09:23:26.000Z</time>
      </trkpt>
      <trkpt lat="47.3076" lon="-2.29562">
        <ele>20</ele>
        <time>2022-04-03T09:23:33.000Z</time>
      </trkpt>
      <trkpt lat="47.30716" lon="-2.29577">
        <ele>20</ele>
        <time>2022-04-03T09:23:40.000Z</time>
      </trkpt>
      <trkpt lat="47.30704" lon="-2.29582">
        <ele>19.60000038147</ele>
        <time>2022-04-03T09:23:42.000Z</time>
      </trkpt>
      <trkpt lat="47.30698" lon="-2.29584">
        <ele>19</ele>
        <time>2022-04-03T09:23:43.000Z</time>
      </trkpt>
      <trkpt lat="47.30691" lon="-2.29586">
        <ele>18.60000038147</ele>
        <time>2022-04-03T09:23:44.000Z</time>
      </trkpt>
      <trkpt lat="47.30685" lon="-2.29587">
        <ele>18.200000762939</ele>
        <time>2022-04-03T09:23:45.000Z</time>
      </trkpt>
      <trkpt lat="47.30679" lon="-2.29588">
        <ele>17.799999237061</ele>
        <time>2022-04-03T09:23:46.000Z</time>
      </trkpt>
      <trkpt lat="47.3064" lon="-2.296">
        <ele>17.799999237061</ele>
        <time>2022-04-03T09:23:52.000Z</time>
      </trkpt>
      <trkpt lat="47.3061" lon="-2.29611">
        <ele>17.799999237061</ele>
        <time>2022-04-03T09:23:57.000Z</time>
      </trkpt>
      <trkpt lat="47.30599" lon="-2.29616">
        <ele>17.799999237061</ele>
        <time>2022-04-03T09:23:59.000Z</time>
      </trkpt>
      <trkpt lat="47.30582" lon="-2.29621">
        <ele>17.799999237061</ele>
        <time>2022-04-03T09:24:02.000Z</time>
      </trkpt>
      <trkpt lat="47.3054" lon="-2.29634">
        <ele>17.799999237061</ele>
        <time>2022-04-03T09:24:09.000Z</time>
      </trkpt>
      <trkpt lat="47.30493" lon="-2.2965">
        <ele>17.799999237061</ele>
        <time>2022-04-03T09:24:17.000Z</time>
      </trkpt>
      <trkpt lat="47.30452" lon="-2.29662">
        <ele>17.799999237061</ele>
        <time>2022-04-03T09:24:24.000Z</time>
      </trkpt>
      <trkpt lat="47.30409" lon="-2.29675">
        <ele>17.799999237061</ele>
        <time>2022-04-03T09:24:31.000Z</time>
      </trkpt>
      <trkpt lat="47.3037" lon="-2.29687">
        <ele>17.799999237061</ele>
        <time>2022-04-03T09:24:37.000Z</time>
      </trkpt>
      <trkpt lat="47.30334" lon="-2.29698">
        <ele>17.799999237061</ele>
        <time>2022-04-03T09:24:43.000Z</time>
      </trkpt>
      <trkpt lat="47.30328" lon="-2.29701">
        <ele>17.799999237061</ele>
        <time>2022-04-03T09:24:44.000Z</time>
      </trkpt>
      <trkpt lat="47.30294" lon="-2.29712">
        <ele>17.799999237061</ele>
        <time>2022-04-03T09:24:50.000Z</time>
      </trkpt>
      <trkpt lat="47.30272" lon="-2.29719">
        <ele>17.799999237061</ele>
        <time>2022-04-03T09:24:54.000Z</time>
      </trkpt>
      <trkpt lat="47.30261" lon="-2.29719">
        <ele>17.799999237061</ele>
        <time>2022-04-03T09:24:56.000Z</time>
      </trkpt>
      <trkpt lat="47.30236" lon="-2.29709">
        <ele>17.799999237061</ele>
        <time>2022-04-03T09:25:00.000Z</time>
      </trkpt>
      <trkpt lat="47.30217" lon="-2.297">
        <ele>17.799999237061</ele>
        <time>2022-04-03T09:25:03.000Z</time>
      </trkpt>
      <trkpt lat="47.30205" lon="-2.29694">
        <ele>17.799999237061</ele>
        <time>2022-04-03T09:25:05.000Z</time>
      </trkpt>
      <trkpt lat="47.30172" lon="-2.29676">
        <ele>17.799999237061</ele>
        <time>2022-04-03T09:25:11.000Z</time>
      </trkpt>
      <trkpt lat="47.30134" lon="-2.2966">
        <ele>17.799999237061</ele>
        <time>2022-04-03T09:25:18.000Z</time>
      </trkpt>
      <trkpt lat="47.30123" lon="-2.29658">
        <ele>17.799999237061</ele>
        <time>2022-04-03T09:25:20.000Z</time>
      </trkpt>
      <trkpt lat="47.30108" lon="-2.29652">
        <ele>17.799999237061</ele>
        <time>2022-04-03T09:25:23.000Z</time>
      </trkpt>
      <trkpt lat="47.3008" lon="-2.29644">
        <ele>17.799999237061</ele>
        <time>2022-04-03T09:25:29.000Z</time>
      </trkpt>
      <trkpt lat="47.30048" lon="-2.29635">
        <ele>17.799999237061</ele>
        <time>2022-04-03T09:25:36.000Z</time>
      </trkpt>
      <trkpt lat="47.30043" lon="-2.29635">
        <ele>17.799999237061</ele>
        <time>2022-04-03T09:25:37.000Z</time>
      </trkpt>
      <trkpt lat="47.30001" lon="-2.29635">
        <ele>17.799999237061</ele>
        <time>2022-04-03T09:25:45.000Z</time>
      </trkpt>
      <trkpt lat="47.29966" lon="-2.29638">
        <ele>17.799999237061</ele>
        <time>2022-04-03T09:25:53.000Z</time>
      </trkpt>
      <trkpt lat="47.29939" lon="-2.29646">
        <ele>17.799999237061</ele>
        <time>2022-04-03T09:25:59.000Z</time>
      </trkpt>
      <trkpt lat="47.29936" lon="-2.29649">
        <ele>17.799999237061</ele>
        <time>2022-04-03T09:26:00.000Z</time>
      </trkpt>
      <trkpt lat="47.29926" lon="-2.2966">
        <ele>17.799999237061</ele>
        <time>2022-04-03T09:26:03.000Z</time>
      </trkpt>
      <trkpt lat="47.29915" lon="-2.29674">
        <ele>18.200000762939</ele>
        <time>2022-04-03T09:26:07.000Z</time>
      </trkpt>
      <trkpt lat="47.29916" lon="-2.2968">
        <ele>18.60000038147</ele>
        <time>2022-04-03T09:26:08.000Z</time>
      </trkpt>
      <trkpt lat="47.29917" lon="-2.29686">
        <ele>19</ele>
        <time>2022-04-03T09:26:09.000Z</time>
      </trkpt>
      <trkpt lat="47.29919" lon="-2.29691">
        <ele>19.39999961853</ele>
        <time>2022-04-03T09:26:10.000Z</time>
      </trkpt>
      <trkpt lat="47.2992" lon="-2.29697">
        <ele>19.799999237061</ele>
        <time>2022-04-03T09:26:11.000Z</time>
      </trkpt>
      <trkpt lat="47.29933" lon="-2.29736">
        <ele>19.799999237061</ele>
        <time>2022-04-03T09:26:17.000Z</time>
      </trkpt>
      <trkpt lat="47.29938" lon="-2.29749">
        <ele>19.799999237061</ele>
        <time>2022-04-03T09:26:19.000Z</time>
      </trkpt>
      <trkpt lat="47.2995" lon="-2.29789">
        <ele>19.799999237061</ele>
        <time>2022-04-03T09:26:25.000Z</time>
      </trkpt>
      <trkpt lat="47.29944" lon="-2.29805">
        <ele>19.799999237061</ele>
        <time>2022-04-03T09:26:28.000Z</time>
      </trkpt>
      <trkpt lat="47.29934" lon="-2.29813">
        <ele>19.799999237061</ele>
        <time>2022-04-03T09:26:31.000Z</time>
      </trkpt>
      <trkpt lat="47.2993" lon="-2.29816">
        <ele>19.799999237061</ele>
        <time>2022-04-03T09:26:32.000Z</time>
      </trkpt>
      <trkpt lat="47.29909" lon="-2.29832">
        <ele>19.799999237061</ele>
        <time>2022-04-03T09:26:37.000Z</time>
      </trkpt>
      <trkpt lat="47.29902" lon="-2.29841">
        <ele>19.799999237061</ele>
        <time>2022-04-03T09:26:39.000Z</time>
      </trkpt>
      <trkpt lat="47.299" lon="-2.29855">
        <ele>19.799999237061</ele>
        <time>2022-04-03T09:26:41.000Z</time>
      </trkpt>
      <trkpt lat="47.29902" lon="-2.29879">
        <ele>19.799999237061</ele>
        <time>2022-04-03T09:26:44.000Z</time>
      </trkpt>
      <trkpt lat="47.29904" lon="-2.29896">
        <ele>19.799999237061</ele>
        <time>2022-04-03T09:26:46.000Z</time>
      </trkpt>
      <trkpt lat="47.29906" lon="-2.29922">
        <ele>19.799999237061</ele>
        <time>2022-04-03T09:26:49.000Z</time>
      </trkpt>
      <trkpt lat="47.299" lon="-2.29937">
        <ele>19.799999237061</ele>
        <time>2022-04-03T09:26:51.000Z</time>
      </trkpt>
      <trkpt lat="47.29889" lon="-2.29941">
        <ele>19.799999237061</ele>
        <time>2022-04-03T09:26:53.000Z</time>
      </trkpt>
      <trkpt lat="47.29884" lon="-2.29942">
        <ele>19.799999237061</ele>
        <time>2022-04-03T09:26:54.000Z</time>
      </trkpt>
      <trkpt lat="47.29849" lon="-2.29949">
        <ele>19.799999237061</ele>
        <time>2022-04-03T09:27:00.000Z</time>
      </trkpt>
      <trkpt lat="47.29844" lon="-2.29951">
        <ele>19.799999237061</ele>
        <time>2022-04-03T09:27:01.000Z</time>
      </trkpt>
      <trkpt lat="47.29828" lon="-2.29953">
        <ele>19.799999237061</ele>
        <time>2022-04-03T09:27:04.000Z</time>
      </trkpt>
      <trkpt lat="47.29816" lon="-2.29953">
        <ele>19.799999237061</ele>
        <time>2022-04-03T09:27:06.000Z</time>
      </trkpt>
      <trkpt lat="47.29787" lon="-2.29953">
        <ele>19.799999237061</ele>
        <time>2022-04-03T09:27:11.000Z</time>
      </trkpt>
      <trkpt lat="47.29781" lon="-2.29956">
        <ele>19.799999237061</ele>
        <time>2022-04-03T09:27:12.000Z</time>
      </trkpt>
      <trkpt lat="47.29755" lon="-2.29977">
        <ele>19.799999237061</ele>
        <time>2022-04-03T09:27:17.000Z</time>
      </trkpt>
      <trkpt lat="47.2972" lon="-2.29997">
        <ele>19.799999237061</ele>
        <time>2022-04-03T09:27:23.000Z</time>
      </trkpt>
      <trkpt lat="47.29707" lon="-2.3">
        <ele>19.799999237061</ele>
        <time>2022-04-03T09:27:25.000Z</time>
      </trkpt>
      <trkpt lat="47.29689" lon="-2.30001">
        <ele>19.799999237061</ele>
        <time>2022-04-03T09:27:28.000Z</time>
      </trkpt>
      <trkpt lat="47.29665" lon="-2.29997">
        <ele>19.799999237061</ele>
        <time>2022-04-03T09:27:32.000Z</time>
      </trkpt>
      <trkpt lat="47.29659" lon="-2.29994">
        <ele>19.799999237061</ele>
        <time>2022-04-03T09:27:33.000Z</time>
      </trkpt>
      <trkpt lat="47.29646" lon="-2.29983">
        <ele>19.799999237061</ele>
        <time>2022-04-03T09:27:36.000Z</time>
      </trkpt>
      <trkpt lat="47.29642" lon="-2.29982">
        <ele>19.799999237061</ele>
        <time>2022-04-03T09:27:37.000Z</time>
      </trkpt>
      <trkpt lat="47.29627" lon="-2.29992">
        <ele>19.799999237061</ele>
        <time>2022-04-03T09:27:40.000Z</time>
      </trkpt>
      <trkpt lat="47.29601" lon="-2.30002">
        <ele>19.799999237061</ele>
        <time>2022-04-03T09:27:44.000Z</time>
      </trkpt>
      <trkpt lat="47.29544" lon="-2.30021">
        <ele>19.799999237061</ele>
        <time>2022-04-03T09:27:52.000Z</time>
      </trkpt>
      <trkpt lat="47.29525" lon="-2.30027">
        <ele>19.799999237061</ele>
        <time>2022-04-03T09:27:55.000Z</time>
      </trkpt>
      <trkpt lat="47.29512" lon="-2.30023">
        <ele>19.799999237061</ele>
        <time>2022-04-03T09:27:57.000Z</time>
      </trkpt>
      <trkpt lat="47.29493" lon="-2.30024">
        <ele>19.799999237061</ele>
        <time>2022-04-03T09:28:00.000Z</time>
      </trkpt>
      <trkpt lat="47.29487" lon="-2.30025">
        <ele>19.799999237061</ele>
        <time>2022-04-03T09:28:01.000Z</time>
      </trkpt>
      <trkpt lat="47.29452" lon="-2.30027">
        <ele>19.799999237061</ele>
        <time>2022-04-03T09:28:07.000Z</time>
      </trkpt>
      <trkpt lat="47.29423" lon="-2.30028">
        <ele>19.799999237061</ele>
        <time>2022-04-03T09:28:12.000Z</time>
      </trkpt>
      <trkpt lat="47.29395" lon="-2.30023">
        <ele>19.799999237061</ele>
        <time>2022-04-03T09:28:17.000Z</time>
      </trkpt>
      <trkpt lat="47.29367" lon="-2.30011">
        <ele>19.799999237061</ele>
        <time>2022-04-03T09:28:23.000Z</time>
      </trkpt>
      <trkpt lat="47.29358" lon="-2.30006">
        <ele>20.200000762939</ele>
        <time>2022-04-03T09:28:26.000Z</time>
      </trkpt>
      <trkpt lat="47.29355" lon="-2.30005">
        <ele>20.799999237061</ele>
        <time>2022-04-03T09:28:27.000Z</time>
      </trkpt>
      <trkpt lat="47.29352" lon="-2.30003">
        <ele>21.200000762939</ele>
        <time>2022-04-03T09:28:28.000Z</time>
      </trkpt>
      <trkpt lat="47.29349" lon="-2.30002">
        <ele>21.60000038147</ele>
        <time>2022-04-03T09:28:29.000Z</time>
      </trkpt>
      <trkpt lat="47.29347" lon="-2.30003">
        <ele>22</ele>
        <time>2022-04-03T09:28:30.000Z</time>
      </trkpt>
      <trkpt lat="47.29344" lon="-2.30011">
        <ele>22</ele>
        <time>2022-04-03T09:28:32.000Z</time>
      </trkpt>
      <trkpt lat="47.29342" lon="-2.30028">
        <ele>22</ele>
        <time>2022-04-03T09:28:35.000Z</time>
      </trkpt>
      <trkpt lat="47.29341" lon="-2.30034">
        <ele>22</ele>
        <time>2022-04-03T09:28:36.000Z</time>
      </trkpt>
      <trkpt lat="47.29337" lon="-2.30086">
        <ele>22</ele>
        <time>2022-04-03T09:28:43.000Z</time>
      </trkpt>
      <trkpt lat="47.29334" lon="-2.30101">
        <ele>22</ele>
        <time>2022-04-03T09:28:45.000Z</time>
      </trkpt>
      <trkpt lat="47.29328" lon="-2.30114">
        <ele>22</ele>
        <time>2022-04-03T09:28:47.000Z</time>
      </trkpt>
      <trkpt lat="47.29313" lon="-2.30122">
        <ele>22</ele>
        <time>2022-04-03T09:28:50.000Z</time>
      </trkpt>
      <trkpt lat="47.29302" lon="-2.30123">
        <ele>22</ele>
        <time>2022-04-03T09:28:52.000Z</time>
      </trkpt>
      <trkpt lat="47.29277" lon="-2.30123">
        <ele>22</ele>
        <time>2022-04-03T09:28:57.000Z</time>
      </trkpt>
      <trkpt lat="47.29251" lon="-2.30125">
        <ele>22</ele>
        <time>2022-04-03T09:29:02.000Z</time>
      </trkpt>
      <trkpt lat="47.29241" lon="-2.30129">
        <ele>22</ele>
        <time>2022-04-03T09:29:04.000Z</time>
      </trkpt>
      <trkpt lat="47.29229" lon="-2.30145">
        <ele>22</ele>
        <time>2022-04-03T09:29:07.000Z</time>
      </trkpt>
      <trkpt lat="47.29224" lon="-2.30148">
        <ele>22</ele>
        <time>2022-04-03T09:29:08.000Z</time>
      </trkpt>
      <trkpt lat="47.29197" lon="-2.30163">
        <ele>22</ele>
        <time>2022-04-03T09:29:13.000Z</time>
      </trkpt>
      <trkpt lat="47.29161" lon="-2.30184">
        <ele>22</ele>
        <time>2022-04-03T09:29:20.000Z</time>
      </trkpt>
      <trkpt lat="47.29125" lon="-2.30205">
        <ele>22</ele>
        <time>2022-04-03T09:29:27.000Z</time>
      </trkpt>
      <trkpt lat="47.29104" lon="-2.30216">
        <ele>22</ele>
        <time>2022-04-03T09:29:31.000Z</time>
      </trkpt>
      <trkpt lat="47.29093" lon="-2.30223">
        <ele>22</ele>
        <time>2022-04-03T09:29:33.000Z</time>
      </trkpt>
      <trkpt lat="47.29082" lon="-2.30226">
        <ele>22</ele>
        <time>2022-04-03T09:29:35.000Z</time>
      </trkpt>
      <trkpt lat="47.29072" lon="-2.30231">
        <ele>22</ele>
        <time>2022-04-03T09:29:37.000Z</time>
      </trkpt>
      <trkpt lat="47.29061" lon="-2.30237">
        <ele>22</ele>
        <time>2022-04-03T09:29:39.000Z</time>
      </trkpt>
      <trkpt lat="47.29045" lon="-2.30242">
        <ele>22</ele>
        <time>2022-04-03T09:29:42.000Z</time>
      </trkpt>
      <trkpt lat="47.29034" lon="-2.30244">
        <ele>22.39999961853</ele>
        <time>2022-04-03T09:29:44.000Z</time>
      </trkpt>
      <trkpt lat="47.29028" lon="-2.30246">
        <ele>22.799999237061</ele>
        <time>2022-04-03T09:29:45.000Z</time>
      </trkpt>
      <trkpt lat="47.29023" lon="-2.30247">
        <ele>23.60000038147</ele>
        <time>2022-04-03T09:29:46.000Z</time>
      </trkpt>
      <trkpt lat="47.29017" lon="-2.30249">
        <ele>24</ele>
        <time>2022-04-03T09:29:47.000Z</time>
      </trkpt>
      <trkpt lat="47.29001" lon="-2.30254">
        <ele>24</ele>
        <time>2022-04-03T09:29:50.000Z</time>
      </trkpt>
      <trkpt lat="47.2899" lon="-2.30255">
        <ele>24</ele>
        <time>2022-04-03T09:29:52.000Z</time>
      </trkpt>
      <trkpt lat="47.2898" lon="-2.30255">
        <ele>24</ele>
        <time>2022-04-03T09:29:54.000Z</time>
      </trkpt>
      <trkpt lat="47.28975" lon="-2.30266">
        <ele>24</ele>
        <time>2022-04-03T09:29:56.000Z</time>
      </trkpt>
      <trkpt lat="47.28975" lon="-2.30289">
        <ele>24</ele>
        <time>2022-04-03T09:29:59.000Z</time>
      </trkpt>
      <trkpt lat="47.28977" lon="-2.30312">
        <ele>24</ele>
        <time>2022-04-03T09:30:02.000Z</time>
      </trkpt>
      <trkpt lat="47.28979" lon="-2.30335">
        <ele>24</ele>
        <time>2022-04-03T09:30:05.000Z</time>
      </trkpt>
      <trkpt lat="47.28978" lon="-2.30388">
        <ele>24</ele>
        <time>2022-04-03T09:30:12.000Z</time>
      </trkpt>
      <trkpt lat="47.28979" lon="-2.30404">
        <ele>24</ele>
        <time>2022-04-03T09:30:14.000Z</time>
      </trkpt>
      <trkpt lat="47.2898" lon="-2.30411">
        <ele>24.39999961853</ele>
        <time>2022-04-03T09:30:15.000Z</time>
      </trkpt>
      <trkpt lat="47.2898" lon="-2.30418">
        <ele>24.799999237061</ele>
        <time>2022-04-03T09:30:16.000Z</time>
      </trkpt>
      <trkpt lat="47.28981" lon="-2.30426">
        <ele>25.200000762939</ele>
        <time>2022-04-03T09:30:17.000Z</time>
      </trkpt>
      <trkpt lat="47.28982" lon="-2.30433">
        <ele>25.60000038147</ele>
        <time>2022-04-03T09:30:18.000Z</time>
      </trkpt>
      <trkpt lat="47.28983" lon="-2.30441">
        <ele>26.200000762939</ele>
        <time>2022-04-03T09:30:19.000Z</time>
      </trkpt>
      <trkpt lat="47.28988" lon="-2.30487">
        <ele>26.200000762939</ele>
        <time>2022-04-03T09:30:25.000Z</time>
      </trkpt>
      <trkpt lat="47.28993" lon="-2.30534">
        <ele>26.200000762939</ele>
        <time>2022-04-03T09:30:31.000Z</time>
      </trkpt>
      <trkpt lat="47.28997" lon="-2.30571">
        <ele>26.200000762939</ele>
        <time>2022-04-03T09:30:36.000Z</time>
      </trkpt>
      <trkpt lat="47.29" lon="-2.30624">
        <ele>26.200000762939</ele>
        <time>2022-04-03T09:30:42.000Z</time>
      </trkpt>
      <trkpt lat="47.28999" lon="-2.30632">
        <ele>26.200000762939</ele>
        <time>2022-04-03T09:30:43.000Z</time>
      </trkpt>
      <trkpt lat="47.29001" lon="-2.30657">
        <ele>26.200000762939</ele>
        <time>2022-04-03T09:30:46.000Z</time>
      </trkpt>
      <trkpt lat="47.29002" lon="-2.30666">
        <ele>26.200000762939</ele>
        <time>2022-04-03T09:30:47.000Z</time>
      </trkpt>
      <trkpt lat="47.29004" lon="-2.3071">
        <ele>26.200000762939</ele>
        <time>2022-04-03T09:30:52.000Z</time>
      </trkpt>
      <trkpt lat="47.29004" lon="-2.30718">
        <ele>26.200000762939</ele>
        <time>2022-04-03T09:30:53.000Z</time>
      </trkpt>
      <trkpt lat="47.29006" lon="-2.30753">
        <ele>26.200000762939</ele>
        <time>2022-04-03T09:30:57.000Z</time>
      </trkpt>
      <trkpt lat="47.29008" lon="-2.30761">
        <ele>26.200000762939</ele>
        <time>2022-04-03T09:30:58.000Z</time>
      </trkpt>
      <trkpt lat="47.29016" lon="-2.30803">
        <ele>26.200000762939</ele>
        <time>2022-04-03T09:31:03.000Z</time>
      </trkpt>
      <trkpt lat="47.29019" lon="-2.3082">
        <ele>26.200000762939</ele>
        <time>2022-04-03T09:31:05.000Z</time>
      </trkpt>
      <trkpt lat="47.29023" lon="-2.30851">
        <ele>26.200000762939</ele>
        <time>2022-04-03T09:31:09.000Z</time>
      </trkpt>
      <trkpt lat="47.29026" lon="-2.30881">
        <ele>26.60000038147</ele>
        <time>2022-04-03T09:31:13.000Z</time>
      </trkpt>
      <trkpt lat="47.29027" lon="-2.30888">
        <ele>27</ele>
        <time>2022-04-03T09:31:14.000Z</time>
      </trkpt>
      <trkpt lat="47.29027" lon="-2.30896">
        <ele>27.39999961853</ele>
        <time>2022-04-03T09:31:15.000Z</time>
      </trkpt>
      <trkpt lat="47.29028" lon="-2.30903">
        <ele>27.799999237061</ele>
        <time>2022-04-03T09:31:16.000Z</time>
      </trkpt>
      <trkpt lat="47.29028" lon="-2.30911">
        <ele>28.200000762939</ele>
        <time>2022-04-03T09:31:17.000Z</time>
      </trkpt>
      <trkpt lat="47.29031" lon="-2.30942">
        <ele>28.200000762939</ele>
        <time>2022-04-03T09:31:21.000Z</time>
      </trkpt>
      <trkpt lat="47.29031" lon="-2.3095">
        <ele>28.60000038147</ele>
        <time>2022-04-03T09:31:22.000Z</time>
      </trkpt>
      <trkpt lat="47.29031" lon="-2.30958">
        <ele>29</ele>
        <time>2022-04-03T09:31:23.000Z</time>
      </trkpt>
      <trkpt lat="47.29032" lon="-2.30966">
        <ele>29.799999237061</ele>
        <time>2022-04-03T09:31:24.000Z</time>
      </trkpt>
      <trkpt lat="47.29032" lon="-2.30973">
        <ele>30.39999961853</ele>
        <time>2022-04-03T09:31:25.000Z</time>
      </trkpt>
      <trkpt lat="47.29032" lon="-2.30997">
        <ele>30.799999237061</ele>
        <time>2022-04-03T09:31:28.000Z</time>
      </trkpt>
      <trkpt lat="47.29032" lon="-2.31004">
        <ele>31.200000762939</ele>
        <time>2022-04-03T09:31:29.000Z</time>
      </trkpt>
      <trkpt lat="47.29033" lon="-2.31011">
        <ele>31.60000038147</ele>
        <time>2022-04-03T09:31:30.000Z</time>
      </trkpt>
      <trkpt lat="47.29032" lon="-2.31019">
        <ele>32</ele>
        <time>2022-04-03T09:31:31.000Z</time>
      </trkpt>
      <trkpt lat="47.29032" lon="-2.31026">
        <ele>32.400001525879</ele>
        <time>2022-04-03T09:31:32.000Z</time>
      </trkpt>
      <trkpt lat="47.29033" lon="-2.31078">
        <ele>32.799999237061</ele>
        <time>2022-04-03T09:31:39.000Z</time>
      </trkpt>
      <trkpt lat="47.29033" lon="-2.31085">
        <ele>33.400001525879</ele>
        <time>2022-04-03T09:31:40.000Z</time>
      </trkpt>
      <trkpt lat="47.29033" lon="-2.31093">
        <ele>33.799999237061</ele>
        <time>2022-04-03T09:31:41.000Z</time>
      </trkpt>
      <trkpt lat="47.29034" lon="-2.311">
        <ele>34.200000762939</ele>
        <time>2022-04-03T09:31:42.000Z</time>
      </trkpt>
      <trkpt lat="47.29034" lon="-2.31107">
        <ele>34.799999237061</ele>
        <time>2022-04-03T09:31:43.000Z</time>
      </trkpt>
      <trkpt lat="47.29036" lon="-2.31135">
        <ele>34.799999237061</ele>
        <time>2022-04-03T09:31:47.000Z</time>
      </trkpt>
      <trkpt lat="47.29037" lon="-2.31149">
        <ele>35.200000762939</ele>
        <time>2022-04-03T09:31:49.000Z</time>
      </trkpt>
      <trkpt lat="47.29038" lon="-2.31157">
        <ele>35.599998474121</ele>
        <time>2022-04-03T09:31:50.000Z</time>
      </trkpt>
      <trkpt lat="47.29039" lon="-2.31164">
        <ele>36</ele>
        <time>2022-04-03T09:31:51.000Z</time>
      </trkpt>
      <trkpt lat="47.2904" lon="-2.31171">
        <ele>36.599998474121</ele>
        <time>2022-04-03T09:31:52.000Z</time>
      </trkpt>
      <trkpt lat="47.29041" lon="-2.31178">
        <ele>37</ele>
        <time>2022-04-03T09:31:53.000Z</time>
      </trkpt>
      <trkpt lat="47.29042" lon="-2.31193">
        <ele>37</ele>
        <time>2022-04-03T09:31:55.000Z</time>
      </trkpt>
      <trkpt lat="47.29043" lon="-2.31215">
        <ele>37</ele>
        <time>2022-04-03T09:31:58.000Z</time>
      </trkpt>
      <trkpt lat="47.2904" lon="-2.3123">
        <ele>37</ele>
        <time>2022-04-03T09:32:00.000Z</time>
      </trkpt>
      <trkpt lat="47.29028" lon="-2.31259">
        <ele>37</ele>
        <time>2022-04-03T09:32:04.000Z</time>
      </trkpt>
      <trkpt lat="47.29025" lon="-2.31265">
        <ele>37</ele>
        <time>2022-04-03T09:32:05.000Z</time>
      </trkpt>
      <trkpt lat="47.29001" lon="-2.31321">
        <ele>37</ele>
        <time>2022-04-03T09:32:13.000Z</time>
      </trkpt>
      <trkpt lat="47.28997" lon="-2.31327">
        <ele>37</ele>
        <time>2022-04-03T09:32:14.000Z</time>
      </trkpt>
      <trkpt lat="47.28976" lon="-2.31362">
        <ele>37</ele>
        <time>2022-04-03T09:32:20.000Z</time>
      </trkpt>
      <trkpt lat="47.28971" lon="-2.31367">
        <ele>37.400001525879</ele>
        <time>2022-04-03T09:32:21.000Z</time>
      </trkpt>
      <trkpt lat="47.28967" lon="-2.31371">
        <ele>37.799999237061</ele>
        <time>2022-04-03T09:32:22.000Z</time>
      </trkpt>
      <trkpt lat="47.28962" lon="-2.31376">
        <ele>38.200000762939</ele>
        <time>2022-04-03T09:32:23.000Z</time>
      </trkpt>
      <trkpt lat="47.28957" lon="-2.3138">
        <ele>38.599998474121</ele>
        <time>2022-04-03T09:32:24.000Z</time>
      </trkpt>
      <trkpt lat="47.28952" lon="-2.31384">
        <ele>39</ele>
        <time>2022-04-03T09:32:25.000Z</time>
      </trkpt>
      <trkpt lat="47.28946" lon="-2.31387">
        <ele>39</ele>
        <time>2022-04-03T09:32:26.000Z</time>
      </trkpt>
      <trkpt lat="47.2894" lon="-2.3139">
        <ele>39</ele>
        <time>2022-04-03T09:32:27.000Z</time>
      </trkpt>
      <trkpt lat="47.28923" lon="-2.31392">
        <ele>39</ele>
        <time>2022-04-03T09:32:30.000Z</time>
      </trkpt>
      <trkpt lat="47.28882" lon="-2.31395">
        <ele>39</ele>
        <time>2022-04-03T09:32:37.000Z</time>
      </trkpt>
      <trkpt lat="47.28876" lon="-2.31396">
        <ele>39</ele>
        <time>2022-04-03T09:32:38.000Z</time>
      </trkpt>
      <trkpt lat="47.28849" lon="-2.31407">
        <ele>39</ele>
        <time>2022-04-03T09:32:43.000Z</time>
      </trkpt>
      <trkpt lat="47.28838" lon="-2.31413">
        <ele>39</ele>
        <time>2022-04-03T09:32:45.000Z</time>
      </trkpt>
      <trkpt lat="47.28814" lon="-2.31427">
        <ele>39</ele>
        <time>2022-04-03T09:32:49.000Z</time>
      </trkpt>
      <trkpt lat="47.28774" lon="-2.31455">
        <ele>39</ele>
        <time>2022-04-03T09:32:56.000Z</time>
      </trkpt>
      <trkpt lat="47.28762" lon="-2.31462">
        <ele>39.400001525879</ele>
        <time>2022-04-03T09:32:58.000Z</time>
      </trkpt>
      <trkpt lat="47.28756" lon="-2.31465">
        <ele>39.799999237061</ele>
        <time>2022-04-03T09:32:59.000Z</time>
      </trkpt>
      <trkpt lat="47.28749" lon="-2.31468">
        <ele>40.200000762939</ele>
        <time>2022-04-03T09:33:00.000Z</time>
      </trkpt>
      <trkpt lat="47.28743" lon="-2.31472">
        <ele>40.599998474121</ele>
        <time>2022-04-03T09:33:01.000Z</time>
      </trkpt>
      <trkpt lat="47.28737" lon="-2.31476">
        <ele>41</ele>
        <time>2022-04-03T09:33:02.000Z</time>
      </trkpt>
      <trkpt lat="47.28699" lon="-2.31494">
        <ele>41</ele>
        <time>2022-04-03T09:33:08.000Z</time>
      </trkpt>
      <trkpt lat="47.28682" lon="-2.31489">
        <ele>41</ele>
        <time>2022-04-03T09:33:11.000Z</time>
      </trkpt>
      <trkpt lat="47.28671" lon="-2.3147">
        <ele>41</ele>
        <time>2022-04-03T09:33:14.000Z</time>
      </trkpt>
      <trkpt lat="47.28667" lon="-2.31457">
        <ele>41.400001525879</ele>
        <time>2022-04-03T09:33:16.000Z</time>
      </trkpt>
      <trkpt lat="47.28664" lon="-2.31453">
        <ele>42</ele>
        <time>2022-04-03T09:33:17.000Z</time>
      </trkpt>
      <trkpt lat="47.2866" lon="-2.31451">
        <ele>42.400001525879</ele>
        <time>2022-04-03T09:33:18.000Z</time>
      </trkpt>
      <trkpt lat="47.28656" lon="-2.31453">
        <ele>42.799999237061</ele>
        <time>2022-04-03T09:33:19.000Z</time>
      </trkpt>
      <trkpt lat="47.28652" lon="-2.31455">
        <ele>43.200000762939</ele>
        <time>2022-04-03T09:33:20.000Z</time>
      </trkpt>
      <trkpt lat="47.28647" lon="-2.31457">
        <ele>43.200000762939</ele>
        <time>2022-04-03T09:33:21.000Z</time>
      </trkpt>
      <trkpt lat="47.28629" lon="-2.31466">
        <ele>43.200000762939</ele>
        <time>2022-04-03T09:33:25.000Z</time>
      </trkpt>
      <trkpt lat="47.2862" lon="-2.31474">
        <ele>43.200000762939</ele>
        <time>2022-04-03T09:33:27.000Z</time>
      </trkpt>
      <trkpt lat="47.2862" lon="-2.31497">
        <ele>43.200000762939</ele>
        <time>2022-04-03T09:33:30.000Z</time>
      </trkpt>
      <trkpt lat="47.28621" lon="-2.31505">
        <ele>43.200000762939</ele>
        <time>2022-04-03T09:33:31.000Z</time>
      </trkpt>
      <trkpt lat="47.28623" lon="-2.31558">
        <ele>43.200000762939</ele>
        <time>2022-04-03T09:33:37.000Z</time>
      </trkpt>
      <trkpt lat="47.28622" lon="-2.31629">
        <ele>43.200000762939</ele>
        <time>2022-04-03T09:33:45.000Z</time>
      </trkpt>
      <trkpt lat="47.28624" lon="-2.31673">
        <ele>43.200000762939</ele>
        <time>2022-04-03T09:33:50.000Z</time>
      </trkpt>
      <trkpt lat="47.28625" lon="-2.31682">
        <ele>43.200000762939</ele>
        <time>2022-04-03T09:33:51.000Z</time>
      </trkpt>
      <trkpt lat="47.28636" lon="-2.31751">
        <ele>43.200000762939</ele>
        <time>2022-04-03T09:33:59.000Z</time>
      </trkpt>
      <trkpt lat="47.28645" lon="-2.3182">
        <ele>43.200000762939</ele>
        <time>2022-04-03T09:34:07.000Z</time>
      </trkpt>
      <trkpt lat="47.28654" lon="-2.31896">
        <ele>43.200000762939</ele>
        <time>2022-04-03T09:34:16.000Z</time>
      </trkpt>
      <trkpt lat="47.28663" lon="-2.31967">
        <ele>43.200000762939</ele>
        <time>2022-04-03T09:34:24.000Z</time>
      </trkpt>
      <trkpt lat="47.28668" lon="-2.31992">
        <ele>42.799999237061</ele>
        <time>2022-04-03T09:34:27.000Z</time>
      </trkpt>
      <trkpt lat="47.28669" lon="-2.32001">
        <ele>42.400001525879</ele>
        <time>2022-04-03T09:34:28.000Z</time>
      </trkpt>
      <trkpt lat="47.28671" lon="-2.32009">
        <ele>42</ele>
        <time>2022-04-03T09:34:29.000Z</time>
      </trkpt>
      <trkpt lat="47.28672" lon="-2.32017">
        <ele>41.599998474121</ele>
        <time>2022-04-03T09:34:30.000Z</time>
      </trkpt>
      <trkpt lat="47.28675" lon="-2.32025">
        <ele>41.200000762939</ele>
        <time>2022-04-03T09:34:31.000Z</time>
      </trkpt>
      <trkpt lat="47.28677" lon="-2.32034">
        <ele>41.200000762939</ele>
        <time>2022-04-03T09:34:32.000Z</time>
      </trkpt>
      <trkpt lat="47.28693" lon="-2.32102">
        <ele>41.200000762939</ele>
        <time>2022-04-03T09:34:40.000Z</time>
      </trkpt>
      <trkpt lat="47.28694" lon="-2.32131">
        <ele>41.200000762939</ele>
        <time>2022-04-03T09:34:43.000Z</time>
      </trkpt>
      <trkpt lat="47.28691" lon="-2.32149">
        <ele>41.200000762939</ele>
        <time>2022-04-03T09:34:45.000Z</time>
      </trkpt>
      <trkpt lat="47.28676" lon="-2.32183">
        <ele>41.200000762939</ele>
        <time>2022-04-03T09:34:49.000Z</time>
      </trkpt>
      <trkpt lat="47.28672" lon="-2.32191">
        <ele>41.200000762939</ele>
        <time>2022-04-03T09:34:50.000Z</time>
      </trkpt>
      <trkpt lat="47.28667" lon="-2.322">
        <ele>40.799999237061</ele>
        <time>2022-04-03T09:34:51.000Z</time>
      </trkpt>
      <trkpt lat="47.28662" lon="-2.32207">
        <ele>40.200000762939</ele>
        <time>2022-04-03T09:34:52.000Z</time>
      </trkpt>
      <trkpt lat="47.28657" lon="-2.32213">
        <ele>39.799999237061</ele>
        <time>2022-04-03T09:34:53.000Z</time>
      </trkpt>
      <trkpt lat="47.28651" lon="-2.3222">
        <ele>39.400001525879</ele>
        <time>2022-04-03T09:34:54.000Z</time>
      </trkpt>
      <trkpt lat="47.28645" lon="-2.32225">
        <ele>39</ele>
        <time>2022-04-03T09:34:55.000Z</time>
      </trkpt>
      <trkpt lat="47.28631" lon="-2.32235">
        <ele>39</ele>
        <time>2022-04-03T09:34:57.000Z</time>
      </trkpt>
      <trkpt lat="47.28623" lon="-2.3224">
        <ele>38.599998474121</ele>
        <time>2022-04-03T09:34:58.000Z</time>
      </trkpt>
      <trkpt lat="47.28616" lon="-2.32244">
        <ele>38.200000762939</ele>
        <time>2022-04-03T09:34:59.000Z</time>
      </trkpt>
      <trkpt lat="47.28609" lon="-2.32249">
        <ele>37.599998474121</ele>
        <time>2022-04-03T09:35:00.000Z</time>
      </trkpt>
      <trkpt lat="47.28601" lon="-2.32254">
        <ele>37.200000762939</ele>
        <time>2022-04-03T09:35:01.000Z</time>
      </trkpt>
      <trkpt lat="47.28594" lon="-2.32259">
        <ele>36.799999237061</ele>
        <time>2022-04-03T09:35:02.000Z</time>
      </trkpt>
      <trkpt lat="47.28579" lon="-2.32267">
        <ele>36.799999237061</ele>
        <time>2022-04-03T09:35:04.000Z</time>
      </trkpt>
      <trkpt lat="47.28565" lon="-2.32279">
        <ele>36.799999237061</ele>
        <time>2022-04-03T09:35:06.000Z</time>
      </trkpt>
      <trkpt lat="47.28552" lon="-2.32293">
        <ele>36.799999237061</ele>
        <time>2022-04-03T09:35:08.000Z</time>
      </trkpt>
      <trkpt lat="47.2854" lon="-2.32307">
        <ele>36.799999237061</ele>
        <time>2022-04-03T09:35:10.000Z</time>
      </trkpt>
      <trkpt lat="47.28519" lon="-2.32326">
        <ele>36.799999237061</ele>
        <time>2022-04-03T09:35:13.000Z</time>
      </trkpt>
      <trkpt lat="47.28504" lon="-2.32338">
        <ele>36.400001525879</ele>
        <time>2022-04-03T09:35:15.000Z</time>
      </trkpt>
      <trkpt lat="47.28496" lon="-2.32343">
        <ele>36</ele>
        <time>2022-04-03T09:35:16.000Z</time>
      </trkpt>
      <trkpt lat="47.28488" lon="-2.32349">
        <ele>35.599998474121</ele>
        <time>2022-04-03T09:35:17.000Z</time>
      </trkpt>
      <trkpt lat="47.2848" lon="-2.32354">
        <ele>35.200000762939</ele>
        <time>2022-04-03T09:35:18.000Z</time>
      </trkpt>
      <trkpt lat="47.28472" lon="-2.32358">
        <ele>34.799999237061</ele>
        <time>2022-04-03T09:35:19.000Z</time>
      </trkpt>
      <trkpt lat="47.28419" lon="-2.32393">
        <ele>34.799999237061</ele>
        <time>2022-04-03T09:35:26.000Z</time>
      </trkpt>
      <trkpt lat="47.28406" lon="-2.32401">
        <ele>34.400001525879</ele>
        <time>2022-04-03T09:35:28.000Z</time>
      </trkpt>
      <trkpt lat="47.284" lon="-2.32405">
        <ele>33.799999237061</ele>
        <time>2022-04-03T09:35:29.000Z</time>
      </trkpt>
      <trkpt lat="47.28395" lon="-2.32408">
        <ele>33.400001525879</ele>
        <time>2022-04-03T09:35:30.000Z</time>
      </trkpt>
      <trkpt lat="47.2839" lon="-2.32411">
        <ele>32.599998474121</ele>
        <time>2022-04-03T09:35:31.000Z</time>
      </trkpt>
      <trkpt lat="47.28378" lon="-2.32419">
        <ele>32.599998474121</ele>
        <time>2022-04-03T09:35:34.000Z</time>
      </trkpt>
      <trkpt lat="47.28376" lon="-2.32425">
        <ele>32.599998474121</ele>
        <time>2022-04-03T09:35:37.000Z</time>
      </trkpt>
      <trkpt lat="47.28376" lon="-2.32437">
        <ele>32.599998474121</ele>
        <time>2022-04-03T09:35:44.000Z</time>
      </trkpt>
      <trkpt lat="47.28379" lon="-2.32458">
        <ele>32.599998474121</ele>
        <time>2022-04-03T09:35:49.000Z</time>
      </trkpt>
      <trkpt lat="47.28387" lon="-2.32495">
        <ele>32.599998474121</ele>
        <time>2022-04-03T09:35:54.000Z</time>
      </trkpt>
      <trkpt lat="47.28391" lon="-2.32522">
        <ele>32.599998474121</ele>
        <time>2022-04-03T09:35:58.000Z</time>
      </trkpt>
      <trkpt lat="47.28389" lon="-2.32522">
        <ele>32.599998474121</ele>
        <time>2022-04-03T09:35:59.000Z</time>
      </trkpt>
      <trkpt lat="47.28385" lon="-2.32522">
        <ele>32.200000762939</ele>
        <time>2022-04-03T09:36:00.000Z</time>
      </trkpt>
      <trkpt lat="47.2838" lon="-2.32522">
        <ele>31.799999237061</ele>
        <time>2022-04-03T09:36:01.000Z</time>
      </trkpt>
      <trkpt lat="47.28374" lon="-2.32522">
        <ele>31.39999961853</ele>
        <time>2022-04-03T09:36:02.000Z</time>
      </trkpt>
      <trkpt lat="47.28368" lon="-2.32521">
        <ele>31</ele>
        <time>2022-04-03T09:36:03.000Z</time>
      </trkpt>
      <trkpt lat="47.28362" lon="-2.3252">
        <ele>30.60000038147</ele>
        <time>2022-04-03T09:36:04.000Z</time>
      </trkpt>
      <trkpt lat="47.28334" lon="-2.32519">
        <ele>30.60000038147</ele>
        <time>2022-04-03T09:36:09.000Z</time>
      </trkpt>
      <trkpt lat="47.28292" lon="-2.3252">
        <ele>30.60000038147</ele>
        <time>2022-04-03T09:36:16.000Z</time>
      </trkpt>
      <trkpt lat="47.28286" lon="-2.3252">
        <ele>30.60000038147</ele>
        <time>2022-04-03T09:36:17.000Z</time>
      </trkpt>
      <trkpt lat="47.28267" lon="-2.32516">
        <ele>30.60000038147</ele>
        <time>2022-04-03T09:36:20.000Z</time>
      </trkpt>
      <trkpt lat="47.28245" lon="-2.32497">
        <ele>30.60000038147</ele>
        <time>2022-04-03T09:36:24.000Z</time>
      </trkpt>
      <trkpt lat="47.28215" lon="-2.32469">
        <ele>30.60000038147</ele>
        <time>2022-04-03T09:36:30.000Z</time>
      </trkpt>
      <trkpt lat="47.28187" lon="-2.32456">
        <ele>30.60000038147</ele>
        <time>2022-04-03T09:36:35.000Z</time>
      </trkpt>
      <trkpt lat="47.2816" lon="-2.32453">
        <ele>30.60000038147</ele>
        <time>2022-04-03T09:36:40.000Z</time>
      </trkpt>
      <trkpt lat="47.28132" lon="-2.32457">
        <ele>31</ele>
        <time>2022-04-03T09:36:45.000Z</time>
      </trkpt>
      <trkpt lat="47.28127" lon="-2.32457">
        <ele>31.39999961853</ele>
        <time>2022-04-03T09:36:46.000Z</time>
      </trkpt>
      <trkpt lat="47.28122" lon="-2.32456">
        <ele>31.799999237061</ele>
        <time>2022-04-03T09:36:47.000Z</time>
      </trkpt>
      <trkpt lat="47.28117" lon="-2.32454">
        <ele>32.200000762939</ele>
        <time>2022-04-03T09:36:48.000Z</time>
      </trkpt>
      <trkpt lat="47.28112" lon="-2.32452">
        <ele>32.599998474121</ele>
        <time>2022-04-03T09:36:49.000Z</time>
      </trkpt>
      <trkpt lat="47.28103" lon="-2.32446">
        <ele>32.599998474121</ele>
        <time>2022-04-03T09:36:51.000Z</time>
      </trkpt>
      <trkpt lat="47.28085" lon="-2.32434">
        <ele>32.599998474121</ele>
        <time>2022-04-03T09:36:55.000Z</time>
      </trkpt>
      <trkpt lat="47.28079" lon="-2.32433">
        <ele>32.599998474121</ele>
        <time>2022-04-03T09:36:56.000Z</time>
      </trkpt>
      <trkpt lat="47.28045" lon="-2.32431">
        <ele>32.599998474121</ele>
        <time>2022-04-03T09:37:02.000Z</time>
      </trkpt>
      <trkpt lat="47.28015" lon="-2.32427">
        <ele>32.599998474121</ele>
        <time>2022-04-03T09:37:07.000Z</time>
      </trkpt>
      <trkpt lat="47.28004" lon="-2.32424">
        <ele>32.599998474121</ele>
        <time>2022-04-03T09:37:09.000Z</time>
      </trkpt>
      <trkpt lat="47.27971" lon="-2.32412">
        <ele>32.599998474121</ele>
        <time>2022-04-03T09:37:15.000Z</time>
      </trkpt>
      <trkpt lat="47.27956" lon="-2.32406">
        <ele>32.599998474121</ele>
        <time>2022-04-03T09:37:18.000Z</time>
      </trkpt>
      <trkpt lat="47.27951" lon="-2.32405">
        <ele>32.599998474121</ele>
        <time>2022-04-03T09:37:19.000Z</time>
      </trkpt>
      <trkpt lat="47.27938" lon="-2.32402">
        <ele>32.599998474121</ele>
        <time>2022-04-03T09:37:23.000Z</time>
      </trkpt>
      <trkpt lat="47.27934" lon="-2.324">
        <ele>32.599998474121</ele>
        <time>2022-04-03T09:37:28.000Z</time>
      </trkpt>
      <trkpt lat="47.27933" lon="-2.324">
        <ele>32.599998474121</ele>
        <time>2022-04-03T09:37:30.000Z</time>
      </trkpt>
      <trkpt lat="47.27901" lon="-2.32403">
        <ele>32.599998474121</ele>
        <time>2022-04-03T09:38:42.000Z</time>
      </trkpt>
      <trkpt lat="47.27898" lon="-2.3241">
        <ele>32.599998474121</ele>
        <time>2022-04-03T09:38:44.000Z</time>
      </trkpt>
      <trkpt lat="47.27886" lon="-2.32428">
        <ele>32.599998474121</ele>
        <time>2022-04-03T09:38:49.000Z</time>
      </trkpt>
      <trkpt lat="47.2787" lon="-2.32444">
        <ele>32.599998474121</ele>
        <time>2022-04-03T09:38:55.000Z</time>
      </trkpt>
      <trkpt lat="47.27857" lon="-2.32464">
        <ele>32.599998474121</ele>
        <time>2022-04-03T09:38:59.000Z</time>
      </trkpt>
      <trkpt lat="47.27843" lon="-2.32486">
        <ele>32.599998474121</ele>
        <time>2022-04-03T09:39:05.000Z</time>
      </trkpt>
      <trkpt lat="47.27827" lon="-2.32509">
        <ele>32.599998474121</ele>
        <time>2022-04-03T09:39:11.000Z</time>
      </trkpt>
      <trkpt lat="47.27823" lon="-2.32514">
        <ele>33</ele>
        <time>2022-04-03T09:39:12.000Z</time>
      </trkpt>
      <trkpt lat="47.2782" lon="-2.32518">
        <ele>33.400001525879</ele>
        <time>2022-04-03T09:39:13.000Z</time>
      </trkpt>
      <trkpt lat="47.27818" lon="-2.32522">
        <ele>33.799999237061</ele>
        <time>2022-04-03T09:39:14.000Z</time>
      </trkpt>
      <trkpt lat="47.27815" lon="-2.32526">
        <ele>34.200000762939</ele>
        <time>2022-04-03T09:39:15.000Z</time>
      </trkpt>
      <trkpt lat="47.27813" lon="-2.3253">
        <ele>34.599998474121</ele>
        <time>2022-04-03T09:39:16.000Z</time>
      </trkpt>
      <trkpt lat="47.27808" lon="-2.32538">
        <ele>34.599998474121</ele>
        <time>2022-04-03T09:39:18.000Z</time>
      </trkpt>
      <trkpt lat="47.27789" lon="-2.32568">
        <ele>34.599998474121</ele>
        <time>2022-04-03T09:39:24.000Z</time>
      </trkpt>
      <trkpt lat="47.27778" lon="-2.32584">
        <ele>34.599998474121</ele>
        <time>2022-04-03T09:39:27.000Z</time>
      </trkpt>
      <trkpt lat="47.27773" lon="-2.32595">
        <ele>34.599998474121</ele>
        <time>2022-04-03T09:39:29.000Z</time>
      </trkpt>
      <trkpt lat="47.27758" lon="-2.32621">
        <ele>34.200000762939</ele>
        <time>2022-04-03T09:39:34.000Z</time>
      </trkpt>
      <trkpt lat="47.27756" lon="-2.32628">
        <ele>33.799999237061</ele>
        <time>2022-04-03T09:39:35.000Z</time>
      </trkpt>
      <trkpt lat="47.27753" lon="-2.32635">
        <ele>33.400001525879</ele>
        <time>2022-04-03T09:39:36.000Z</time>
      </trkpt>
      <trkpt lat="47.27751" lon="-2.32642">
        <ele>32.599998474121</ele>
        <time>2022-04-03T09:39:37.000Z</time>
      </trkpt>
      <trkpt lat="47.27749" lon="-2.3265">
        <ele>32.200000762939</ele>
        <time>2022-04-03T09:39:38.000Z</time>
      </trkpt>
      <trkpt lat="47.27745" lon="-2.32658">
        <ele>31.799999237061</ele>
        <time>2022-04-03T09:39:39.000Z</time>
      </trkpt>
      <trkpt lat="47.27742" lon="-2.32665">
        <ele>31.39999961853</ele>
        <time>2022-04-03T09:39:40.000Z</time>
      </trkpt>
      <trkpt lat="47.27738" lon="-2.32671">
        <ele>30.60000038147</ele>
        <time>2022-04-03T09:39:41.000Z</time>
      </trkpt>
      <trkpt lat="47.27734" lon="-2.32677">
        <ele>30</ele>
        <time>2022-04-03T09:39:42.000Z</time>
      </trkpt>
      <trkpt lat="47.2773" lon="-2.32681">
        <ele>29.200000762939</ele>
        <time>2022-04-03T09:39:43.000Z</time>
      </trkpt>
      <trkpt lat="47.27725" lon="-2.32685">
        <ele>28.39999961853</ele>
        <time>2022-04-03T09:39:44.000Z</time>
      </trkpt>
      <trkpt lat="47.27722" lon="-2.32689">
        <ele>27.799999237061</ele>
        <time>2022-04-03T09:39:45.000Z</time>
      </trkpt>
      <trkpt lat="47.2772" lon="-2.32694">
        <ele>27</ele>
        <time>2022-04-03T09:39:46.000Z</time>
      </trkpt>
      <trkpt lat="47.27718" lon="-2.32697">
        <ele>26.39999961853</ele>
        <time>2022-04-03T09:39:47.000Z</time>
      </trkpt>
      <trkpt lat="47.27716" lon="-2.327">
        <ele>25.60000038147</ele>
        <time>2022-04-03T09:39:48.000Z</time>
      </trkpt>
      <trkpt lat="47.27712" lon="-2.32706">
        <ele>25.60000038147</ele>
        <time>2022-04-03T09:39:50.000Z</time>
      </trkpt>
      <trkpt lat="47.27698" lon="-2.3272">
        <ele>25.60000038147</ele>
        <time>2022-04-03T09:39:55.000Z</time>
      </trkpt>
      <trkpt lat="47.27684" lon="-2.32723">
        <ele>25.200000762939</ele>
        <time>2022-04-03T09:39:59.000Z</time>
      </trkpt>
      <trkpt lat="47.27681" lon="-2.32722">
        <ele>24.799999237061</ele>
        <time>2022-04-03T09:40:00.000Z</time>
      </trkpt>
      <trkpt lat="47.27677" lon="-2.3272">
        <ele>24.39999961853</ele>
        <time>2022-04-03T09:40:01.000Z</time>
      </trkpt>
      <trkpt lat="47.27674" lon="-2.32718">
        <ele>23.39999961853</ele>
        <time>2022-04-03T09:40:02.000Z</time>
      </trkpt>
      <trkpt lat="47.27665" lon="-2.3271">
        <ele>23.39999961853</ele>
        <time>2022-04-03T09:40:05.000Z</time>
      </trkpt>
      <trkpt lat="47.2766" lon="-2.32708">
        <ele>23.39999961853</ele>
        <time>2022-04-03T09:40:06.000Z</time>
      </trkpt>
      <trkpt lat="47.27648" lon="-2.32705">
        <ele>23.39999961853</ele>
        <time>2022-04-03T09:40:09.000Z</time>
      </trkpt>
      <trkpt lat="47.2764" lon="-2.32702">
        <ele>23.39999961853</ele>
        <time>2022-04-03T09:40:11.000Z</time>
      </trkpt>
      <trkpt lat="47.27628" lon="-2.32693">
        <ele>23.39999961853</ele>
        <time>2022-04-03T09:40:14.000Z</time>
      </trkpt>
      <trkpt lat="47.27617" lon="-2.32688">
        <ele>23.39999961853</ele>
        <time>2022-04-03T09:40:18.000Z</time>
      </trkpt>
      <trkpt lat="47.27608" lon="-2.32705">
        <ele>23.39999961853</ele>
        <time>2022-04-03T09:40:22.000Z</time>
      </trkpt>
      <trkpt lat="47.27594" lon="-2.32733">
        <ele>23.39999961853</ele>
        <time>2022-04-03T09:40:28.000Z</time>
      </trkpt>
      <trkpt lat="47.27593" lon="-2.32737">
        <ele>24</ele>
        <time>2022-04-03T09:40:29.000Z</time>
      </trkpt>
      <trkpt lat="47.27593" lon="-2.32741">
        <ele>24.39999961853</ele>
        <time>2022-04-03T09:40:30.000Z</time>
      </trkpt>
      <trkpt lat="47.27592" lon="-2.32744">
        <ele>25</ele>
        <time>2022-04-03T09:40:31.000Z</time>
      </trkpt>
      <trkpt lat="47.27592" lon="-2.32747">
        <ele>25.39999961853</ele>
        <time>2022-04-03T09:40:32.000Z</time>
      </trkpt>
      <trkpt lat="47.27591" lon="-2.32749">
        <ele>26</ele>
        <time>2022-04-03T09:40:33.000Z</time>
      </trkpt>
      <trkpt lat="47.27591" lon="-2.32753">
        <ele>26.39999961853</ele>
        <time>2022-04-03T09:40:34.000Z</time>
      </trkpt>
      <trkpt lat="47.2759" lon="-2.32756">
        <ele>27</ele>
        <time>2022-04-03T09:40:35.000Z</time>
      </trkpt>
      <trkpt lat="47.27589" lon="-2.3276">
        <ele>27.39999961853</ele>
        <time>2022-04-03T09:40:36.000Z</time>
      </trkpt>
      <trkpt lat="47.27587" lon="-2.32763">
        <ele>28</ele>
        <time>2022-04-03T09:40:37.000Z</time>
      </trkpt>
      <trkpt lat="47.27583" lon="-2.32768">
        <ele>28</ele>
        <time>2022-04-03T09:40:39.000Z</time>
      </trkpt>
      <trkpt lat="47.27576" lon="-2.32791">
        <ele>28</ele>
        <time>2022-04-03T09:40:43.000Z</time>
      </trkpt>
      <trkpt lat="47.27572" lon="-2.32802">
        <ele>28.39999961853</ele>
        <time>2022-04-03T09:40:45.000Z</time>
      </trkpt>
      <trkpt lat="47.2757" lon="-2.32808">
        <ele>28.799999237061</ele>
        <time>2022-04-03T09:40:46.000Z</time>
      </trkpt>
      <trkpt lat="47.27568" lon="-2.32813">
        <ele>29.200000762939</ele>
        <time>2022-04-03T09:40:47.000Z</time>
      </trkpt>
      <trkpt lat="47.27567" lon="-2.32817">
        <ele>29.60000038147</ele>
        <time>2022-04-03T09:40:48.000Z</time>
      </trkpt>
      <trkpt lat="47.27566" lon="-2.3282">
        <ele>30</ele>
        <time>2022-04-03T09:40:49.000Z</time>
      </trkpt>
      <trkpt lat="47.27559" lon="-2.3283">
        <ele>30.39999961853</ele>
        <time>2022-04-03T09:40:53.000Z</time>
      </trkpt>
      <trkpt lat="47.27558" lon="-2.32832">
        <ele>30.799999237061</ele>
        <time>2022-04-03T09:40:54.000Z</time>
      </trkpt>
      <trkpt lat="47.27557" lon="-2.32833">
        <ele>31.200000762939</ele>
        <time>2022-04-03T09:40:55.000Z</time>
      </trkpt>
      <trkpt lat="47.27555" lon="-2.32834">
        <ele>31.799999237061</ele>
        <time>2022-04-03T09:40:56.000Z</time>
      </trkpt>
      <trkpt lat="47.27553" lon="-2.32836">
        <ele>32.200000762939</ele>
        <time>2022-04-03T09:40:57.000Z</time>
      </trkpt>
      <trkpt lat="47.27546" lon="-2.3284">
        <ele>32.200000762939</ele>
        <time>2022-04-03T09:41:00.000Z</time>
      </trkpt>
      <trkpt lat="47.27534" lon="-2.32848">
        <ele>32.200000762939</ele>
        <time>2022-04-03T09:41:05.000Z</time>
      </trkpt>
      <trkpt lat="47.27519" lon="-2.32863">
        <ele>32.200000762939</ele>
        <time>2022-04-03T09:41:11.000Z</time>
      </trkpt>
      <trkpt lat="47.27508" lon="-2.32883">
        <ele>32.200000762939</ele>
        <time>2022-04-03T09:41:16.000Z</time>
      </trkpt>
      <trkpt lat="47.27499" lon="-2.32917">
        <ele>32.599998474121</ele>
        <time>2022-04-03T09:41:23.000Z</time>
      </trkpt>
      <trkpt lat="47.27499" lon="-2.32923">
        <ele>33</ele>
        <time>2022-04-03T09:41:24.000Z</time>
      </trkpt>
      <trkpt lat="47.27498" lon="-2.32928">
        <ele>33.400001525879</ele>
        <time>2022-04-03T09:41:25.000Z</time>
      </trkpt>
      <trkpt lat="47.27497" lon="-2.32934">
        <ele>33.799999237061</ele>
        <time>2022-04-03T09:41:26.000Z</time>
      </trkpt>
      <trkpt lat="47.27496" lon="-2.32939">
        <ele>34.200000762939</ele>
        <time>2022-04-03T09:41:27.000Z</time>
      </trkpt>
      <trkpt lat="47.2749" lon="-2.32955">
        <ele>34.200000762939</ele>
        <time>2022-04-03T09:41:30.000Z</time>
      </trkpt>
      <trkpt lat="47.27482" lon="-2.32974">
        <ele>34.599998474121</ele>
        <time>2022-04-03T09:41:34.000Z</time>
      </trkpt>
      <trkpt lat="47.27481" lon="-2.32979">
        <ele>35</ele>
        <time>2022-04-03T09:41:35.000Z</time>
      </trkpt>
      <trkpt lat="47.27478" lon="-2.32985">
        <ele>35.400001525879</ele>
        <time>2022-04-03T09:41:36.000Z</time>
      </trkpt>
      <trkpt lat="47.27477" lon="-2.32989">
        <ele>35.799999237061</ele>
        <time>2022-04-03T09:41:37.000Z</time>
      </trkpt>
      <trkpt lat="47.27475" lon="-2.32994">
        <ele>36.200000762939</ele>
        <time>2022-04-03T09:41:38.000Z</time>
      </trkpt>
      <trkpt lat="47.27463" lon="-2.33021">
        <ele>36.599998474121</ele>
        <time>2022-04-03T09:41:44.000Z</time>
      </trkpt>
      <trkpt lat="47.27461" lon="-2.33024">
        <ele>37</ele>
        <time>2022-04-03T09:41:45.000Z</time>
      </trkpt>
      <trkpt lat="47.27458" lon="-2.33025">
        <ele>37.400001525879</ele>
        <time>2022-04-03T09:41:46.000Z</time>
      </trkpt>
      <trkpt lat="47.27456" lon="-2.33027">
        <ele>37.799999237061</ele>
        <time>2022-04-03T09:41:47.000Z</time>
      </trkpt>
      <trkpt lat="47.27453" lon="-2.33029">
        <ele>38.200000762939</ele>
        <time>2022-04-03T09:41:48.000Z</time>
      </trkpt>
      <trkpt lat="47.27447" lon="-2.33033">
        <ele>38.200000762939</ele>
        <time>2022-04-03T09:41:50.000Z</time>
      </trkpt>
      <trkpt lat="47.27427" lon="-2.33037">
        <ele>38.200000762939</ele>
        <time>2022-04-03T09:41:56.000Z</time>
      </trkpt>
      <trkpt lat="47.27421" lon="-2.33018">
        <ele>38.200000762939</ele>
        <time>2022-04-03T09:41:59.000Z</time>
      </trkpt>
      <trkpt lat="47.27419" lon="-2.33011">
        <ele>38.200000762939</ele>
        <time>2022-04-03T09:42:00.000Z</time>
      </trkpt>
      <trkpt lat="47.27403" lon="-2.32952">
        <ele>38.200000762939</ele>
        <time>2022-04-03T09:42:08.000Z</time>
      </trkpt>
      <trkpt lat="47.27399" lon="-2.32936">
        <ele>37.799999237061</ele>
        <time>2022-04-03T09:42:10.000Z</time>
      </trkpt>
      <trkpt lat="47.27396" lon="-2.32928">
        <ele>37.400001525879</ele>
        <time>2022-04-03T09:42:11.000Z</time>
      </trkpt>
      <trkpt lat="47.27394" lon="-2.32921">
        <ele>37</ele>
        <time>2022-04-03T09:42:12.000Z</time>
      </trkpt>
      <trkpt lat="47.27392" lon="-2.32916">
        <ele>36.599998474121</ele>
        <time>2022-04-03T09:42:13.000Z</time>
      </trkpt>
      <trkpt lat="47.27393" lon="-2.3291">
        <ele>36.200000762939</ele>
        <time>2022-04-03T09:42:14.000Z</time>
      </trkpt>
      <trkpt lat="47.27396" lon="-2.32901">
        <ele>36.200000762939</ele>
        <time>2022-04-03T09:42:16.000Z</time>
      </trkpt>
      <trkpt lat="47.27398" lon="-2.32897">
        <ele>35.799999237061</ele>
        <time>2022-04-03T09:42:17.000Z</time>
      </trkpt>
      <trkpt lat="47.27401" lon="-2.32894">
        <ele>35.400001525879</ele>
        <time>2022-04-03T09:42:18.000Z</time>
      </trkpt>
      <trkpt lat="47.27403" lon="-2.32889">
        <ele>35</ele>
        <time>2022-04-03T09:42:19.000Z</time>
      </trkpt>
      <trkpt lat="47.27406" lon="-2.32882">
        <ele>34.599998474121</ele>
        <time>2022-04-03T09:42:20.000Z</time>
      </trkpt>
      <trkpt lat="47.27408" lon="-2.32876">
        <ele>34</ele>
        <time>2022-04-03T09:42:21.000Z</time>
      </trkpt>
      <trkpt lat="47.27415" lon="-2.3286">
        <ele>34</ele>
        <time>2022-04-03T09:42:24.000Z</time>
      </trkpt>
      <trkpt lat="47.27418" lon="-2.32855">
        <ele>34</ele>
        <time>2022-04-03T09:42:25.000Z</time>
      </trkpt>
      <trkpt lat="47.27429" lon="-2.32814">
        <ele>33.599998474121</ele>
        <time>2022-04-03T09:42:31.000Z</time>
      </trkpt>
      <trkpt lat="47.27431" lon="-2.32806">
        <ele>33.200000762939</ele>
        <time>2022-04-03T09:42:32.000Z</time>
      </trkpt>
      <trkpt lat="47.27432" lon="-2.32798">
        <ele>32.799999237061</ele>
        <time>2022-04-03T09:42:33.000Z</time>
      </trkpt>
      <trkpt lat="47.27434" lon="-2.32789">
        <ele>32.400001525879</ele>
        <time>2022-04-03T09:42:34.000Z</time>
      </trkpt>
      <trkpt lat="47.27436" lon="-2.32782">
        <ele>32</ele>
        <time>2022-04-03T09:42:35.000Z</time>
      </trkpt>
      <trkpt lat="47.27441" lon="-2.32758">
        <ele>32</ele>
        <time>2022-04-03T09:42:38.000Z</time>
      </trkpt>
      <trkpt lat="47.27444" lon="-2.32751">
        <ele>32</ele>
        <time>2022-04-03T09:42:39.000Z</time>
      </trkpt>
      <trkpt lat="47.27446" lon="-2.32744">
        <ele>31.60000038147</ele>
        <time>2022-04-03T09:42:40.000Z</time>
      </trkpt>
      <trkpt lat="47.27449" lon="-2.32735">
        <ele>31.200000762939</ele>
        <time>2022-04-03T09:42:41.000Z</time>
      </trkpt>
      <trkpt lat="47.27453" lon="-2.32725">
        <ele>30.799999237061</ele>
        <time>2022-04-03T09:42:42.000Z</time>
      </trkpt>
      <trkpt lat="47.27457" lon="-2.32716">
        <ele>30.200000762939</ele>
        <time>2022-04-03T09:42:43.000Z</time>
      </trkpt>
      <trkpt lat="47.27461" lon="-2.32707">
        <ele>29.799999237061</ele>
        <time>2022-04-03T09:42:44.000Z</time>
      </trkpt>
      <trkpt lat="47.27465" lon="-2.32699">
        <ele>29.39999961853</ele>
        <time>2022-04-03T09:42:45.000Z</time>
      </trkpt>
      <trkpt lat="47.27469" lon="-2.32692">
        <ele>29</ele>
        <time>2022-04-03T09:42:46.000Z</time>
      </trkpt>
      <trkpt lat="47.27473" lon="-2.32686">
        <ele>28.60000038147</ele>
        <time>2022-04-03T09:42:47.000Z</time>
      </trkpt>
      <trkpt lat="47.27478" lon="-2.32684">
        <ele>28.200000762939</ele>
        <time>2022-04-03T09:42:48.000Z</time>
      </trkpt>
      <trkpt lat="47.27484" lon="-2.32683">
        <ele>27.799999237061</ele>
        <time>2022-04-03T09:42:49.000Z</time>
      </trkpt>
      <trkpt lat="47.2749" lon="-2.3268">
        <ele>27.200000762939</ele>
        <time>2022-04-03T09:42:50.000Z</time>
      </trkpt>
      <trkpt lat="47.27495" lon="-2.32676">
        <ele>26.799999237061</ele>
        <time>2022-04-03T09:42:51.000Z</time>
      </trkpt>
      <trkpt lat="47.275" lon="-2.32669">
        <ele>26.39999961853</ele>
        <time>2022-04-03T09:42:52.000Z</time>
      </trkpt>
      <trkpt lat="47.27503" lon="-2.32661">
        <ele>26</ele>
        <time>2022-04-03T09:42:53.000Z</time>
      </trkpt>
      <trkpt lat="47.27506" lon="-2.32653">
        <ele>25.60000038147</ele>
        <time>2022-04-03T09:42:54.000Z</time>
      </trkpt>
      <trkpt lat="47.27508" lon="-2.32645">
        <ele>25.60000038147</ele>
        <time>2022-04-03T09:42:55.000Z</time>
      </trkpt>
      <trkpt lat="47.27511" lon="-2.32637">
        <ele>25.60000038147</ele>
        <time>2022-04-03T09:42:56.000Z</time>
      </trkpt>
      <trkpt lat="47.27515" lon="-2.32631">
        <ele>25.60000038147</ele>
        <time>2022-04-03T09:42:57.000Z</time>
      </trkpt>
      <trkpt lat="47.27519" lon="-2.32627">
        <ele>25.60000038147</ele>
        <time>2022-04-03T09:42:58.000Z</time>
      </trkpt>
      <trkpt lat="47.2753" lon="-2.32623">
        <ele>25.200000762939</ele>
        <time>2022-04-03T09:43:00.000Z</time>
      </trkpt>
      <trkpt lat="47.27536" lon="-2.32618">
        <ele>24.799999237061</ele>
        <time>2022-04-03T09:43:01.000Z</time>
      </trkpt>
      <trkpt lat="47.27539" lon="-2.32611">
        <ele>24.39999961853</ele>
        <time>2022-04-03T09:43:02.000Z</time>
      </trkpt>
      <trkpt lat="47.27542" lon="-2.32604">
        <ele>23.799999237061</ele>
        <time>2022-04-03T09:43:03.000Z</time>
      </trkpt>
      <trkpt lat="47.27545" lon="-2.32597">
        <ele>23.39999961853</ele>
        <time>2022-04-03T09:43:04.000Z</time>
      </trkpt>
      <trkpt lat="47.27549" lon="-2.32582">
        <ele>23.39999961853</ele>
        <time>2022-04-03T09:43:06.000Z</time>
      </trkpt>
      <trkpt lat="47.27549" lon="-2.32575">
        <ele>23.39999961853</ele>
        <time>2022-04-03T09:43:07.000Z</time>
      </trkpt>
      <trkpt lat="47.27547" lon="-2.32567">
        <ele>23.39999961853</ele>
        <time>2022-04-03T09:43:09.000Z</time>
      </trkpt>
      <trkpt lat="47.27541" lon="-2.32555">
        <ele>23.799999237061</ele>
        <time>2022-04-03T09:43:12.000Z</time>
      </trkpt>
      <trkpt lat="47.2754" lon="-2.3255">
        <ele>24.200000762939</ele>
        <time>2022-04-03T09:43:13.000Z</time>
      </trkpt>
      <trkpt lat="47.27539" lon="-2.32546">
        <ele>24.60000038147</ele>
        <time>2022-04-03T09:43:14.000Z</time>
      </trkpt>
      <trkpt lat="47.27538" lon="-2.32542">
        <ele>25</ele>
        <time>2022-04-03T09:43:15.000Z</time>
      </trkpt>
      <trkpt lat="47.27537" lon="-2.32538">
        <ele>25.39999961853</ele>
        <time>2022-04-03T09:43:16.000Z</time>
      </trkpt>
      <trkpt lat="47.27538" lon="-2.32533">
        <ele>25.39999961853</ele>
        <time>2022-04-03T09:43:17.000Z</time>
      </trkpt>
      <trkpt lat="47.27539" lon="-2.32528">
        <ele>26</ele>
        <time>2022-04-03T09:43:18.000Z</time>
      </trkpt>
      <trkpt lat="47.2754" lon="-2.32523">
        <ele>26.39999961853</ele>
        <time>2022-04-03T09:43:19.000Z</time>
      </trkpt>
      <trkpt lat="47.27542" lon="-2.32516">
        <ele>27.200000762939</ele>
        <time>2022-04-03T09:43:20.000Z</time>
      </trkpt>
      <trkpt lat="47.27543" lon="-2.32512">
        <ele>27.799999237061</ele>
        <time>2022-04-03T09:43:21.000Z</time>
      </trkpt>
      <trkpt lat="47.27545" lon="-2.32504">
        <ele>28.200000762939</ele>
        <time>2022-04-03T09:43:23.000Z</time>
      </trkpt>
      <trkpt lat="47.27546" lon="-2.32501">
        <ele>28.60000038147</ele>
        <time>2022-04-03T09:43:24.000Z</time>
      </trkpt>
      <trkpt lat="47.27547" lon="-2.32496">
        <ele>29</ele>
        <time>2022-04-03T09:43:25.000Z</time>
      </trkpt>
      <trkpt lat="47.27548" lon="-2.32492">
        <ele>29.39999961853</ele>
        <time>2022-04-03T09:43:26.000Z</time>
      </trkpt>
      <trkpt lat="47.2755" lon="-2.32488">
        <ele>29.799999237061</ele>
        <time>2022-04-03T09:43:27.000Z</time>
      </trkpt>
      <trkpt lat="47.27551" lon="-2.32484">
        <ele>30.200000762939</ele>
        <time>2022-04-03T09:43:28.000Z</time>
      </trkpt>
      <trkpt lat="47.27551" lon="-2.3248">
        <ele>30.799999237061</ele>
        <time>2022-04-03T09:43:29.000Z</time>
      </trkpt>
      <trkpt lat="47.27552" lon="-2.32475">
        <ele>31.200000762939</ele>
        <time>2022-04-03T09:43:30.000Z</time>
      </trkpt>
      <trkpt lat="47.27553" lon="-2.32471">
        <ele>31.60000038147</ele>
        <time>2022-04-03T09:43:31.000Z</time>
      </trkpt>
      <trkpt lat="47.27554" lon="-2.32468">
        <ele>32</ele>
        <time>2022-04-03T09:43:32.000Z</time>
      </trkpt>
      <trkpt lat="47.27559" lon="-2.32446">
        <ele>32.400001525879</ele>
        <time>2022-04-03T09:43:37.000Z</time>
      </trkpt>
      <trkpt lat="47.2756" lon="-2.32442">
        <ele>32.799999237061</ele>
        <time>2022-04-03T09:43:38.000Z</time>
      </trkpt>
      <trkpt lat="47.27562" lon="-2.32437">
        <ele>33.200000762939</ele>
        <time>2022-04-03T09:43:39.000Z</time>
      </trkpt>
      <trkpt lat="47.27563" lon="-2.32434">
        <ele>33.599998474121</ele>
        <time>2022-04-03T09:43:40.000Z</time>
      </trkpt>
      <trkpt lat="47.27564" lon="-2.32429">
        <ele>34</ele>
        <time>2022-04-03T09:43:41.000Z</time>
      </trkpt>
      <trkpt lat="47.27567" lon="-2.32413">
        <ele>34</ele>
        <time>2022-04-03T09:43:44.000Z</time>
      </trkpt>
      <trkpt lat="47.27571" lon="-2.32388">
        <ele>34</ele>
        <time>2022-04-03T09:43:49.000Z</time>
      </trkpt>
      <trkpt lat="47.27577" lon="-2.32372">
        <ele>34</ele>
        <time>2022-04-03T09:43:52.000Z</time>
      </trkpt>
      <trkpt lat="47.27582" lon="-2.32362">
        <ele>34</ele>
        <time>2022-04-03T09:43:54.000Z</time>
      </trkpt>
      <trkpt lat="47.27584" lon="-2.32356">
        <ele>34</ele>
        <time>2022-04-03T09:43:55.000Z</time>
      </trkpt>
      <trkpt lat="47.27595" lon="-2.3233">
        <ele>34</ele>
        <time>2022-04-03T09:44:00.000Z</time>
      </trkpt>
      <trkpt lat="47.27607" lon="-2.32297">
        <ele>34</ele>
        <time>2022-04-03T09:44:06.000Z</time>
      </trkpt>
      <trkpt lat="47.27607" lon="-2.32292">
        <ele>34</ele>
        <time>2022-04-03T09:44:07.000Z</time>
      </trkpt>
      <trkpt lat="47.27604" lon="-2.32282">
        <ele>34</ele>
        <time>2022-04-03T09:44:09.000Z</time>
      </trkpt>
      <trkpt lat="47.27596" lon="-2.32274">
        <ele>34</ele>
        <time>2022-04-03T09:44:11.000Z</time>
      </trkpt>
      <trkpt lat="47.27581" lon="-2.32261">
        <ele>34</ele>
        <time>2022-04-03T09:44:14.000Z</time>
      </trkpt>
      <trkpt lat="47.27541" lon="-2.32226">
        <ele>34</ele>
        <time>2022-04-03T09:44:21.000Z</time>
      </trkpt>
      <trkpt lat="47.27535" lon="-2.32221">
        <ele>33.599998474121</ele>
        <time>2022-04-03T09:44:22.000Z</time>
      </trkpt>
      <trkpt lat="47.27529" lon="-2.32215">
        <ele>33.200000762939</ele>
        <time>2022-04-03T09:44:23.000Z</time>
      </trkpt>
      <trkpt lat="47.27522" lon="-2.32208">
        <ele>32.799999237061</ele>
        <time>2022-04-03T09:44:24.000Z</time>
      </trkpt>
      <trkpt lat="47.27517" lon="-2.32201">
        <ele>32.400001525879</ele>
        <time>2022-04-03T09:44:25.000Z</time>
      </trkpt>
      <trkpt lat="47.27511" lon="-2.32194">
        <ele>32</ele>
        <time>2022-04-03T09:44:26.000Z</time>
      </trkpt>
      <trkpt lat="47.27482" lon="-2.32155">
        <ele>31.60000038147</ele>
        <time>2022-04-03T09:44:31.000Z</time>
      </trkpt>
      <trkpt lat="47.27476" lon="-2.32148">
        <ele>31</ele>
        <time>2022-04-03T09:44:32.000Z</time>
      </trkpt>
      <trkpt lat="47.27471" lon="-2.32141">
        <ele>30</ele>
        <time>2022-04-03T09:44:33.000Z</time>
      </trkpt>
      <trkpt lat="47.27466" lon="-2.32135">
        <ele>29.60000038147</ele>
        <time>2022-04-03T09:44:34.000Z</time>
      </trkpt>
      <trkpt lat="47.27434" lon="-2.3209">
        <ele>29.60000038147</ele>
        <time>2022-04-03T09:44:41.000Z</time>
      </trkpt>
      <trkpt lat="47.27425" lon="-2.32078">
        <ele>29.200000762939</ele>
        <time>2022-04-03T09:44:43.000Z</time>
      </trkpt>
      <trkpt lat="47.2742" lon="-2.32073">
        <ele>28.60000038147</ele>
        <time>2022-04-03T09:44:44.000Z</time>
      </trkpt>
      <trkpt lat="47.27415" lon="-2.32068">
        <ele>28.200000762939</ele>
        <time>2022-04-03T09:44:45.000Z</time>
      </trkpt>
      <trkpt lat="47.27409" lon="-2.32063">
        <ele>27.60000038147</ele>
        <time>2022-04-03T09:44:46.000Z</time>
      </trkpt>
      <trkpt lat="47.27404" lon="-2.32057">
        <ele>27.200000762939</ele>
        <time>2022-04-03T09:44:47.000Z</time>
      </trkpt>
      <trkpt lat="47.27373" lon="-2.32025">
        <ele>26.799999237061</ele>
        <time>2022-04-03T09:44:52.000Z</time>
      </trkpt>
      <trkpt lat="47.27366" lon="-2.32018">
        <ele>26.39999961853</ele>
        <time>2022-04-03T09:44:53.000Z</time>
      </trkpt>
      <trkpt lat="47.27359" lon="-2.32011">
        <ele>26</ele>
        <time>2022-04-03T09:44:54.000Z</time>
      </trkpt>
      <trkpt lat="47.27353" lon="-2.32003">
        <ele>25.60000038147</ele>
        <time>2022-04-03T09:44:55.000Z</time>
      </trkpt>
      <trkpt lat="47.27346" lon="-2.31997">
        <ele>25</ele>
        <time>2022-04-03T09:44:56.000Z</time>
      </trkpt>
      <trkpt lat="47.27327" lon="-2.31975">
        <ele>25</ele>
        <time>2022-04-03T09:44:59.000Z</time>
      </trkpt>
      <trkpt lat="47.27299" lon="-2.31947">
        <ele>25</ele>
        <time>2022-04-03T09:45:04.000Z</time>
      </trkpt>
      <trkpt lat="47.27294" lon="-2.31943">
        <ele>25</ele>
        <time>2022-04-03T09:45:05.000Z</time>
      </trkpt>
      <trkpt lat="47.27278" lon="-2.31935">
        <ele>25</ele>
        <time>2022-04-03T09:45:08.000Z</time>
      </trkpt>
      <trkpt lat="47.27237" lon="-2.31924">
        <ele>25</ele>
        <time>2022-04-03T09:45:15.000Z</time>
      </trkpt>
      <trkpt lat="47.27222" lon="-2.31921">
        <ele>25</ele>
        <time>2022-04-03T09:45:18.000Z</time>
      </trkpt>
      <trkpt lat="47.27218" lon="-2.31923">
        <ele>25</ele>
        <time>2022-04-03T09:45:19.000Z</time>
      </trkpt>
      <trkpt lat="47.27213" lon="-2.3193">
        <ele>24.60000038147</ele>
        <time>2022-04-03T09:45:21.000Z</time>
      </trkpt>
      <trkpt lat="47.27211" lon="-2.31936">
        <ele>23.799999237061</ele>
        <time>2022-04-03T09:45:22.000Z</time>
      </trkpt>
      <trkpt lat="47.27208" lon="-2.31941">
        <ele>23.39999961853</ele>
        <time>2022-04-03T09:45:23.000Z</time>
      </trkpt>
      <trkpt lat="47.27204" lon="-2.31947">
        <ele>22.799999237061</ele>
        <time>2022-04-03T09:45:24.000Z</time>
      </trkpt>
      <trkpt lat="47.27193" lon="-2.31962">
        <ele>22.799999237061</ele>
        <time>2022-04-03T09:45:27.000Z</time>
      </trkpt>
      <trkpt lat="47.27188" lon="-2.31966">
        <ele>22.799999237061</ele>
        <time>2022-04-03T09:45:28.000Z</time>
      </trkpt>
      <trkpt lat="47.27183" lon="-2.31971">
        <ele>22.799999237061</ele>
        <time>2022-04-03T09:45:29.000Z</time>
      </trkpt>
      <trkpt lat="47.27171" lon="-2.31989">
        <ele>22.799999237061</ele>
        <time>2022-04-03T09:45:32.000Z</time>
      </trkpt>
      <trkpt lat="47.27156" lon="-2.31992">
        <ele>22.799999237061</ele>
        <time>2022-04-03T09:45:35.000Z</time>
      </trkpt>
      <trkpt lat="47.27148" lon="-2.31986">
        <ele>22.799999237061</ele>
        <time>2022-04-03T09:45:37.000Z</time>
      </trkpt>
      <trkpt lat="47.27141" lon="-2.3198">
        <ele>22.799999237061</ele>
        <time>2022-04-03T09:45:39.000Z</time>
      </trkpt>
      <trkpt lat="47.27133" lon="-2.31972">
        <ele>22.799999237061</ele>
        <time>2022-04-03T09:45:41.000Z</time>
      </trkpt>
      <trkpt lat="47.2712" lon="-2.31964">
        <ele>22.799999237061</ele>
        <time>2022-04-03T09:45:44.000Z</time>
      </trkpt>
      <trkpt lat="47.27111" lon="-2.31961">
        <ele>22.799999237061</ele>
        <time>2022-04-03T09:45:46.000Z</time>
      </trkpt>
      <trkpt lat="47.27102" lon="-2.31959">
        <ele>22.799999237061</ele>
        <time>2022-04-03T09:45:48.000Z</time>
      </trkpt>
      <trkpt lat="47.27078" lon="-2.31954">
        <ele>22.799999237061</ele>
        <time>2022-04-03T09:45:54.000Z</time>
      </trkpt>
      <trkpt lat="47.27069" lon="-2.31955">
        <ele>22.799999237061</ele>
        <time>2022-04-03T09:45:56.000Z</time>
      </trkpt>
      <trkpt lat="47.27055" lon="-2.31954">
        <ele>22.799999237061</ele>
        <time>2022-04-03T09:45:59.000Z</time>
      </trkpt>
      <trkpt lat="47.27051" lon="-2.31955">
        <ele>22.799999237061</ele>
        <time>2022-04-03T09:46:00.000Z</time>
      </trkpt>
      <trkpt lat="47.2704" lon="-2.31962">
        <ele>22.799999237061</ele>
        <time>2022-04-03T09:46:03.000Z</time>
      </trkpt>
      <trkpt lat="47.27032" lon="-2.31968">
        <ele>22.799999237061</ele>
        <time>2022-04-03T09:46:05.000Z</time>
      </trkpt>
      <trkpt lat="47.27027" lon="-2.3197">
        <ele>22.799999237061</ele>
        <time>2022-04-03T09:46:06.000Z</time>
      </trkpt>
      <trkpt lat="47.27013" lon="-2.31979">
        <ele>22.799999237061</ele>
        <time>2022-04-03T09:46:09.000Z</time>
      </trkpt>
      <trkpt lat="47.27009" lon="-2.31984">
        <ele>22.799999237061</ele>
        <time>2022-04-03T09:46:10.000Z</time>
      </trkpt>
      <trkpt lat="47.26998" lon="-2.3199">
        <ele>22.799999237061</ele>
        <time>2022-04-03T09:46:13.000Z</time>
      </trkpt>
      <trkpt lat="47.26973" lon="-2.31997">
        <ele>22.799999237061</ele>
        <time>2022-04-03T09:46:19.000Z</time>
      </trkpt>
      <trkpt lat="47.26965" lon="-2.31998">
        <ele>23.200000762939</ele>
        <time>2022-04-03T09:46:21.000Z</time>
      </trkpt>
      <trkpt lat="47.26961" lon="-2.31997">
        <ele>23.60000038147</ele>
        <time>2022-04-03T09:46:22.000Z</time>
      </trkpt>
      <trkpt lat="47.26958" lon="-2.31995">
        <ele>24</ele>
        <time>2022-04-03T09:46:23.000Z</time>
      </trkpt>
      <trkpt lat="47.26955" lon="-2.31992">
        <ele>24.39999961853</ele>
        <time>2022-04-03T09:46:24.000Z</time>
      </trkpt>
      <trkpt lat="47.26952" lon="-2.3199">
        <ele>25</ele>
        <time>2022-04-03T09:46:25.000Z</time>
      </trkpt>
      <trkpt lat="47.26944" lon="-2.31983">
        <ele>25</ele>
        <time>2022-04-03T09:46:28.000Z</time>
      </trkpt>
      <trkpt lat="47.26937" lon="-2.31973">
        <ele>25.39999961853</ele>
        <time>2022-04-03T09:46:32.000Z</time>
      </trkpt>
      <trkpt lat="47.26935" lon="-2.31969">
        <ele>25.799999237061</ele>
        <time>2022-04-03T09:46:33.000Z</time>
      </trkpt>
      <trkpt lat="47.26932" lon="-2.31966">
        <ele>26.200000762939</ele>
        <time>2022-04-03T09:46:34.000Z</time>
      </trkpt>
      <trkpt lat="47.2693" lon="-2.31962">
        <ele>26.60000038147</ele>
        <time>2022-04-03T09:46:35.000Z</time>
      </trkpt>
      <trkpt lat="47.26926" lon="-2.31958">
        <ele>27.200000762939</ele>
        <time>2022-04-03T09:46:36.000Z</time>
      </trkpt>
      <trkpt lat="47.26916" lon="-2.31946">
        <ele>27.200000762939</ele>
        <time>2022-04-03T09:46:39.000Z</time>
      </trkpt>
      <trkpt lat="47.2691" lon="-2.31938">
        <ele>27.60000038147</ele>
        <time>2022-04-03T09:46:41.000Z</time>
      </trkpt>
      <trkpt lat="47.26907" lon="-2.31935">
        <ele>28</ele>
        <time>2022-04-03T09:46:42.000Z</time>
      </trkpt>
      <trkpt lat="47.26905" lon="-2.3193">
        <ele>28.39999961853</ele>
        <time>2022-04-03T09:46:43.000Z</time>
      </trkpt>
      <trkpt lat="47.26902" lon="-2.31926">
        <ele>28.799999237061</ele>
        <time>2022-04-03T09:46:44.000Z</time>
      </trkpt>
      <trkpt lat="47.269" lon="-2.31922">
        <ele>29.200000762939</ele>
        <time>2022-04-03T09:46:45.000Z</time>
      </trkpt>
      <trkpt lat="47.26885" lon="-2.31899">
        <ele>29.60000038147</ele>
        <time>2022-04-03T09:46:51.000Z</time>
      </trkpt>
      <trkpt lat="47.26881" lon="-2.31897">
        <ele>30</ele>
        <time>2022-04-03T09:46:52.000Z</time>
      </trkpt>
      <trkpt lat="47.26878" lon="-2.31896">
        <ele>30.39999961853</ele>
        <time>2022-04-03T09:46:53.000Z</time>
      </trkpt>
      <trkpt lat="47.26874" lon="-2.31895">
        <ele>30.799999237061</ele>
        <time>2022-04-03T09:46:54.000Z</time>
      </trkpt>
      <trkpt lat="47.26871" lon="-2.31894">
        <ele>31.39999961853</ele>
        <time>2022-04-03T09:46:55.000Z</time>
      </trkpt>
      <trkpt lat="47.26864" lon="-2.31892">
        <ele>31.39999961853</ele>
        <time>2022-04-03T09:46:57.000Z</time>
      </trkpt>
      <trkpt lat="47.26844" lon="-2.31879">
        <ele>31.39999961853</ele>
        <time>2022-04-03T09:47:03.000Z</time>
      </trkpt>
      <trkpt lat="47.26842" lon="-2.31876">
        <ele>31.799999237061</ele>
        <time>2022-04-03T09:47:04.000Z</time>
      </trkpt>
      <trkpt lat="47.2684" lon="-2.31872">
        <ele>32.200000762939</ele>
        <time>2022-04-03T09:47:05.000Z</time>
      </trkpt>
      <trkpt lat="47.26838" lon="-2.31868">
        <ele>32.599998474121</ele>
        <time>2022-04-03T09:47:06.000Z</time>
      </trkpt>
      <trkpt lat="47.26837" lon="-2.31863">
        <ele>33</ele>
        <time>2022-04-03T09:47:07.000Z</time>
      </trkpt>
      <trkpt lat="47.26835" lon="-2.31859">
        <ele>33.599998474121</ele>
        <time>2022-04-03T09:47:08.000Z</time>
      </trkpt>
      <trkpt lat="47.26833" lon="-2.31855">
        <ele>33.599998474121</ele>
        <time>2022-04-03T09:47:09.000Z</time>
      </trkpt>
      <trkpt lat="47.26826" lon="-2.31837">
        <ele>34</ele>
        <time>2022-04-03T09:47:13.000Z</time>
      </trkpt>
      <trkpt lat="47.26824" lon="-2.31833">
        <ele>34.400001525879</ele>
        <time>2022-04-03T09:47:14.000Z</time>
      </trkpt>
      <trkpt lat="47.26823" lon="-2.31829">
        <ele>34.799999237061</ele>
        <time>2022-04-03T09:47:15.000Z</time>
      </trkpt>
      <trkpt lat="47.26821" lon="-2.31825">
        <ele>35.200000762939</ele>
        <time>2022-04-03T09:47:16.000Z</time>
      </trkpt>
      <trkpt lat="47.2682" lon="-2.31822">
        <ele>35.599998474121</ele>
        <time>2022-04-03T09:47:17.000Z</time>
      </trkpt>
      <trkpt lat="47.26818" lon="-2.31811">
        <ele>35.599998474121</ele>
        <time>2022-04-03T09:47:20.000Z</time>
      </trkpt>
      <trkpt lat="47.26815" lon="-2.31807">
        <ele>35.599998474121</ele>
        <time>2022-04-03T09:47:22.000Z</time>
      </trkpt>
      <trkpt lat="47.26813" lon="-2.31807">
        <ele>35.599998474121</ele>
        <time>2022-04-03T09:47:23.000Z</time>
      </trkpt>
      <trkpt lat="47.268" lon="-2.31814">
        <ele>35.599998474121</ele>
        <time>2022-04-03T09:47:27.000Z</time>
      </trkpt>
      <trkpt lat="47.26796" lon="-2.31817">
        <ele>35.599998474121</ele>
        <time>2022-04-03T09:47:28.000Z</time>
      </trkpt>
      <trkpt lat="47.26769" lon="-2.31834">
        <ele>35.599998474121</ele>
        <time>2022-04-03T09:47:35.000Z</time>
      </trkpt>
      <trkpt lat="47.26742" lon="-2.31858">
        <ele>35.599998474121</ele>
        <time>2022-04-03T09:47:43.000Z</time>
      </trkpt>
      <trkpt lat="47.26718" lon="-2.31879">
        <ele>35.599998474121</ele>
        <time>2022-04-03T09:47:50.000Z</time>
      </trkpt>
      <trkpt lat="47.26715" lon="-2.31883">
        <ele>36</ele>
        <time>2022-04-03T09:47:51.000Z</time>
      </trkpt>
      <trkpt lat="47.26711" lon="-2.31886">
        <ele>36.400001525879</ele>
        <time>2022-04-03T09:47:52.000Z</time>
      </trkpt>
      <trkpt lat="47.26708" lon="-2.31889">
        <ele>36.799999237061</ele>
        <time>2022-04-03T09:47:53.000Z</time>
      </trkpt>
      <trkpt lat="47.26704" lon="-2.31893">
        <ele>37.200000762939</ele>
        <time>2022-04-03T09:47:54.000Z</time>
      </trkpt>
      <trkpt lat="47.267" lon="-2.31897">
        <ele>37.599998474121</ele>
        <time>2022-04-03T09:47:55.000Z</time>
      </trkpt>
      <trkpt lat="47.26688" lon="-2.31909">
        <ele>37.599998474121</ele>
        <time>2022-04-03T09:47:58.000Z</time>
      </trkpt>
      <trkpt lat="47.2665" lon="-2.31951">
        <ele>37.599998474121</ele>
        <time>2022-04-03T09:48:07.000Z</time>
      </trkpt>
      <trkpt lat="47.26644" lon="-2.31973">
        <ele>37.599998474121</ele>
        <time>2022-04-03T09:48:10.000Z</time>
      </trkpt>
      <trkpt lat="47.26644" lon="-2.31988">
        <ele>37.599998474121</ele>
        <time>2022-04-03T09:48:12.000Z</time>
      </trkpt>
      <trkpt lat="47.26644" lon="-2.31995">
        <ele>37.599998474121</ele>
        <time>2022-04-03T09:48:13.000Z</time>
      </trkpt>
      <trkpt lat="47.26642" lon="-2.32001">
        <ele>37.599998474121</ele>
        <time>2022-04-03T09:48:14.000Z</time>
      </trkpt>
      <trkpt lat="47.26629" lon="-2.3201">
        <ele>37.599998474121</ele>
        <time>2022-04-03T09:48:17.000Z</time>
      </trkpt>
      <trkpt lat="47.26592" lon="-2.32023">
        <ele>37.599998474121</ele>
        <time>2022-04-03T09:48:24.000Z</time>
      </trkpt>
      <trkpt lat="47.26552" lon="-2.32038">
        <ele>37.599998474121</ele>
        <time>2022-04-03T09:48:31.000Z</time>
      </trkpt>
      <trkpt lat="47.26548" lon="-2.32039">
        <ele>37</ele>
        <time>2022-04-03T09:48:32.000Z</time>
      </trkpt>
      <trkpt lat="47.26546" lon="-2.32037">
        <ele>36.599998474121</ele>
        <time>2022-04-03T09:48:33.000Z</time>
      </trkpt>
      <trkpt lat="47.26544" lon="-2.32036">
        <ele>36</ele>
        <time>2022-04-03T09:48:34.000Z</time>
      </trkpt>
      <trkpt lat="47.26543" lon="-2.32033">
        <ele>35.599998474121</ele>
        <time>2022-04-03T09:48:35.000Z</time>
      </trkpt>
      <trkpt lat="47.26543" lon="-2.3203">
        <ele>35</ele>
        <time>2022-04-03T09:48:36.000Z</time>
      </trkpt>
      <trkpt lat="47.26542" lon="-2.32027">
        <ele>35</ele>
        <time>2022-04-03T09:48:37.000Z</time>
      </trkpt>
      <trkpt lat="47.2654" lon="-2.32019">
        <ele>35</ele>
        <time>2022-04-03T09:48:39.000Z</time>
      </trkpt>
      <trkpt lat="47.26539" lon="-2.32017">
        <ele>35</ele>
        <time>2022-04-03T09:48:40.000Z</time>
      </trkpt>
      <trkpt lat="47.26532" lon="-2.32008">
        <ele>35</ele>
        <time>2022-04-03T09:48:43.000Z</time>
      </trkpt>
      <trkpt lat="47.26517" lon="-2.32001">
        <ele>34.599998474121</ele>
        <time>2022-04-03T09:48:47.000Z</time>
      </trkpt>
      <trkpt lat="47.26513" lon="-2.32001">
        <ele>34</ele>
        <time>2022-04-03T09:48:48.000Z</time>
      </trkpt>
      <trkpt lat="47.26508" lon="-2.32">
        <ele>33.599998474121</ele>
        <time>2022-04-03T09:48:49.000Z</time>
      </trkpt>
      <trkpt lat="47.26504" lon="-2.32">
        <ele>33</ele>
        <time>2022-04-03T09:48:50.000Z</time>
      </trkpt>
      <trkpt lat="47.26499" lon="-2.32001">
        <ele>32.599998474121</ele>
        <time>2022-04-03T09:48:51.000Z</time>
      </trkpt>
      <trkpt lat="47.26494" lon="-2.32002">
        <ele>32</ele>
        <time>2022-04-03T09:48:52.000Z</time>
      </trkpt>
      <trkpt lat="47.26488" lon="-2.32002">
        <ele>31.60000038147</ele>
        <time>2022-04-03T09:48:53.000Z</time>
      </trkpt>
      <trkpt lat="47.26482" lon="-2.32003">
        <ele>31</ele>
        <time>2022-04-03T09:48:54.000Z</time>
      </trkpt>
      <trkpt lat="47.26476" lon="-2.32002">
        <ele>30.60000038147</ele>
        <time>2022-04-03T09:48:55.000Z</time>
      </trkpt>
      <trkpt lat="47.26471" lon="-2.32002">
        <ele>30.60000038147</ele>
        <time>2022-04-03T09:48:56.000Z</time>
      </trkpt>
      <trkpt lat="47.26466" lon="-2.32002">
        <ele>30</ele>
        <time>2022-04-03T09:48:57.000Z</time>
      </trkpt>
      <trkpt lat="47.2646" lon="-2.32002">
        <ele>29.60000038147</ele>
        <time>2022-04-03T09:48:58.000Z</time>
      </trkpt>
      <trkpt lat="47.26454" lon="-2.32002">
        <ele>29.200000762939</ele>
        <time>2022-04-03T09:48:59.000Z</time>
      </trkpt>
      <trkpt lat="47.26448" lon="-2.32002">
        <ele>28.60000038147</ele>
        <time>2022-04-03T09:49:00.000Z</time>
      </trkpt>
      <trkpt lat="47.26442" lon="-2.32002">
        <ele>28.200000762939</ele>
        <time>2022-04-03T09:49:01.000Z</time>
      </trkpt>
      <trkpt lat="47.26435" lon="-2.32002">
        <ele>27.60000038147</ele>
        <time>2022-04-03T09:49:02.000Z</time>
      </trkpt>
      <trkpt lat="47.26428" lon="-2.32001">
        <ele>27.200000762939</ele>
        <time>2022-04-03T09:49:03.000Z</time>
      </trkpt>
      <trkpt lat="47.26421" lon="-2.32">
        <ele>26.200000762939</ele>
        <time>2022-04-03T09:49:04.000Z</time>
      </trkpt>
      <trkpt lat="47.26415" lon="-2.31999">
        <ele>25.799999237061</ele>
        <time>2022-04-03T09:49:05.000Z</time>
      </trkpt>
      <trkpt lat="47.2641" lon="-2.31998">
        <ele>25.799999237061</ele>
        <time>2022-04-03T09:49:06.000Z</time>
      </trkpt>
      <trkpt lat="47.26405" lon="-2.31997">
        <ele>25.39999961853</ele>
        <time>2022-04-03T09:49:07.000Z</time>
      </trkpt>
      <trkpt lat="47.26401" lon="-2.31996">
        <ele>25</ele>
        <time>2022-04-03T09:49:08.000Z</time>
      </trkpt>
      <trkpt lat="47.26398" lon="-2.31996">
        <ele>24.60000038147</ele>
        <time>2022-04-03T09:49:09.000Z</time>
      </trkpt>
      <trkpt lat="47.26395" lon="-2.31995">
        <ele>24.200000762939</ele>
        <time>2022-04-03T09:49:10.000Z</time>
      </trkpt>
      <trkpt lat="47.26392" lon="-2.31994">
        <ele>23.799999237061</ele>
        <time>2022-04-03T09:49:11.000Z</time>
      </trkpt>
      <trkpt lat="47.26375" lon="-2.31992">
        <ele>23.39999961853</ele>
        <time>2022-04-03T09:49:15.000Z</time>
      </trkpt>
      <trkpt lat="47.26371" lon="-2.31991">
        <ele>23</ele>
        <time>2022-04-03T09:49:16.000Z</time>
      </trkpt>
      <trkpt lat="47.26367" lon="-2.31988">
        <ele>22.60000038147</ele>
        <time>2022-04-03T09:49:17.000Z</time>
      </trkpt>
      <trkpt lat="47.26364" lon="-2.31983">
        <ele>22</ele>
        <time>2022-04-03T09:49:18.000Z</time>
      </trkpt>
      <trkpt lat="47.26361" lon="-2.31976">
        <ele>21.60000038147</ele>
        <time>2022-04-03T09:49:19.000Z</time>
      </trkpt>
      <trkpt lat="47.26351" lon="-2.31948">
        <ele>21.60000038147</ele>
        <time>2022-04-03T09:49:23.000Z</time>
      </trkpt>
      <trkpt lat="47.26347" lon="-2.31942">
        <ele>21.60000038147</ele>
        <time>2022-04-03T09:49:24.000Z</time>
      </trkpt>
      <trkpt lat="47.26334" lon="-2.31937">
        <ele>21.60000038147</ele>
        <time>2022-04-03T09:49:27.000Z</time>
      </trkpt>
      <trkpt lat="47.26329" lon="-2.31937">
        <ele>21.200000762939</ele>
        <time>2022-04-03T09:49:28.000Z</time>
      </trkpt>
      <trkpt lat="47.26324" lon="-2.31937">
        <ele>20.39999961853</ele>
        <time>2022-04-03T09:49:29.000Z</time>
      </trkpt>
      <trkpt lat="47.2632" lon="-2.31937">
        <ele>20</ele>
        <time>2022-04-03T09:49:30.000Z</time>
      </trkpt>
      <trkpt lat="47.26316" lon="-2.31937">
        <ele>19.60000038147</ele>
        <time>2022-04-03T09:49:31.000Z</time>
      </trkpt>
      <trkpt lat="47.26309" lon="-2.31934">
        <ele>19.60000038147</ele>
        <time>2022-04-03T09:49:33.000Z</time>
      </trkpt>
      <trkpt lat="47.26306" lon="-2.3192">
        <ele>19.60000038147</ele>
        <time>2022-04-03T09:49:36.000Z</time>
      </trkpt>
      <trkpt lat="47.26306" lon="-2.31915">
        <ele>19.60000038147</ele>
        <time>2022-04-03T09:49:37.000Z</time>
      </trkpt>
      <trkpt lat="47.26303" lon="-2.31899">
        <ele>19.60000038147</ele>
        <time>2022-04-03T09:49:41.000Z</time>
      </trkpt>
      <trkpt lat="47.263" lon="-2.31898">
        <ele>19.60000038147</ele>
        <time>2022-04-03T09:49:42.000Z</time>
      </trkpt>
      <trkpt lat="47.26285" lon="-2.31909">
        <ele>19.60000038147</ele>
        <time>2022-04-03T09:49:47.000Z</time>
      </trkpt>
      <trkpt lat="47.2628" lon="-2.31915">
        <ele>19.60000038147</ele>
        <time>2022-04-03T09:49:49.000Z</time>
      </trkpt>
      <trkpt lat="47.26269" lon="-2.31928">
        <ele>19.60000038147</ele>
        <time>2022-04-03T09:49:53.000Z</time>
      </trkpt>
      <trkpt lat="47.26255" lon="-2.31951">
        <ele>19.60000038147</ele>
        <time>2022-04-03T09:49:59.000Z</time>
      </trkpt>
      <trkpt lat="47.26238" lon="-2.31968">
        <ele>19.60000038147</ele>
        <time>2022-04-03T09:50:04.000Z</time>
      </trkpt>
      <trkpt lat="47.26225" lon="-2.31982">
        <ele>19.60000038147</ele>
        <time>2022-04-03T09:50:09.000Z</time>
      </trkpt>
      <trkpt lat="47.26208" lon="-2.31998">
        <ele>19.60000038147</ele>
        <time>2022-04-03T09:50:15.000Z</time>
      </trkpt>
      <trkpt lat="47.26204" lon="-2.32011">
        <ele>19.60000038147</ele>
        <time>2022-04-03T09:50:19.000Z</time>
      </trkpt>
      <trkpt lat="47.262" lon="-2.32017">
        <ele>19.60000038147</ele>
        <time>2022-04-03T09:50:22.000Z</time>
      </trkpt>
      <trkpt lat="47.26195" lon="-2.32018">
        <ele>19.60000038147</ele>
        <time>2022-04-03T09:50:24.000Z</time>
      </trkpt>
      <trkpt lat="47.26178" lon="-2.32018">
        <ele>19.60000038147</ele>
        <time>2022-04-03T09:50:29.000Z</time>
      </trkpt>
      <trkpt lat="47.26166" lon="-2.32024">
        <ele>19.60000038147</ele>
        <time>2022-04-03T09:50:32.000Z</time>
      </trkpt>
      <trkpt lat="47.26163" lon="-2.32028">
        <ele>19.60000038147</ele>
        <time>2022-04-03T09:50:33.000Z</time>
      </trkpt>
      <trkpt lat="47.26151" lon="-2.32054">
        <ele>19.60000038147</ele>
        <time>2022-04-03T09:50:37.000Z</time>
      </trkpt>
      <trkpt lat="47.26149" lon="-2.32061">
        <ele>19.60000038147</ele>
        <time>2022-04-03T09:50:38.000Z</time>
      </trkpt>
      <trkpt lat="47.26135" lon="-2.32108">
        <ele>19.60000038147</ele>
        <time>2022-04-03T09:50:44.000Z</time>
      </trkpt>
      <trkpt lat="47.26122" lon="-2.32147">
        <ele>19.60000038147</ele>
        <time>2022-04-03T09:50:49.000Z</time>
      </trkpt>
      <trkpt lat="47.26119" lon="-2.32155">
        <ele>19.60000038147</ele>
        <time>2022-04-03T09:50:50.000Z</time>
      </trkpt>
      <trkpt lat="47.26099" lon="-2.32205">
        <ele>19.60000038147</ele>
        <time>2022-04-03T09:50:57.000Z</time>
      </trkpt>
      <trkpt lat="47.26073" lon="-2.32245">
        <ele>19.60000038147</ele>
        <time>2022-04-03T09:51:04.000Z</time>
      </trkpt>
      <trkpt lat="47.26045" lon="-2.32276">
        <ele>19.60000038147</ele>
        <time>2022-04-03T09:51:11.000Z</time>
      </trkpt>
      <trkpt lat="47.26019" lon="-2.32307">
        <ele>19.60000038147</ele>
        <time>2022-04-03T09:51:17.000Z</time>
      </trkpt>
      <trkpt lat="47.26014" lon="-2.32313">
        <ele>19.60000038147</ele>
        <time>2022-04-03T09:51:18.000Z</time>
      </trkpt>
      <trkpt lat="47.25972" lon="-2.32366">
        <ele>19.60000038147</ele>
        <time>2022-04-03T09:51:27.000Z</time>
      </trkpt>
      <trkpt lat="47.2595" lon="-2.32395">
        <ele>19.60000038147</ele>
        <time>2022-04-03T09:51:32.000Z</time>
      </trkpt>
      <trkpt lat="47.25914" lon="-2.32444">
        <ele>19.60000038147</ele>
        <time>2022-04-03T09:51:41.000Z</time>
      </trkpt>
      <trkpt lat="47.25886" lon="-2.32472">
        <ele>19.60000038147</ele>
        <time>2022-04-03T09:51:48.000Z</time>
      </trkpt>
      <trkpt lat="47.25854" lon="-2.32477">
        <ele>19.60000038147</ele>
        <time>2022-04-03T09:51:54.000Z</time>
      </trkpt>
      <trkpt lat="47.25842" lon="-2.32475">
        <ele>19.60000038147</ele>
        <time>2022-04-03T09:51:56.000Z</time>
      </trkpt>
      <trkpt lat="47.25826" lon="-2.32468">
        <ele>19.60000038147</ele>
        <time>2022-04-03T09:51:59.000Z</time>
      </trkpt>
      <trkpt lat="47.25805" lon="-2.32458">
        <ele>19.60000038147</ele>
        <time>2022-04-03T09:52:03.000Z</time>
      </trkpt>
      <trkpt lat="47.25795" lon="-2.32458">
        <ele>19.60000038147</ele>
        <time>2022-04-03T09:52:05.000Z</time>
      </trkpt>
      <trkpt lat="47.2579" lon="-2.32458">
        <ele>19.60000038147</ele>
        <time>2022-04-03T09:52:06.000Z</time>
      </trkpt>
      <trkpt lat="47.2578" lon="-2.32451">
        <ele>19.60000038147</ele>
        <time>2022-04-03T09:52:08.000Z</time>
      </trkpt>
      <trkpt lat="47.25766" lon="-2.32429">
        <ele>19.60000038147</ele>
        <time>2022-04-03T09:52:12.000Z</time>
      </trkpt>
      <trkpt lat="47.2575" lon="-2.32426">
        <ele>19.60000038147</ele>
        <time>2022-04-03T09:52:15.000Z</time>
      </trkpt>
      <trkpt lat="47.25698" lon="-2.32424">
        <ele>19.60000038147</ele>
        <time>2022-04-03T09:52:24.000Z</time>
      </trkpt>
      <trkpt lat="47.25672" lon="-2.32421">
        <ele>19.60000038147</ele>
        <time>2022-04-03T09:52:29.000Z</time>
      </trkpt>
      <trkpt lat="47.25664" lon="-2.32426">
        <ele>19.60000038147</ele>
        <time>2022-04-03T09:52:31.000Z</time>
      </trkpt>
      <trkpt lat="47.25661" lon="-2.3244">
        <ele>19.60000038147</ele>
        <time>2022-04-03T09:52:33.000Z</time>
      </trkpt>
      <trkpt lat="47.25669" lon="-2.32469">
        <ele>19.60000038147</ele>
        <time>2022-04-03T09:52:37.000Z</time>
      </trkpt>
      <trkpt lat="47.25679" lon="-2.32497">
        <ele>20</ele>
        <time>2022-04-03T09:52:41.000Z</time>
      </trkpt>
      <trkpt lat="47.25681" lon="-2.32504">
        <ele>20.39999961853</ele>
        <time>2022-04-03T09:52:42.000Z</time>
      </trkpt>
      <trkpt lat="47.25684" lon="-2.3251">
        <ele>20.799999237061</ele>
        <time>2022-04-03T09:52:43.000Z</time>
      </trkpt>
      <trkpt lat="47.25686" lon="-2.32517">
        <ele>21.200000762939</ele>
        <time>2022-04-03T09:52:44.000Z</time>
      </trkpt>
      <trkpt lat="47.25688" lon="-2.32524">
        <ele>21.60000038147</ele>
        <time>2022-04-03T09:52:45.000Z</time>
      </trkpt>
      <trkpt lat="47.25702" lon="-2.32569">
        <ele>22</ele>
        <time>2022-04-03T09:52:52.000Z</time>
      </trkpt>
      <trkpt lat="47.25704" lon="-2.32575">
        <ele>22.60000038147</ele>
        <time>2022-04-03T09:52:53.000Z</time>
      </trkpt>
      <trkpt lat="47.25706" lon="-2.32581">
        <ele>23</ele>
        <time>2022-04-03T09:52:54.000Z</time>
      </trkpt>
      <trkpt lat="47.25708" lon="-2.32587">
        <ele>23.39999961853</ele>
        <time>2022-04-03T09:52:55.000Z</time>
      </trkpt>
      <trkpt lat="47.2571" lon="-2.32593">
        <ele>23.799999237061</ele>
        <time>2022-04-03T09:52:56.000Z</time>
      </trkpt>
      <trkpt lat="47.25712" lon="-2.32616">
        <ele>23.799999237061</ele>
        <time>2022-04-03T09:53:00.000Z</time>
      </trkpt>
      <trkpt lat="47.25706" lon="-2.32623">
        <ele>23.799999237061</ele>
        <time>2022-04-03T09:53:02.000Z</time>
      </trkpt>
      <trkpt lat="47.25677" lon="-2.32636">
        <ele>23.799999237061</ele>
        <time>2022-04-03T09:53:08.000Z</time>
      </trkpt>
      <trkpt lat="47.25668" lon="-2.3264">
        <ele>24.200000762939</ele>
        <time>2022-04-03T09:53:10.000Z</time>
      </trkpt>
      <trkpt lat="47.25663" lon="-2.32642">
        <ele>24.799999237061</ele>
        <time>2022-04-03T09:53:11.000Z</time>
      </trkpt>
      <trkpt lat="47.25658" lon="-2.32644">
        <ele>25.60000038147</ele>
        <time>2022-04-03T09:53:12.000Z</time>
      </trkpt>
      <trkpt lat="47.25654" lon="-2.32647">
        <ele>26</ele>
        <time>2022-04-03T09:53:13.000Z</time>
      </trkpt>
      <trkpt lat="47.25644" lon="-2.32651">
        <ele>26</ele>
        <time>2022-04-03T09:53:15.000Z</time>
      </trkpt>
      <trkpt lat="47.25616" lon="-2.32663">
        <ele>26</ele>
        <time>2022-04-03T09:53:21.000Z</time>
      </trkpt>
      <trkpt lat="47.25612" lon="-2.32666">
        <ele>26</ele>
        <time>2022-04-03T09:53:22.000Z</time>
      </trkpt>
      <trkpt lat="47.25605" lon="-2.32687">
        <ele>26.39999961853</ele>
        <time>2022-04-03T09:53:25.000Z</time>
      </trkpt>
      <trkpt lat="47.25604" lon="-2.32694">
        <ele>26.799999237061</ele>
        <time>2022-04-03T09:53:26.000Z</time>
      </trkpt>
      <trkpt lat="47.25604" lon="-2.32701">
        <ele>27.39999961853</ele>
        <time>2022-04-03T09:53:27.000Z</time>
      </trkpt>
      <trkpt lat="47.25604" lon="-2.32708">
        <ele>27.799999237061</ele>
        <time>2022-04-03T09:53:28.000Z</time>
      </trkpt>
      <trkpt lat="47.25603" lon="-2.32715">
        <ele>28.200000762939</ele>
        <time>2022-04-03T09:53:29.000Z</time>
      </trkpt>
      <trkpt lat="47.25603" lon="-2.3273">
        <ele>28.200000762939</ele>
        <time>2022-04-03T09:53:31.000Z</time>
      </trkpt>
      <trkpt lat="47.256" lon="-2.32796">
        <ele>28.200000762939</ele>
        <time>2022-04-03T09:53:40.000Z</time>
      </trkpt>
      <trkpt lat="47.25592" lon="-2.32832">
        <ele>28.200000762939</ele>
        <time>2022-04-03T09:53:45.000Z</time>
      </trkpt>
      <trkpt lat="47.25593" lon="-2.32847">
        <ele>28.200000762939</ele>
        <time>2022-04-03T09:53:47.000Z</time>
      </trkpt>
      <trkpt lat="47.25599" lon="-2.32905">
        <ele>28.200000762939</ele>
        <time>2022-04-03T09:53:55.000Z</time>
      </trkpt>
      <trkpt lat="47.25603" lon="-2.32926">
        <ele>28.200000762939</ele>
        <time>2022-04-03T09:53:58.000Z</time>
      </trkpt>
      <trkpt lat="47.25608" lon="-2.32948">
        <ele>28.200000762939</ele>
        <time>2022-04-03T09:54:01.000Z</time>
      </trkpt>
      <trkpt lat="47.25616" lon="-2.32992">
        <ele>28.200000762939</ele>
        <time>2022-04-03T09:54:07.000Z</time>
      </trkpt>
      <trkpt lat="47.25619" lon="-2.33007">
        <ele>28.200000762939</ele>
        <time>2022-04-03T09:54:09.000Z</time>
      </trkpt>
      <trkpt lat="47.25622" lon="-2.33022">
        <ele>28.200000762939</ele>
        <time>2022-04-03T09:54:11.000Z</time>
      </trkpt>
      <trkpt lat="47.25619" lon="-2.3303">
        <ele>28.200000762939</ele>
        <time>2022-04-03T09:54:13.000Z</time>
      </trkpt>
      <trkpt lat="47.2561" lon="-2.33031">
        <ele>28.200000762939</ele>
        <time>2022-04-03T09:54:15.000Z</time>
      </trkpt>
      <trkpt lat="47.25605" lon="-2.33032">
        <ele>28.200000762939</ele>
        <time>2022-04-03T09:54:16.000Z</time>
      </trkpt>
      <trkpt lat="47.256" lon="-2.33033">
        <ele>27.799999237061</ele>
        <time>2022-04-03T09:54:17.000Z</time>
      </trkpt>
      <trkpt lat="47.25595" lon="-2.33034">
        <ele>27.39999961853</ele>
        <time>2022-04-03T09:54:18.000Z</time>
      </trkpt>
      <trkpt lat="47.2559" lon="-2.33035">
        <ele>27</ele>
        <time>2022-04-03T09:54:19.000Z</time>
      </trkpt>
      <trkpt lat="47.25584" lon="-2.33035">
        <ele>26.39999961853</ele>
        <time>2022-04-03T09:54:20.000Z</time>
      </trkpt>
      <trkpt lat="47.25579" lon="-2.33036">
        <ele>26</ele>
        <time>2022-04-03T09:54:21.000Z</time>
      </trkpt>
      <trkpt lat="47.25537" lon="-2.33045">
        <ele>26</ele>
        <time>2022-04-03T09:54:28.000Z</time>
      </trkpt>
      <trkpt lat="47.25519" lon="-2.33053">
        <ele>26</ele>
        <time>2022-04-03T09:54:31.000Z</time>
      </trkpt>
      <trkpt lat="47.25509" lon="-2.33063">
        <ele>25.60000038147</ele>
        <time>2022-04-03T09:54:33.000Z</time>
      </trkpt>
      <trkpt lat="47.25504" lon="-2.33069">
        <ele>25.200000762939</ele>
        <time>2022-04-03T09:54:34.000Z</time>
      </trkpt>
      <trkpt lat="47.255" lon="-2.33075">
        <ele>24.60000038147</ele>
        <time>2022-04-03T09:54:35.000Z</time>
      </trkpt>
      <trkpt lat="47.25497" lon="-2.33082">
        <ele>24.200000762939</ele>
        <time>2022-04-03T09:54:36.000Z</time>
      </trkpt>
      <trkpt lat="47.25493" lon="-2.33087">
        <ele>23.799999237061</ele>
        <time>2022-04-03T09:54:37.000Z</time>
      </trkpt>
      <trkpt lat="47.25488" lon="-2.3309">
        <ele>23.799999237061</ele>
        <time>2022-04-03T09:54:38.000Z</time>
      </trkpt>
      <trkpt lat="47.25479" lon="-2.33096">
        <ele>23.799999237061</ele>
        <time>2022-04-03T09:54:40.000Z</time>
      </trkpt>
      <trkpt lat="47.25463" lon="-2.33105">
        <ele>23.799999237061</ele>
        <time>2022-04-03T09:54:43.000Z</time>
      </trkpt>
      <trkpt lat="47.25431" lon="-2.33118">
        <ele>23.799999237061</ele>
        <time>2022-04-03T09:54:49.000Z</time>
      </trkpt>
      <trkpt lat="47.25398" lon="-2.33131">
        <ele>23.799999237061</ele>
        <time>2022-04-03T09:54:56.000Z</time>
      </trkpt>
      <trkpt lat="47.25382" lon="-2.33137">
        <ele>23.799999237061</ele>
        <time>2022-04-03T09:55:00.000Z</time>
      </trkpt>
      <trkpt lat="47.25377" lon="-2.33128">
        <ele>23.799999237061</ele>
        <time>2022-04-03T09:55:03.000Z</time>
      </trkpt>
      <trkpt lat="47.25372" lon="-2.33111">
        <ele>23.799999237061</ele>
        <time>2022-04-03T09:55:10.000Z</time>
      </trkpt>
      <trkpt lat="47.25372" lon="-2.33103">
        <ele>23.799999237061</ele>
        <time>2022-04-03T09:55:15.000Z</time>
      </trkpt>
      <trkpt lat="47.25367" lon="-2.33094">
        <ele>23.799999237061</ele>
        <time>2022-04-03T10:10:06.000Z</time>
      </trkpt>
      <trkpt lat="47.25363" lon="-2.33086">
        <ele>23.799999237061</ele>
        <time>2022-04-03T10:10:09.000Z</time>
      </trkpt>
      <trkpt lat="47.25355" lon="-2.33068">
        <ele>23.799999237061</ele>
        <time>2022-04-03T10:10:14.000Z</time>
      </trkpt>
      <trkpt lat="47.25346" lon="-2.33042">
        <ele>23.799999237061</ele>
        <time>2022-04-03T10:10:20.000Z</time>
      </trkpt>
      <trkpt lat="47.25335" lon="-2.33013">
        <ele>23.799999237061</ele>
        <time>2022-04-03T10:10:27.000Z</time>
      </trkpt>
      <trkpt lat="47.25321" lon="-2.32981">
        <ele>23.799999237061</ele>
        <time>2022-04-03T10:10:34.000Z</time>
      </trkpt>
      <trkpt lat="47.25306" lon="-2.32941">
        <ele>23.799999237061</ele>
        <time>2022-04-03T10:10:42.000Z</time>
      </trkpt>
      <trkpt lat="47.25308" lon="-2.32924">
        <ele>24.200000762939</ele>
        <time>2022-04-03T10:10:45.000Z</time>
      </trkpt>
      <trkpt lat="47.2531" lon="-2.3292">
        <ele>24.60000038147</ele>
        <time>2022-04-03T10:10:46.000Z</time>
      </trkpt>
      <trkpt lat="47.25314" lon="-2.32916">
        <ele>25</ele>
        <time>2022-04-03T10:10:47.000Z</time>
      </trkpt>
      <trkpt lat="47.25318" lon="-2.32912">
        <ele>25.60000038147</ele>
        <time>2022-04-03T10:10:48.000Z</time>
      </trkpt>
      <trkpt lat="47.25321" lon="-2.32909">
        <ele>26</ele>
        <time>2022-04-03T10:10:49.000Z</time>
      </trkpt>
      <trkpt lat="47.25325" lon="-2.32905">
        <ele>26</ele>
        <time>2022-04-03T10:10:50.000Z</time>
      </trkpt>
      <trkpt lat="47.25355" lon="-2.32874">
        <ele>26</ele>
        <time>2022-04-03T10:10:58.000Z</time>
      </trkpt>
      <trkpt lat="47.25381" lon="-2.32847">
        <ele>26</ele>
        <time>2022-04-03T10:11:05.000Z</time>
      </trkpt>
      <trkpt lat="47.25402" lon="-2.32821">
        <ele>26</ele>
        <time>2022-04-03T10:11:11.000Z</time>
      </trkpt>
      <trkpt lat="47.25423" lon="-2.3279">
        <ele>26</ele>
        <time>2022-04-03T10:11:18.000Z</time>
      </trkpt>
      <trkpt lat="47.25428" lon="-2.32772">
        <ele>26</ele>
        <time>2022-04-03T10:11:22.000Z</time>
      </trkpt>
      <trkpt lat="47.25435" lon="-2.32764">
        <ele>26</ele>
        <time>2022-04-03T10:11:24.000Z</time>
      </trkpt>
      <trkpt lat="47.25441" lon="-2.32755">
        <ele>26.39999961853</ele>
        <time>2022-04-03T10:11:26.000Z</time>
      </trkpt>
      <trkpt lat="47.25444" lon="-2.3275">
        <ele>26.799999237061</ele>
        <time>2022-04-03T10:11:27.000Z</time>
      </trkpt>
      <trkpt lat="47.25448" lon="-2.32746">
        <ele>27.200000762939</ele>
        <time>2022-04-03T10:11:28.000Z</time>
      </trkpt>
      <trkpt lat="47.25451" lon="-2.32741">
        <ele>27.60000038147</ele>
        <time>2022-04-03T10:11:29.000Z</time>
      </trkpt>
      <trkpt lat="47.25455" lon="-2.32737">
        <ele>28</ele>
        <time>2022-04-03T10:11:30.000Z</time>
      </trkpt>
      <trkpt lat="47.25468" lon="-2.32719">
        <ele>28</ele>
        <time>2022-04-03T10:11:34.000Z</time>
      </trkpt>
      <trkpt lat="47.25483" lon="-2.32697">
        <ele>28</ele>
        <time>2022-04-03T10:11:39.000Z</time>
      </trkpt>
      <trkpt lat="47.25487" lon="-2.32685">
        <ele>28</ele>
        <time>2022-04-03T10:11:41.000Z</time>
      </trkpt>
      <trkpt lat="47.25488" lon="-2.32666">
        <ele>28</ele>
        <time>2022-04-03T10:11:44.000Z</time>
      </trkpt>
      <trkpt lat="47.25488" lon="-2.3266">
        <ele>28</ele>
        <time>2022-04-03T10:11:45.000Z</time>
      </trkpt>
      <trkpt lat="47.25486" lon="-2.32653">
        <ele>28</ele>
        <time>2022-04-03T10:11:46.000Z</time>
      </trkpt>
      <trkpt lat="47.25478" lon="-2.32609">
        <ele>28</ele>
        <time>2022-04-03T10:11:53.000Z</time>
      </trkpt>
      <trkpt lat="47.25475" lon="-2.32585">
        <ele>28</ele>
        <time>2022-04-03T10:11:57.000Z</time>
      </trkpt>
      <trkpt lat="47.25475" lon="-2.32569">
        <ele>28.39999961853</ele>
        <time>2022-04-03T10:12:00.000Z</time>
      </trkpt>
      <trkpt lat="47.25477" lon="-2.32564">
        <ele>28.799999237061</ele>
        <time>2022-04-03T10:12:01.000Z</time>
      </trkpt>
      <trkpt lat="47.2548" lon="-2.32559">
        <ele>29.200000762939</ele>
        <time>2022-04-03T10:12:02.000Z</time>
      </trkpt>
      <trkpt lat="47.25483" lon="-2.32555">
        <ele>29.60000038147</ele>
        <time>2022-04-03T10:12:03.000Z</time>
      </trkpt>
      <trkpt lat="47.25487" lon="-2.32551">
        <ele>30</ele>
        <time>2022-04-03T10:12:04.000Z</time>
      </trkpt>
      <trkpt lat="47.25492" lon="-2.32548">
        <ele>30</ele>
        <time>2022-04-03T10:12:05.000Z</time>
      </trkpt>
      <trkpt lat="47.25522" lon="-2.32519">
        <ele>30</ele>
        <time>2022-04-03T10:12:12.000Z</time>
      </trkpt>
      <trkpt lat="47.25531" lon="-2.32511">
        <ele>29.60000038147</ele>
        <time>2022-04-03T10:12:14.000Z</time>
      </trkpt>
      <trkpt lat="47.25535" lon="-2.32506">
        <ele>29.200000762939</ele>
        <time>2022-04-03T10:12:15.000Z</time>
      </trkpt>
      <trkpt lat="47.2554" lon="-2.32501">
        <ele>28.799999237061</ele>
        <time>2022-04-03T10:12:16.000Z</time>
      </trkpt>
      <trkpt lat="47.25546" lon="-2.32497">
        <ele>28.39999961853</ele>
        <time>2022-04-03T10:12:17.000Z</time>
      </trkpt>
      <trkpt lat="47.25551" lon="-2.32492">
        <ele>28</ele>
        <time>2022-04-03T10:12:18.000Z</time>
      </trkpt>
      <trkpt lat="47.25566" lon="-2.32478">
        <ele>28</ele>
        <time>2022-04-03T10:12:21.000Z</time>
      </trkpt>
      <trkpt lat="47.25576" lon="-2.32468">
        <ele>27.60000038147</ele>
        <time>2022-04-03T10:12:23.000Z</time>
      </trkpt>
      <trkpt lat="47.25582" lon="-2.32463">
        <ele>27.200000762939</ele>
        <time>2022-04-03T10:12:24.000Z</time>
      </trkpt>
      <trkpt lat="47.25587" lon="-2.32458">
        <ele>26.60000038147</ele>
        <time>2022-04-03T10:12:25.000Z</time>
      </trkpt>
      <trkpt lat="47.25593" lon="-2.32452">
        <ele>26.200000762939</ele>
        <time>2022-04-03T10:12:26.000Z</time>
      </trkpt>
      <trkpt lat="47.25598" lon="-2.32446">
        <ele>25.799999237061</ele>
        <time>2022-04-03T10:12:27.000Z</time>
      </trkpt>
      <trkpt lat="47.2562" lon="-2.32422">
        <ele>25.39999961853</ele>
        <time>2022-04-03T10:12:31.000Z</time>
      </trkpt>
      <trkpt lat="47.25625" lon="-2.32416">
        <ele>25</ele>
        <time>2022-04-03T10:12:32.000Z</time>
      </trkpt>
      <trkpt lat="47.25631" lon="-2.3241">
        <ele>24.60000038147</ele>
        <time>2022-04-03T10:12:33.000Z</time>
      </trkpt>
      <trkpt lat="47.25636" lon="-2.32405">
        <ele>23.60000038147</ele>
        <time>2022-04-03T10:12:34.000Z</time>
      </trkpt>
      <trkpt lat="47.25642" lon="-2.32402">
        <ele>23.60000038147</ele>
        <time>2022-04-03T10:12:35.000Z</time>
      </trkpt>
      <trkpt lat="47.25658" lon="-2.32403">
        <ele>23.60000038147</ele>
        <time>2022-04-03T10:12:38.000Z</time>
      </trkpt>
      <trkpt lat="47.25678" lon="-2.32418">
        <ele>23.60000038147</ele>
        <time>2022-04-03T10:12:42.000Z</time>
      </trkpt>
      <trkpt lat="47.25689" lon="-2.32422">
        <ele>23.200000762939</ele>
        <time>2022-04-03T10:12:44.000Z</time>
      </trkpt>
      <trkpt lat="47.25696" lon="-2.32421">
        <ele>22.799999237061</ele>
        <time>2022-04-03T10:12:45.000Z</time>
      </trkpt>
      <trkpt lat="47.25702" lon="-2.32422">
        <ele>22.200000762939</ele>
        <time>2022-04-03T10:12:46.000Z</time>
      </trkpt>
      <trkpt lat="47.25708" lon="-2.32423">
        <ele>21.799999237061</ele>
        <time>2022-04-03T10:12:47.000Z</time>
      </trkpt>
      <trkpt lat="47.25714" lon="-2.32423">
        <ele>21.39999961853</ele>
        <time>2022-04-03T10:12:48.000Z</time>
      </trkpt>
      <trkpt lat="47.25732" lon="-2.32423">
        <ele>21.39999961853</ele>
        <time>2022-04-03T10:12:51.000Z</time>
      </trkpt>
      <trkpt lat="47.2576" lon="-2.32421">
        <ele>21.39999961853</ele>
        <time>2022-04-03T10:12:56.000Z</time>
      </trkpt>
      <trkpt lat="47.25769" lon="-2.32417">
        <ele>21.39999961853</ele>
        <time>2022-04-03T10:12:58.000Z</time>
      </trkpt>
      <trkpt lat="47.25784" lon="-2.32417">
        <ele>21.39999961853</ele>
        <time>2022-04-03T10:13:02.000Z</time>
      </trkpt>
      <trkpt lat="47.25793" lon="-2.32433">
        <ele>21.39999961853</ele>
        <time>2022-04-03T10:13:05.000Z</time>
      </trkpt>
      <trkpt lat="47.25808" lon="-2.32453">
        <ele>21.39999961853</ele>
        <time>2022-04-03T10:13:09.000Z</time>
      </trkpt>
      <trkpt lat="47.25818" lon="-2.3246">
        <ele>21.39999961853</ele>
        <time>2022-04-03T10:13:11.000Z</time>
      </trkpt>
      <trkpt lat="47.2584" lon="-2.32471">
        <ele>21.39999961853</ele>
        <time>2022-04-03T10:13:15.000Z</time>
      </trkpt>
      <trkpt lat="47.25866" lon="-2.32475">
        <ele>21.39999961853</ele>
        <time>2022-04-03T10:13:20.000Z</time>
      </trkpt>
      <trkpt lat="47.25891" lon="-2.32467">
        <ele>21.39999961853</ele>
        <time>2022-04-03T10:13:25.000Z</time>
      </trkpt>
      <trkpt lat="47.25895" lon="-2.32464">
        <ele>21.39999961853</ele>
        <time>2022-04-03T10:13:26.000Z</time>
      </trkpt>
      <trkpt lat="47.25908" lon="-2.32449">
        <ele>21.39999961853</ele>
        <time>2022-04-03T10:13:29.000Z</time>
      </trkpt>
      <trkpt lat="47.25912" lon="-2.32444">
        <ele>21.39999961853</ele>
        <time>2022-04-03T10:13:30.000Z</time>
      </trkpt>
      <trkpt lat="47.25941" lon="-2.32404">
        <ele>21.39999961853</ele>
        <time>2022-04-03T10:13:38.000Z</time>
      </trkpt>
      <trkpt lat="47.25945" lon="-2.32399">
        <ele>21.39999961853</ele>
        <time>2022-04-03T10:13:39.000Z</time>
      </trkpt>
      <trkpt lat="47.25969" lon="-2.32369">
        <ele>21.39999961853</ele>
        <time>2022-04-03T10:13:45.000Z</time>
      </trkpt>
      <trkpt lat="47.26005" lon="-2.32324">
        <ele>21.39999961853</ele>
        <time>2022-04-03T10:13:54.000Z</time>
      </trkpt>
      <trkpt lat="47.26028" lon="-2.32296">
        <ele>21.39999961853</ele>
        <time>2022-04-03T10:14:00.000Z</time>
      </trkpt>
      <trkpt lat="47.26058" lon="-2.32263">
        <ele>21.39999961853</ele>
        <time>2022-04-03T10:14:08.000Z</time>
      </trkpt>
      <trkpt lat="47.26062" lon="-2.32258">
        <ele>21</ele>
        <time>2022-04-03T10:14:09.000Z</time>
      </trkpt>
      <trkpt lat="47.26066" lon="-2.32253">
        <ele>20.60000038147</ele>
        <time>2022-04-03T10:14:10.000Z</time>
      </trkpt>
      <trkpt lat="47.2607" lon="-2.32249">
        <ele>20.200000762939</ele>
        <time>2022-04-03T10:14:11.000Z</time>
      </trkpt>
      <trkpt lat="47.26073" lon="-2.32245">
        <ele>19.799999237061</ele>
        <time>2022-04-03T10:14:12.000Z</time>
      </trkpt>
      <trkpt lat="47.26077" lon="-2.3224">
        <ele>19.39999961853</ele>
        <time>2022-04-03T10:14:13.000Z</time>
      </trkpt>
      <trkpt lat="47.2608" lon="-2.32235">
        <ele>19.39999961853</ele>
        <time>2022-04-03T10:14:14.000Z</time>
      </trkpt>
      <trkpt lat="47.261" lon="-2.32202">
        <ele>19.39999961853</ele>
        <time>2022-04-03T10:14:20.000Z</time>
      </trkpt>
      <trkpt lat="47.26115" lon="-2.32164">
        <ele>19.39999961853</ele>
        <time>2022-04-03T10:14:26.000Z</time>
      </trkpt>
      <trkpt lat="47.26129" lon="-2.32124">
        <ele>19.39999961853</ele>
        <time>2022-04-03T10:14:32.000Z</time>
      </trkpt>
      <trkpt lat="47.26145" lon="-2.32076">
        <ele>19.39999961853</ele>
        <time>2022-04-03T10:14:39.000Z</time>
      </trkpt>
      <trkpt lat="47.26151" lon="-2.32057">
        <ele>19.39999961853</ele>
        <time>2022-04-03T10:14:42.000Z</time>
      </trkpt>
      <trkpt lat="47.26157" lon="-2.32038">
        <ele>19.39999961853</ele>
        <time>2022-04-03T10:14:45.000Z</time>
      </trkpt>
      <trkpt lat="47.26172" lon="-2.32022">
        <ele>19.39999961853</ele>
        <time>2022-04-03T10:14:50.000Z</time>
      </trkpt>
      <trkpt lat="47.26176" lon="-2.32022">
        <ele>19.39999961853</ele>
        <time>2022-04-03T10:14:51.000Z</time>
      </trkpt>
      <trkpt lat="47.26187" lon="-2.32026">
        <ele>19.39999961853</ele>
        <time>2022-04-03T10:14:54.000Z</time>
      </trkpt>
      <trkpt lat="47.26191" lon="-2.32028">
        <ele>19.39999961853</ele>
        <time>2022-04-03T10:14:57.000Z</time>
      </trkpt>
      <trkpt lat="47.26196" lon="-2.32018">
        <ele>19.39999961853</ele>
        <time>2022-04-03T10:15:01.000Z</time>
      </trkpt>
      <trkpt lat="47.26202" lon="-2.32009">
        <ele>19.39999961853</ele>
        <time>2022-04-03T10:15:05.000Z</time>
      </trkpt>
      <trkpt lat="47.26204" lon="-2.32008">
        <ele>19.39999961853</ele>
        <time>2022-04-03T10:15:06.000Z</time>
      </trkpt>
      <trkpt lat="47.26213" lon="-2.31998">
        <ele>19.39999961853</ele>
        <time>2022-04-03T10:15:10.000Z</time>
      </trkpt>
      <trkpt lat="47.26231" lon="-2.31977">
        <ele>19.39999961853</ele>
        <time>2022-04-03T10:15:16.000Z</time>
      </trkpt>
      <trkpt lat="47.26245" lon="-2.31959">
        <ele>19.39999961853</ele>
        <time>2022-04-03T10:15:22.000Z</time>
      </trkpt>
      <trkpt lat="47.26254" lon="-2.31938">
        <ele>19.39999961853</ele>
        <time>2022-04-03T10:15:27.000Z</time>
      </trkpt>
      <trkpt lat="47.26268" lon="-2.31915">
        <ele>19.39999961853</ele>
        <time>2022-04-03T10:15:33.000Z</time>
      </trkpt>
      <trkpt lat="47.2629" lon="-2.31897">
        <ele>19.39999961853</ele>
        <time>2022-04-03T10:15:38.000Z</time>
      </trkpt>
      <trkpt lat="47.26294" lon="-2.31886">
        <ele>19.39999961853</ele>
        <time>2022-04-03T10:15:39.000Z</time>
      </trkpt>
      <trkpt lat="47.26295" lon="-2.31874">
        <ele>19.39999961853</ele>
        <time>2022-04-03T10:15:41.000Z</time>
      </trkpt>
      <trkpt lat="47.26299" lon="-2.31841">
        <ele>19.39999961853</ele>
        <time>2022-04-03T10:15:46.000Z</time>
      </trkpt>
      <trkpt lat="47.263" lon="-2.31835">
        <ele>19.39999961853</ele>
        <time>2022-04-03T10:15:47.000Z</time>
      </trkpt>
      <trkpt lat="47.26303" lon="-2.31807">
        <ele>19.39999961853</ele>
        <time>2022-04-03T10:15:52.000Z</time>
      </trkpt>
      <trkpt lat="47.26305" lon="-2.31772">
        <ele>19.39999961853</ele>
        <time>2022-04-03T10:15:58.000Z</time>
      </trkpt>
      <trkpt lat="47.26302" lon="-2.31727">
        <ele>19.39999961853</ele>
        <time>2022-04-03T10:16:05.000Z</time>
      </trkpt>
      <trkpt lat="47.26306" lon="-2.31715">
        <ele>19.39999961853</ele>
        <time>2022-04-03T10:16:08.000Z</time>
      </trkpt>
      <trkpt lat="47.2631" lon="-2.31712">
        <ele>19.39999961853</ele>
        <time>2022-04-03T10:16:09.000Z</time>
      </trkpt>
      <trkpt lat="47.26331" lon="-2.31699">
        <ele>19.39999961853</ele>
        <time>2022-04-03T10:16:15.000Z</time>
      </trkpt>
      <trkpt lat="47.26332" lon="-2.31695">
        <ele>19.39999961853</ele>
        <time>2022-04-03T10:16:16.000Z</time>
      </trkpt>
      <trkpt lat="47.26334" lon="-2.31691">
        <ele>20.200000762939</ele>
        <time>2022-04-03T10:16:17.000Z</time>
      </trkpt>
      <trkpt lat="47.26336" lon="-2.31689">
        <ele>20.60000038147</ele>
        <time>2022-04-03T10:16:18.000Z</time>
      </trkpt>
      <trkpt lat="47.26338" lon="-2.31688">
        <ele>21</ele>
        <time>2022-04-03T10:16:19.000Z</time>
      </trkpt>
      <trkpt lat="47.2634" lon="-2.31687">
        <ele>21.39999961853</ele>
        <time>2022-04-03T10:16:20.000Z</time>
      </trkpt>
      <trkpt lat="47.26355" lon="-2.31679">
        <ele>21.39999961853</ele>
        <time>2022-04-03T10:16:25.000Z</time>
      </trkpt>
      <trkpt lat="47.26371" lon="-2.31672">
        <ele>21.799999237061</ele>
        <time>2022-04-03T10:16:30.000Z</time>
      </trkpt>
      <trkpt lat="47.26375" lon="-2.3167">
        <ele>22.200000762939</ele>
        <time>2022-04-03T10:16:31.000Z</time>
      </trkpt>
      <trkpt lat="47.26378" lon="-2.31668">
        <ele>22.60000038147</ele>
        <time>2022-04-03T10:16:32.000Z</time>
      </trkpt>
      <trkpt lat="47.26381" lon="-2.31665">
        <ele>23</ele>
        <time>2022-04-03T10:16:33.000Z</time>
      </trkpt>
      <trkpt lat="47.26384" lon="-2.31663">
        <ele>23.39999961853</ele>
        <time>2022-04-03T10:16:34.000Z</time>
      </trkpt>
      <trkpt lat="47.26401" lon="-2.31655">
        <ele>23.39999961853</ele>
        <time>2022-04-03T10:16:40.000Z</time>
      </trkpt>
      <trkpt lat="47.26407" lon="-2.3165">
        <ele>23.39999961853</ele>
        <time>2022-04-03T10:16:42.000Z</time>
      </trkpt>
      <trkpt lat="47.2641" lon="-2.31642">
        <ele>23.39999961853</ele>
        <time>2022-04-03T10:16:44.000Z</time>
      </trkpt>
      <trkpt lat="47.2641" lon="-2.31613">
        <ele>23.39999961853</ele>
        <time>2022-04-03T10:16:50.000Z</time>
      </trkpt>
      <trkpt lat="47.26412" lon="-2.3157">
        <ele>23.39999961853</ele>
        <time>2022-04-03T10:16:59.000Z</time>
      </trkpt>
      <trkpt lat="47.26413" lon="-2.31552">
        <ele>23.39999961853</ele>
        <time>2022-04-03T10:17:04.000Z</time>
      </trkpt>
      <trkpt lat="47.26414" lon="-2.31552">
        <ele>23.799999237061</ele>
        <time>2022-04-03T10:17:05.000Z</time>
      </trkpt>
      <trkpt lat="47.26416" lon="-2.31552">
        <ele>24.200000762939</ele>
        <time>2022-04-03T10:17:06.000Z</time>
      </trkpt>
      <trkpt lat="47.26417" lon="-2.31553">
        <ele>24.60000038147</ele>
        <time>2022-04-03T10:17:07.000Z</time>
      </trkpt>
      <trkpt lat="47.26417" lon="-2.31553">
        <ele>25</ele>
        <time>2022-04-03T10:17:08.000Z</time>
      </trkpt>
    </trkseg>
  </trk>
</gpx>